<?xml version="1.0" encoding="UTF-8" standalone="no" ?>
<gpx xmlns="http://www.topografix.com/GPX/1/1" xmlns:xsi="http://www.w3.org/2001/XMLSchema-instance" xsi:schemaLocation="http://www.topografix.com/GPX/1/1 http://www.topografix.com/GPX/1/1/gpx.xsd" version="1.1" creator="VisuGPX - https://www.visugpx.com">
  <metadata>
    <name>Etape 2_Chalets d'Iraty_Argelès Gazost_143 kms_3403 D+</name>
  </metadata>
  <trk>
    <name><![CDATA[Etape 2_Chalets d'Iraty_Argelès Gazost_143 kms_3403 D+]]></name>
    <extensions>
      <line xmlns="http://www.topografix.com/GPX/gpx_style/0/2">
        <color>0000FF</color>
        <width>4</width>
      </line>
    </extensions>
    <trkseg>
      <trkpt lat="43.03803" lon="-1.02657">
        <ele>1330</ele>
        <time>2021-08-20T16:03:27Z</time>
      </trkpt>
      <trkpt lat="43.03776" lon="-1.0264">
        <ele>1329</ele>
        <time>2021-08-20T16:03:32Z</time>
      </trkpt>
      <trkpt lat="43.03764" lon="-1.0263">
        <ele>1328</ele>
        <time>2021-08-20T16:03:35Z</time>
      </trkpt>
      <trkpt lat="43.03695" lon="-1.02549">
        <ele>1316</ele>
        <time>2021-08-20T16:03:51Z</time>
      </trkpt>
      <trkpt lat="43.03684" lon="-1.02541">
        <ele>1315</ele>
        <time>2021-08-20T16:03:53Z</time>
      </trkpt>
      <trkpt lat="43.03658" lon="-1.02527">
        <ele>1315</ele>
        <time>2021-08-20T16:03:58Z</time>
      </trkpt>
      <trkpt lat="43.03643" lon="-1.0251">
        <ele>1312</ele>
        <time>2021-08-20T16:04:02Z</time>
      </trkpt>
      <trkpt lat="43.03633" lon="-1.02492">
        <ele>1307</ele>
        <time>2021-08-20T16:04:05Z</time>
      </trkpt>
      <trkpt lat="43.03623" lon="-1.0248">
        <ele>1305</ele>
        <time>2021-08-20T16:04:07Z</time>
      </trkpt>
      <trkpt lat="43.03611" lon="-1.02467">
        <ele>1304</ele>
        <time>2021-08-20T16:04:10Z</time>
      </trkpt>
      <trkpt lat="43.03575" lon="-1.02442">
        <ele>1302</ele>
        <time>2021-08-20T16:04:17Z</time>
      </trkpt>
      <trkpt lat="43.03567" lon="-1.02434">
        <ele>1301</ele>
        <time>2021-08-20T16:04:19Z</time>
      </trkpt>
      <trkpt lat="43.03561" lon="-1.02422">
        <ele>1298</ele>
        <time>2021-08-20T16:04:20Z</time>
      </trkpt>
      <trkpt lat="43.03556" lon="-1.02409">
        <ele>1296</ele>
        <time>2021-08-20T16:04:22Z</time>
      </trkpt>
      <trkpt lat="43.03551" lon="-1.02382">
        <ele>1291</ele>
        <time>2021-08-20T16:04:26Z</time>
      </trkpt>
      <trkpt lat="43.03545" lon="-1.02322">
        <ele>1280</ele>
        <time>2021-08-20T16:04:34Z</time>
      </trkpt>
      <trkpt lat="43.03541" lon="-1.02309">
        <ele>1279</ele>
        <time>2021-08-20T16:04:36Z</time>
      </trkpt>
      <trkpt lat="43.03534" lon="-1.02297">
        <ele>1278</ele>
        <time>2021-08-20T16:04:38Z</time>
      </trkpt>
      <trkpt lat="43.03526" lon="-1.02293">
        <ele>1277</ele>
        <time>2021-08-20T16:04:39Z</time>
      </trkpt>
      <trkpt lat="43.03519" lon="-1.02294">
        <ele>1277</ele>
        <time>2021-08-20T16:04:40Z</time>
      </trkpt>
      <trkpt lat="43.03509" lon="-1.02305">
        <ele>1279</ele>
        <time>2021-08-20T16:04:43Z</time>
      </trkpt>
      <trkpt lat="43.03491" lon="-1.0233">
        <ele>1281</ele>
        <time>2021-08-20T16:04:47Z</time>
      </trkpt>
      <trkpt lat="43.03464" lon="-1.02359">
        <ele>1281</ele>
        <time>2021-08-20T16:04:53Z</time>
      </trkpt>
      <trkpt lat="43.03455" lon="-1.02364">
        <ele>1281</ele>
        <time>2021-08-20T16:04:55Z</time>
      </trkpt>
      <trkpt lat="43.03445" lon="-1.02366">
        <ele>1279</ele>
        <time>2021-08-20T16:04:57Z</time>
      </trkpt>
      <trkpt lat="43.03432" lon="-1.02363">
        <ele>1274</ele>
        <time>2021-08-20T16:04:59Z</time>
      </trkpt>
      <trkpt lat="43.03417" lon="-1.02364">
        <ele>1270</ele>
        <time>2021-08-20T16:05:02Z</time>
      </trkpt>
      <trkpt lat="43.03372" lon="-1.02383">
        <ele>1265</ele>
        <time>2021-08-20T16:05:10Z</time>
      </trkpt>
      <trkpt lat="43.03353" lon="-1.02396">
        <ele>1264</ele>
        <time>2021-08-20T16:05:14Z</time>
      </trkpt>
      <trkpt lat="43.03335" lon="-1.02415">
        <ele>1265</ele>
        <time>2021-08-20T16:05:18Z</time>
      </trkpt>
      <trkpt lat="43.03315" lon="-1.02453">
        <ele>1263</ele>
        <time>2021-08-20T16:05:24Z</time>
      </trkpt>
      <trkpt lat="43.0331" lon="-1.02454">
        <ele>1261</ele>
        <time>2021-08-20T16:05:25Z</time>
      </trkpt>
      <trkpt lat="43.03304" lon="-1.0245">
        <ele>1259</ele>
        <time>2021-08-20T16:05:26Z</time>
      </trkpt>
      <trkpt lat="43.033" lon="-1.02442">
        <ele>1257</ele>
        <time>2021-08-20T16:05:28Z</time>
      </trkpt>
      <trkpt lat="43.03299" lon="-1.02431">
        <ele>1255</ele>
        <time>2021-08-20T16:05:29Z</time>
      </trkpt>
      <trkpt lat="43.03306" lon="-1.02415">
        <ele>1256</ele>
        <time>2021-08-20T16:05:32Z</time>
      </trkpt>
      <trkpt lat="43.03329" lon="-1.02385">
        <ele>1254</ele>
        <time>2021-08-20T16:05:37Z</time>
      </trkpt>
      <trkpt lat="43.03395" lon="-1.02324">
        <ele>1251</ele>
        <time>2021-08-20T16:05:51Z</time>
      </trkpt>
      <trkpt lat="43.03409" lon="-1.02314">
        <ele>1252</ele>
        <time>2021-08-20T16:05:54Z</time>
      </trkpt>
      <trkpt lat="43.03434" lon="-1.02303">
        <ele>1257</ele>
        <time>2021-08-20T16:05:59Z</time>
      </trkpt>
      <trkpt lat="43.03442" lon="-1.02288">
        <ele>1256</ele>
        <time>2021-08-20T16:06:01Z</time>
      </trkpt>
      <trkpt lat="43.03444" lon="-1.02276">
        <ele>1254</ele>
        <time>2021-08-20T16:06:03Z</time>
      </trkpt>
      <trkpt lat="43.03444" lon="-1.02264">
        <ele>1252</ele>
        <time>2021-08-20T16:06:04Z</time>
      </trkpt>
      <trkpt lat="43.03438" lon="-1.02233">
        <ele>1247</ele>
        <time>2021-08-20T16:06:09Z</time>
      </trkpt>
      <trkpt lat="43.03427" lon="-1.02206">
        <ele>1243</ele>
        <time>2021-08-20T16:06:13Z</time>
      </trkpt>
      <trkpt lat="43.0341" lon="-1.02176">
        <ele>1237</ele>
        <time>2021-08-20T16:06:18Z</time>
      </trkpt>
      <trkpt lat="43.03389" lon="-1.02145">
        <ele>1230</ele>
        <time>2021-08-20T16:06:23Z</time>
      </trkpt>
      <trkpt lat="43.03371" lon="-1.02115">
        <ele>1225</ele>
        <time>2021-08-20T16:06:28Z</time>
      </trkpt>
      <trkpt lat="43.03368" lon="-1.02104">
        <ele>1224</ele>
        <time>2021-08-20T16:06:30Z</time>
      </trkpt>
      <trkpt lat="43.03368" lon="-1.02085">
        <ele>1225</ele>
        <time>2021-08-20T16:06:32Z</time>
      </trkpt>
      <trkpt lat="43.03371" lon="-1.02072">
        <ele>1223</ele>
        <time>2021-08-20T16:06:34Z</time>
      </trkpt>
      <trkpt lat="43.03378" lon="-1.0206">
        <ele>1223</ele>
        <time>2021-08-20T16:06:36Z</time>
      </trkpt>
      <trkpt lat="43.03418" lon="-1.02036">
        <ele>1227</ele>
        <time>2021-08-20T16:06:44Z</time>
      </trkpt>
      <trkpt lat="43.03431" lon="-1.02019">
        <ele>1229</ele>
        <time>2021-08-20T16:06:47Z</time>
      </trkpt>
      <trkpt lat="43.03439" lon="-1.01998">
        <ele>1227</ele>
        <time>2021-08-20T16:06:50Z</time>
      </trkpt>
      <trkpt lat="43.03444" lon="-1.01972">
        <ele>1223</ele>
        <time>2021-08-20T16:06:53Z</time>
      </trkpt>
      <trkpt lat="43.03449" lon="-1.01922">
        <ele>1214</ele>
        <time>2021-08-20T16:07:00Z</time>
      </trkpt>
      <trkpt lat="43.03456" lon="-1.01888">
        <ele>1208</ele>
        <time>2021-08-20T16:07:05Z</time>
      </trkpt>
      <trkpt lat="43.03472" lon="-1.01851">
        <ele>1205</ele>
        <time>2021-08-20T16:07:10Z</time>
      </trkpt>
      <trkpt lat="43.03508" lon="-1.01778">
        <ele>1205</ele>
        <time>2021-08-20T16:07:22Z</time>
      </trkpt>
      <trkpt lat="43.03512" lon="-1.01767">
        <ele>1205</ele>
        <time>2021-08-20T16:07:23Z</time>
      </trkpt>
      <trkpt lat="43.03513" lon="-1.01754">
        <ele>1202</ele>
        <time>2021-08-20T16:07:25Z</time>
      </trkpt>
      <trkpt lat="43.03513" lon="-1.01741">
        <ele>1201</ele>
        <time>2021-08-20T16:07:27Z</time>
      </trkpt>
      <trkpt lat="43.03499" lon="-1.01681">
        <ele>1189</ele>
        <time>2021-08-20T16:07:35Z</time>
      </trkpt>
      <trkpt lat="43.03489" lon="-1.0162">
        <ele>1182</ele>
        <time>2021-08-20T16:07:43Z</time>
      </trkpt>
      <trkpt lat="43.03476" lon="-1.01565">
        <ele>1174</ele>
        <time>2021-08-20T16:07:50Z</time>
      </trkpt>
      <trkpt lat="43.03469" lon="-1.01504">
        <ele>1170</ele>
        <time>2021-08-20T16:07:58Z</time>
      </trkpt>
      <trkpt lat="43.03446" lon="-1.014">
        <ele>1157</ele>
        <time>2021-08-20T16:08:13Z</time>
      </trkpt>
      <trkpt lat="43.03426" lon="-1.0132">
        <ele>1150</ele>
        <time>2021-08-20T16:08:24Z</time>
      </trkpt>
      <trkpt lat="43.03417" lon="-1.01295">
        <ele>1149</ele>
        <time>2021-08-20T16:08:27Z</time>
      </trkpt>
      <trkpt lat="43.03363" lon="-1.01186">
        <ele>1129</ele>
        <time>2021-08-20T16:08:44Z</time>
      </trkpt>
      <trkpt lat="43.03357" lon="-1.01164">
        <ele>1128</ele>
        <time>2021-08-20T16:08:47Z</time>
      </trkpt>
      <trkpt lat="43.03349" lon="-1.01124">
        <ele>1123</ele>
        <time>2021-08-20T16:08:53Z</time>
      </trkpt>
      <trkpt lat="43.0335" lon="-1.011">
        <ele>1124</ele>
        <time>2021-08-20T16:08:56Z</time>
      </trkpt>
      <trkpt lat="43.03347" lon="-1.01084">
        <ele>1122</ele>
        <time>2021-08-20T16:08:58Z</time>
      </trkpt>
      <trkpt lat="43.03344" lon="-1.01071">
        <ele>1120</ele>
        <time>2021-08-20T16:09:00Z</time>
      </trkpt>
      <trkpt lat="43.03331" lon="-1.01032">
        <ele>1112</ele>
        <time>2021-08-20T16:09:05Z</time>
      </trkpt>
      <trkpt lat="43.03328" lon="-1.0101">
        <ele>1109</ele>
        <time>2021-08-20T16:09:08Z</time>
      </trkpt>
      <trkpt lat="43.03334" lon="-1.00984">
        <ele>1110</ele>
        <time>2021-08-20T16:09:12Z</time>
      </trkpt>
      <trkpt lat="43.03354" lon="-1.0091">
        <ele>1102</ele>
        <time>2021-08-20T16:09:22Z</time>
      </trkpt>
      <trkpt lat="43.03356" lon="-1.00893">
        <ele>1099</ele>
        <time>2021-08-20T16:09:24Z</time>
      </trkpt>
      <trkpt lat="43.03356" lon="-1.00875">
        <ele>1095</ele>
        <time>2021-08-20T16:09:27Z</time>
      </trkpt>
      <trkpt lat="43.03351" lon="-1.00848">
        <ele>1090</ele>
        <time>2021-08-20T16:09:30Z</time>
      </trkpt>
      <trkpt lat="43.03343" lon="-1.00833">
        <ele>1088</ele>
        <time>2021-08-20T16:09:33Z</time>
      </trkpt>
      <trkpt lat="43.0333" lon="-1.00816">
        <ele>1086</ele>
        <time>2021-08-20T16:09:36Z</time>
      </trkpt>
      <trkpt lat="43.03315" lon="-1.00805">
        <ele>1081</ele>
        <time>2021-08-20T16:09:39Z</time>
      </trkpt>
      <trkpt lat="43.03303" lon="-1.00805">
        <ele>1078</ele>
        <time>2021-08-20T16:09:41Z</time>
      </trkpt>
      <trkpt lat="43.0327" lon="-1.00862">
        <ele>1073</ele>
        <time>2021-08-20T16:09:51Z</time>
      </trkpt>
      <trkpt lat="43.0326" lon="-1.00898">
        <ele>1074</ele>
        <time>2021-08-20T16:09:56Z</time>
      </trkpt>
      <trkpt lat="43.03244" lon="-1.00935">
        <ele>1070</ele>
        <time>2021-08-20T16:10:01Z</time>
      </trkpt>
      <trkpt lat="43.03231" lon="-1.00972">
        <ele>1067</ele>
        <time>2021-08-20T16:10:06Z</time>
      </trkpt>
      <trkpt lat="43.03203" lon="-1.0103">
        <ele>1057</ele>
        <time>2021-08-20T16:10:16Z</time>
      </trkpt>
      <trkpt lat="43.03199" lon="-1.01044">
        <ele>1055</ele>
        <time>2021-08-20T16:10:17Z</time>
      </trkpt>
      <trkpt lat="43.03197" lon="-1.0106">
        <ele>1054</ele>
        <time>2021-08-20T16:10:20Z</time>
      </trkpt>
      <trkpt lat="43.03198" lon="-1.01081">
        <ele>1054</ele>
        <time>2021-08-20T16:10:22Z</time>
      </trkpt>
      <trkpt lat="43.03205" lon="-1.01132">
        <ele>1050</ele>
        <time>2021-08-20T16:10:29Z</time>
      </trkpt>
      <trkpt lat="43.03226" lon="-1.01182">
        <ele>1051</ele>
        <time>2021-08-20T16:10:37Z</time>
      </trkpt>
      <trkpt lat="43.03227" lon="-1.01191">
        <ele>1049</ele>
        <time>2021-08-20T16:10:38Z</time>
      </trkpt>
      <trkpt lat="43.03224" lon="-1.01199">
        <ele>1046</ele>
        <time>2021-08-20T16:10:39Z</time>
      </trkpt>
      <trkpt lat="43.03219" lon="-1.01201">
        <ele>1044</ele>
        <time>2021-08-20T16:10:40Z</time>
      </trkpt>
      <trkpt lat="43.03212" lon="-1.01199">
        <ele>1042</ele>
        <time>2021-08-20T16:10:41Z</time>
      </trkpt>
      <trkpt lat="43.03178" lon="-1.01159">
        <ele>1036</ele>
        <time>2021-08-20T16:10:49Z</time>
      </trkpt>
      <trkpt lat="43.03143" lon="-1.0112">
        <ele>1029</ele>
        <time>2021-08-20T16:10:57Z</time>
      </trkpt>
      <trkpt lat="43.03134" lon="-1.01104">
        <ele>1028</ele>
        <time>2021-08-20T16:11:00Z</time>
      </trkpt>
      <trkpt lat="43.03119" lon="-1.01063">
        <ele>1024</ele>
        <time>2021-08-20T16:11:06Z</time>
      </trkpt>
      <trkpt lat="43.03117" lon="-1.01014">
        <ele>1020</ele>
        <time>2021-08-20T16:11:12Z</time>
      </trkpt>
      <trkpt lat="43.03102" lon="-1.00922">
        <ele>1010</ele>
        <time>2021-08-20T16:11:24Z</time>
      </trkpt>
      <trkpt lat="43.03096" lon="-1.00906">
        <ele>1008</ele>
        <time>2021-08-20T16:11:27Z</time>
      </trkpt>
      <trkpt lat="43.03074" lon="-1.0087">
        <ele>1001</ele>
        <time>2021-08-20T16:11:33Z</time>
      </trkpt>
      <trkpt lat="43.03058" lon="-1.00833">
        <ele>996</ele>
        <time>2021-08-20T16:11:38Z</time>
      </trkpt>
      <trkpt lat="43.0305" lon="-1.00796">
        <ele>992</ele>
        <time>2021-08-20T16:11:43Z</time>
      </trkpt>
      <trkpt lat="43.0304" lon="-1.00721">
        <ele>985</ele>
        <time>2021-08-20T16:11:53Z</time>
      </trkpt>
      <trkpt lat="43.03029" lon="-1.00674">
        <ele>977</ele>
        <time>2021-08-20T16:12:00Z</time>
      </trkpt>
      <trkpt lat="43.03027" lon="-1.00654">
        <ele>975</ele>
        <time>2021-08-20T16:12:02Z</time>
      </trkpt>
      <trkpt lat="43.03028" lon="-1.00631">
        <ele>973</ele>
        <time>2021-08-20T16:12:05Z</time>
      </trkpt>
      <trkpt lat="43.0303" lon="-1.00605">
        <ele>971</ele>
        <time>2021-08-20T16:12:09Z</time>
      </trkpt>
      <trkpt lat="43.03039" lon="-1.00548">
        <ele>973</ele>
        <time>2021-08-20T16:12:16Z</time>
      </trkpt>
      <trkpt lat="43.03039" lon="-1.00533">
        <ele>973</ele>
        <time>2021-08-20T16:12:18Z</time>
      </trkpt>
      <trkpt lat="43.03036" lon="-1.00521">
        <ele>972</ele>
        <time>2021-08-20T16:12:20Z</time>
      </trkpt>
      <trkpt lat="43.03025" lon="-1.00497">
        <ele>967</ele>
        <time>2021-08-20T16:12:24Z</time>
      </trkpt>
      <trkpt lat="43.02994" lon="-1.00437">
        <ele>959</ele>
        <time>2021-08-20T16:12:33Z</time>
      </trkpt>
      <trkpt lat="43.02957" lon="-1.00385">
        <ele>948</ele>
        <time>2021-08-20T16:12:43Z</time>
      </trkpt>
      <trkpt lat="43.02952" lon="-1.00372">
        <ele>947</ele>
        <time>2021-08-20T16:12:45Z</time>
      </trkpt>
      <trkpt lat="43.02947" lon="-1.00328">
        <ele>948</ele>
        <time>2021-08-20T16:12:50Z</time>
      </trkpt>
      <trkpt lat="43.02939" lon="-1.00288">
        <ele>941</ele>
        <time>2021-08-20T16:12:56Z</time>
      </trkpt>
      <trkpt lat="43.02936" lon="-1.00221">
        <ele>934</ele>
        <time>2021-08-20T16:13:04Z</time>
      </trkpt>
      <trkpt lat="43.02931" lon="-1.00151">
        <ele>928</ele>
        <time>2021-08-20T16:13:14Z</time>
      </trkpt>
      <trkpt lat="43.02926" lon="-1.00119">
        <ele>926</ele>
        <time>2021-08-20T16:13:18Z</time>
      </trkpt>
      <trkpt lat="43.02919" lon="-1.00103">
        <ele>923</ele>
        <time>2021-08-20T16:13:20Z</time>
      </trkpt>
      <trkpt lat="43.02908" lon="-1.00086">
        <ele>918</ele>
        <time>2021-08-20T16:13:23Z</time>
      </trkpt>
      <trkpt lat="43.02874" lon="-1.00043">
        <ele>910</ele>
        <time>2021-08-20T16:13:31Z</time>
      </trkpt>
      <trkpt lat="43.0285" lon="-1.00001">
        <ele>911</ele>
        <time>2021-08-20T16:13:38Z</time>
      </trkpt>
      <trkpt lat="43.02842" lon="-0.99994">
        <ele>910</ele>
        <time>2021-08-20T16:13:40Z</time>
      </trkpt>
      <trkpt lat="43.02831" lon="-0.9999">
        <ele>908</ele>
        <time>2021-08-20T16:13:42Z</time>
      </trkpt>
      <trkpt lat="43.02821" lon="-0.99989">
        <ele>905</ele>
        <time>2021-08-20T16:13:44Z</time>
      </trkpt>
      <trkpt lat="43.02783" lon="-0.99998">
        <ele>892</ele>
        <time>2021-08-20T16:13:51Z</time>
      </trkpt>
      <trkpt lat="43.02765" lon="-0.99995">
        <ele>888</ele>
        <time>2021-08-20T16:13:54Z</time>
      </trkpt>
      <trkpt lat="43.02751" lon="-0.9999">
        <ele>885</ele>
        <time>2021-08-20T16:13:57Z</time>
      </trkpt>
      <trkpt lat="43.02725" lon="-0.99975">
        <ele>878</ele>
        <time>2021-08-20T16:14:02Z</time>
      </trkpt>
      <trkpt lat="43.02706" lon="-0.9996">
        <ele>874</ele>
        <time>2021-08-20T16:14:06Z</time>
      </trkpt>
      <trkpt lat="43.02673" lon="-0.9993">
        <ele>868</ele>
        <time>2021-08-20T16:14:13Z</time>
      </trkpt>
      <trkpt lat="43.02663" lon="-0.99919">
        <ele>866</ele>
        <time>2021-08-20T16:14:15Z</time>
      </trkpt>
      <trkpt lat="43.02657" lon="-0.99909">
        <ele>863</ele>
        <time>2021-08-20T16:14:17Z</time>
      </trkpt>
      <trkpt lat="43.02652" lon="-0.9989">
        <ele>860</ele>
        <time>2021-08-20T16:14:19Z</time>
      </trkpt>
      <trkpt lat="43.02649" lon="-0.99871">
        <ele>858</ele>
        <time>2021-08-20T16:14:22Z</time>
      </trkpt>
      <trkpt lat="43.02648" lon="-0.99852">
        <ele>857</ele>
        <time>2021-08-20T16:14:24Z</time>
      </trkpt>
      <trkpt lat="43.0265" lon="-0.99835">
        <ele>858</ele>
        <time>2021-08-20T16:14:26Z</time>
      </trkpt>
      <trkpt lat="43.02665" lon="-0.99807">
        <ele>864</ele>
        <time>2021-08-20T16:14:31Z</time>
      </trkpt>
      <trkpt lat="43.02669" lon="-0.99796">
        <ele>864</ele>
        <time>2021-08-20T16:14:33Z</time>
      </trkpt>
      <trkpt lat="43.0267" lon="-0.99782">
        <ele>863</ele>
        <time>2021-08-20T16:14:34Z</time>
      </trkpt>
      <trkpt lat="43.02668" lon="-0.99766">
        <ele>860</ele>
        <time>2021-08-20T16:14:36Z</time>
      </trkpt>
      <trkpt lat="43.02664" lon="-0.99755">
        <ele>856</ele>
        <time>2021-08-20T16:14:38Z</time>
      </trkpt>
      <trkpt lat="43.02628" lon="-0.99693">
        <ele>839</ele>
        <time>2021-08-20T16:14:48Z</time>
      </trkpt>
      <trkpt lat="43.02622" lon="-0.99673">
        <ele>838</ele>
        <time>2021-08-20T16:14:51Z</time>
      </trkpt>
      <trkpt lat="43.0262" lon="-0.99653">
        <ele>836</ele>
        <time>2021-08-20T16:14:54Z</time>
      </trkpt>
      <trkpt lat="43.02621" lon="-0.99629">
        <ele>834</ele>
        <time>2021-08-20T16:14:57Z</time>
      </trkpt>
      <trkpt lat="43.02629" lon="-0.99586">
        <ele>832</ele>
        <time>2021-08-20T16:15:03Z</time>
      </trkpt>
      <trkpt lat="43.02634" lon="-0.9954">
        <ele>823</ele>
        <time>2021-08-20T16:15:09Z</time>
      </trkpt>
      <trkpt lat="43.02638" lon="-0.99518">
        <ele>818</ele>
        <time>2021-08-20T16:15:12Z</time>
      </trkpt>
      <trkpt lat="43.02637" lon="-0.9951">
        <ele>816</ele>
        <time>2021-08-20T16:15:13Z</time>
      </trkpt>
      <trkpt lat="43.02631" lon="-0.99507">
        <ele>814</ele>
        <time>2021-08-20T16:15:14Z</time>
      </trkpt>
      <trkpt lat="43.02627" lon="-0.99507">
        <ele>813</ele>
        <time>2021-08-20T16:15:15Z</time>
      </trkpt>
      <trkpt lat="43.02622" lon="-0.99511">
        <ele>813</ele>
        <time>2021-08-20T16:15:16Z</time>
      </trkpt>
      <trkpt lat="43.02612" lon="-0.99527">
        <ele>814</ele>
        <time>2021-08-20T16:15:18Z</time>
      </trkpt>
      <trkpt lat="43.02598" lon="-0.99565">
        <ele>817</ele>
        <time>2021-08-20T16:15:24Z</time>
      </trkpt>
      <trkpt lat="43.0259" lon="-0.99582">
        <ele>817</ele>
        <time>2021-08-20T16:15:27Z</time>
      </trkpt>
      <trkpt lat="43.02559" lon="-0.99622">
        <ele>805</ele>
        <time>2021-08-20T16:15:34Z</time>
      </trkpt>
      <trkpt lat="43.02549" lon="-0.99639">
        <ele>801</ele>
        <time>2021-08-20T16:15:37Z</time>
      </trkpt>
      <trkpt lat="43.02544" lon="-0.99659">
        <ele>800</ele>
        <time>2021-08-20T16:15:40Z</time>
      </trkpt>
      <trkpt lat="43.02543" lon="-0.99681">
        <ele>798</ele>
        <time>2021-08-20T16:15:43Z</time>
      </trkpt>
      <trkpt lat="43.02547" lon="-0.99703">
        <ele>798</ele>
        <time>2021-08-20T16:15:46Z</time>
      </trkpt>
      <trkpt lat="43.02566" lon="-0.99748">
        <ele>804</ele>
        <time>2021-08-20T16:15:52Z</time>
      </trkpt>
      <trkpt lat="43.02568" lon="-0.99761">
        <ele>805</ele>
        <time>2021-08-20T16:15:54Z</time>
      </trkpt>
      <trkpt lat="43.02567" lon="-0.99772">
        <ele>806</ele>
        <time>2021-08-20T16:15:55Z</time>
      </trkpt>
      <trkpt lat="43.02564" lon="-0.99778">
        <ele>804</ele>
        <time>2021-08-20T16:15:56Z</time>
      </trkpt>
      <trkpt lat="43.02548" lon="-0.99803">
        <ele>796</ele>
        <time>2021-08-20T16:16:01Z</time>
      </trkpt>
      <trkpt lat="43.0254" lon="-0.99826">
        <ele>792</ele>
        <time>2021-08-20T16:16:04Z</time>
      </trkpt>
      <trkpt lat="43.02517" lon="-0.99918">
        <ele>779</ele>
        <time>2021-08-20T16:16:17Z</time>
      </trkpt>
      <trkpt lat="43.02515" lon="-0.99937">
        <ele>774</ele>
        <time>2021-08-20T16:16:19Z</time>
      </trkpt>
      <trkpt lat="43.02516" lon="-0.99954">
        <ele>772</ele>
        <time>2021-08-20T16:16:21Z</time>
      </trkpt>
      <trkpt lat="43.0252" lon="-0.99971">
        <ele>771</ele>
        <time>2021-08-20T16:16:24Z</time>
      </trkpt>
      <trkpt lat="43.02527" lon="-0.99987">
        <ele>772</ele>
        <time>2021-08-20T16:16:26Z</time>
      </trkpt>
      <trkpt lat="43.0255" lon="-1.00021">
        <ele>776</ele>
        <time>2021-08-20T16:16:32Z</time>
      </trkpt>
      <trkpt lat="43.02569" lon="-1.0006">
        <ele>776</ele>
        <time>2021-08-20T16:16:38Z</time>
      </trkpt>
      <trkpt lat="43.02581" lon="-1.00092">
        <ele>776</ele>
        <time>2021-08-20T16:16:43Z</time>
      </trkpt>
      <trkpt lat="43.02585" lon="-1.00109">
        <ele>779</ele>
        <time>2021-08-20T16:16:45Z</time>
      </trkpt>
      <trkpt lat="43.02585" lon="-1.00119">
        <ele>779</ele>
        <time>2021-08-20T16:16:47Z</time>
      </trkpt>
      <trkpt lat="43.02582" lon="-1.00128">
        <ele>778</ele>
        <time>2021-08-20T16:16:48Z</time>
      </trkpt>
      <trkpt lat="43.02573" lon="-1.00137">
        <ele>774</ele>
        <time>2021-08-20T16:16:50Z</time>
      </trkpt>
      <trkpt lat="43.0255" lon="-1.0015">
        <ele>763</ele>
        <time>2021-08-20T16:16:54Z</time>
      </trkpt>
      <trkpt lat="43.02527" lon="-1.00167">
        <ele>752</ele>
        <time>2021-08-20T16:16:59Z</time>
      </trkpt>
      <trkpt lat="43.02519" lon="-1.00169">
        <ele>748</ele>
        <time>2021-08-20T16:17:00Z</time>
      </trkpt>
      <trkpt lat="43.02515" lon="-1.00166">
        <ele>746</ele>
        <time>2021-08-20T16:17:01Z</time>
      </trkpt>
      <trkpt lat="43.02511" lon="-1.00161">
        <ele>743</ele>
        <time>2021-08-20T16:17:02Z</time>
      </trkpt>
      <trkpt lat="43.02509" lon="-1.00153">
        <ele>742</ele>
        <time>2021-08-20T16:17:03Z</time>
      </trkpt>
      <trkpt lat="43.02512" lon="-1.00144">
        <ele>743</ele>
        <time>2021-08-20T16:17:05Z</time>
      </trkpt>
      <trkpt lat="43.02518" lon="-1.00137">
        <ele>746</ele>
        <time>2021-08-20T16:17:06Z</time>
      </trkpt>
      <trkpt lat="43.02535" lon="-1.00128">
        <ele>755</ele>
        <time>2021-08-20T16:17:09Z</time>
      </trkpt>
      <trkpt lat="43.02539" lon="-1.00121">
        <ele>756</ele>
        <time>2021-08-20T16:17:10Z</time>
      </trkpt>
      <trkpt lat="43.02541" lon="-1.00112">
        <ele>757</ele>
        <time>2021-08-20T16:17:12Z</time>
      </trkpt>
      <trkpt lat="43.0254" lon="-1.00103">
        <ele>756</ele>
        <time>2021-08-20T16:17:13Z</time>
      </trkpt>
      <trkpt lat="43.02537" lon="-1.00094">
        <ele>755</ele>
        <time>2021-08-20T16:17:14Z</time>
      </trkpt>
      <trkpt lat="43.02528" lon="-1.00077">
        <ele>751</ele>
        <time>2021-08-20T16:17:17Z</time>
      </trkpt>
      <trkpt lat="43.02517" lon="-1.00064">
        <ele>749</ele>
        <time>2021-08-20T16:17:19Z</time>
      </trkpt>
      <trkpt lat="43.02498" lon="-1.00046">
        <ele>744</ele>
        <time>2021-08-20T16:17:23Z</time>
      </trkpt>
      <trkpt lat="43.02465" lon="-1.00021">
        <ele>735</ele>
        <time>2021-08-20T16:17:30Z</time>
      </trkpt>
      <trkpt lat="43.0245" lon="-1.00001">
        <ele>732</ele>
        <time>2021-08-20T16:17:34Z</time>
      </trkpt>
      <trkpt lat="43.02437" lon="-0.99981">
        <ele>728</ele>
        <time>2021-08-20T16:17:37Z</time>
      </trkpt>
      <trkpt lat="43.02433" lon="-0.99964">
        <ele>727</ele>
        <time>2021-08-20T16:17:40Z</time>
      </trkpt>
      <trkpt lat="43.02431" lon="-0.99947">
        <ele>727</ele>
        <time>2021-08-20T16:17:42Z</time>
      </trkpt>
      <trkpt lat="43.02432" lon="-0.99834">
        <ele>723</ele>
        <time>2021-08-20T16:17:57Z</time>
      </trkpt>
      <trkpt lat="43.0243" lon="-0.99815">
        <ele>722</ele>
        <time>2021-08-20T16:17:59Z</time>
      </trkpt>
      <trkpt lat="43.02424" lon="-0.99796">
        <ele>720</ele>
        <time>2021-08-20T16:18:02Z</time>
      </trkpt>
      <trkpt lat="43.02406" lon="-0.9976">
        <ele>713</ele>
        <time>2021-08-20T16:18:07Z</time>
      </trkpt>
      <trkpt lat="43.02395" lon="-0.99728">
        <ele>710</ele>
        <time>2021-08-20T16:18:12Z</time>
      </trkpt>
      <trkpt lat="43.02389" lon="-0.99662">
        <ele>713</ele>
        <time>2021-08-20T16:18:21Z</time>
      </trkpt>
      <trkpt lat="43.02385" lon="-0.99639">
        <ele>712</ele>
        <time>2021-08-20T16:18:24Z</time>
      </trkpt>
      <trkpt lat="43.02379" lon="-0.99632">
        <ele>710</ele>
        <time>2021-08-20T16:18:25Z</time>
      </trkpt>
      <trkpt lat="43.02373" lon="-0.99631">
        <ele>708</ele>
        <time>2021-08-20T16:18:26Z</time>
      </trkpt>
      <trkpt lat="43.0237" lon="-0.99637">
        <ele>707</ele>
        <time>2021-08-20T16:18:27Z</time>
      </trkpt>
      <trkpt lat="43.02369" lon="-0.99646">
        <ele>706</ele>
        <time>2021-08-20T16:18:28Z</time>
      </trkpt>
      <trkpt lat="43.02372" lon="-0.99659">
        <ele>706</ele>
        <time>2021-08-20T16:18:30Z</time>
      </trkpt>
      <trkpt lat="43.02375" lon="-0.99687">
        <ele>705</ele>
        <time>2021-08-20T16:18:34Z</time>
      </trkpt>
      <trkpt lat="43.02376" lon="-0.99719">
        <ele>702</ele>
        <time>2021-08-20T16:18:38Z</time>
      </trkpt>
      <trkpt lat="43.02382" lon="-0.9979">
        <ele>700</ele>
        <time>2021-08-20T16:18:47Z</time>
      </trkpt>
      <trkpt lat="43.02377" lon="-0.99854">
        <ele>695</ele>
        <time>2021-08-20T16:18:56Z</time>
      </trkpt>
      <trkpt lat="43.02373" lon="-0.9988">
        <ele>695</ele>
        <time>2021-08-20T16:18:59Z</time>
      </trkpt>
      <trkpt lat="43.02353" lon="-0.99924">
        <ele>685</ele>
        <time>2021-08-20T16:19:06Z</time>
      </trkpt>
      <trkpt lat="43.0235" lon="-0.99936">
        <ele>683</ele>
        <time>2021-08-20T16:19:08Z</time>
      </trkpt>
      <trkpt lat="43.02347" lon="-0.99954">
        <ele>681</ele>
        <time>2021-08-20T16:19:10Z</time>
      </trkpt>
      <trkpt lat="43.02345" lon="-0.99976">
        <ele>679</ele>
        <time>2021-08-20T16:19:13Z</time>
      </trkpt>
      <trkpt lat="43.02346" lon="-1">
        <ele>678</ele>
        <time>2021-08-20T16:19:16Z</time>
      </trkpt>
      <trkpt lat="43.0235" lon="-1.00076">
        <ele>674</ele>
        <time>2021-08-20T16:19:26Z</time>
      </trkpt>
      <trkpt lat="43.02352" lon="-1.00089">
        <ele>674</ele>
        <time>2021-08-20T16:19:28Z</time>
      </trkpt>
      <trkpt lat="43.02358" lon="-1.00103">
        <ele>675</ele>
        <time>2021-08-20T16:19:30Z</time>
      </trkpt>
      <trkpt lat="43.02374" lon="-1.00121">
        <ele>680</ele>
        <time>2021-08-20T16:19:33Z</time>
      </trkpt>
      <trkpt lat="43.0238" lon="-1.0013">
        <ele>682</ele>
        <time>2021-08-20T16:19:35Z</time>
      </trkpt>
      <trkpt lat="43.0238" lon="-1.00169">
        <ele>678</ele>
        <time>2021-08-20T16:19:40Z</time>
      </trkpt>
      <trkpt lat="43.02383" lon="-1.00189">
        <ele>679</ele>
        <time>2021-08-20T16:19:43Z</time>
      </trkpt>
      <trkpt lat="43.02387" lon="-1.00203">
        <ele>680</ele>
        <time>2021-08-20T16:19:45Z</time>
      </trkpt>
      <trkpt lat="43.02394" lon="-1.0022">
        <ele>682</ele>
        <time>2021-08-20T16:19:47Z</time>
      </trkpt>
      <trkpt lat="43.02408" lon="-1.00247">
        <ele>683</ele>
        <time>2021-08-20T16:19:52Z</time>
      </trkpt>
      <trkpt lat="43.02414" lon="-1.0028">
        <ele>684</ele>
        <time>2021-08-20T16:19:56Z</time>
      </trkpt>
      <trkpt lat="43.02406" lon="-1.00349">
        <ele>686</ele>
        <time>2021-08-20T16:20:05Z</time>
      </trkpt>
      <trkpt lat="43.02405" lon="-1.00375">
        <ele>688</ele>
        <time>2021-08-20T16:20:08Z</time>
      </trkpt>
      <trkpt lat="43.024" lon="-1.00396">
        <ele>690</ele>
        <time>2021-08-20T16:20:11Z</time>
      </trkpt>
      <trkpt lat="43.02388" lon="-1.00425">
        <ele>692</ele>
        <time>2021-08-20T16:20:16Z</time>
      </trkpt>
      <trkpt lat="43.02375" lon="-1.00446">
        <ele>693</ele>
        <time>2021-08-20T16:20:19Z</time>
      </trkpt>
      <trkpt lat="43.02367" lon="-1.00451">
        <ele>693</ele>
        <time>2021-08-20T16:20:21Z</time>
      </trkpt>
      <trkpt lat="43.02361" lon="-1.00449">
        <ele>692</ele>
        <time>2021-08-20T16:20:22Z</time>
      </trkpt>
      <trkpt lat="43.02356" lon="-1.00438">
        <ele>692</ele>
        <time>2021-08-20T16:20:24Z</time>
      </trkpt>
      <trkpt lat="43.02353" lon="-1.00398">
        <ele>689</ele>
        <time>2021-08-20T16:20:29Z</time>
      </trkpt>
      <trkpt lat="43.02358" lon="-1.00365">
        <ele>687</ele>
        <time>2021-08-20T16:20:33Z</time>
      </trkpt>
      <trkpt lat="43.02356" lon="-1.00348">
        <ele>686</ele>
        <time>2021-08-20T16:20:35Z</time>
      </trkpt>
      <trkpt lat="43.02339" lon="-1.00312">
        <ele>682</ele>
        <time>2021-08-20T16:20:41Z</time>
      </trkpt>
      <trkpt lat="43.02333" lon="-1.00294">
        <ele>679</ele>
        <time>2021-08-20T16:20:44Z</time>
      </trkpt>
      <trkpt lat="43.02313" lon="-1.00259">
        <ele>683</ele>
        <time>2021-08-20T16:20:49Z</time>
      </trkpt>
      <trkpt lat="43.02301" lon="-1.00226">
        <ele>682</ele>
        <time>2021-08-20T16:20:54Z</time>
      </trkpt>
      <trkpt lat="43.02294" lon="-1.00212">
        <ele>681</ele>
        <time>2021-08-20T16:20:56Z</time>
      </trkpt>
      <trkpt lat="43.0226" lon="-1.00166">
        <ele>679</ele>
        <time>2021-08-20T16:21:05Z</time>
      </trkpt>
      <trkpt lat="43.02253" lon="-1.00141">
        <ele>675</ele>
        <time>2021-08-20T16:21:08Z</time>
      </trkpt>
      <trkpt lat="43.02246" lon="-1.00109">
        <ele>671</ele>
        <time>2021-08-20T16:21:13Z</time>
      </trkpt>
      <trkpt lat="43.02246" lon="-1.00077">
        <ele>664</ele>
        <time>2021-08-20T16:21:17Z</time>
      </trkpt>
      <trkpt lat="43.02242" lon="-1.00049">
        <ele>663</ele>
        <time>2021-08-20T16:21:21Z</time>
      </trkpt>
      <trkpt lat="43.02223" lon="-1.0001">
        <ele>669</ele>
        <time>2021-08-20T16:21:27Z</time>
      </trkpt>
      <trkpt lat="43.02205" lon="-0.99962">
        <ele>671</ele>
        <time>2021-08-20T16:21:34Z</time>
      </trkpt>
      <trkpt lat="43.02196" lon="-0.99932">
        <ele>670</ele>
        <time>2021-08-20T16:21:38Z</time>
      </trkpt>
      <trkpt lat="43.02187" lon="-0.99866">
        <ele>663</ele>
        <time>2021-08-20T16:21:47Z</time>
      </trkpt>
      <trkpt lat="43.02181" lon="-0.99837">
        <ele>659</ele>
        <time>2021-08-20T16:21:51Z</time>
      </trkpt>
      <trkpt lat="43.02172" lon="-0.99815">
        <ele>655</ele>
        <time>2021-08-20T16:21:54Z</time>
      </trkpt>
      <trkpt lat="43.02137" lon="-0.99736">
        <ele>651</ele>
        <time>2021-08-20T16:22:06Z</time>
      </trkpt>
      <trkpt lat="43.02118" lon="-0.99674">
        <ele>643</ele>
        <time>2021-08-20T16:22:15Z</time>
      </trkpt>
      <trkpt lat="43.02097" lon="-0.9963">
        <ele>637</ele>
        <time>2021-08-20T16:22:21Z</time>
      </trkpt>
      <trkpt lat="43.02071" lon="-0.99588">
        <ele>634</ele>
        <time>2021-08-20T16:22:29Z</time>
      </trkpt>
      <trkpt lat="43.02059" lon="-0.99562">
        <ele>638</ele>
        <time>2021-08-20T16:22:33Z</time>
      </trkpt>
      <trkpt lat="43.02054" lon="-0.99541">
        <ele>638</ele>
        <time>2021-08-20T16:22:35Z</time>
      </trkpt>
      <trkpt lat="43.02053" lon="-0.99529">
        <ele>636</ele>
        <time>2021-08-20T16:22:37Z</time>
      </trkpt>
      <trkpt lat="43.02054" lon="-0.99516">
        <ele>634</ele>
        <time>2021-08-20T16:22:39Z</time>
      </trkpt>
      <trkpt lat="43.02059" lon="-0.99492">
        <ele>629</ele>
        <time>2021-08-20T16:22:42Z</time>
      </trkpt>
      <trkpt lat="43.02073" lon="-0.99451">
        <ele>620</ele>
        <time>2021-08-20T16:22:48Z</time>
      </trkpt>
      <trkpt lat="43.02075" lon="-0.9944">
        <ele>618</ele>
        <time>2021-08-20T16:22:49Z</time>
      </trkpt>
      <trkpt lat="43.02079" lon="-0.99385">
        <ele>614</ele>
        <time>2021-08-20T16:22:56Z</time>
      </trkpt>
      <trkpt lat="43.02102" lon="-0.99319">
        <ele>611</ele>
        <time>2021-08-20T16:23:06Z</time>
      </trkpt>
      <trkpt lat="43.02107" lon="-0.99264">
        <ele>607</ele>
        <time>2021-08-20T16:23:13Z</time>
      </trkpt>
      <trkpt lat="43.02117" lon="-0.99228">
        <ele>603</ele>
        <time>2021-08-20T16:23:18Z</time>
      </trkpt>
      <trkpt lat="43.0213" lon="-0.99201">
        <ele>599</ele>
        <time>2021-08-20T16:23:22Z</time>
      </trkpt>
      <trkpt lat="43.02179" lon="-0.9913">
        <ele>591</ele>
        <time>2021-08-20T16:23:35Z</time>
      </trkpt>
      <trkpt lat="43.02186" lon="-0.99112">
        <ele>591</ele>
        <time>2021-08-20T16:23:38Z</time>
      </trkpt>
      <trkpt lat="43.0225" lon="-0.99073">
        <ele>583</ele>
        <time>2021-08-20T16:23:50Z</time>
      </trkpt>
      <trkpt lat="43.0227" lon="-0.99037">
        <ele>590</ele>
        <time>2021-08-20T16:23:56Z</time>
      </trkpt>
      <trkpt lat="43.02282" lon="-0.99005">
        <ele>591</ele>
        <time>2021-08-20T16:24:01Z</time>
      </trkpt>
      <trkpt lat="43.02299" lon="-0.98939">
        <ele>592</ele>
        <time>2021-08-20T16:24:10Z</time>
      </trkpt>
      <trkpt lat="43.02294" lon="-0.98907">
        <ele>596</ele>
        <time>2021-08-20T16:24:14Z</time>
      </trkpt>
      <trkpt lat="43.02313" lon="-0.9885">
        <ele>588</ele>
        <time>2021-08-20T16:24:22Z</time>
      </trkpt>
      <trkpt lat="43.02331" lon="-0.98777">
        <ele>578</ele>
        <time>2021-08-20T16:24:32Z</time>
      </trkpt>
      <trkpt lat="43.02341" lon="-0.98757">
        <ele>577</ele>
        <time>2021-08-20T16:24:35Z</time>
      </trkpt>
      <trkpt lat="43.02355" lon="-0.98736">
        <ele>576</ele>
        <time>2021-08-20T16:24:39Z</time>
      </trkpt>
      <trkpt lat="43.02362" lon="-0.9872">
        <ele>575</ele>
        <time>2021-08-20T16:24:42Z</time>
      </trkpt>
      <trkpt lat="43.02364" lon="-0.98705">
        <ele>573</ele>
        <time>2021-08-20T16:24:44Z</time>
      </trkpt>
      <trkpt lat="43.02359" lon="-0.98688">
        <ele>571</ele>
        <time>2021-08-20T16:24:46Z</time>
      </trkpt>
      <trkpt lat="43.02311" lon="-0.98634">
        <ele>576</ele>
        <time>2021-08-20T16:24:57Z</time>
      </trkpt>
      <trkpt lat="43.02304" lon="-0.98622">
        <ele>578</ele>
        <time>2021-08-20T16:24:59Z</time>
      </trkpt>
      <trkpt lat="43.02297" lon="-0.98598">
        <ele>579</ele>
        <time>2021-08-20T16:25:02Z</time>
      </trkpt>
      <trkpt lat="43.02294" lon="-0.98551">
        <ele>577</ele>
        <time>2021-08-20T16:25:09Z</time>
      </trkpt>
      <trkpt lat="43.02295" lon="-0.98518">
        <ele>575</ele>
        <time>2021-08-20T16:25:13Z</time>
      </trkpt>
      <trkpt lat="43.023" lon="-0.98499">
        <ele>572</ele>
        <time>2021-08-20T16:25:15Z</time>
      </trkpt>
      <trkpt lat="43.02332" lon="-0.98432">
        <ele>560</ele>
        <time>2021-08-20T16:25:26Z</time>
      </trkpt>
      <trkpt lat="43.02438" lon="-0.98288">
        <ele>547</ele>
        <time>2021-08-20T16:25:52Z</time>
      </trkpt>
      <trkpt lat="43.02526" lon="-0.98145">
        <ele>540</ele>
        <time>2021-08-20T16:26:17Z</time>
      </trkpt>
      <trkpt lat="43.02532" lon="-0.98118">
        <ele>540</ele>
        <time>2021-08-20T16:26:20Z</time>
      </trkpt>
      <trkpt lat="43.02539" lon="-0.98046">
        <ele>540</ele>
        <time>2021-08-20T16:26:30Z</time>
      </trkpt>
      <trkpt lat="43.02541" lon="-0.97996">
        <ele>538</ele>
        <time>2021-08-20T16:26:36Z</time>
      </trkpt>
      <trkpt lat="43.02546" lon="-0.97975">
        <ele>540</ele>
        <time>2021-08-20T16:26:39Z</time>
      </trkpt>
      <trkpt lat="43.02559" lon="-0.97939">
        <ele>539</ele>
        <time>2021-08-20T16:26:44Z</time>
      </trkpt>
      <trkpt lat="43.02572" lon="-0.97918">
        <ele>536</ele>
        <time>2021-08-20T16:26:48Z</time>
      </trkpt>
      <trkpt lat="43.02599" lon="-0.97892">
        <ele>539</ele>
        <time>2021-08-20T16:26:54Z</time>
      </trkpt>
      <trkpt lat="43.02634" lon="-0.97872">
        <ele>539</ele>
        <time>2021-08-20T16:27:01Z</time>
      </trkpt>
      <trkpt lat="43.02641" lon="-0.97867">
        <ele>538</ele>
        <time>2021-08-20T16:27:02Z</time>
      </trkpt>
      <trkpt lat="43.0265" lon="-0.97857">
        <ele>536</ele>
        <time>2021-08-20T16:27:04Z</time>
      </trkpt>
      <trkpt lat="43.02687" lon="-0.97801">
        <ele>531</ele>
        <time>2021-08-20T16:27:14Z</time>
      </trkpt>
      <trkpt lat="43.02707" lon="-0.97766">
        <ele>528</ele>
        <time>2021-08-20T16:27:20Z</time>
      </trkpt>
      <trkpt lat="43.0272" lon="-0.97736">
        <ele>525</ele>
        <time>2021-08-20T16:27:24Z</time>
      </trkpt>
      <trkpt lat="43.02721" lon="-0.97716">
        <ele>526</ele>
        <time>2021-08-20T16:27:27Z</time>
      </trkpt>
      <trkpt lat="43.02717" lon="-0.97669">
        <ele>530</ele>
        <time>2021-08-20T16:27:33Z</time>
      </trkpt>
      <trkpt lat="43.02718" lon="-0.97625">
        <ele>528</ele>
        <time>2021-08-20T16:27:39Z</time>
      </trkpt>
      <trkpt lat="43.0271" lon="-0.97576">
        <ele>527</ele>
        <time>2021-08-20T16:27:45Z</time>
      </trkpt>
      <trkpt lat="43.02695" lon="-0.97547">
        <ele>525</ele>
        <time>2021-08-20T16:27:50Z</time>
      </trkpt>
      <trkpt lat="43.02681" lon="-0.97524">
        <ele>520</ele>
        <time>2021-08-20T16:27:54Z</time>
      </trkpt>
      <trkpt lat="43.02667" lon="-0.97506">
        <ele>512</ele>
        <time>2021-08-20T16:27:57Z</time>
      </trkpt>
      <trkpt lat="43.02621" lon="-0.97478">
        <ele>520</ele>
        <time>2021-08-20T16:28:06Z</time>
      </trkpt>
      <trkpt lat="43.02608" lon="-0.97465">
        <ele>520</ele>
        <time>2021-08-20T16:28:09Z</time>
      </trkpt>
      <trkpt lat="43.02592" lon="-0.97439">
        <ele>514</ele>
        <time>2021-08-20T16:28:13Z</time>
      </trkpt>
      <trkpt lat="43.02553" lon="-0.97343">
        <ele>503</ele>
        <time>2021-08-20T16:28:28Z</time>
      </trkpt>
      <trkpt lat="43.02536" lon="-0.97293">
        <ele>502</ele>
        <time>2021-08-20T16:28:35Z</time>
      </trkpt>
      <trkpt lat="43.02524" lon="-0.97249">
        <ele>502</ele>
        <time>2021-08-20T16:28:41Z</time>
      </trkpt>
      <trkpt lat="43.02516" lon="-0.97213">
        <ele>501</ele>
        <time>2021-08-20T16:28:46Z</time>
      </trkpt>
      <trkpt lat="43.02509" lon="-0.97192">
        <ele>501</ele>
        <time>2021-08-20T16:28:49Z</time>
      </trkpt>
      <trkpt lat="43.02497" lon="-0.97177">
        <ele>502</ele>
        <time>2021-08-20T16:28:52Z</time>
      </trkpt>
      <trkpt lat="43.02472" lon="-0.97173">
        <ele>512</ele>
        <time>2021-08-20T16:28:56Z</time>
      </trkpt>
      <trkpt lat="43.02453" lon="-0.9716">
        <ele>519</ele>
        <time>2021-08-20T16:29:00Z</time>
      </trkpt>
      <trkpt lat="43.02437" lon="-0.97142">
        <ele>523</ele>
        <time>2021-08-20T16:29:04Z</time>
      </trkpt>
      <trkpt lat="43.02422" lon="-0.97112">
        <ele>523</ele>
        <time>2021-08-20T16:29:09Z</time>
      </trkpt>
      <trkpt lat="43.02405" lon="-0.97068">
        <ele>523</ele>
        <time>2021-08-20T16:29:15Z</time>
      </trkpt>
      <trkpt lat="43.02386" lon="-0.97043">
        <ele>528</ele>
        <time>2021-08-20T16:29:20Z</time>
      </trkpt>
      <trkpt lat="43.02347" lon="-0.96982">
        <ele>529</ele>
        <time>2021-08-20T16:29:30Z</time>
      </trkpt>
      <trkpt lat="43.02335" lon="-0.96972">
        <ele>532</ele>
        <time>2021-08-20T16:29:33Z</time>
      </trkpt>
      <trkpt lat="43.02292" lon="-0.96952">
        <ele>537</ele>
        <time>2021-08-20T16:29:41Z</time>
      </trkpt>
      <trkpt lat="43.02279" lon="-0.96955">
        <ele>541</ele>
        <time>2021-08-20T16:29:43Z</time>
      </trkpt>
      <trkpt lat="43.02265" lon="-0.96968">
        <ele>547</ele>
        <time>2021-08-20T16:29:46Z</time>
      </trkpt>
      <trkpt lat="43.02246" lon="-0.96978">
        <ele>553</ele>
        <time>2021-08-20T16:29:50Z</time>
      </trkpt>
      <trkpt lat="43.02218" lon="-0.96983">
        <ele>559</ele>
        <time>2021-08-20T16:29:55Z</time>
      </trkpt>
      <trkpt lat="43.02187" lon="-0.97002">
        <ele>563</ele>
        <time>2021-08-20T16:30:01Z</time>
      </trkpt>
      <trkpt lat="43.02181" lon="-0.96997">
        <ele>564</ele>
        <time>2021-08-20T16:30:02Z</time>
      </trkpt>
      <trkpt lat="43.0218" lon="-0.9699">
        <ele>564</ele>
        <time>2021-08-20T16:30:03Z</time>
      </trkpt>
      <trkpt lat="43.02184" lon="-0.96967">
        <ele>565</ele>
        <time>2021-08-20T16:30:06Z</time>
      </trkpt>
      <trkpt lat="43.0219" lon="-0.96947">
        <ele>565</ele>
        <time>2021-08-20T16:30:09Z</time>
      </trkpt>
      <trkpt lat="43.02214" lon="-0.96917">
        <ele>557</ele>
        <time>2021-08-20T16:30:15Z</time>
      </trkpt>
      <trkpt lat="43.02233" lon="-0.96885">
        <ele>551</ele>
        <time>2021-08-20T16:30:20Z</time>
      </trkpt>
      <trkpt lat="43.02251" lon="-0.96841">
        <ele>549</ele>
        <time>2021-08-20T16:30:27Z</time>
      </trkpt>
      <trkpt lat="43.02254" lon="-0.96819">
        <ele>547</ele>
        <time>2021-08-20T16:30:30Z</time>
      </trkpt>
      <trkpt lat="43.02254" lon="-0.968">
        <ele>546</ele>
        <time>2021-08-20T16:30:32Z</time>
      </trkpt>
      <trkpt lat="43.02248" lon="-0.96779">
        <ele>547</ele>
        <time>2021-08-20T16:30:35Z</time>
      </trkpt>
      <trkpt lat="43.02238" lon="-0.96763">
        <ele>548</ele>
        <time>2021-08-20T16:30:38Z</time>
      </trkpt>
      <trkpt lat="43.02229" lon="-0.9676">
        <ele>549</ele>
        <time>2021-08-20T16:30:39Z</time>
      </trkpt>
      <trkpt lat="43.02207" lon="-0.96761">
        <ele>552</ele>
        <time>2021-08-20T16:30:43Z</time>
      </trkpt>
      <trkpt lat="43.02184" lon="-0.96767">
        <ele>556</ele>
        <time>2021-08-20T16:30:47Z</time>
      </trkpt>
      <trkpt lat="43.02159" lon="-0.9677">
        <ele>561</ele>
        <time>2021-08-20T16:30:52Z</time>
      </trkpt>
      <trkpt lat="43.02142" lon="-0.96769">
        <ele>566</ele>
        <time>2021-08-20T16:30:55Z</time>
      </trkpt>
      <trkpt lat="43.02121" lon="-0.96756">
        <ele>569</ele>
        <time>2021-08-20T16:30:59Z</time>
      </trkpt>
      <trkpt lat="43.02075" lon="-0.96697">
        <ele>574</ele>
        <time>2021-08-20T16:31:10Z</time>
      </trkpt>
      <trkpt lat="43.02044" lon="-0.96666">
        <ele>581</ele>
        <time>2021-08-20T16:31:17Z</time>
      </trkpt>
      <trkpt lat="43.02017" lon="-0.96619">
        <ele>584</ele>
        <time>2021-08-20T16:31:25Z</time>
      </trkpt>
      <trkpt lat="43.02009" lon="-0.96611">
        <ele>586</ele>
        <time>2021-08-20T16:31:27Z</time>
      </trkpt>
      <trkpt lat="43.01983" lon="-0.96598">
        <ele>591</ele>
        <time>2021-08-20T16:31:32Z</time>
      </trkpt>
      <trkpt lat="43.01973" lon="-0.9659">
        <ele>593</ele>
        <time>2021-08-20T16:31:34Z</time>
      </trkpt>
      <trkpt lat="43.01944" lon="-0.96552">
        <ele>596</ele>
        <time>2021-08-20T16:31:41Z</time>
      </trkpt>
      <trkpt lat="43.01932" lon="-0.96522">
        <ele>596</ele>
        <time>2021-08-20T16:31:45Z</time>
      </trkpt>
      <trkpt lat="43.01924" lon="-0.96494">
        <ele>596</ele>
        <time>2021-08-20T16:31:49Z</time>
      </trkpt>
      <trkpt lat="43.01918" lon="-0.96477">
        <ele>598</ele>
        <time>2021-08-20T16:31:52Z</time>
      </trkpt>
      <trkpt lat="43.01917" lon="-0.96457">
        <ele>599</ele>
        <time>2021-08-20T16:31:54Z</time>
      </trkpt>
      <trkpt lat="43.01924" lon="-0.96422">
        <ele>598</ele>
        <time>2021-08-20T16:31:59Z</time>
      </trkpt>
      <trkpt lat="43.01954" lon="-0.96347">
        <ele>597</ele>
        <time>2021-08-20T16:32:10Z</time>
      </trkpt>
      <trkpt lat="43.01959" lon="-0.96328">
        <ele>597</ele>
        <time>2021-08-20T16:32:13Z</time>
      </trkpt>
      <trkpt lat="43.01961" lon="-0.9631">
        <ele>597</ele>
        <time>2021-08-20T16:32:15Z</time>
      </trkpt>
      <trkpt lat="43.0196" lon="-0.96291">
        <ele>598</ele>
        <time>2021-08-20T16:32:17Z</time>
      </trkpt>
      <trkpt lat="43.01953" lon="-0.96257">
        <ele>601</ele>
        <time>2021-08-20T16:32:22Z</time>
      </trkpt>
      <trkpt lat="43.01943" lon="-0.96238">
        <ele>602</ele>
        <time>2021-08-20T16:32:25Z</time>
      </trkpt>
      <trkpt lat="43.01919" lon="-0.96206">
        <ele>606</ele>
        <time>2021-08-20T16:32:31Z</time>
      </trkpt>
      <trkpt lat="43.01898" lon="-0.96187">
        <ele>611</ele>
        <time>2021-08-20T16:32:36Z</time>
      </trkpt>
      <trkpt lat="43.01888" lon="-0.96179">
        <ele>614</ele>
        <time>2021-08-20T16:32:38Z</time>
      </trkpt>
      <trkpt lat="43.01886" lon="-0.96172">
        <ele>615</ele>
        <time>2021-08-20T16:32:39Z</time>
      </trkpt>
      <trkpt lat="43.01885" lon="-0.96165">
        <ele>616</ele>
        <time>2021-08-20T16:32:40Z</time>
      </trkpt>
      <trkpt lat="43.01895" lon="-0.96147">
        <ele>616</ele>
        <time>2021-08-20T16:32:42Z</time>
      </trkpt>
      <trkpt lat="43.01939" lon="-0.96109">
        <ele>611</ele>
        <time>2021-08-20T16:32:52Z</time>
      </trkpt>
      <trkpt lat="43.01952" lon="-0.96096">
        <ele>611</ele>
        <time>2021-08-20T16:32:55Z</time>
      </trkpt>
      <trkpt lat="43.01958" lon="-0.96087">
        <ele>611</ele>
        <time>2021-08-20T16:32:56Z</time>
      </trkpt>
      <trkpt lat="43.01966" lon="-0.96062">
        <ele>613</ele>
        <time>2021-08-20T16:33:00Z</time>
      </trkpt>
      <trkpt lat="43.01968" lon="-0.96047">
        <ele>615</ele>
        <time>2021-08-20T16:33:02Z</time>
      </trkpt>
      <trkpt lat="43.01968" lon="-0.9603">
        <ele>617</ele>
        <time>2021-08-20T16:33:04Z</time>
      </trkpt>
      <trkpt lat="43.01965" lon="-0.96018">
        <ele>619</ele>
        <time>2021-08-20T16:33:06Z</time>
      </trkpt>
      <trkpt lat="43.01953" lon="-0.95984">
        <ele>624</ele>
        <time>2021-08-20T16:33:10Z</time>
      </trkpt>
      <trkpt lat="43.01927" lon="-0.95929">
        <ele>629</ele>
        <time>2021-08-20T16:33:19Z</time>
      </trkpt>
      <trkpt lat="43.01906" lon="-0.95878">
        <ele>631</ele>
        <time>2021-08-20T16:33:27Z</time>
      </trkpt>
      <trkpt lat="43.01888" lon="-0.95779">
        <ele>633</ele>
        <time>2021-08-20T16:33:40Z</time>
      </trkpt>
      <trkpt lat="43.01886" lon="-0.95776">
        <ele>634</ele>
        <time>2021-08-20T16:33:40Z</time>
      </trkpt>
      <trkpt lat="43.01882" lon="-0.95774">
        <ele>635</ele>
        <time>2021-08-20T16:33:41Z</time>
      </trkpt>
      <trkpt lat="43.01884" lon="-0.95763">
        <ele>634</ele>
        <time>2021-08-20T16:33:43Z</time>
      </trkpt>
      <trkpt lat="43.01892" lon="-0.95744">
        <ele>632</ele>
        <time>2021-08-20T16:33:45Z</time>
      </trkpt>
      <trkpt lat="43.01908" lon="-0.95713">
        <ele>631</ele>
        <time>2021-08-20T16:33:50Z</time>
      </trkpt>
      <trkpt lat="43.01927" lon="-0.95668">
        <ele>630</ele>
        <time>2021-08-20T16:33:57Z</time>
      </trkpt>
      <trkpt lat="43.01932" lon="-0.95651">
        <ele>629</ele>
        <time>2021-08-20T16:34:00Z</time>
      </trkpt>
      <trkpt lat="43.01934" lon="-0.95626">
        <ele>630</ele>
        <time>2021-08-20T16:34:03Z</time>
      </trkpt>
      <trkpt lat="43.01933" lon="-0.95613">
        <ele>630</ele>
        <time>2021-08-20T16:34:05Z</time>
      </trkpt>
      <trkpt lat="43.01926" lon="-0.95587">
        <ele>633</ele>
        <time>2021-08-20T16:34:08Z</time>
      </trkpt>
      <trkpt lat="43.01925" lon="-0.95582">
        <ele>633</ele>
        <time>2021-08-20T16:34:09Z</time>
      </trkpt>
      <trkpt lat="43.01917" lon="-0.95554">
        <ele>633</ele>
        <time>2021-08-20T16:34:13Z</time>
      </trkpt>
      <trkpt lat="43.01911" lon="-0.95542">
        <ele>633</ele>
        <time>2021-08-20T16:34:15Z</time>
      </trkpt>
      <trkpt lat="43.01902" lon="-0.95526">
        <ele>632</ele>
        <time>2021-08-20T16:34:17Z</time>
      </trkpt>
      <trkpt lat="43.01893" lon="-0.95511">
        <ele>631</ele>
        <time>2021-08-20T16:34:20Z</time>
      </trkpt>
      <trkpt lat="43.01886" lon="-0.95504">
        <ele>631</ele>
        <time>2021-08-20T16:34:21Z</time>
      </trkpt>
      <trkpt lat="43.01868" lon="-0.95499">
        <ele>631</ele>
        <time>2021-08-20T16:34:25Z</time>
      </trkpt>
      <trkpt lat="43.01846" lon="-0.95493">
        <ele>631</ele>
        <time>2021-08-20T16:34:29Z</time>
      </trkpt>
      <trkpt lat="43.01844" lon="-0.95493">
        <ele>631</ele>
        <time>2021-08-20T16:34:29Z</time>
      </trkpt>
      <trkpt lat="43.01825" lon="-0.95488">
        <ele>632</ele>
        <time>2021-08-20T16:34:32Z</time>
      </trkpt>
      <trkpt lat="43.01823" lon="-0.95487">
        <ele>632</ele>
        <time>2021-08-20T16:34:33Z</time>
      </trkpt>
      <trkpt lat="43.01803" lon="-0.95495">
        <ele>634</ele>
        <time>2021-08-20T16:34:36Z</time>
      </trkpt>
      <trkpt lat="43.01793" lon="-0.95492">
        <ele>635</ele>
        <time>2021-08-20T16:34:38Z</time>
      </trkpt>
      <trkpt lat="43.01766" lon="-0.95475">
        <ele>637</ele>
        <time>2021-08-20T16:34:44Z</time>
      </trkpt>
      <trkpt lat="43.01763" lon="-0.95468">
        <ele>637</ele>
        <time>2021-08-20T16:34:45Z</time>
      </trkpt>
      <trkpt lat="43.01762" lon="-0.95463">
        <ele>637</ele>
        <time>2021-08-20T16:34:45Z</time>
      </trkpt>
      <trkpt lat="43.01763" lon="-0.9544">
        <ele>635</ele>
        <time>2021-08-20T16:34:48Z</time>
      </trkpt>
      <trkpt lat="43.01772" lon="-0.95427">
        <ele>633</ele>
        <time>2021-08-20T16:34:51Z</time>
      </trkpt>
      <trkpt lat="43.01778" lon="-0.95417">
        <ele>632</ele>
        <time>2021-08-20T16:34:52Z</time>
      </trkpt>
      <trkpt lat="43.01788" lon="-0.95408">
        <ele>630</ele>
        <time>2021-08-20T16:34:54Z</time>
      </trkpt>
      <trkpt lat="43.01793" lon="-0.95402">
        <ele>629</ele>
        <time>2021-08-20T16:34:56Z</time>
      </trkpt>
      <trkpt lat="43.01798" lon="-0.95394">
        <ele>629</ele>
        <time>2021-08-20T16:34:57Z</time>
      </trkpt>
      <trkpt lat="43.01804" lon="-0.95381">
        <ele>628</ele>
        <time>2021-08-20T16:34:59Z</time>
      </trkpt>
      <trkpt lat="43.01807" lon="-0.95368">
        <ele>627</ele>
        <time>2021-08-20T16:35:01Z</time>
      </trkpt>
      <trkpt lat="43.01807" lon="-0.95358">
        <ele>627</ele>
        <time>2021-08-20T16:35:02Z</time>
      </trkpt>
      <trkpt lat="43.01806" lon="-0.95339">
        <ele>628</ele>
        <time>2021-08-20T16:35:05Z</time>
      </trkpt>
      <trkpt lat="43.01802" lon="-0.95319">
        <ele>627</ele>
        <time>2021-08-20T16:35:07Z</time>
      </trkpt>
      <trkpt lat="43.01798" lon="-0.95306">
        <ele>626</ele>
        <time>2021-08-20T16:35:09Z</time>
      </trkpt>
      <trkpt lat="43.01757" lon="-0.95184">
        <ele>614</ele>
        <time>2021-08-20T16:35:27Z</time>
      </trkpt>
      <trkpt lat="43.01755" lon="-0.9517">
        <ele>611</ele>
        <time>2021-08-20T16:35:28Z</time>
      </trkpt>
      <trkpt lat="43.01757" lon="-0.95152">
        <ele>609</ele>
        <time>2021-08-20T16:35:31Z</time>
      </trkpt>
      <trkpt lat="43.01761" lon="-0.9514">
        <ele>608</ele>
        <time>2021-08-20T16:35:32Z</time>
      </trkpt>
      <trkpt lat="43.01774" lon="-0.95122">
        <ele>605</ele>
        <time>2021-08-20T16:35:36Z</time>
      </trkpt>
      <trkpt lat="43.01784" lon="-0.95116">
        <ele>604</ele>
        <time>2021-08-20T16:35:38Z</time>
      </trkpt>
      <trkpt lat="43.01823" lon="-0.95106">
        <ele>599</ele>
        <time>2021-08-20T16:35:45Z</time>
      </trkpt>
      <trkpt lat="43.01832" lon="-0.95101">
        <ele>598</ele>
        <time>2021-08-20T16:35:47Z</time>
      </trkpt>
      <trkpt lat="43.01837" lon="-0.95097">
        <ele>597</ele>
        <time>2021-08-20T16:35:48Z</time>
      </trkpt>
      <trkpt lat="43.01841" lon="-0.95091">
        <ele>597</ele>
        <time>2021-08-20T16:35:49Z</time>
      </trkpt>
      <trkpt lat="43.01848" lon="-0.95075">
        <ele>595</ele>
        <time>2021-08-20T16:35:51Z</time>
      </trkpt>
      <trkpt lat="43.0185" lon="-0.9506">
        <ele>593</ele>
        <time>2021-08-20T16:35:53Z</time>
      </trkpt>
      <trkpt lat="43.0185" lon="-0.95045">
        <ele>592</ele>
        <time>2021-08-20T16:35:55Z</time>
      </trkpt>
      <trkpt lat="43.01848" lon="-0.95034">
        <ele>591</ele>
        <time>2021-08-20T16:35:56Z</time>
      </trkpt>
      <trkpt lat="43.01843" lon="-0.95017">
        <ele>590</ele>
        <time>2021-08-20T16:35:59Z</time>
      </trkpt>
      <trkpt lat="43.01827" lon="-0.94963">
        <ele>588</ele>
        <time>2021-08-20T16:36:06Z</time>
      </trkpt>
      <trkpt lat="43.01824" lon="-0.94949">
        <ele>588</ele>
        <time>2021-08-20T16:36:08Z</time>
      </trkpt>
      <trkpt lat="43.0182" lon="-0.94929">
        <ele>587</ele>
        <time>2021-08-20T16:36:11Z</time>
      </trkpt>
      <trkpt lat="43.01816" lon="-0.94909">
        <ele>587</ele>
        <time>2021-08-20T16:36:14Z</time>
      </trkpt>
      <trkpt lat="43.01815" lon="-0.94877">
        <ele>585</ele>
        <time>2021-08-20T16:36:18Z</time>
      </trkpt>
      <trkpt lat="43.01817" lon="-0.94866">
        <ele>584</ele>
        <time>2021-08-20T16:36:19Z</time>
      </trkpt>
      <trkpt lat="43.01845" lon="-0.94758">
        <ele>569</ele>
        <time>2021-08-20T16:36:34Z</time>
      </trkpt>
      <trkpt lat="43.01869" lon="-0.94688">
        <ele>561</ele>
        <time>2021-08-20T16:36:44Z</time>
      </trkpt>
      <trkpt lat="43.01871" lon="-0.94677">
        <ele>559</ele>
        <time>2021-08-20T16:36:46Z</time>
      </trkpt>
      <trkpt lat="43.0187" lon="-0.94662">
        <ele>558</ele>
        <time>2021-08-20T16:36:48Z</time>
      </trkpt>
      <trkpt lat="43.01852" lon="-0.94577">
        <ele>551</ele>
        <time>2021-08-20T16:36:59Z</time>
      </trkpt>
      <trkpt lat="43.01851" lon="-0.94561">
        <ele>550</ele>
        <time>2021-08-20T16:37:01Z</time>
      </trkpt>
      <trkpt lat="43.01853" lon="-0.94547">
        <ele>549</ele>
        <time>2021-08-20T16:37:03Z</time>
      </trkpt>
      <trkpt lat="43.01858" lon="-0.94534">
        <ele>547</ele>
        <time>2021-08-20T16:37:05Z</time>
      </trkpt>
      <trkpt lat="43.01866" lon="-0.94525">
        <ele>545</ele>
        <time>2021-08-20T16:37:07Z</time>
      </trkpt>
      <trkpt lat="43.01879" lon="-0.94518">
        <ele>542</ele>
        <time>2021-08-20T16:37:09Z</time>
      </trkpt>
      <trkpt lat="43.01913" lon="-0.94506">
        <ele>534</ele>
        <time>2021-08-20T16:37:16Z</time>
      </trkpt>
      <trkpt lat="43.01921" lon="-0.94501">
        <ele>531</ele>
        <time>2021-08-20T16:37:17Z</time>
      </trkpt>
      <trkpt lat="43.01927" lon="-0.94493">
        <ele>528</ele>
        <time>2021-08-20T16:37:19Z</time>
      </trkpt>
      <trkpt lat="43.01935" lon="-0.94476">
        <ele>523</ele>
        <time>2021-08-20T16:37:21Z</time>
      </trkpt>
      <trkpt lat="43.01938" lon="-0.94457">
        <ele>521</ele>
        <time>2021-08-20T16:37:24Z</time>
      </trkpt>
      <trkpt lat="43.01939" lon="-0.9444">
        <ele>520</ele>
        <time>2021-08-20T16:37:26Z</time>
      </trkpt>
      <trkpt lat="43.01936" lon="-0.94424">
        <ele>519</ele>
        <time>2021-08-20T16:37:28Z</time>
      </trkpt>
      <trkpt lat="43.0193" lon="-0.94412">
        <ele>520</ele>
        <time>2021-08-20T16:37:30Z</time>
      </trkpt>
      <trkpt lat="43.01908" lon="-0.94394">
        <ele>524</ele>
        <time>2021-08-20T16:37:35Z</time>
      </trkpt>
      <trkpt lat="43.019" lon="-0.94384">
        <ele>525</ele>
        <time>2021-08-20T16:37:37Z</time>
      </trkpt>
      <trkpt lat="43.01895" lon="-0.94372">
        <ele>525</ele>
        <time>2021-08-20T16:37:38Z</time>
      </trkpt>
      <trkpt lat="43.01892" lon="-0.94356">
        <ele>524</ele>
        <time>2021-08-20T16:37:41Z</time>
      </trkpt>
      <trkpt lat="43.01885" lon="-0.94271">
        <ele>516</ele>
        <time>2021-08-20T16:37:52Z</time>
      </trkpt>
      <trkpt lat="43.01888" lon="-0.94251">
        <ele>512</ele>
        <time>2021-08-20T16:37:54Z</time>
      </trkpt>
      <trkpt lat="43.01897" lon="-0.94224">
        <ele>506</ele>
        <time>2021-08-20T16:37:58Z</time>
      </trkpt>
      <trkpt lat="43.019" lon="-0.94209">
        <ele>503</ele>
        <time>2021-08-20T16:38:00Z</time>
      </trkpt>
      <trkpt lat="43.019" lon="-0.94197">
        <ele>502</ele>
        <time>2021-08-20T16:38:02Z</time>
      </trkpt>
      <trkpt lat="43.01897" lon="-0.94186">
        <ele>502</ele>
        <time>2021-08-20T16:38:03Z</time>
      </trkpt>
      <trkpt lat="43.01883" lon="-0.94153">
        <ele>505</ele>
        <time>2021-08-20T16:38:08Z</time>
      </trkpt>
      <trkpt lat="43.01881" lon="-0.94142">
        <ele>506</ele>
        <time>2021-08-20T16:38:10Z</time>
      </trkpt>
      <trkpt lat="43.0188" lon="-0.94132">
        <ele>507</ele>
        <time>2021-08-20T16:38:11Z</time>
      </trkpt>
      <trkpt lat="43.01882" lon="-0.9412">
        <ele>507</ele>
        <time>2021-08-20T16:38:13Z</time>
      </trkpt>
      <trkpt lat="43.0189" lon="-0.94101">
        <ele>505</ele>
        <time>2021-08-20T16:38:16Z</time>
      </trkpt>
      <trkpt lat="43.01896" lon="-0.94091">
        <ele>504</ele>
        <time>2021-08-20T16:38:17Z</time>
      </trkpt>
      <trkpt lat="43.01936" lon="-0.94037">
        <ele>495</ele>
        <time>2021-08-20T16:38:27Z</time>
      </trkpt>
      <trkpt lat="43.01943" lon="-0.94025">
        <ele>493</ele>
        <time>2021-08-20T16:38:29Z</time>
      </trkpt>
      <trkpt lat="43.01948" lon="-0.94009">
        <ele>492</ele>
        <time>2021-08-20T16:38:31Z</time>
      </trkpt>
      <trkpt lat="43.0195" lon="-0.93993">
        <ele>491</ele>
        <time>2021-08-20T16:38:34Z</time>
      </trkpt>
      <trkpt lat="43.01949" lon="-0.93904">
        <ele>484</ele>
        <time>2021-08-20T16:38:45Z</time>
      </trkpt>
      <trkpt lat="43.0194" lon="-0.9383">
        <ele>472</ele>
        <time>2021-08-20T16:38:55Z</time>
      </trkpt>
      <trkpt lat="43.01936" lon="-0.93815">
        <ele>468</ele>
        <time>2021-08-20T16:38:57Z</time>
      </trkpt>
      <trkpt lat="43.01924" lon="-0.93799">
        <ele>467</ele>
        <time>2021-08-20T16:39:00Z</time>
      </trkpt>
      <trkpt lat="43.01916" lon="-0.93794">
        <ele>468</ele>
        <time>2021-08-20T16:39:02Z</time>
      </trkpt>
      <trkpt lat="43.01856" lon="-0.93782">
        <ele>484</ele>
        <time>2021-08-20T16:39:12Z</time>
      </trkpt>
      <trkpt lat="43.01848" lon="-0.93779">
        <ele>485</ele>
        <time>2021-08-20T16:39:14Z</time>
      </trkpt>
      <trkpt lat="43.0184" lon="-0.93775">
        <ele>487</ele>
        <time>2021-08-20T16:39:15Z</time>
      </trkpt>
      <trkpt lat="43.01836" lon="-0.93768">
        <ele>486</ele>
        <time>2021-08-20T16:39:16Z</time>
      </trkpt>
      <trkpt lat="43.01834" lon="-0.93759">
        <ele>483</ele>
        <time>2021-08-20T16:39:18Z</time>
      </trkpt>
      <trkpt lat="43.01835" lon="-0.93748">
        <ele>479</ele>
        <time>2021-08-20T16:39:19Z</time>
      </trkpt>
      <trkpt lat="43.0184" lon="-0.93737">
        <ele>476</ele>
        <time>2021-08-20T16:39:21Z</time>
      </trkpt>
      <trkpt lat="43.01855" lon="-0.93713">
        <ele>466</ele>
        <time>2021-08-20T16:39:25Z</time>
      </trkpt>
      <trkpt lat="43.01858" lon="-0.937">
        <ele>462</ele>
        <time>2021-08-20T16:39:27Z</time>
      </trkpt>
      <trkpt lat="43.01858" lon="-0.93688">
        <ele>461</ele>
        <time>2021-08-20T16:39:28Z</time>
      </trkpt>
      <trkpt lat="43.0184" lon="-0.9362">
        <ele>462</ele>
        <time>2021-08-20T16:39:38Z</time>
      </trkpt>
      <trkpt lat="43.01838" lon="-0.93594">
        <ele>461</ele>
        <time>2021-08-20T16:39:41Z</time>
      </trkpt>
      <trkpt lat="43.01849" lon="-0.93447">
        <ele>458</ele>
        <time>2021-08-20T16:40:00Z</time>
      </trkpt>
      <trkpt lat="43.01855" lon="-0.93388">
        <ele>457</ele>
        <time>2021-08-20T16:40:08Z</time>
      </trkpt>
      <trkpt lat="43.01862" lon="-0.93358">
        <ele>453</ele>
        <time>2021-08-20T16:40:12Z</time>
      </trkpt>
      <trkpt lat="43.01885" lon="-0.93298">
        <ele>433</ele>
        <time>2021-08-20T16:40:21Z</time>
      </trkpt>
      <trkpt lat="43.01889" lon="-0.93286">
        <ele>430</ele>
        <time>2021-08-20T16:40:23Z</time>
      </trkpt>
      <trkpt lat="43.0189" lon="-0.93271">
        <ele>428</ele>
        <time>2021-08-20T16:40:25Z</time>
      </trkpt>
      <trkpt lat="43.01889" lon="-0.93259">
        <ele>427</ele>
        <time>2021-08-20T16:40:26Z</time>
      </trkpt>
      <trkpt lat="43.01885" lon="-0.93245">
        <ele>428</ele>
        <time>2021-08-20T16:40:28Z</time>
      </trkpt>
      <trkpt lat="43.01848" lon="-0.93194">
        <ele>440</ele>
        <time>2021-08-20T16:40:38Z</time>
      </trkpt>
      <trkpt lat="43.01842" lon="-0.93181">
        <ele>441</ele>
        <time>2021-08-20T16:40:40Z</time>
      </trkpt>
      <trkpt lat="43.01839" lon="-0.9317">
        <ele>440</ele>
        <time>2021-08-20T16:40:41Z</time>
      </trkpt>
      <trkpt lat="43.01839" lon="-0.93147">
        <ele>436</ele>
        <time>2021-08-20T16:40:44Z</time>
      </trkpt>
      <trkpt lat="43.01854" lon="-0.93102">
        <ele>425</ele>
        <time>2021-08-20T16:40:50Z</time>
      </trkpt>
      <trkpt lat="43.01856" lon="-0.93081">
        <ele>423</ele>
        <time>2021-08-20T16:40:53Z</time>
      </trkpt>
      <trkpt lat="43.01851" lon="-0.93063">
        <ele>423</ele>
        <time>2021-08-20T16:40:56Z</time>
      </trkpt>
      <trkpt lat="43.01832" lon="-0.93033">
        <ele>422</ele>
        <time>2021-08-20T16:41:01Z</time>
      </trkpt>
      <trkpt lat="43.01824" lon="-0.93019">
        <ele>425</ele>
        <time>2021-08-20T16:41:03Z</time>
      </trkpt>
      <trkpt lat="43.01818" lon="-0.93">
        <ele>426</ele>
        <time>2021-08-20T16:41:06Z</time>
      </trkpt>
      <trkpt lat="43.01817" lon="-0.92983">
        <ele>424</ele>
        <time>2021-08-20T16:41:08Z</time>
      </trkpt>
      <trkpt lat="43.01825" lon="-0.9295">
        <ele>416</ele>
        <time>2021-08-20T16:41:13Z</time>
      </trkpt>
      <trkpt lat="43.01845" lon="-0.92906">
        <ele>412</ele>
        <time>2021-08-20T16:41:19Z</time>
      </trkpt>
      <trkpt lat="43.01852" lon="-0.92885">
        <ele>412</ele>
        <time>2021-08-20T16:41:22Z</time>
      </trkpt>
      <trkpt lat="43.01854" lon="-0.9288">
        <ele>412</ele>
        <time>2021-08-20T16:41:23Z</time>
      </trkpt>
      <trkpt lat="43.01859" lon="-0.92866">
        <ele>412</ele>
        <time>2021-08-20T16:41:25Z</time>
      </trkpt>
      <trkpt lat="43.01861" lon="-0.92853">
        <ele>412</ele>
        <time>2021-08-20T16:41:27Z</time>
      </trkpt>
      <trkpt lat="43.01859" lon="-0.92841">
        <ele>410</ele>
        <time>2021-08-20T16:41:28Z</time>
      </trkpt>
      <trkpt lat="43.01834" lon="-0.92799">
        <ele>397</ele>
        <time>2021-08-20T16:41:36Z</time>
      </trkpt>
      <trkpt lat="43.0183" lon="-0.92789">
        <ele>395</ele>
        <time>2021-08-20T16:41:37Z</time>
      </trkpt>
      <trkpt lat="43.01828" lon="-0.92779">
        <ele>394</ele>
        <time>2021-08-20T16:41:38Z</time>
      </trkpt>
      <trkpt lat="43.01829" lon="-0.9277">
        <ele>393</ele>
        <time>2021-08-20T16:41:40Z</time>
      </trkpt>
      <trkpt lat="43.01836" lon="-0.92757">
        <ele>391</ele>
        <time>2021-08-20T16:41:42Z</time>
      </trkpt>
      <trkpt lat="43.01845" lon="-0.92752">
        <ele>392</ele>
        <time>2021-08-20T16:41:43Z</time>
      </trkpt>
      <trkpt lat="43.01859" lon="-0.92748">
        <ele>395</ele>
        <time>2021-08-20T16:41:46Z</time>
      </trkpt>
      <trkpt lat="43.01868" lon="-0.92743">
        <ele>397</ele>
        <time>2021-08-20T16:41:48Z</time>
      </trkpt>
      <trkpt lat="43.01904" lon="-0.92712">
        <ele>399</ele>
        <time>2021-08-20T16:41:55Z</time>
      </trkpt>
      <trkpt lat="43.01917" lon="-0.92697">
        <ele>397</ele>
        <time>2021-08-20T16:41:58Z</time>
      </trkpt>
      <trkpt lat="43.01922" lon="-0.92687">
        <ele>398</ele>
        <time>2021-08-20T16:42:00Z</time>
      </trkpt>
      <trkpt lat="43.01926" lon="-0.92675">
        <ele>397</ele>
        <time>2021-08-20T16:42:02Z</time>
      </trkpt>
      <trkpt lat="43.01937" lon="-0.92515">
        <ele>389</ele>
        <time>2021-08-20T16:42:22Z</time>
      </trkpt>
      <trkpt lat="43.01942" lon="-0.92502">
        <ele>387</ele>
        <time>2021-08-20T16:42:24Z</time>
      </trkpt>
      <trkpt lat="43.01947" lon="-0.92492">
        <ele>389</ele>
        <time>2021-08-20T16:42:26Z</time>
      </trkpt>
      <trkpt lat="43.01956" lon="-0.92484">
        <ele>389</ele>
        <time>2021-08-20T16:42:28Z</time>
      </trkpt>
      <trkpt lat="43.01968" lon="-0.92479">
        <ele>388</ele>
        <time>2021-08-20T16:42:30Z</time>
      </trkpt>
      <trkpt lat="43.0198" lon="-0.9248">
        <ele>385</ele>
        <time>2021-08-20T16:42:32Z</time>
      </trkpt>
      <trkpt lat="43.02041" lon="-0.92507">
        <ele>382</ele>
        <time>2021-08-20T16:42:44Z</time>
      </trkpt>
      <trkpt lat="43.02055" lon="-0.92511">
        <ele>384</ele>
        <time>2021-08-20T16:42:46Z</time>
      </trkpt>
      <trkpt lat="43.02089" lon="-0.92511">
        <ele>385</ele>
        <time>2021-08-20T16:42:52Z</time>
      </trkpt>
      <trkpt lat="43.02109" lon="-0.92504">
        <ele>384</ele>
        <time>2021-08-20T16:42:56Z</time>
      </trkpt>
      <trkpt lat="43.02127" lon="-0.92495">
        <ele>383</ele>
        <time>2021-08-20T16:42:59Z</time>
      </trkpt>
      <trkpt lat="43.02143" lon="-0.92485">
        <ele>383</ele>
        <time>2021-08-20T16:43:02Z</time>
      </trkpt>
      <trkpt lat="43.02157" lon="-0.92472">
        <ele>382</ele>
        <time>2021-08-20T16:43:05Z</time>
      </trkpt>
      <trkpt lat="43.02192" lon="-0.92417">
        <ele>376</ele>
        <time>2021-08-20T16:43:15Z</time>
      </trkpt>
      <trkpt lat="43.02221" lon="-0.92378">
        <ele>381</ele>
        <time>2021-08-20T16:43:22Z</time>
      </trkpt>
      <trkpt lat="43.02231" lon="-0.92369">
        <ele>381</ele>
        <time>2021-08-20T16:43:24Z</time>
      </trkpt>
      <trkpt lat="43.02242" lon="-0.92362">
        <ele>381</ele>
        <time>2021-08-20T16:43:26Z</time>
      </trkpt>
      <trkpt lat="43.02257" lon="-0.92359">
        <ele>380</ele>
        <time>2021-08-20T16:43:29Z</time>
      </trkpt>
      <trkpt lat="43.0228" lon="-0.92365">
        <ele>382</ele>
        <time>2021-08-20T16:43:33Z</time>
      </trkpt>
      <trkpt lat="43.02299" lon="-0.92376">
        <ele>382</ele>
        <time>2021-08-20T16:43:37Z</time>
      </trkpt>
      <trkpt lat="43.02411" lon="-0.92472">
        <ele>386</ele>
        <time>2021-08-20T16:44:00Z</time>
      </trkpt>
      <trkpt lat="43.02424" lon="-0.92479">
        <ele>386</ele>
        <time>2021-08-20T16:44:03Z</time>
      </trkpt>
      <trkpt lat="43.02436" lon="-0.92482">
        <ele>386</ele>
        <time>2021-08-20T16:44:05Z</time>
      </trkpt>
      <trkpt lat="43.02452" lon="-0.92481">
        <ele>385</ele>
        <time>2021-08-20T16:44:08Z</time>
      </trkpt>
      <trkpt lat="43.02486" lon="-0.92469">
        <ele>384</ele>
        <time>2021-08-20T16:44:14Z</time>
      </trkpt>
      <trkpt lat="43.02497" lon="-0.92469">
        <ele>384</ele>
        <time>2021-08-20T16:44:16Z</time>
      </trkpt>
      <trkpt lat="43.02507" lon="-0.92474">
        <ele>383</ele>
        <time>2021-08-20T16:44:18Z</time>
      </trkpt>
      <trkpt lat="43.02536" lon="-0.92506">
        <ele>381</ele>
        <time>2021-08-20T16:44:25Z</time>
      </trkpt>
      <trkpt lat="43.02549" lon="-0.92516">
        <ele>383</ele>
        <time>2021-08-20T16:44:27Z</time>
      </trkpt>
      <trkpt lat="43.02565" lon="-0.92523">
        <ele>384</ele>
        <time>2021-08-20T16:44:30Z</time>
      </trkpt>
      <trkpt lat="43.02581" lon="-0.92527">
        <ele>384</ele>
        <time>2021-08-20T16:44:33Z</time>
      </trkpt>
      <trkpt lat="43.02593" lon="-0.92525">
        <ele>386</ele>
        <time>2021-08-20T16:44:35Z</time>
      </trkpt>
      <trkpt lat="43.02604" lon="-0.9252">
        <ele>387</ele>
        <time>2021-08-20T16:44:37Z</time>
      </trkpt>
      <trkpt lat="43.02643" lon="-0.92492">
        <ele>384</ele>
        <time>2021-08-20T16:44:45Z</time>
      </trkpt>
      <trkpt lat="43.02653" lon="-0.92481">
        <ele>384</ele>
        <time>2021-08-20T16:44:48Z</time>
      </trkpt>
      <trkpt lat="43.02672" lon="-0.92444">
        <ele>380</ele>
        <time>2021-08-20T16:44:53Z</time>
      </trkpt>
      <trkpt lat="43.02766" lon="-0.92249">
        <ele>377</ele>
        <time>2021-08-20T16:45:24Z</time>
      </trkpt>
      <trkpt lat="43.02806" lon="-0.92191">
        <ele>378</ele>
        <time>2021-08-20T16:45:34Z</time>
      </trkpt>
      <trkpt lat="43.02825" lon="-0.92168">
        <ele>372</ele>
        <time>2021-08-20T16:45:39Z</time>
      </trkpt>
      <trkpt lat="43.02852" lon="-0.9214">
        <ele>376</ele>
        <time>2021-08-20T16:45:45Z</time>
      </trkpt>
      <trkpt lat="43.02864" lon="-0.92123">
        <ele>378</ele>
        <time>2021-08-20T16:45:48Z</time>
      </trkpt>
      <trkpt lat="43.02884" lon="-0.92079">
        <ele>377</ele>
        <time>2021-08-20T16:45:55Z</time>
      </trkpt>
      <trkpt lat="43.02898" lon="-0.9205">
        <ele>376</ele>
        <time>2021-08-20T16:45:59Z</time>
      </trkpt>
      <trkpt lat="43.02933" lon="-0.91992">
        <ele>372</ele>
        <time>2021-08-20T16:46:09Z</time>
      </trkpt>
      <trkpt lat="43.02954" lon="-0.91936">
        <ele>375</ele>
        <time>2021-08-20T16:46:17Z</time>
      </trkpt>
      <trkpt lat="43.02959" lon="-0.91917">
        <ele>375</ele>
        <time>2021-08-20T16:46:20Z</time>
      </trkpt>
      <trkpt lat="43.02967" lon="-0.91868">
        <ele>374</ele>
        <time>2021-08-20T16:46:26Z</time>
      </trkpt>
      <trkpt lat="43.02971" lon="-0.91834">
        <ele>372</ele>
        <time>2021-08-20T16:46:31Z</time>
      </trkpt>
      <trkpt lat="43.02971" lon="-0.918">
        <ele>371</ele>
        <time>2021-08-20T16:46:35Z</time>
      </trkpt>
      <trkpt lat="43.02968" lon="-0.91683">
        <ele>371</ele>
        <time>2021-08-20T16:46:50Z</time>
      </trkpt>
      <trkpt lat="43.02971" lon="-0.91662">
        <ele>371</ele>
        <time>2021-08-20T16:46:53Z</time>
      </trkpt>
      <trkpt lat="43.02976" lon="-0.91643">
        <ele>372</ele>
        <time>2021-08-20T16:46:56Z</time>
      </trkpt>
      <trkpt lat="43.02983" lon="-0.91631">
        <ele>370</ele>
        <time>2021-08-20T16:46:58Z</time>
      </trkpt>
      <trkpt lat="43.02992" lon="-0.91621">
        <ele>366</ele>
        <time>2021-08-20T16:47:00Z</time>
      </trkpt>
      <trkpt lat="43.03027" lon="-0.91595">
        <ele>367</ele>
        <time>2021-08-20T16:47:07Z</time>
      </trkpt>
      <trkpt lat="43.0304" lon="-0.91578">
        <ele>368</ele>
        <time>2021-08-20T16:47:10Z</time>
      </trkpt>
      <trkpt lat="43.03049" lon="-0.91561">
        <ele>369</ele>
        <time>2021-08-20T16:47:13Z</time>
      </trkpt>
      <trkpt lat="43.03057" lon="-0.91539">
        <ele>370</ele>
        <time>2021-08-20T16:47:16Z</time>
      </trkpt>
      <trkpt lat="43.0306" lon="-0.91514">
        <ele>370</ele>
        <time>2021-08-20T16:47:19Z</time>
      </trkpt>
      <trkpt lat="43.03058" lon="-0.91486">
        <ele>371</ele>
        <time>2021-08-20T16:47:23Z</time>
      </trkpt>
      <trkpt lat="43.03054" lon="-0.91448">
        <ele>373</ele>
        <time>2021-08-20T16:47:28Z</time>
      </trkpt>
      <trkpt lat="43.03056" lon="-0.91416">
        <ele>373</ele>
        <time>2021-08-20T16:47:32Z</time>
      </trkpt>
      <trkpt lat="43.0306" lon="-0.91404">
        <ele>371</ele>
        <time>2021-08-20T16:47:34Z</time>
      </trkpt>
      <trkpt lat="43.03069" lon="-0.91384">
        <ele>367</ele>
        <time>2021-08-20T16:47:37Z</time>
      </trkpt>
      <trkpt lat="43.03078" lon="-0.91375">
        <ele>361</ele>
        <time>2021-08-20T16:47:39Z</time>
      </trkpt>
      <trkpt lat="43.0309" lon="-0.91365">
        <ele>360</ele>
        <time>2021-08-20T16:47:41Z</time>
      </trkpt>
      <trkpt lat="43.03121" lon="-0.9135">
        <ele>368</ele>
        <time>2021-08-20T16:47:47Z</time>
      </trkpt>
      <trkpt lat="43.03136" lon="-0.91337">
        <ele>370</ele>
        <time>2021-08-20T16:47:50Z</time>
      </trkpt>
      <trkpt lat="43.03147" lon="-0.91319">
        <ele>370</ele>
        <time>2021-08-20T16:47:53Z</time>
      </trkpt>
      <trkpt lat="43.03157" lon="-0.91282">
        <ele>364</ele>
        <time>2021-08-20T16:47:59Z</time>
      </trkpt>
      <trkpt lat="43.03162" lon="-0.91248">
        <ele>356</ele>
        <time>2021-08-20T16:48:03Z</time>
      </trkpt>
      <trkpt lat="43.03168" lon="-0.91235">
        <ele>358</ele>
        <time>2021-08-20T16:48:05Z</time>
      </trkpt>
      <trkpt lat="43.03176" lon="-0.91226">
        <ele>362</ele>
        <time>2021-08-20T16:48:07Z</time>
      </trkpt>
      <trkpt lat="43.03197" lon="-0.91208">
        <ele>367</ele>
        <time>2021-08-20T16:48:11Z</time>
      </trkpt>
      <trkpt lat="43.03239" lon="-0.91181">
        <ele>365</ele>
        <time>2021-08-20T16:48:20Z</time>
      </trkpt>
      <trkpt lat="43.03267" lon="-0.91148">
        <ele>367</ele>
        <time>2021-08-20T16:48:26Z</time>
      </trkpt>
      <trkpt lat="43.03277" lon="-0.91131">
        <ele>371</ele>
        <time>2021-08-20T16:48:29Z</time>
      </trkpt>
      <trkpt lat="43.03283" lon="-0.91113">
        <ele>371</ele>
        <time>2021-08-20T16:48:32Z</time>
      </trkpt>
      <trkpt lat="43.03298" lon="-0.91059">
        <ele>370</ele>
        <time>2021-08-20T16:48:39Z</time>
      </trkpt>
      <trkpt lat="43.03315" lon="-0.91002">
        <ele>365</ele>
        <time>2021-08-20T16:48:47Z</time>
      </trkpt>
      <trkpt lat="43.03331" lon="-0.90974">
        <ele>359</ele>
        <time>2021-08-20T16:48:52Z</time>
      </trkpt>
      <trkpt lat="43.0335" lon="-0.90948">
        <ele>361</ele>
        <time>2021-08-20T16:48:57Z</time>
      </trkpt>
      <trkpt lat="43.03443" lon="-0.90836">
        <ele>358</ele>
        <time>2021-08-20T16:49:19Z</time>
      </trkpt>
      <trkpt lat="43.03476" lon="-0.908">
        <ele>361</ele>
        <time>2021-08-20T16:49:26Z</time>
      </trkpt>
      <trkpt lat="43.0349" lon="-0.90776">
        <ele>356</ele>
        <time>2021-08-20T16:49:30Z</time>
      </trkpt>
      <trkpt lat="43.03506" lon="-0.90727">
        <ele>350</ele>
        <time>2021-08-20T16:49:37Z</time>
      </trkpt>
      <trkpt lat="43.03529" lon="-0.9063">
        <ele>349</ele>
        <time>2021-08-20T16:49:50Z</time>
      </trkpt>
      <trkpt lat="43.03536" lon="-0.90565">
        <ele>347</ele>
        <time>2021-08-20T16:49:59Z</time>
      </trkpt>
      <trkpt lat="43.0354" lon="-0.90505">
        <ele>343</ele>
        <time>2021-08-20T16:50:07Z</time>
      </trkpt>
      <trkpt lat="43.03545" lon="-0.90473">
        <ele>344</ele>
        <time>2021-08-20T16:50:11Z</time>
      </trkpt>
      <trkpt lat="43.03553" lon="-0.90452">
        <ele>343</ele>
        <time>2021-08-20T16:50:14Z</time>
      </trkpt>
      <trkpt lat="43.03566" lon="-0.90431">
        <ele>338</ele>
        <time>2021-08-20T16:50:18Z</time>
      </trkpt>
      <trkpt lat="43.03579" lon="-0.9042">
        <ele>331</ele>
        <time>2021-08-20T16:50:20Z</time>
      </trkpt>
      <trkpt lat="43.03594" lon="-0.90413">
        <ele>330</ele>
        <time>2021-08-20T16:50:23Z</time>
      </trkpt>
      <trkpt lat="43.03671" lon="-0.90393">
        <ele>330</ele>
        <time>2021-08-20T16:50:37Z</time>
      </trkpt>
      <trkpt lat="43.03693" lon="-0.90389">
        <ele>332</ele>
        <time>2021-08-20T16:50:41Z</time>
      </trkpt>
      <trkpt lat="43.03726" lon="-0.90388">
        <ele>336</ele>
        <time>2021-08-20T16:50:47Z</time>
      </trkpt>
      <trkpt lat="43.03739" lon="-0.90385">
        <ele>337</ele>
        <time>2021-08-20T16:50:49Z</time>
      </trkpt>
      <trkpt lat="43.0376" lon="-0.90375">
        <ele>339</ele>
        <time>2021-08-20T16:50:53Z</time>
      </trkpt>
      <trkpt lat="43.03773" lon="-0.90362">
        <ele>341</ele>
        <time>2021-08-20T16:50:56Z</time>
      </trkpt>
      <trkpt lat="43.03786" lon="-0.90345">
        <ele>341</ele>
        <time>2021-08-20T16:50:59Z</time>
      </trkpt>
      <trkpt lat="43.03796" lon="-0.90324">
        <ele>340</ele>
        <time>2021-08-20T16:51:03Z</time>
      </trkpt>
      <trkpt lat="43.03805" lon="-0.90296">
        <ele>338</ele>
        <time>2021-08-20T16:51:07Z</time>
      </trkpt>
      <trkpt lat="43.03807" lon="-0.90267">
        <ele>333</ele>
        <time>2021-08-20T16:51:10Z</time>
      </trkpt>
      <trkpt lat="43.03808" lon="-0.9021">
        <ele>330</ele>
        <time>2021-08-20T16:51:18Z</time>
      </trkpt>
      <trkpt lat="43.038" lon="-0.90133">
        <ele>331</ele>
        <time>2021-08-20T16:51:28Z</time>
      </trkpt>
      <trkpt lat="43.038" lon="-0.90114">
        <ele>332</ele>
        <time>2021-08-20T16:51:30Z</time>
      </trkpt>
      <trkpt lat="43.03802" lon="-0.90102">
        <ele>332</ele>
        <time>2021-08-20T16:51:32Z</time>
      </trkpt>
      <trkpt lat="43.03806" lon="-0.90093">
        <ele>331</ele>
        <time>2021-08-20T16:51:33Z</time>
      </trkpt>
      <trkpt lat="43.03813" lon="-0.90082">
        <ele>329</ele>
        <time>2021-08-20T16:51:35Z</time>
      </trkpt>
      <trkpt lat="43.03847" lon="-0.90051">
        <ele>325</ele>
        <time>2021-08-20T16:51:42Z</time>
      </trkpt>
      <trkpt lat="43.03856" lon="-0.90041">
        <ele>327</ele>
        <time>2021-08-20T16:51:45Z</time>
      </trkpt>
      <trkpt lat="43.03867" lon="-0.90025">
        <ele>329</ele>
        <time>2021-08-20T16:51:47Z</time>
      </trkpt>
      <trkpt lat="43.03876" lon="-0.90003">
        <ele>329</ele>
        <time>2021-08-20T16:51:51Z</time>
      </trkpt>
      <trkpt lat="43.0388" lon="-0.89981">
        <ele>329</ele>
        <time>2021-08-20T16:51:54Z</time>
      </trkpt>
      <trkpt lat="43.03883" lon="-0.89947">
        <ele>328</ele>
        <time>2021-08-20T16:51:58Z</time>
      </trkpt>
      <trkpt lat="43.03891" lon="-0.89922">
        <ele>326</ele>
        <time>2021-08-20T16:52:02Z</time>
      </trkpt>
      <trkpt lat="43.03902" lon="-0.89904">
        <ele>324</ele>
        <time>2021-08-20T16:52:05Z</time>
      </trkpt>
      <trkpt lat="43.03915" lon="-0.89892">
        <ele>322</ele>
        <time>2021-08-20T16:52:07Z</time>
      </trkpt>
      <trkpt lat="43.03928" lon="-0.89885">
        <ele>323</ele>
        <time>2021-08-20T16:52:10Z</time>
      </trkpt>
      <trkpt lat="43.03941" lon="-0.89886">
        <ele>325</ele>
        <time>2021-08-20T16:52:12Z</time>
      </trkpt>
      <trkpt lat="43.03972" lon="-0.89894">
        <ele>333</ele>
        <time>2021-08-20T16:52:18Z</time>
      </trkpt>
      <trkpt lat="43.03991" lon="-0.89888">
        <ele>335</ele>
        <time>2021-08-20T16:52:21Z</time>
      </trkpt>
      <trkpt lat="43.04007" lon="-0.89879">
        <ele>335</ele>
        <time>2021-08-20T16:52:24Z</time>
      </trkpt>
      <trkpt lat="43.04033" lon="-0.8986">
        <ele>334</ele>
        <time>2021-08-20T16:52:30Z</time>
      </trkpt>
      <trkpt lat="43.04041" lon="-0.8985">
        <ele>332</ele>
        <time>2021-08-20T16:52:32Z</time>
      </trkpt>
      <trkpt lat="43.04063" lon="-0.89804">
        <ele>325</ele>
        <time>2021-08-20T16:52:39Z</time>
      </trkpt>
      <trkpt lat="43.04073" lon="-0.89789">
        <ele>323</ele>
        <time>2021-08-20T16:52:41Z</time>
      </trkpt>
      <trkpt lat="43.04114" lon="-0.89759">
        <ele>330</ele>
        <time>2021-08-20T16:52:50Z</time>
      </trkpt>
      <trkpt lat="43.0413" lon="-0.89738">
        <ele>333</ele>
        <time>2021-08-20T16:52:54Z</time>
      </trkpt>
      <trkpt lat="43.04153" lon="-0.89697">
        <ele>330</ele>
        <time>2021-08-20T16:53:00Z</time>
      </trkpt>
      <trkpt lat="43.04193" lon="-0.89606">
        <ele>326</ele>
        <time>2021-08-20T16:53:14Z</time>
      </trkpt>
      <trkpt lat="43.04241" lon="-0.89525">
        <ele>325</ele>
        <time>2021-08-20T16:53:28Z</time>
      </trkpt>
      <trkpt lat="43.04306" lon="-0.89403">
        <ele>313</ele>
        <time>2021-08-20T16:53:47Z</time>
      </trkpt>
      <trkpt lat="43.04326" lon="-0.89377">
        <ele>311</ele>
        <time>2021-08-20T16:53:52Z</time>
      </trkpt>
      <trkpt lat="43.04342" lon="-0.89365">
        <ele>311</ele>
        <time>2021-08-20T16:53:55Z</time>
      </trkpt>
      <trkpt lat="43.04355" lon="-0.89361">
        <ele>313</ele>
        <time>2021-08-20T16:53:58Z</time>
      </trkpt>
      <trkpt lat="43.04394" lon="-0.89353">
        <ele>320</ele>
        <time>2021-08-20T16:54:05Z</time>
      </trkpt>
      <trkpt lat="43.04408" lon="-0.89346">
        <ele>320</ele>
        <time>2021-08-20T16:54:08Z</time>
      </trkpt>
      <trkpt lat="43.04431" lon="-0.8932">
        <ele>323</ele>
        <time>2021-08-20T16:54:13Z</time>
      </trkpt>
      <trkpt lat="43.04449" lon="-0.89279">
        <ele>324</ele>
        <time>2021-08-20T16:54:19Z</time>
      </trkpt>
      <trkpt lat="43.04453" lon="-0.89243">
        <ele>320</ele>
        <time>2021-08-20T16:54:24Z</time>
      </trkpt>
      <trkpt lat="43.04461" lon="-0.89108">
        <ele>321</ele>
        <time>2021-08-20T16:54:41Z</time>
      </trkpt>
      <trkpt lat="43.04466" lon="-0.89068">
        <ele>321</ele>
        <time>2021-08-20T16:54:47Z</time>
      </trkpt>
      <trkpt lat="43.04472" lon="-0.89043">
        <ele>321</ele>
        <time>2021-08-20T16:54:50Z</time>
      </trkpt>
      <trkpt lat="43.04481" lon="-0.89023">
        <ele>318</ele>
        <time>2021-08-20T16:54:53Z</time>
      </trkpt>
      <trkpt lat="43.04495" lon="-0.8901">
        <ele>311</ele>
        <time>2021-08-20T16:54:56Z</time>
      </trkpt>
      <trkpt lat="43.04515" lon="-0.88998">
        <ele>311</ele>
        <time>2021-08-20T16:55:00Z</time>
      </trkpt>
      <trkpt lat="43.04669" lon="-0.88964">
        <ele>330</ele>
        <time>2021-08-20T16:55:28Z</time>
      </trkpt>
      <trkpt lat="43.047" lon="-0.88937">
        <ele>327</ele>
        <time>2021-08-20T16:55:34Z</time>
      </trkpt>
      <trkpt lat="43.0473" lon="-0.88867">
        <ele>316</ele>
        <time>2021-08-20T16:55:45Z</time>
      </trkpt>
      <trkpt lat="43.0475" lon="-0.88812">
        <ele>302</ele>
        <time>2021-08-20T16:55:53Z</time>
      </trkpt>
      <trkpt lat="43.04768" lon="-0.88771">
        <ele>306</ele>
        <time>2021-08-20T16:55:59Z</time>
      </trkpt>
      <trkpt lat="43.04798" lon="-0.88716">
        <ele>307</ele>
        <time>2021-08-20T16:56:08Z</time>
      </trkpt>
      <trkpt lat="43.04805" lon="-0.887">
        <ele>305</ele>
        <time>2021-08-20T16:56:10Z</time>
      </trkpt>
      <trkpt lat="43.04807" lon="-0.88683">
        <ele>303</ele>
        <time>2021-08-20T16:56:13Z</time>
      </trkpt>
      <trkpt lat="43.04803" lon="-0.88651">
        <ele>298</ele>
        <time>2021-08-20T16:56:17Z</time>
      </trkpt>
      <trkpt lat="43.04805" lon="-0.8863">
        <ele>296</ele>
        <time>2021-08-20T16:56:20Z</time>
      </trkpt>
      <trkpt lat="43.04819" lon="-0.88612">
        <ele>293</ele>
        <time>2021-08-20T16:56:23Z</time>
      </trkpt>
      <trkpt lat="43.04884" lon="-0.8858">
        <ele>291</ele>
        <time>2021-08-20T16:56:35Z</time>
      </trkpt>
      <trkpt lat="43.049" lon="-0.88567">
        <ele>291</ele>
        <time>2021-08-20T16:56:39Z</time>
      </trkpt>
      <trkpt lat="43.04906" lon="-0.8855">
        <ele>291</ele>
        <time>2021-08-20T16:56:41Z</time>
      </trkpt>
      <trkpt lat="43.04907" lon="-0.88503">
        <ele>290</ele>
        <time>2021-08-20T16:56:47Z</time>
      </trkpt>
      <trkpt lat="43.04908" lon="-0.8849">
        <ele>292</ele>
        <time>2021-08-20T16:56:49Z</time>
      </trkpt>
      <trkpt lat="43.04914" lon="-0.88482">
        <ele>293</ele>
        <time>2021-08-20T16:56:50Z</time>
      </trkpt>
      <trkpt lat="43.04949" lon="-0.88455">
        <ele>295</ele>
        <time>2021-08-20T16:56:58Z</time>
      </trkpt>
      <trkpt lat="43.04963" lon="-0.88432">
        <ele>295</ele>
        <time>2021-08-20T16:57:01Z</time>
      </trkpt>
      <trkpt lat="43.04976" lon="-0.88393">
        <ele>298</ele>
        <time>2021-08-20T16:57:07Z</time>
      </trkpt>
      <trkpt lat="43.04993" lon="-0.88319">
        <ele>303</ele>
        <time>2021-08-20T16:57:17Z</time>
      </trkpt>
      <trkpt lat="43.05018" lon="-0.88255">
        <ele>314</ele>
        <time>2021-08-20T16:57:27Z</time>
      </trkpt>
      <trkpt lat="43.05017" lon="-0.88243">
        <ele>318</ele>
        <time>2021-08-20T16:57:28Z</time>
      </trkpt>
      <trkpt lat="43.05014" lon="-0.88239">
        <ele>321</ele>
        <time>2021-08-20T16:57:29Z</time>
      </trkpt>
      <trkpt lat="43.05013" lon="-0.88236">
        <ele>322</ele>
        <time>2021-08-20T16:57:29Z</time>
      </trkpt>
      <trkpt lat="43.05015" lon="-0.8823">
        <ele>323</ele>
        <time>2021-08-20T16:57:30Z</time>
      </trkpt>
      <trkpt lat="43.05028" lon="-0.88212">
        <ele>323</ele>
        <time>2021-08-20T16:57:33Z</time>
      </trkpt>
      <trkpt lat="43.05074" lon="-0.88176">
        <ele>314</ele>
        <time>2021-08-20T16:57:43Z</time>
      </trkpt>
      <trkpt lat="43.05132" lon="-0.88157">
        <ele>306</ele>
        <time>2021-08-20T16:57:54Z</time>
      </trkpt>
      <trkpt lat="43.0516" lon="-0.88152">
        <ele>302</ele>
        <time>2021-08-20T16:57:59Z</time>
      </trkpt>
      <trkpt lat="43.05193" lon="-0.88154">
        <ele>296</ele>
        <time>2021-08-20T16:58:04Z</time>
      </trkpt>
      <trkpt lat="43.05255" lon="-0.88123">
        <ele>302</ele>
        <time>2021-08-20T16:58:16Z</time>
      </trkpt>
      <trkpt lat="43.05323" lon="-0.88097">
        <ele>305</ele>
        <time>2021-08-20T16:58:29Z</time>
      </trkpt>
      <trkpt lat="43.05358" lon="-0.88095">
        <ele>306</ele>
        <time>2021-08-20T16:58:35Z</time>
      </trkpt>
      <trkpt lat="43.05384" lon="-0.88101">
        <ele>306</ele>
        <time>2021-08-20T16:58:40Z</time>
      </trkpt>
      <trkpt lat="43.05404" lon="-0.88101">
        <ele>307</ele>
        <time>2021-08-20T16:58:43Z</time>
      </trkpt>
      <trkpt lat="43.05433" lon="-0.88095">
        <ele>309</ele>
        <time>2021-08-20T16:58:48Z</time>
      </trkpt>
      <trkpt lat="43.055" lon="-0.88103">
        <ele>306</ele>
        <time>2021-08-20T16:59:00Z</time>
      </trkpt>
      <trkpt lat="43.0553" lon="-0.88097">
        <ele>300</ele>
        <time>2021-08-20T16:59:06Z</time>
      </trkpt>
      <trkpt lat="43.05557" lon="-0.88083">
        <ele>294</ele>
        <time>2021-08-20T16:59:11Z</time>
      </trkpt>
      <trkpt lat="43.05579" lon="-0.88063">
        <ele>295</ele>
        <time>2021-08-20T16:59:16Z</time>
      </trkpt>
      <trkpt lat="43.05592" lon="-0.88042">
        <ele>299</ele>
        <time>2021-08-20T16:59:19Z</time>
      </trkpt>
      <trkpt lat="43.05625" lon="-0.87963">
        <ele>310</ele>
        <time>2021-08-20T16:59:31Z</time>
      </trkpt>
      <trkpt lat="43.05659" lon="-0.87911">
        <ele>306</ele>
        <time>2021-08-20T16:59:40Z</time>
      </trkpt>
      <trkpt lat="43.05693" lon="-0.87867">
        <ele>308</ele>
        <time>2021-08-20T16:59:48Z</time>
      </trkpt>
      <trkpt lat="43.05712" lon="-0.87849">
        <ele>306</ele>
        <time>2021-08-20T16:59:53Z</time>
      </trkpt>
      <trkpt lat="43.05736" lon="-0.87833">
        <ele>300</ele>
        <time>2021-08-20T16:59:57Z</time>
      </trkpt>
      <trkpt lat="43.05757" lon="-0.87828">
        <ele>295</ele>
        <time>2021-08-20T17:00:01Z</time>
      </trkpt>
      <trkpt lat="43.05785" lon="-0.87829">
        <ele>289</ele>
        <time>2021-08-20T17:00:06Z</time>
      </trkpt>
      <trkpt lat="43.05801" lon="-0.87822">
        <ele>289</ele>
        <time>2021-08-20T17:00:09Z</time>
      </trkpt>
      <trkpt lat="43.05852" lon="-0.87766">
        <ele>292</ele>
        <time>2021-08-20T17:00:21Z</time>
      </trkpt>
      <trkpt lat="43.05939" lon="-0.87677">
        <ele>296</ele>
        <time>2021-08-20T17:00:40Z</time>
      </trkpt>
      <trkpt lat="43.05959" lon="-0.87661">
        <ele>298</ele>
        <time>2021-08-20T17:00:44Z</time>
      </trkpt>
      <trkpt lat="43.05982" lon="-0.87658">
        <ele>295</ele>
        <time>2021-08-20T17:00:48Z</time>
      </trkpt>
      <trkpt lat="43.06032" lon="-0.87672">
        <ele>292</ele>
        <time>2021-08-20T17:00:57Z</time>
      </trkpt>
      <trkpt lat="43.0605" lon="-0.87682">
        <ele>294</ele>
        <time>2021-08-20T17:01:01Z</time>
      </trkpt>
      <trkpt lat="43.06084" lon="-0.87711">
        <ele>292</ele>
        <time>2021-08-20T17:01:08Z</time>
      </trkpt>
      <trkpt lat="43.06111" lon="-0.8773">
        <ele>289</ele>
        <time>2021-08-20T17:01:13Z</time>
      </trkpt>
      <trkpt lat="43.06135" lon="-0.87742">
        <ele>288</ele>
        <time>2021-08-20T17:01:18Z</time>
      </trkpt>
      <trkpt lat="43.06166" lon="-0.87745">
        <ele>290</ele>
        <time>2021-08-20T17:01:23Z</time>
      </trkpt>
      <trkpt lat="43.0621" lon="-0.87743">
        <ele>289</ele>
        <time>2021-08-20T17:01:31Z</time>
      </trkpt>
      <trkpt lat="43.06224" lon="-0.8774">
        <ele>290</ele>
        <time>2021-08-20T17:01:34Z</time>
      </trkpt>
      <trkpt lat="43.06243" lon="-0.87733">
        <ele>291</ele>
        <time>2021-08-20T17:01:37Z</time>
      </trkpt>
      <trkpt lat="43.06268" lon="-0.87716">
        <ele>292</ele>
        <time>2021-08-20T17:01:42Z</time>
      </trkpt>
      <trkpt lat="43.06303" lon="-0.87684">
        <ele>289</ele>
        <time>2021-08-20T17:01:50Z</time>
      </trkpt>
      <trkpt lat="43.06311" lon="-0.87667">
        <ele>288</ele>
        <time>2021-08-20T17:01:52Z</time>
      </trkpt>
      <trkpt lat="43.06315" lon="-0.87644">
        <ele>288</ele>
        <time>2021-08-20T17:01:55Z</time>
      </trkpt>
      <trkpt lat="43.06322" lon="-0.87628">
        <ele>286</ele>
        <time>2021-08-20T17:01:58Z</time>
      </trkpt>
      <trkpt lat="43.0633" lon="-0.8762">
        <ele>283</ele>
        <time>2021-08-20T17:02:00Z</time>
      </trkpt>
      <trkpt lat="43.0634" lon="-0.87616">
        <ele>282</ele>
        <time>2021-08-20T17:02:01Z</time>
      </trkpt>
      <trkpt lat="43.06354" lon="-0.87617">
        <ele>284</ele>
        <time>2021-08-20T17:02:04Z</time>
      </trkpt>
      <trkpt lat="43.06361" lon="-0.87619">
        <ele>285</ele>
        <time>2021-08-20T17:02:05Z</time>
      </trkpt>
      <trkpt lat="43.06367" lon="-0.87625">
        <ele>285</ele>
        <time>2021-08-20T17:02:07Z</time>
      </trkpt>
      <trkpt lat="43.06387" lon="-0.87655">
        <ele>282</ele>
        <time>2021-08-20T17:02:12Z</time>
      </trkpt>
      <trkpt lat="43.06404" lon="-0.8767">
        <ele>280</ele>
        <time>2021-08-20T17:02:15Z</time>
      </trkpt>
      <trkpt lat="43.06417" lon="-0.8767">
        <ele>281</ele>
        <time>2021-08-20T17:02:18Z</time>
      </trkpt>
      <trkpt lat="43.06432" lon="-0.8766">
        <ele>282</ele>
        <time>2021-08-20T17:02:21Z</time>
      </trkpt>
      <trkpt lat="43.06487" lon="-0.87617">
        <ele>294</ele>
        <time>2021-08-20T17:02:32Z</time>
      </trkpt>
      <trkpt lat="43.06509" lon="-0.87608">
        <ele>296</ele>
        <time>2021-08-20T17:02:36Z</time>
      </trkpt>
      <trkpt lat="43.0653" lon="-0.87606">
        <ele>293</ele>
        <time>2021-08-20T17:02:40Z</time>
      </trkpt>
      <trkpt lat="43.06591" lon="-0.87611">
        <ele>281</ele>
        <time>2021-08-20T17:02:51Z</time>
      </trkpt>
      <trkpt lat="43.06608" lon="-0.87616">
        <ele>278</ele>
        <time>2021-08-20T17:02:54Z</time>
      </trkpt>
      <trkpt lat="43.06663" lon="-0.87642">
        <ele>268</ele>
        <time>2021-08-20T17:03:04Z</time>
      </trkpt>
      <trkpt lat="43.06706" lon="-0.87659">
        <ele>264</ele>
        <time>2021-08-20T17:03:12Z</time>
      </trkpt>
      <trkpt lat="43.0674" lon="-0.87657">
        <ele>263</ele>
        <time>2021-08-20T17:03:18Z</time>
      </trkpt>
      <trkpt lat="43.0677" lon="-0.87645">
        <ele>263</ele>
        <time>2021-08-20T17:03:24Z</time>
      </trkpt>
      <trkpt lat="43.06817" lon="-0.87632">
        <ele>264</ele>
        <time>2021-08-20T17:03:32Z</time>
      </trkpt>
      <trkpt lat="43.06858" lon="-0.87626">
        <ele>263</ele>
        <time>2021-08-20T17:03:40Z</time>
      </trkpt>
      <trkpt lat="43.0689" lon="-0.87616">
        <ele>262</ele>
        <time>2021-08-20T17:03:45Z</time>
      </trkpt>
      <trkpt lat="43.06921" lon="-0.87598">
        <ele>261</ele>
        <time>2021-08-20T17:03:51Z</time>
      </trkpt>
      <trkpt lat="43.06986" lon="-0.8755">
        <ele>264</ele>
        <time>2021-08-20T17:04:05Z</time>
      </trkpt>
      <trkpt lat="43.07006" lon="-0.87537">
        <ele>265</ele>
        <time>2021-08-20T17:04:08Z</time>
      </trkpt>
      <trkpt lat="43.07029" lon="-0.87532">
        <ele>266</ele>
        <time>2021-08-20T17:04:13Z</time>
      </trkpt>
      <trkpt lat="43.07049" lon="-0.87532">
        <ele>266</ele>
        <time>2021-08-20T17:04:16Z</time>
      </trkpt>
      <trkpt lat="43.07077" lon="-0.87542">
        <ele>265</ele>
        <time>2021-08-20T17:04:21Z</time>
      </trkpt>
      <trkpt lat="43.07093" lon="-0.87549">
        <ele>266</ele>
        <time>2021-08-20T17:04:24Z</time>
      </trkpt>
      <trkpt lat="43.07105" lon="-0.87561">
        <ele>265</ele>
        <time>2021-08-20T17:04:27Z</time>
      </trkpt>
      <trkpt lat="43.07133" lon="-0.87598">
        <ele>264</ele>
        <time>2021-08-20T17:04:34Z</time>
      </trkpt>
      <trkpt lat="43.07144" lon="-0.8761">
        <ele>264</ele>
        <time>2021-08-20T17:04:36Z</time>
      </trkpt>
      <trkpt lat="43.07154" lon="-0.87617">
        <ele>264</ele>
        <time>2021-08-20T17:04:38Z</time>
      </trkpt>
      <trkpt lat="43.07187" lon="-0.8762">
        <ele>266</ele>
        <time>2021-08-20T17:04:44Z</time>
      </trkpt>
      <trkpt lat="43.07227" lon="-0.87619">
        <ele>266</ele>
        <time>2021-08-20T17:04:51Z</time>
      </trkpt>
      <trkpt lat="43.07243" lon="-0.87613">
        <ele>267</ele>
        <time>2021-08-20T17:04:54Z</time>
      </trkpt>
      <trkpt lat="43.07283" lon="-0.87598">
        <ele>265</ele>
        <time>2021-08-20T17:05:02Z</time>
      </trkpt>
      <trkpt lat="43.07312" lon="-0.8758">
        <ele>264</ele>
        <time>2021-08-20T17:05:07Z</time>
      </trkpt>
      <trkpt lat="43.07347" lon="-0.87543">
        <ele>267</ele>
        <time>2021-08-20T17:05:15Z</time>
      </trkpt>
      <trkpt lat="43.07387" lon="-0.87523">
        <ele>265</ele>
        <time>2021-08-20T17:05:23Z</time>
      </trkpt>
      <trkpt lat="43.07428" lon="-0.87506">
        <ele>261</ele>
        <time>2021-08-20T17:05:30Z</time>
      </trkpt>
      <trkpt lat="43.07458" lon="-0.875">
        <ele>259</ele>
        <time>2021-08-20T17:05:36Z</time>
      </trkpt>
      <trkpt lat="43.07471" lon="-0.87493">
        <ele>259</ele>
        <time>2021-08-20T17:05:38Z</time>
      </trkpt>
      <trkpt lat="43.07487" lon="-0.87476">
        <ele>261</ele>
        <time>2021-08-20T17:05:42Z</time>
      </trkpt>
      <trkpt lat="43.07513" lon="-0.87435">
        <ele>264</ele>
        <time>2021-08-20T17:05:49Z</time>
      </trkpt>
      <trkpt lat="43.07589" lon="-0.8736">
        <ele>265</ele>
        <time>2021-08-20T17:06:06Z</time>
      </trkpt>
      <trkpt lat="43.07659" lon="-0.87275">
        <ele>270</ele>
        <time>2021-08-20T17:06:22Z</time>
      </trkpt>
      <trkpt lat="43.07678" lon="-0.87258">
        <ele>270</ele>
        <time>2021-08-20T17:06:26Z</time>
      </trkpt>
      <trkpt lat="43.07717" lon="-0.87231">
        <ele>264</ele>
        <time>2021-08-20T17:06:34Z</time>
      </trkpt>
      <trkpt lat="43.07739" lon="-0.87211">
        <ele>260</ele>
        <time>2021-08-20T17:06:39Z</time>
      </trkpt>
      <trkpt lat="43.07749" lon="-0.87199">
        <ele>257</ele>
        <time>2021-08-20T17:06:41Z</time>
      </trkpt>
      <trkpt lat="43.07785" lon="-0.87129">
        <ele>257</ele>
        <time>2021-08-20T17:06:52Z</time>
      </trkpt>
      <trkpt lat="43.07797" lon="-0.8711">
        <ele>256</ele>
        <time>2021-08-20T17:06:56Z</time>
      </trkpt>
      <trkpt lat="43.07808" lon="-0.87098">
        <ele>256</ele>
        <time>2021-08-20T17:06:58Z</time>
      </trkpt>
      <trkpt lat="43.07814" lon="-0.87094">
        <ele>256</ele>
        <time>2021-08-20T17:06:59Z</time>
      </trkpt>
      <trkpt lat="43.07826" lon="-0.87091">
        <ele>255</ele>
        <time>2021-08-20T17:07:01Z</time>
      </trkpt>
      <trkpt lat="43.07833" lon="-0.87091">
        <ele>255</ele>
        <time>2021-08-20T17:07:03Z</time>
      </trkpt>
      <trkpt lat="43.0785" lon="-0.87095">
        <ele>256</ele>
        <time>2021-08-20T17:07:06Z</time>
      </trkpt>
      <trkpt lat="43.07897" lon="-0.87111">
        <ele>260</ele>
        <time>2021-08-20T17:07:14Z</time>
      </trkpt>
      <trkpt lat="43.07924" lon="-0.87112">
        <ele>262</ele>
        <time>2021-08-20T17:07:19Z</time>
      </trkpt>
      <trkpt lat="43.07979" lon="-0.87107">
        <ele>266</ele>
        <time>2021-08-20T17:07:29Z</time>
      </trkpt>
      <trkpt lat="43.07994" lon="-0.87112">
        <ele>266</ele>
        <time>2021-08-20T17:07:32Z</time>
      </trkpt>
      <trkpt lat="43.08055" lon="-0.87146">
        <ele>258</ele>
        <time>2021-08-20T17:07:43Z</time>
      </trkpt>
      <trkpt lat="43.08066" lon="-0.87148">
        <ele>257</ele>
        <time>2021-08-20T17:07:45Z</time>
      </trkpt>
      <trkpt lat="43.08077" lon="-0.87149">
        <ele>256</ele>
        <time>2021-08-20T17:07:47Z</time>
      </trkpt>
      <trkpt lat="43.08112" lon="-0.87145">
        <ele>255</ele>
        <time>2021-08-20T17:07:54Z</time>
      </trkpt>
      <trkpt lat="43.08129" lon="-0.87147">
        <ele>254</ele>
        <time>2021-08-20T17:07:57Z</time>
      </trkpt>
      <trkpt lat="43.08237" lon="-0.87159">
        <ele>248</ele>
        <time>2021-08-20T17:08:16Z</time>
      </trkpt>
      <trkpt lat="43.0828" lon="-0.87171">
        <ele>248</ele>
        <time>2021-08-20T17:08:24Z</time>
      </trkpt>
      <trkpt lat="43.0831" lon="-0.87172">
        <ele>250</ele>
        <time>2021-08-20T17:08:29Z</time>
      </trkpt>
      <trkpt lat="43.08377" lon="-0.87161">
        <ele>253</ele>
        <time>2021-08-20T17:08:41Z</time>
      </trkpt>
      <trkpt lat="43.08435" lon="-0.87162">
        <ele>253</ele>
        <time>2021-08-20T17:08:51Z</time>
      </trkpt>
      <trkpt lat="43.08491" lon="-0.87154">
        <ele>255</ele>
        <time>2021-08-20T17:09:01Z</time>
      </trkpt>
      <trkpt lat="43.08528" lon="-0.87152">
        <ele>255</ele>
        <time>2021-08-20T17:09:08Z</time>
      </trkpt>
      <trkpt lat="43.08581" lon="-0.87151">
        <ele>256</ele>
        <time>2021-08-20T17:09:17Z</time>
      </trkpt>
      <trkpt lat="43.08619" lon="-0.87145">
        <ele>259</ele>
        <time>2021-08-20T17:09:24Z</time>
      </trkpt>
      <trkpt lat="43.08644" lon="-0.87136">
        <ele>261</ele>
        <time>2021-08-20T17:09:29Z</time>
      </trkpt>
      <trkpt lat="43.0874" lon="-0.87094">
        <ele>264</ele>
        <time>2021-08-20T17:09:47Z</time>
      </trkpt>
      <trkpt lat="43.08878" lon="-0.87041">
        <ele>264</ele>
        <time>2021-08-20T17:10:12Z</time>
      </trkpt>
      <trkpt lat="43.08935" lon="-0.87009">
        <ele>259</ele>
        <time>2021-08-20T17:10:23Z</time>
      </trkpt>
      <trkpt lat="43.08995" lon="-0.86973">
        <ele>253</ele>
        <time>2021-08-20T17:10:35Z</time>
      </trkpt>
      <trkpt lat="43.09217" lon="-0.86818">
        <ele>242</ele>
        <time>2021-08-20T17:11:19Z</time>
      </trkpt>
      <trkpt lat="43.09256" lon="-0.86792">
        <ele>242</ele>
        <time>2021-08-20T17:11:27Z</time>
      </trkpt>
      <trkpt lat="43.09427" lon="-0.86693">
        <ele>237</ele>
        <time>2021-08-20T17:12:00Z</time>
      </trkpt>
      <trkpt lat="43.09487" lon="-0.86654">
        <ele>237</ele>
        <time>2021-08-20T17:12:12Z</time>
      </trkpt>
      <trkpt lat="43.09521" lon="-0.86621">
        <ele>237</ele>
        <time>2021-08-20T17:12:19Z</time>
      </trkpt>
      <trkpt lat="43.09539" lon="-0.86599">
        <ele>237</ele>
        <time>2021-08-20T17:12:24Z</time>
      </trkpt>
      <trkpt lat="43.09555" lon="-0.86573">
        <ele>237</ele>
        <time>2021-08-20T17:12:28Z</time>
      </trkpt>
      <trkpt lat="43.09573" lon="-0.86541">
        <ele>237</ele>
        <time>2021-08-20T17:12:33Z</time>
      </trkpt>
      <trkpt lat="43.09663" lon="-0.86358">
        <ele>239</ele>
        <time>2021-08-20T17:13:02Z</time>
      </trkpt>
      <trkpt lat="43.09685" lon="-0.86317">
        <ele>239</ele>
        <time>2021-08-20T17:13:08Z</time>
      </trkpt>
      <trkpt lat="43.09695" lon="-0.86303">
        <ele>239</ele>
        <time>2021-08-20T17:13:11Z</time>
      </trkpt>
      <trkpt lat="43.0972" lon="-0.86278">
        <ele>240</ele>
        <time>2021-08-20T17:13:17Z</time>
      </trkpt>
      <trkpt lat="43.09737" lon="-0.86266">
        <ele>241</ele>
        <time>2021-08-20T17:13:20Z</time>
      </trkpt>
      <trkpt lat="43.09751" lon="-0.8626">
        <ele>242</ele>
        <time>2021-08-20T17:13:23Z</time>
      </trkpt>
      <trkpt lat="43.09784" lon="-0.86253">
        <ele>243</ele>
        <time>2021-08-20T17:13:28Z</time>
      </trkpt>
      <trkpt lat="43.09847" lon="-0.86255">
        <ele>243</ele>
        <time>2021-08-20T17:13:40Z</time>
      </trkpt>
      <trkpt lat="43.09869" lon="-0.86252">
        <ele>241</ele>
        <time>2021-08-20T17:13:44Z</time>
      </trkpt>
      <trkpt lat="43.09883" lon="-0.86247">
        <ele>241</ele>
        <time>2021-08-20T17:13:46Z</time>
      </trkpt>
      <trkpt lat="43.09893" lon="-0.8624">
        <ele>242</ele>
        <time>2021-08-20T17:13:48Z</time>
      </trkpt>
      <trkpt lat="43.09904" lon="-0.86229">
        <ele>243</ele>
        <time>2021-08-20T17:13:51Z</time>
      </trkpt>
      <trkpt lat="43.09956" lon="-0.86163">
        <ele>245</ele>
        <time>2021-08-20T17:14:03Z</time>
      </trkpt>
      <trkpt lat="43.09977" lon="-0.86142">
        <ele>244</ele>
        <time>2021-08-20T17:14:08Z</time>
      </trkpt>
      <trkpt lat="43.10004" lon="-0.86121">
        <ele>243</ele>
        <time>2021-08-20T17:14:13Z</time>
      </trkpt>
      <trkpt lat="43.10026" lon="-0.8611">
        <ele>242</ele>
        <time>2021-08-20T17:14:18Z</time>
      </trkpt>
      <trkpt lat="43.1006" lon="-0.86096">
        <ele>240</ele>
        <time>2021-08-20T17:14:24Z</time>
      </trkpt>
      <trkpt lat="43.10287" lon="-0.86015">
        <ele>242</ele>
        <time>2021-08-20T17:15:06Z</time>
      </trkpt>
      <trkpt lat="43.1038" lon="-0.85989">
        <ele>238</ele>
        <time>2021-08-20T17:15:22Z</time>
      </trkpt>
      <trkpt lat="43.10427" lon="-0.8598">
        <ele>236</ele>
        <time>2021-08-20T17:15:31Z</time>
      </trkpt>
      <trkpt lat="43.10454" lon="-0.8597">
        <ele>234</ele>
        <time>2021-08-20T17:15:36Z</time>
      </trkpt>
      <trkpt lat="43.10488" lon="-0.85953">
        <ele>232</ele>
        <time>2021-08-20T17:15:42Z</time>
      </trkpt>
      <trkpt lat="43.10562" lon="-0.85926">
        <ele>230</ele>
        <time>2021-08-20T17:15:56Z</time>
      </trkpt>
      <trkpt lat="43.10587" lon="-0.85911">
        <ele>229</ele>
        <time>2021-08-20T17:16:01Z</time>
      </trkpt>
      <trkpt lat="43.10608" lon="-0.85894">
        <ele>228</ele>
        <time>2021-08-20T17:16:05Z</time>
      </trkpt>
      <trkpt lat="43.10648" lon="-0.8585">
        <ele>227</ele>
        <time>2021-08-20T17:16:14Z</time>
      </trkpt>
      <trkpt lat="43.10691" lon="-0.85813">
        <ele>228</ele>
        <time>2021-08-20T17:16:23Z</time>
      </trkpt>
      <trkpt lat="43.10708" lon="-0.85802">
        <ele>231</ele>
        <time>2021-08-20T17:16:27Z</time>
      </trkpt>
      <trkpt lat="43.10721" lon="-0.85801">
        <ele>232</ele>
        <time>2021-08-20T17:16:29Z</time>
      </trkpt>
      <trkpt lat="43.10732" lon="-0.85808">
        <ele>231</ele>
        <time>2021-08-20T17:16:31Z</time>
      </trkpt>
      <trkpt lat="43.10738" lon="-0.85813">
        <ele>231</ele>
        <time>2021-08-20T17:16:32Z</time>
      </trkpt>
      <trkpt lat="43.10752" lon="-0.85829">
        <ele>229</ele>
        <time>2021-08-20T17:16:36Z</time>
      </trkpt>
      <trkpt lat="43.10777" lon="-0.85848">
        <ele>233</ele>
        <time>2021-08-20T17:16:41Z</time>
      </trkpt>
      <trkpt lat="43.10787" lon="-0.85853">
        <ele>234</ele>
        <time>2021-08-20T17:16:43Z</time>
      </trkpt>
      <trkpt lat="43.10795" lon="-0.85854">
        <ele>235</ele>
        <time>2021-08-20T17:16:44Z</time>
      </trkpt>
      <trkpt lat="43.10805" lon="-0.8585">
        <ele>237</ele>
        <time>2021-08-20T17:16:46Z</time>
      </trkpt>
      <trkpt lat="43.10809" lon="-0.85846">
        <ele>238</ele>
        <time>2021-08-20T17:16:47Z</time>
      </trkpt>
      <trkpt lat="43.1077" lon="-0.85778">
        <ele>243</ele>
        <time>2021-08-20T17:16:58Z</time>
      </trkpt>
      <trkpt lat="43.10745" lon="-0.85748">
        <ele>242</ele>
        <time>2021-08-20T17:17:04Z</time>
      </trkpt>
      <trkpt lat="43.10718" lon="-0.85727">
        <ele>245</ele>
        <time>2021-08-20T17:17:09Z</time>
      </trkpt>
      <trkpt lat="43.10686" lon="-0.85713">
        <ele>243</ele>
        <time>2021-08-20T17:17:15Z</time>
      </trkpt>
      <trkpt lat="43.10649" lon="-0.85701">
        <ele>241</ele>
        <time>2021-08-20T17:17:22Z</time>
      </trkpt>
      <trkpt lat="43.1063" lon="-0.8569">
        <ele>240</ele>
        <time>2021-08-20T17:17:26Z</time>
      </trkpt>
      <trkpt lat="43.1062" lon="-0.85679">
        <ele>240</ele>
        <time>2021-08-20T17:17:28Z</time>
      </trkpt>
      <trkpt lat="43.10613" lon="-0.85669">
        <ele>240</ele>
        <time>2021-08-20T17:17:30Z</time>
      </trkpt>
      <trkpt lat="43.10595" lon="-0.8563">
        <ele>241</ele>
        <time>2021-08-20T17:17:36Z</time>
      </trkpt>
      <trkpt lat="43.1056" lon="-0.8554">
        <ele>247</ele>
        <time>2021-08-20T17:17:49Z</time>
      </trkpt>
      <trkpt lat="43.10511" lon="-0.85457">
        <ele>245</ele>
        <time>2021-08-20T17:18:03Z</time>
      </trkpt>
      <trkpt lat="43.10454" lon="-0.85365">
        <ele>248</ele>
        <time>2021-08-20T17:18:19Z</time>
      </trkpt>
      <trkpt lat="43.10433" lon="-0.85333">
        <ele>246</ele>
        <time>2021-08-20T17:18:24Z</time>
      </trkpt>
      <trkpt lat="43.10416" lon="-0.85312">
        <ele>243</ele>
        <time>2021-08-20T17:18:28Z</time>
      </trkpt>
      <trkpt lat="43.10359" lon="-0.85247">
        <ele>244</ele>
        <time>2021-08-20T17:18:42Z</time>
      </trkpt>
      <trkpt lat="43.10257" lon="-0.85137">
        <ele>246</ele>
        <time>2021-08-20T17:19:05Z</time>
      </trkpt>
      <trkpt lat="43.10236" lon="-0.85109">
        <ele>245</ele>
        <time>2021-08-20T17:19:10Z</time>
      </trkpt>
      <trkpt lat="43.10224" lon="-0.8509">
        <ele>245</ele>
        <time>2021-08-20T17:19:13Z</time>
      </trkpt>
      <trkpt lat="43.10205" lon="-0.85052">
        <ele>244</ele>
        <time>2021-08-20T17:19:19Z</time>
      </trkpt>
      <trkpt lat="43.10194" lon="-0.85014">
        <ele>243</ele>
        <time>2021-08-20T17:19:24Z</time>
      </trkpt>
      <trkpt lat="43.10187" lon="-0.84978">
        <ele>243</ele>
        <time>2021-08-20T17:19:29Z</time>
      </trkpt>
      <trkpt lat="43.10168" lon="-0.84835">
        <ele>240</ele>
        <time>2021-08-20T17:19:48Z</time>
      </trkpt>
      <trkpt lat="43.10137" lon="-0.84585">
        <ele>242</ele>
        <time>2021-08-20T17:20:21Z</time>
      </trkpt>
      <trkpt lat="43.10134" lon="-0.84522">
        <ele>244</ele>
        <time>2021-08-20T17:20:29Z</time>
      </trkpt>
      <trkpt lat="43.10138" lon="-0.84327">
        <ele>243</ele>
        <time>2021-08-20T17:20:55Z</time>
      </trkpt>
      <trkpt lat="43.10136" lon="-0.84289">
        <ele>244</ele>
        <time>2021-08-20T17:21:00Z</time>
      </trkpt>
      <trkpt lat="43.10112" lon="-0.84165">
        <ele>245</ele>
        <time>2021-08-20T17:21:16Z</time>
      </trkpt>
      <trkpt lat="43.10105" lon="-0.84096">
        <ele>247</ele>
        <time>2021-08-20T17:21:25Z</time>
      </trkpt>
      <trkpt lat="43.10106" lon="-0.84061">
        <ele>248</ele>
        <time>2021-08-20T17:21:30Z</time>
      </trkpt>
      <trkpt lat="43.10112" lon="-0.84006">
        <ele>252</ele>
        <time>2021-08-20T17:21:37Z</time>
      </trkpt>
      <trkpt lat="43.10123" lon="-0.83952">
        <ele>254</ele>
        <time>2021-08-20T17:21:44Z</time>
      </trkpt>
      <trkpt lat="43.10128" lon="-0.83905">
        <ele>255</ele>
        <time>2021-08-20T17:21:51Z</time>
      </trkpt>
      <trkpt lat="43.10128" lon="-0.83865">
        <ele>252</ele>
        <time>2021-08-20T17:21:56Z</time>
      </trkpt>
      <trkpt lat="43.10078" lon="-0.83402">
        <ele>254</ele>
        <time>2021-08-20T17:22:57Z</time>
      </trkpt>
      <trkpt lat="43.10052" lon="-0.83187">
        <ele>253</ele>
        <time>2021-08-20T17:23:25Z</time>
      </trkpt>
      <trkpt lat="43.09995" lon="-0.82876">
        <ele>253</ele>
        <time>2021-08-20T17:24:07Z</time>
      </trkpt>
      <trkpt lat="43.09983" lon="-0.82802">
        <ele>260</ele>
        <time>2021-08-20T17:24:16Z</time>
      </trkpt>
      <trkpt lat="43.09988" lon="-0.82759">
        <ele>262</ele>
        <time>2021-08-20T17:24:22Z</time>
      </trkpt>
      <trkpt lat="43.09997" lon="-0.82725">
        <ele>261</ele>
        <time>2021-08-20T17:24:27Z</time>
      </trkpt>
      <trkpt lat="43.1002" lon="-0.82666">
        <ele>263</ele>
        <time>2021-08-20T17:24:35Z</time>
      </trkpt>
      <trkpt lat="43.10027" lon="-0.82639">
        <ele>264</ele>
        <time>2021-08-20T17:24:39Z</time>
      </trkpt>
      <trkpt lat="43.10027" lon="-0.82598">
        <ele>265</ele>
        <time>2021-08-20T17:24:45Z</time>
      </trkpt>
      <trkpt lat="43.10023" lon="-0.82569">
        <ele>265</ele>
        <time>2021-08-20T17:24:48Z</time>
      </trkpt>
      <trkpt lat="43.10014" lon="-0.8254">
        <ele>264</ele>
        <time>2021-08-20T17:24:52Z</time>
      </trkpt>
      <trkpt lat="43.0998" lon="-0.82466">
        <ele>264</ele>
        <time>2021-08-20T17:25:04Z</time>
      </trkpt>
      <trkpt lat="43.09964" lon="-0.82425">
        <ele>264</ele>
        <time>2021-08-20T17:25:10Z</time>
      </trkpt>
      <trkpt lat="43.09857" lon="-0.82123">
        <ele>267</ele>
        <time>2021-08-20T17:25:53Z</time>
      </trkpt>
      <trkpt lat="43.09797" lon="-0.81953">
        <ele>269</ele>
        <time>2021-08-20T17:26:18Z</time>
      </trkpt>
      <trkpt lat="43.09796" lon="-0.81946">
        <ele>268</ele>
        <time>2021-08-20T17:26:19Z</time>
      </trkpt>
      <trkpt lat="43.09795" lon="-0.81925">
        <ele>268</ele>
        <time>2021-08-20T17:26:22Z</time>
      </trkpt>
      <trkpt lat="43.09799" lon="-0.81903">
        <ele>267</ele>
        <time>2021-08-20T17:26:25Z</time>
      </trkpt>
      <trkpt lat="43.09827" lon="-0.81766">
        <ele>263</ele>
        <time>2021-08-20T17:26:43Z</time>
      </trkpt>
      <trkpt lat="43.09838" lon="-0.8173">
        <ele>262</ele>
        <time>2021-08-20T17:26:48Z</time>
      </trkpt>
      <trkpt lat="43.09858" lon="-0.81694">
        <ele>262</ele>
        <time>2021-08-20T17:26:54Z</time>
      </trkpt>
      <trkpt lat="43.09867" lon="-0.81679">
        <ele>262</ele>
        <time>2021-08-20T17:26:57Z</time>
      </trkpt>
      <trkpt lat="43.09934" lon="-0.81572">
        <ele>271</ele>
        <time>2021-08-20T17:27:15Z</time>
      </trkpt>
      <trkpt lat="43.09946" lon="-0.81558">
        <ele>274</ele>
        <time>2021-08-20T17:27:18Z</time>
      </trkpt>
      <trkpt lat="43.09959" lon="-0.81549">
        <ele>277</ele>
        <time>2021-08-20T17:27:20Z</time>
      </trkpt>
      <trkpt lat="43.0997" lon="-0.81543">
        <ele>280</ele>
        <time>2021-08-20T17:27:22Z</time>
      </trkpt>
      <trkpt lat="43.10029" lon="-0.81521">
        <ele>289</ele>
        <time>2021-08-20T17:27:33Z</time>
      </trkpt>
      <trkpt lat="43.10043" lon="-0.81512">
        <ele>290</ele>
        <time>2021-08-20T17:27:36Z</time>
      </trkpt>
      <trkpt lat="43.10067" lon="-0.81492">
        <ele>292</ele>
        <time>2021-08-20T17:27:41Z</time>
      </trkpt>
      <trkpt lat="43.10082" lon="-0.81473">
        <ele>293</ele>
        <time>2021-08-20T17:27:45Z</time>
      </trkpt>
      <trkpt lat="43.10096" lon="-0.8145">
        <ele>291</ele>
        <time>2021-08-20T17:27:48Z</time>
      </trkpt>
      <trkpt lat="43.10108" lon="-0.81415">
        <ele>289</ele>
        <time>2021-08-20T17:27:54Z</time>
      </trkpt>
      <trkpt lat="43.1013" lon="-0.81318">
        <ele>283</ele>
        <time>2021-08-20T17:28:07Z</time>
      </trkpt>
      <trkpt lat="43.10139" lon="-0.81269">
        <ele>280</ele>
        <time>2021-08-20T17:28:13Z</time>
      </trkpt>
      <trkpt lat="43.10144" lon="-0.81213">
        <ele>279</ele>
        <time>2021-08-20T17:28:21Z</time>
      </trkpt>
      <trkpt lat="43.10142" lon="-0.81174">
        <ele>279</ele>
        <time>2021-08-20T17:28:26Z</time>
      </trkpt>
      <trkpt lat="43.10138" lon="-0.81142">
        <ele>281</ele>
        <time>2021-08-20T17:28:30Z</time>
      </trkpt>
      <trkpt lat="43.10119" lon="-0.81072">
        <ele>287</ele>
        <time>2021-08-20T17:28:40Z</time>
      </trkpt>
      <trkpt lat="43.10111" lon="-0.8105">
        <ele>290</ele>
        <time>2021-08-20T17:28:43Z</time>
      </trkpt>
      <trkpt lat="43.1007" lon="-0.80971">
        <ele>298</ele>
        <time>2021-08-20T17:28:55Z</time>
      </trkpt>
      <trkpt lat="43.10057" lon="-0.80939">
        <ele>302</ele>
        <time>2021-08-20T17:29:00Z</time>
      </trkpt>
      <trkpt lat="43.10051" lon="-0.8091">
        <ele>304</ele>
        <time>2021-08-20T17:29:04Z</time>
      </trkpt>
      <trkpt lat="43.1005" lon="-0.80887">
        <ele>305</ele>
        <time>2021-08-20T17:29:07Z</time>
      </trkpt>
      <trkpt lat="43.10053" lon="-0.80859">
        <ele>306</ele>
        <time>2021-08-20T17:29:11Z</time>
      </trkpt>
      <trkpt lat="43.10065" lon="-0.80832">
        <ele>309</ele>
        <time>2021-08-20T17:29:15Z</time>
      </trkpt>
      <trkpt lat="43.10081" lon="-0.8081">
        <ele>309</ele>
        <time>2021-08-20T17:29:19Z</time>
      </trkpt>
      <trkpt lat="43.10239" lon="-0.80686">
        <ele>331</ele>
        <time>2021-08-20T17:29:51Z</time>
      </trkpt>
      <trkpt lat="43.10252" lon="-0.80672">
        <ele>331</ele>
        <time>2021-08-20T17:29:54Z</time>
      </trkpt>
      <trkpt lat="43.10264" lon="-0.80655">
        <ele>333</ele>
        <time>2021-08-20T17:29:57Z</time>
      </trkpt>
      <trkpt lat="43.10284" lon="-0.80618">
        <ele>335</ele>
        <time>2021-08-20T17:30:03Z</time>
      </trkpt>
      <trkpt lat="43.10308" lon="-0.8055">
        <ele>341</ele>
        <time>2021-08-20T17:30:13Z</time>
      </trkpt>
      <trkpt lat="43.10315" lon="-0.80524">
        <ele>344</ele>
        <time>2021-08-20T17:30:17Z</time>
      </trkpt>
      <trkpt lat="43.10319" lon="-0.80489">
        <ele>346</ele>
        <time>2021-08-20T17:30:21Z</time>
      </trkpt>
      <trkpt lat="43.10317" lon="-0.80464">
        <ele>348</ele>
        <time>2021-08-20T17:30:25Z</time>
      </trkpt>
      <trkpt lat="43.10308" lon="-0.80436">
        <ele>347</ele>
        <time>2021-08-20T17:30:29Z</time>
      </trkpt>
      <trkpt lat="43.10292" lon="-0.80405">
        <ele>345</ele>
        <time>2021-08-20T17:30:33Z</time>
      </trkpt>
      <trkpt lat="43.10286" lon="-0.80383">
        <ele>345</ele>
        <time>2021-08-20T17:30:37Z</time>
      </trkpt>
      <trkpt lat="43.10284" lon="-0.80349">
        <ele>348</ele>
        <time>2021-08-20T17:30:41Z</time>
      </trkpt>
      <trkpt lat="43.10295" lon="-0.80291">
        <ele>357</ele>
        <time>2021-08-20T17:30:49Z</time>
      </trkpt>
      <trkpt lat="43.10296" lon="-0.8026">
        <ele>360</ele>
        <time>2021-08-20T17:30:53Z</time>
      </trkpt>
      <trkpt lat="43.10287" lon="-0.80131">
        <ele>372</ele>
        <time>2021-08-20T17:31:10Z</time>
      </trkpt>
      <trkpt lat="43.10288" lon="-0.80074">
        <ele>375</ele>
        <time>2021-08-20T17:31:17Z</time>
      </trkpt>
      <trkpt lat="43.10293" lon="-0.80044">
        <ele>375</ele>
        <time>2021-08-20T17:31:21Z</time>
      </trkpt>
      <trkpt lat="43.10306" lon="-0.8001">
        <ele>374</ele>
        <time>2021-08-20T17:31:26Z</time>
      </trkpt>
      <trkpt lat="43.10343" lon="-0.79927">
        <ele>370</ele>
        <time>2021-08-20T17:31:39Z</time>
      </trkpt>
      <trkpt lat="43.10372" lon="-0.79854">
        <ele>365</ele>
        <time>2021-08-20T17:31:49Z</time>
      </trkpt>
      <trkpt lat="43.10458" lon="-0.79633">
        <ele>360</ele>
        <time>2021-08-20T17:32:22Z</time>
      </trkpt>
      <trkpt lat="43.10518" lon="-0.79484">
        <ele>357</ele>
        <time>2021-08-20T17:32:44Z</time>
      </trkpt>
      <trkpt lat="43.10529" lon="-0.7945">
        <ele>356</ele>
        <time>2021-08-20T17:32:49Z</time>
      </trkpt>
      <trkpt lat="43.10567" lon="-0.79357">
        <ele>354</ele>
        <time>2021-08-20T17:33:03Z</time>
      </trkpt>
      <trkpt lat="43.10584" lon="-0.79323">
        <ele>353</ele>
        <time>2021-08-20T17:33:08Z</time>
      </trkpt>
      <trkpt lat="43.10698" lon="-0.79188">
        <ele>358</ele>
        <time>2021-08-20T17:33:35Z</time>
      </trkpt>
      <trkpt lat="43.10758" lon="-0.79073">
        <ele>347</ele>
        <time>2021-08-20T17:33:53Z</time>
      </trkpt>
      <trkpt lat="43.10779" lon="-0.79037">
        <ele>347</ele>
        <time>2021-08-20T17:33:59Z</time>
      </trkpt>
      <trkpt lat="43.10829" lon="-0.78987">
        <ele>343</ele>
        <time>2021-08-20T17:34:10Z</time>
      </trkpt>
      <trkpt lat="43.10879" lon="-0.78941">
        <ele>338</ele>
        <time>2021-08-20T17:34:21Z</time>
      </trkpt>
      <trkpt lat="43.10935" lon="-0.78907">
        <ele>338</ele>
        <time>2021-08-20T17:34:32Z</time>
      </trkpt>
      <trkpt lat="43.10958" lon="-0.78889">
        <ele>341</ele>
        <time>2021-08-20T17:34:37Z</time>
      </trkpt>
      <trkpt lat="43.1099" lon="-0.78847">
        <ele>342</ele>
        <time>2021-08-20T17:34:44Z</time>
      </trkpt>
      <trkpt lat="43.11021" lon="-0.78802">
        <ele>343</ele>
        <time>2021-08-20T17:34:53Z</time>
      </trkpt>
      <trkpt lat="43.11037" lon="-0.78763">
        <ele>341</ele>
        <time>2021-08-20T17:34:58Z</time>
      </trkpt>
      <trkpt lat="43.11071" lon="-0.78662">
        <ele>338</ele>
        <time>2021-08-20T17:35:13Z</time>
      </trkpt>
      <trkpt lat="43.11079" lon="-0.78625">
        <ele>336</ele>
        <time>2021-08-20T17:35:18Z</time>
      </trkpt>
      <trkpt lat="43.11091" lon="-0.78512">
        <ele>327</ele>
        <time>2021-08-20T17:35:33Z</time>
      </trkpt>
      <trkpt lat="43.11097" lon="-0.7849">
        <ele>327</ele>
        <time>2021-08-20T17:35:36Z</time>
      </trkpt>
      <trkpt lat="43.11143" lon="-0.78416">
        <ele>324</ele>
        <time>2021-08-20T17:35:48Z</time>
      </trkpt>
      <trkpt lat="43.1115" lon="-0.7839">
        <ele>325</ele>
        <time>2021-08-20T17:35:52Z</time>
      </trkpt>
      <trkpt lat="43.11158" lon="-0.78197">
        <ele>339</ele>
        <time>2021-08-20T17:36:17Z</time>
      </trkpt>
      <trkpt lat="43.11154" lon="-0.78155">
        <ele>339</ele>
        <time>2021-08-20T17:36:22Z</time>
      </trkpt>
      <trkpt lat="43.11144" lon="-0.78118">
        <ele>338</ele>
        <time>2021-08-20T17:36:28Z</time>
      </trkpt>
      <trkpt lat="43.111" lon="-0.77978">
        <ele>333</ele>
        <time>2021-08-20T17:36:47Z</time>
      </trkpt>
      <trkpt lat="43.11056" lon="-0.77848">
        <ele>332</ele>
        <time>2021-08-20T17:37:06Z</time>
      </trkpt>
      <trkpt lat="43.11048" lon="-0.77816">
        <ele>330</ele>
        <time>2021-08-20T17:37:10Z</time>
      </trkpt>
      <trkpt lat="43.11044" lon="-0.77723">
        <ele>325</ele>
        <time>2021-08-20T17:37:23Z</time>
      </trkpt>
      <trkpt lat="43.11044" lon="-0.77706">
        <ele>324</ele>
        <time>2021-08-20T17:37:25Z</time>
      </trkpt>
      <trkpt lat="43.11027" lon="-0.7722">
        <ele>317</ele>
        <time>2021-08-20T17:38:28Z</time>
      </trkpt>
      <trkpt lat="43.11025" lon="-0.77123">
        <ele>318</ele>
        <time>2021-08-20T17:38:41Z</time>
      </trkpt>
      <trkpt lat="43.11024" lon="-0.77095">
        <ele>319</ele>
        <time>2021-08-20T17:38:44Z</time>
      </trkpt>
      <trkpt lat="43.11025" lon="-0.77084">
        <ele>319</ele>
        <time>2021-08-20T17:38:46Z</time>
      </trkpt>
      <trkpt lat="43.1103" lon="-0.77071">
        <ele>320</ele>
        <time>2021-08-20T17:38:48Z</time>
      </trkpt>
      <trkpt lat="43.11042" lon="-0.77055">
        <ele>321</ele>
        <time>2021-08-20T17:38:51Z</time>
      </trkpt>
      <trkpt lat="43.11052" lon="-0.77047">
        <ele>321</ele>
        <time>2021-08-20T17:38:53Z</time>
      </trkpt>
      <trkpt lat="43.11104" lon="-0.77026">
        <ele>320</ele>
        <time>2021-08-20T17:39:02Z</time>
      </trkpt>
      <trkpt lat="43.11123" lon="-0.77014">
        <ele>320</ele>
        <time>2021-08-20T17:39:06Z</time>
      </trkpt>
      <trkpt lat="43.11131" lon="-0.77006">
        <ele>320</ele>
        <time>2021-08-20T17:39:08Z</time>
      </trkpt>
      <trkpt lat="43.11147" lon="-0.76984">
        <ele>320</ele>
        <time>2021-08-20T17:39:12Z</time>
      </trkpt>
      <trkpt lat="43.11167" lon="-0.7694">
        <ele>322</ele>
        <time>2021-08-20T17:39:18Z</time>
      </trkpt>
      <trkpt lat="43.11182" lon="-0.76896">
        <ele>322</ele>
        <time>2021-08-20T17:39:25Z</time>
      </trkpt>
      <trkpt lat="43.11219" lon="-0.76715">
        <ele>323</ele>
        <time>2021-08-20T17:39:49Z</time>
      </trkpt>
      <trkpt lat="43.11296" lon="-0.76442">
        <ele>322</ele>
        <time>2021-08-20T17:40:27Z</time>
      </trkpt>
      <trkpt lat="43.113" lon="-0.76415">
        <ele>323</ele>
        <time>2021-08-20T17:40:31Z</time>
      </trkpt>
      <trkpt lat="43.11298" lon="-0.76405">
        <ele>323</ele>
        <time>2021-08-20T17:40:32Z</time>
      </trkpt>
      <trkpt lat="43.11301" lon="-0.76396">
        <ele>323</ele>
        <time>2021-08-20T17:40:33Z</time>
      </trkpt>
      <trkpt lat="43.11304" lon="-0.76394">
        <ele>323</ele>
        <time>2021-08-20T17:40:34Z</time>
      </trkpt>
      <trkpt lat="43.11314" lon="-0.76355">
        <ele>323</ele>
        <time>2021-08-20T17:40:39Z</time>
      </trkpt>
      <trkpt lat="43.11326" lon="-0.76261">
        <ele>324</ele>
        <time>2021-08-20T17:40:52Z</time>
      </trkpt>
      <trkpt lat="43.11327" lon="-0.76242">
        <ele>324</ele>
        <time>2021-08-20T17:40:54Z</time>
      </trkpt>
      <trkpt lat="43.11324" lon="-0.76209">
        <ele>323</ele>
        <time>2021-08-20T17:40:59Z</time>
      </trkpt>
      <trkpt lat="43.11324" lon="-0.7606">
        <ele>322</ele>
        <time>2021-08-20T17:41:18Z</time>
      </trkpt>
      <trkpt lat="43.11325" lon="-0.76037">
        <ele>322</ele>
        <time>2021-08-20T17:41:21Z</time>
      </trkpt>
      <trkpt lat="43.11335" lon="-0.75981">
        <ele>321</ele>
        <time>2021-08-20T17:41:28Z</time>
      </trkpt>
      <trkpt lat="43.11335" lon="-0.75962">
        <ele>320</ele>
        <time>2021-08-20T17:41:31Z</time>
      </trkpt>
      <trkpt lat="43.11332" lon="-0.75939">
        <ele>320</ele>
        <time>2021-08-20T17:41:34Z</time>
      </trkpt>
      <trkpt lat="43.11328" lon="-0.7593">
        <ele>320</ele>
        <time>2021-08-20T17:41:35Z</time>
      </trkpt>
      <trkpt lat="43.1132" lon="-0.75919">
        <ele>321</ele>
        <time>2021-08-20T17:41:37Z</time>
      </trkpt>
      <trkpt lat="43.11281" lon="-0.75882">
        <ele>322</ele>
        <time>2021-08-20T17:41:46Z</time>
      </trkpt>
      <trkpt lat="43.11255" lon="-0.75854">
        <ele>323</ele>
        <time>2021-08-20T17:41:52Z</time>
      </trkpt>
      <trkpt lat="43.11249" lon="-0.75844">
        <ele>323</ele>
        <time>2021-08-20T17:41:53Z</time>
      </trkpt>
      <trkpt lat="43.1124" lon="-0.75819">
        <ele>323</ele>
        <time>2021-08-20T17:41:57Z</time>
      </trkpt>
      <trkpt lat="43.11234" lon="-0.75787">
        <ele>322</ele>
        <time>2021-08-20T17:42:01Z</time>
      </trkpt>
      <trkpt lat="43.11235" lon="-0.7576">
        <ele>321</ele>
        <time>2021-08-20T17:42:05Z</time>
      </trkpt>
      <trkpt lat="43.11264" lon="-0.75615">
        <ele>316</ele>
        <time>2021-08-20T17:42:24Z</time>
      </trkpt>
      <trkpt lat="43.1127" lon="-0.75569">
        <ele>314</ele>
        <time>2021-08-20T17:42:30Z</time>
      </trkpt>
      <trkpt lat="43.11271" lon="-0.75549">
        <ele>314</ele>
        <time>2021-08-20T17:42:33Z</time>
      </trkpt>
      <trkpt lat="43.11271" lon="-0.75215">
        <ele>292</ele>
        <time>2021-08-20T17:43:16Z</time>
      </trkpt>
      <trkpt lat="43.11274" lon="-0.75016">
        <ele>288</ele>
        <time>2021-08-20T17:43:42Z</time>
      </trkpt>
      <trkpt lat="43.11266" lon="-0.74927">
        <ele>287</ele>
        <time>2021-08-20T17:43:54Z</time>
      </trkpt>
      <trkpt lat="43.11234" lon="-0.74783">
        <ele>298</ele>
        <time>2021-08-20T17:44:13Z</time>
      </trkpt>
      <trkpt lat="43.1123" lon="-0.74718">
        <ele>304</ele>
        <time>2021-08-20T17:44:22Z</time>
      </trkpt>
      <trkpt lat="43.11239" lon="-0.74645">
        <ele>308</ele>
        <time>2021-08-20T17:44:31Z</time>
      </trkpt>
      <trkpt lat="43.11261" lon="-0.74571">
        <ele>309</ele>
        <time>2021-08-20T17:44:42Z</time>
      </trkpt>
      <trkpt lat="43.11299" lon="-0.7442">
        <ele>314</ele>
        <time>2021-08-20T17:45:03Z</time>
      </trkpt>
      <trkpt lat="43.11345" lon="-0.74265">
        <ele>311</ele>
        <time>2021-08-20T17:45:24Z</time>
      </trkpt>
      <trkpt lat="43.11368" lon="-0.74179">
        <ele>309</ele>
        <time>2021-08-20T17:45:36Z</time>
      </trkpt>
      <trkpt lat="43.11371" lon="-0.74146">
        <ele>309</ele>
        <time>2021-08-20T17:45:41Z</time>
      </trkpt>
      <trkpt lat="43.11366" lon="-0.74115">
        <ele>311</ele>
        <time>2021-08-20T17:45:45Z</time>
      </trkpt>
      <trkpt lat="43.11354" lon="-0.74066">
        <ele>312</ele>
        <time>2021-08-20T17:45:51Z</time>
      </trkpt>
      <trkpt lat="43.11348" lon="-0.74031">
        <ele>312</ele>
        <time>2021-08-20T17:45:56Z</time>
      </trkpt>
      <trkpt lat="43.11334" lon="-0.73838">
        <ele>311</ele>
        <time>2021-08-20T17:46:21Z</time>
      </trkpt>
      <trkpt lat="43.11336" lon="-0.73816">
        <ele>311</ele>
        <time>2021-08-20T17:46:24Z</time>
      </trkpt>
      <trkpt lat="43.11338" lon="-0.73805">
        <ele>311</ele>
        <time>2021-08-20T17:46:26Z</time>
      </trkpt>
      <trkpt lat="43.11346" lon="-0.73783">
        <ele>311</ele>
        <time>2021-08-20T17:46:29Z</time>
      </trkpt>
      <trkpt lat="43.11354" lon="-0.7377">
        <ele>311</ele>
        <time>2021-08-20T17:46:31Z</time>
      </trkpt>
      <trkpt lat="43.11246" lon="-0.73618">
        <ele>313</ele>
        <time>2021-08-20T17:46:59Z</time>
      </trkpt>
      <trkpt lat="43.11222" lon="-0.73595">
        <ele>311</ele>
        <time>2021-08-20T17:47:04Z</time>
      </trkpt>
      <trkpt lat="43.11207" lon="-0.73586">
        <ele>311</ele>
        <time>2021-08-20T17:47:07Z</time>
      </trkpt>
      <trkpt lat="43.11195" lon="-0.73582">
        <ele>310</ele>
        <time>2021-08-20T17:47:09Z</time>
      </trkpt>
      <trkpt lat="43.11162" lon="-0.73576">
        <ele>309</ele>
        <time>2021-08-20T17:47:15Z</time>
      </trkpt>
      <trkpt lat="43.1102" lon="-0.73564">
        <ele>309</ele>
        <time>2021-08-20T17:47:40Z</time>
      </trkpt>
      <trkpt lat="43.10889" lon="-0.73558">
        <ele>299</ele>
        <time>2021-08-20T17:48:03Z</time>
      </trkpt>
      <trkpt lat="43.1085" lon="-0.73549">
        <ele>298</ele>
        <time>2021-08-20T17:48:10Z</time>
      </trkpt>
      <trkpt lat="43.10759" lon="-0.73517">
        <ele>298</ele>
        <time>2021-08-20T17:48:27Z</time>
      </trkpt>
      <trkpt lat="43.10693" lon="-0.73483">
        <ele>300</ele>
        <time>2021-08-20T17:48:40Z</time>
      </trkpt>
      <trkpt lat="43.10641" lon="-0.73446">
        <ele>301</ele>
        <time>2021-08-20T17:48:50Z</time>
      </trkpt>
      <trkpt lat="43.1059" lon="-0.73396">
        <ele>302</ele>
        <time>2021-08-20T17:49:01Z</time>
      </trkpt>
      <trkpt lat="43.10489" lon="-0.73269">
        <ele>303</ele>
        <time>2021-08-20T17:49:26Z</time>
      </trkpt>
      <trkpt lat="43.1045" lon="-0.73231">
        <ele>303</ele>
        <time>2021-08-20T17:49:34Z</time>
      </trkpt>
      <trkpt lat="43.10404" lon="-0.73171">
        <ele>302</ele>
        <time>2021-08-20T17:49:46Z</time>
      </trkpt>
      <trkpt lat="43.10361" lon="-0.73128">
        <ele>303</ele>
        <time>2021-08-20T17:49:55Z</time>
      </trkpt>
      <trkpt lat="43.1034" lon="-0.73101">
        <ele>303</ele>
        <time>2021-08-20T17:50:00Z</time>
      </trkpt>
      <trkpt lat="43.10283" lon="-0.73003">
        <ele>303</ele>
        <time>2021-08-20T17:50:16Z</time>
      </trkpt>
      <trkpt lat="43.10255" lon="-0.72947">
        <ele>303</ele>
        <time>2021-08-20T17:50:25Z</time>
      </trkpt>
      <trkpt lat="43.10226" lon="-0.72846">
        <ele>305</ele>
        <time>2021-08-20T17:50:39Z</time>
      </trkpt>
      <trkpt lat="43.1021" lon="-0.72806">
        <ele>306</ele>
        <time>2021-08-20T17:50:45Z</time>
      </trkpt>
      <trkpt lat="43.1016" lon="-0.72723">
        <ele>307</ele>
        <time>2021-08-20T17:50:59Z</time>
      </trkpt>
      <trkpt lat="43.1009" lon="-0.72563">
        <ele>309</ele>
        <time>2021-08-20T17:51:23Z</time>
      </trkpt>
      <trkpt lat="43.1005" lon="-0.72457">
        <ele>309</ele>
        <time>2021-08-20T17:51:39Z</time>
      </trkpt>
      <trkpt lat="43.10038" lon="-0.7244">
        <ele>310</ele>
        <time>2021-08-20T17:51:42Z</time>
      </trkpt>
      <trkpt lat="43.1001" lon="-0.72412">
        <ele>310</ele>
        <time>2021-08-20T17:51:48Z</time>
      </trkpt>
      <trkpt lat="43.09968" lon="-0.72343">
        <ele>310</ele>
        <time>2021-08-20T17:52:00Z</time>
      </trkpt>
      <trkpt lat="43.09917" lon="-0.72293">
        <ele>313</ele>
        <time>2021-08-20T17:52:11Z</time>
      </trkpt>
      <trkpt lat="43.09833" lon="-0.72222">
        <ele>316</ele>
        <time>2021-08-20T17:52:29Z</time>
      </trkpt>
      <trkpt lat="43.09783" lon="-0.722">
        <ele>316</ele>
        <time>2021-08-20T17:52:38Z</time>
      </trkpt>
      <trkpt lat="43.09757" lon="-0.72193">
        <ele>316</ele>
        <time>2021-08-20T17:52:43Z</time>
      </trkpt>
      <trkpt lat="43.09744" lon="-0.72183">
        <ele>316</ele>
        <time>2021-08-20T17:52:45Z</time>
      </trkpt>
      <trkpt lat="43.09735" lon="-0.72164">
        <ele>316</ele>
        <time>2021-08-20T17:52:48Z</time>
      </trkpt>
      <trkpt lat="43.09735" lon="-0.72142">
        <ele>316</ele>
        <time>2021-08-20T17:52:51Z</time>
      </trkpt>
      <trkpt lat="43.09737" lon="-0.72106">
        <ele>316</ele>
        <time>2021-08-20T17:52:56Z</time>
      </trkpt>
      <trkpt lat="43.09737" lon="-0.72095">
        <ele>316</ele>
        <time>2021-08-20T17:52:57Z</time>
      </trkpt>
      <trkpt lat="43.09737" lon="-0.72085">
        <ele>316</ele>
        <time>2021-08-20T17:52:59Z</time>
      </trkpt>
      <trkpt lat="43.09734" lon="-0.72072">
        <ele>316</ele>
        <time>2021-08-20T17:53:00Z</time>
      </trkpt>
      <trkpt lat="43.0973" lon="-0.72059">
        <ele>317</ele>
        <time>2021-08-20T17:53:02Z</time>
      </trkpt>
      <trkpt lat="43.0972" lon="-0.72042">
        <ele>317</ele>
        <time>2021-08-20T17:53:05Z</time>
      </trkpt>
      <trkpt lat="43.09696" lon="-0.72006">
        <ele>318</ele>
        <time>2021-08-20T17:53:11Z</time>
      </trkpt>
      <trkpt lat="43.09686" lon="-0.71995">
        <ele>318</ele>
        <time>2021-08-20T17:53:14Z</time>
      </trkpt>
      <trkpt lat="43.09663" lon="-0.71976">
        <ele>318</ele>
        <time>2021-08-20T17:53:18Z</time>
      </trkpt>
      <trkpt lat="43.0964" lon="-0.71962">
        <ele>318</ele>
        <time>2021-08-20T17:53:23Z</time>
      </trkpt>
      <trkpt lat="43.09629" lon="-0.71952">
        <ele>318</ele>
        <time>2021-08-20T17:53:25Z</time>
      </trkpt>
      <trkpt lat="43.09619" lon="-0.71944">
        <ele>319</ele>
        <time>2021-08-20T17:53:27Z</time>
      </trkpt>
      <trkpt lat="43.09611" lon="-0.71937">
        <ele>319</ele>
        <time>2021-08-20T17:53:29Z</time>
      </trkpt>
      <trkpt lat="43.09595" lon="-0.71923">
        <ele>320</ele>
        <time>2021-08-20T17:53:32Z</time>
      </trkpt>
      <trkpt lat="43.09587" lon="-0.71913">
        <ele>320</ele>
        <time>2021-08-20T17:53:34Z</time>
      </trkpt>
      <trkpt lat="43.09558" lon="-0.71855">
        <ele>321</ele>
        <time>2021-08-20T17:53:43Z</time>
      </trkpt>
      <trkpt lat="43.09541" lon="-0.71807">
        <ele>322</ele>
        <time>2021-08-20T17:53:50Z</time>
      </trkpt>
      <trkpt lat="43.09537" lon="-0.71791">
        <ele>323</ele>
        <time>2021-08-20T17:53:52Z</time>
      </trkpt>
      <trkpt lat="43.09538" lon="-0.71773">
        <ele>323</ele>
        <time>2021-08-20T17:53:55Z</time>
      </trkpt>
      <trkpt lat="43.09556" lon="-0.71722">
        <ele>323</ele>
        <time>2021-08-20T17:54:02Z</time>
      </trkpt>
      <trkpt lat="43.09557" lon="-0.71714">
        <ele>323</ele>
        <time>2021-08-20T17:54:03Z</time>
      </trkpt>
      <trkpt lat="43.09557" lon="-0.71703">
        <ele>324</ele>
        <time>2021-08-20T17:54:05Z</time>
      </trkpt>
      <trkpt lat="43.09545" lon="-0.71706">
        <ele>324</ele>
        <time>2021-08-20T17:54:07Z</time>
      </trkpt>
      <trkpt lat="43.09535" lon="-0.71708">
        <ele>324</ele>
        <time>2021-08-20T17:54:09Z</time>
      </trkpt>
      <trkpt lat="43.09527" lon="-0.71708">
        <ele>325</ele>
        <time>2021-08-20T17:54:10Z</time>
      </trkpt>
      <trkpt lat="43.09518" lon="-0.71707">
        <ele>325</ele>
        <time>2021-08-20T17:54:12Z</time>
      </trkpt>
      <trkpt lat="43.09512" lon="-0.71705">
        <ele>325</ele>
        <time>2021-08-20T17:54:13Z</time>
      </trkpt>
      <trkpt lat="43.09505" lon="-0.717">
        <ele>325</ele>
        <time>2021-08-20T17:54:14Z</time>
      </trkpt>
      <trkpt lat="43.09494" lon="-0.71692">
        <ele>326</ele>
        <time>2021-08-20T17:54:16Z</time>
      </trkpt>
      <trkpt lat="43.09468" lon="-0.71678">
        <ele>327</ele>
        <time>2021-08-20T17:54:21Z</time>
      </trkpt>
      <trkpt lat="43.09444" lon="-0.7166">
        <ele>328</ele>
        <time>2021-08-20T17:54:26Z</time>
      </trkpt>
      <trkpt lat="43.09435" lon="-0.71651">
        <ele>328</ele>
        <time>2021-08-20T17:54:28Z</time>
      </trkpt>
      <trkpt lat="43.09432" lon="-0.71649">
        <ele>328</ele>
        <time>2021-08-20T17:54:29Z</time>
      </trkpt>
      <trkpt lat="43.09418" lon="-0.71634">
        <ele>328</ele>
        <time>2021-08-20T17:54:32Z</time>
      </trkpt>
      <trkpt lat="43.09407" lon="-0.71624">
        <ele>328</ele>
        <time>2021-08-20T17:54:34Z</time>
      </trkpt>
      <trkpt lat="43.09393" lon="-0.71617">
        <ele>328</ele>
        <time>2021-08-20T17:54:37Z</time>
      </trkpt>
      <trkpt lat="43.09375" lon="-0.71608">
        <ele>328</ele>
        <time>2021-08-20T17:54:40Z</time>
      </trkpt>
      <trkpt lat="43.09336" lon="-0.71597">
        <ele>329</ele>
        <time>2021-08-20T17:54:47Z</time>
      </trkpt>
      <trkpt lat="43.09313" lon="-0.7159">
        <ele>329</ele>
        <time>2021-08-20T17:54:52Z</time>
      </trkpt>
      <trkpt lat="43.0926" lon="-0.71563">
        <ele>330</ele>
        <time>2021-08-20T17:55:02Z</time>
      </trkpt>
      <trkpt lat="43.09245" lon="-0.7156">
        <ele>330</ele>
        <time>2021-08-20T17:55:04Z</time>
      </trkpt>
      <trkpt lat="43.09239" lon="-0.71562">
        <ele>330</ele>
        <time>2021-08-20T17:55:06Z</time>
      </trkpt>
      <trkpt lat="43.09238" lon="-0.71556">
        <ele>330</ele>
        <time>2021-08-20T17:55:06Z</time>
      </trkpt>
      <trkpt lat="43.09237" lon="-0.7155">
        <ele>330</ele>
        <time>2021-08-20T17:55:07Z</time>
      </trkpt>
      <trkpt lat="43.09235" lon="-0.71547">
        <ele>330</ele>
        <time>2021-08-20T17:55:08Z</time>
      </trkpt>
      <trkpt lat="43.09232" lon="-0.71545">
        <ele>330</ele>
        <time>2021-08-20T17:55:08Z</time>
      </trkpt>
      <trkpt lat="43.09224" lon="-0.71539">
        <ele>330</ele>
        <time>2021-08-20T17:55:10Z</time>
      </trkpt>
      <trkpt lat="43.09197" lon="-0.71529">
        <ele>330</ele>
        <time>2021-08-20T17:55:15Z</time>
      </trkpt>
      <trkpt lat="43.09181" lon="-0.7152">
        <ele>330</ele>
        <time>2021-08-20T17:55:18Z</time>
      </trkpt>
      <trkpt lat="43.09154" lon="-0.715">
        <ele>330</ele>
        <time>2021-08-20T17:55:23Z</time>
      </trkpt>
      <trkpt lat="43.09125" lon="-0.71473">
        <ele>331</ele>
        <time>2021-08-20T17:55:30Z</time>
      </trkpt>
      <trkpt lat="43.09088" lon="-0.71432">
        <ele>331</ele>
        <time>2021-08-20T17:55:38Z</time>
      </trkpt>
      <trkpt lat="43.09063" lon="-0.71402">
        <ele>330</ele>
        <time>2021-08-20T17:55:44Z</time>
      </trkpt>
      <trkpt lat="43.0905" lon="-0.71389">
        <ele>330</ele>
        <time>2021-08-20T17:55:47Z</time>
      </trkpt>
      <trkpt lat="43.09034" lon="-0.71377">
        <ele>330</ele>
        <time>2021-08-20T17:55:50Z</time>
      </trkpt>
      <trkpt lat="43.09019" lon="-0.71367">
        <ele>330</ele>
        <time>2021-08-20T17:55:53Z</time>
      </trkpt>
      <trkpt lat="43.09011" lon="-0.71362">
        <ele>330</ele>
        <time>2021-08-20T17:55:55Z</time>
      </trkpt>
      <trkpt lat="43.08998" lon="-0.71359">
        <ele>330</ele>
        <time>2021-08-20T17:55:57Z</time>
      </trkpt>
      <trkpt lat="43.08966" lon="-0.71363">
        <ele>331</ele>
        <time>2021-08-20T17:56:03Z</time>
      </trkpt>
      <trkpt lat="43.08855" lon="-0.71392">
        <ele>332</ele>
        <time>2021-08-20T17:56:23Z</time>
      </trkpt>
      <trkpt lat="43.08835" lon="-0.71393">
        <ele>332</ele>
        <time>2021-08-20T17:56:26Z</time>
      </trkpt>
      <trkpt lat="43.08826" lon="-0.71389">
        <ele>333</ele>
        <time>2021-08-20T17:56:28Z</time>
      </trkpt>
      <trkpt lat="43.0882" lon="-0.71378">
        <ele>333</ele>
        <time>2021-08-20T17:56:30Z</time>
      </trkpt>
      <trkpt lat="43.08804" lon="-0.71326">
        <ele>333</ele>
        <time>2021-08-20T17:56:37Z</time>
      </trkpt>
      <trkpt lat="43.08798" lon="-0.71312">
        <ele>333</ele>
        <time>2021-08-20T17:56:39Z</time>
      </trkpt>
      <trkpt lat="43.08791" lon="-0.71303">
        <ele>333</ele>
        <time>2021-08-20T17:56:41Z</time>
      </trkpt>
      <trkpt lat="43.08784" lon="-0.71297">
        <ele>333</ele>
        <time>2021-08-20T17:56:42Z</time>
      </trkpt>
      <trkpt lat="43.08763" lon="-0.71288">
        <ele>333</ele>
        <time>2021-08-20T17:56:46Z</time>
      </trkpt>
      <trkpt lat="43.08702" lon="-0.71247">
        <ele>331</ele>
        <time>2021-08-20T17:56:58Z</time>
      </trkpt>
      <trkpt lat="43.08636" lon="-0.71195">
        <ele>334</ele>
        <time>2021-08-20T17:57:12Z</time>
      </trkpt>
      <trkpt lat="43.08626" lon="-0.71157">
        <ele>337</ele>
        <time>2021-08-20T17:57:17Z</time>
      </trkpt>
      <trkpt lat="43.08617" lon="-0.71148">
        <ele>339</ele>
        <time>2021-08-20T17:57:19Z</time>
      </trkpt>
      <trkpt lat="43.08591" lon="-0.71137">
        <ele>343</ele>
        <time>2021-08-20T17:57:24Z</time>
      </trkpt>
      <trkpt lat="43.08571" lon="-0.71136">
        <ele>344</ele>
        <time>2021-08-20T17:57:28Z</time>
      </trkpt>
      <trkpt lat="43.08537" lon="-0.71142">
        <ele>342</ele>
        <time>2021-08-20T17:57:34Z</time>
      </trkpt>
      <trkpt lat="43.08518" lon="-0.7114">
        <ele>342</ele>
        <time>2021-08-20T17:57:37Z</time>
      </trkpt>
      <trkpt lat="43.08499" lon="-0.7113">
        <ele>343</ele>
        <time>2021-08-20T17:57:41Z</time>
      </trkpt>
      <trkpt lat="43.08489" lon="-0.71116">
        <ele>344</ele>
        <time>2021-08-20T17:57:43Z</time>
      </trkpt>
      <trkpt lat="43.08485" lon="-0.71095">
        <ele>347</ele>
        <time>2021-08-20T17:57:46Z</time>
      </trkpt>
      <trkpt lat="43.08487" lon="-0.71052">
        <ele>355</ele>
        <time>2021-08-20T17:57:52Z</time>
      </trkpt>
      <trkpt lat="43.08483" lon="-0.71043">
        <ele>356</ele>
        <time>2021-08-20T17:57:53Z</time>
      </trkpt>
      <trkpt lat="43.08475" lon="-0.7104">
        <ele>356</ele>
        <time>2021-08-20T17:57:55Z</time>
      </trkpt>
      <trkpt lat="43.08461" lon="-0.7104">
        <ele>355</ele>
        <time>2021-08-20T17:57:57Z</time>
      </trkpt>
      <trkpt lat="43.08444" lon="-0.71044">
        <ele>353</ele>
        <time>2021-08-20T17:58:00Z</time>
      </trkpt>
      <trkpt lat="43.08406" lon="-0.71021">
        <ele>354</ele>
        <time>2021-08-20T17:58:08Z</time>
      </trkpt>
      <trkpt lat="43.08401" lon="-0.71011">
        <ele>355</ele>
        <time>2021-08-20T17:58:09Z</time>
      </trkpt>
      <trkpt lat="43.08406" lon="-0.70984">
        <ele>361</ele>
        <time>2021-08-20T17:58:13Z</time>
      </trkpt>
      <trkpt lat="43.08408" lon="-0.70955">
        <ele>366</ele>
        <time>2021-08-20T17:58:16Z</time>
      </trkpt>
      <trkpt lat="43.08405" lon="-0.70937">
        <ele>369</ele>
        <time>2021-08-20T17:58:19Z</time>
      </trkpt>
      <trkpt lat="43.08398" lon="-0.70924">
        <ele>371</ele>
        <time>2021-08-20T17:58:21Z</time>
      </trkpt>
      <trkpt lat="43.08385" lon="-0.70916">
        <ele>373</ele>
        <time>2021-08-20T17:58:24Z</time>
      </trkpt>
      <trkpt lat="43.08306" lon="-0.70893">
        <ele>383</ele>
        <time>2021-08-20T17:58:38Z</time>
      </trkpt>
      <trkpt lat="43.08233" lon="-0.70876">
        <ele>392</ele>
        <time>2021-08-20T17:58:51Z</time>
      </trkpt>
      <trkpt lat="43.08074" lon="-0.70828">
        <ele>410</ele>
        <time>2021-08-20T17:59:20Z</time>
      </trkpt>
      <trkpt lat="43.08013" lon="-0.70783">
        <ele>427</ele>
        <time>2021-08-20T17:59:32Z</time>
      </trkpt>
      <trkpt lat="43.0798" lon="-0.7077">
        <ele>436</ele>
        <time>2021-08-20T17:59:38Z</time>
      </trkpt>
      <trkpt lat="43.07968" lon="-0.70773">
        <ele>437</ele>
        <time>2021-08-20T17:59:41Z</time>
      </trkpt>
      <trkpt lat="43.07962" lon="-0.7078">
        <ele>437</ele>
        <time>2021-08-20T17:59:42Z</time>
      </trkpt>
      <trkpt lat="43.07969" lon="-0.70801">
        <ele>429</ele>
        <time>2021-08-20T17:59:45Z</time>
      </trkpt>
      <trkpt lat="43.07971" lon="-0.70826">
        <ele>421</ele>
        <time>2021-08-20T17:59:48Z</time>
      </trkpt>
      <trkpt lat="43.07969" lon="-0.70834">
        <ele>419</ele>
        <time>2021-08-20T17:59:49Z</time>
      </trkpt>
      <trkpt lat="43.07962" lon="-0.70841">
        <ele>419</ele>
        <time>2021-08-20T17:59:51Z</time>
      </trkpt>
      <trkpt lat="43.07851" lon="-0.7086">
        <ele>441</ele>
        <time>2021-08-20T18:00:11Z</time>
      </trkpt>
      <trkpt lat="43.0784" lon="-0.70865">
        <ele>443</ele>
        <time>2021-08-20T18:00:13Z</time>
      </trkpt>
      <trkpt lat="43.07806" lon="-0.70897">
        <ele>439</ele>
        <time>2021-08-20T18:00:20Z</time>
      </trkpt>
      <trkpt lat="43.07794" lon="-0.70903">
        <ele>438</ele>
        <time>2021-08-20T18:00:23Z</time>
      </trkpt>
      <trkpt lat="43.07779" lon="-0.70903">
        <ele>439</ele>
        <time>2021-08-20T18:00:25Z</time>
      </trkpt>
      <trkpt lat="43.07762" lon="-0.70899">
        <ele>441</ele>
        <time>2021-08-20T18:00:28Z</time>
      </trkpt>
      <trkpt lat="43.07719" lon="-0.70875">
        <ele>447</ele>
        <time>2021-08-20T18:00:37Z</time>
      </trkpt>
      <trkpt lat="43.07707" lon="-0.7087">
        <ele>449</ele>
        <time>2021-08-20T18:00:39Z</time>
      </trkpt>
      <trkpt lat="43.07672" lon="-0.70868">
        <ele>449</ele>
        <time>2021-08-20T18:00:45Z</time>
      </trkpt>
      <trkpt lat="43.07654" lon="-0.70874">
        <ele>449</ele>
        <time>2021-08-20T18:00:48Z</time>
      </trkpt>
      <trkpt lat="43.0759" lon="-0.70909">
        <ele>446</ele>
        <time>2021-08-20T18:01:01Z</time>
      </trkpt>
      <trkpt lat="43.07507" lon="-0.7093">
        <ele>449</ele>
        <time>2021-08-20T18:01:16Z</time>
      </trkpt>
      <trkpt lat="43.07469" lon="-0.70944">
        <ele>451</ele>
        <time>2021-08-20T18:01:23Z</time>
      </trkpt>
      <trkpt lat="43.0744" lon="-0.70967">
        <ele>451</ele>
        <time>2021-08-20T18:01:29Z</time>
      </trkpt>
      <trkpt lat="43.07428" lon="-0.71013">
        <ele>446</ele>
        <time>2021-08-20T18:01:35Z</time>
      </trkpt>
      <trkpt lat="43.07419" lon="-0.71026">
        <ele>446</ele>
        <time>2021-08-20T18:01:37Z</time>
      </trkpt>
      <trkpt lat="43.07409" lon="-0.71033">
        <ele>445</ele>
        <time>2021-08-20T18:01:39Z</time>
      </trkpt>
      <trkpt lat="43.07383" lon="-0.71031">
        <ele>444</ele>
        <time>2021-08-20T18:01:44Z</time>
      </trkpt>
      <trkpt lat="43.07338" lon="-0.70996">
        <ele>452</ele>
        <time>2021-08-20T18:01:53Z</time>
      </trkpt>
      <trkpt lat="43.0732" lon="-0.7098">
        <ele>452</ele>
        <time>2021-08-20T18:01:57Z</time>
      </trkpt>
      <trkpt lat="43.07306" lon="-0.70961">
        <ele>452</ele>
        <time>2021-08-20T18:02:00Z</time>
      </trkpt>
      <trkpt lat="43.07289" lon="-0.70934">
        <ele>454</ele>
        <time>2021-08-20T18:02:05Z</time>
      </trkpt>
      <trkpt lat="43.07285" lon="-0.70923">
        <ele>456</ele>
        <time>2021-08-20T18:02:07Z</time>
      </trkpt>
      <trkpt lat="43.07267" lon="-0.70845">
        <ele>464</ele>
        <time>2021-08-20T18:02:17Z</time>
      </trkpt>
      <trkpt lat="43.07253" lon="-0.70804">
        <ele>470</ele>
        <time>2021-08-20T18:02:23Z</time>
      </trkpt>
      <trkpt lat="43.07218" lon="-0.70755">
        <ele>476</ele>
        <time>2021-08-20T18:02:32Z</time>
      </trkpt>
      <trkpt lat="43.07175" lon="-0.70714">
        <ele>480</ele>
        <time>2021-08-20T18:02:41Z</time>
      </trkpt>
      <trkpt lat="43.07131" lon="-0.70689">
        <ele>483</ele>
        <time>2021-08-20T18:02:50Z</time>
      </trkpt>
      <trkpt lat="43.071" lon="-0.70675">
        <ele>484</ele>
        <time>2021-08-20T18:02:56Z</time>
      </trkpt>
      <trkpt lat="43.07065" lon="-0.70669">
        <ele>483</ele>
        <time>2021-08-20T18:03:02Z</time>
      </trkpt>
      <trkpt lat="43.06991" lon="-0.70663">
        <ele>481</ele>
        <time>2021-08-20T18:03:15Z</time>
      </trkpt>
      <trkpt lat="43.0697" lon="-0.70658">
        <ele>482</ele>
        <time>2021-08-20T18:03:19Z</time>
      </trkpt>
      <trkpt lat="43.06924" lon="-0.70642">
        <ele>483</ele>
        <time>2021-08-20T18:03:27Z</time>
      </trkpt>
      <trkpt lat="43.06906" lon="-0.70625">
        <ele>484</ele>
        <time>2021-08-20T18:03:31Z</time>
      </trkpt>
      <trkpt lat="43.06901" lon="-0.70615">
        <ele>484</ele>
        <time>2021-08-20T18:03:33Z</time>
      </trkpt>
      <trkpt lat="43.06901" lon="-0.70604">
        <ele>484</ele>
        <time>2021-08-20T18:03:34Z</time>
      </trkpt>
      <trkpt lat="43.06912" lon="-0.70568">
        <ele>484</ele>
        <time>2021-08-20T18:03:39Z</time>
      </trkpt>
      <trkpt lat="43.06915" lon="-0.70529">
        <ele>485</ele>
        <time>2021-08-20T18:03:44Z</time>
      </trkpt>
      <trkpt lat="43.0692" lon="-0.7051">
        <ele>485</ele>
        <time>2021-08-20T18:03:47Z</time>
      </trkpt>
      <trkpt lat="43.06929" lon="-0.70488">
        <ele>488</ele>
        <time>2021-08-20T18:03:50Z</time>
      </trkpt>
      <trkpt lat="43.06945" lon="-0.70462">
        <ele>491</ele>
        <time>2021-08-20T18:03:55Z</time>
      </trkpt>
      <trkpt lat="43.06963" lon="-0.70449">
        <ele>491</ele>
        <time>2021-08-20T18:03:58Z</time>
      </trkpt>
      <trkpt lat="43.06984" lon="-0.70439">
        <ele>488</ele>
        <time>2021-08-20T18:04:02Z</time>
      </trkpt>
      <trkpt lat="43.07001" lon="-0.70424">
        <ele>483</ele>
        <time>2021-08-20T18:04:06Z</time>
      </trkpt>
      <trkpt lat="43.07014" lon="-0.70405">
        <ele>481</ele>
        <time>2021-08-20T18:04:09Z</time>
      </trkpt>
      <trkpt lat="43.07033" lon="-0.70387">
        <ele>480</ele>
        <time>2021-08-20T18:04:13Z</time>
      </trkpt>
      <trkpt lat="43.07042" lon="-0.70367">
        <ele>478</ele>
        <time>2021-08-20T18:04:16Z</time>
      </trkpt>
      <trkpt lat="43.07043" lon="-0.70345">
        <ele>477</ele>
        <time>2021-08-20T18:04:19Z</time>
      </trkpt>
      <trkpt lat="43.07033" lon="-0.70336">
        <ele>476</ele>
        <time>2021-08-20T18:04:21Z</time>
      </trkpt>
      <trkpt lat="43.06995" lon="-0.70315">
        <ele>482</ele>
        <time>2021-08-20T18:04:29Z</time>
      </trkpt>
      <trkpt lat="43.06979" lon="-0.70296">
        <ele>487</ele>
        <time>2021-08-20T18:04:33Z</time>
      </trkpt>
      <trkpt lat="43.06956" lon="-0.70261">
        <ele>490</ele>
        <time>2021-08-20T18:04:39Z</time>
      </trkpt>
      <trkpt lat="43.06918" lon="-0.70224">
        <ele>493</ele>
        <time>2021-08-20T18:04:47Z</time>
      </trkpt>
      <trkpt lat="43.06867" lon="-0.7018">
        <ele>497</ele>
        <time>2021-08-20T18:04:58Z</time>
      </trkpt>
      <trkpt lat="43.06858" lon="-0.70167">
        <ele>497</ele>
        <time>2021-08-20T18:05:00Z</time>
      </trkpt>
      <trkpt lat="43.0683" lon="-0.70087">
        <ele>503</ele>
        <time>2021-08-20T18:05:12Z</time>
      </trkpt>
      <trkpt lat="43.06807" lon="-0.70002">
        <ele>516</ele>
        <time>2021-08-20T18:05:23Z</time>
      </trkpt>
      <trkpt lat="43.0679" lon="-0.69961">
        <ele>521</ele>
        <time>2021-08-20T18:05:29Z</time>
      </trkpt>
      <trkpt lat="43.06763" lon="-0.69924">
        <ele>519</ele>
        <time>2021-08-20T18:05:36Z</time>
      </trkpt>
      <trkpt lat="43.06751" lon="-0.69901">
        <ele>519</ele>
        <time>2021-08-20T18:05:40Z</time>
      </trkpt>
      <trkpt lat="43.06744" lon="-0.69872">
        <ele>526</ele>
        <time>2021-08-20T18:05:44Z</time>
      </trkpt>
      <trkpt lat="43.06707" lon="-0.69815">
        <ele>534</ele>
        <time>2021-08-20T18:05:54Z</time>
      </trkpt>
      <trkpt lat="43.06673" lon="-0.69767">
        <ele>538</ele>
        <time>2021-08-20T18:06:02Z</time>
      </trkpt>
      <trkpt lat="43.06653" lon="-0.69751">
        <ele>539</ele>
        <time>2021-08-20T18:06:07Z</time>
      </trkpt>
      <trkpt lat="43.06633" lon="-0.69743">
        <ele>539</ele>
        <time>2021-08-20T18:06:10Z</time>
      </trkpt>
      <trkpt lat="43.06602" lon="-0.69738">
        <ele>538</ele>
        <time>2021-08-20T18:06:16Z</time>
      </trkpt>
      <trkpt lat="43.06586" lon="-0.69732">
        <ele>539</ele>
        <time>2021-08-20T18:06:19Z</time>
      </trkpt>
      <trkpt lat="43.06532" lon="-0.69682">
        <ele>551</ele>
        <time>2021-08-20T18:06:30Z</time>
      </trkpt>
      <trkpt lat="43.06494" lon="-0.69659">
        <ele>554</ele>
        <time>2021-08-20T18:06:38Z</time>
      </trkpt>
      <trkpt lat="43.06466" lon="-0.69625">
        <ele>563</ele>
        <time>2021-08-20T18:06:44Z</time>
      </trkpt>
      <trkpt lat="43.06452" lon="-0.69617">
        <ele>565</ele>
        <time>2021-08-20T18:06:47Z</time>
      </trkpt>
      <trkpt lat="43.06413" lon="-0.69615">
        <ele>564</ele>
        <time>2021-08-20T18:06:54Z</time>
      </trkpt>
      <trkpt lat="43.06397" lon="-0.69611">
        <ele>566</ele>
        <time>2021-08-20T18:06:57Z</time>
      </trkpt>
      <trkpt lat="43.0638" lon="-0.69599">
        <ele>568</ele>
        <time>2021-08-20T18:07:00Z</time>
      </trkpt>
      <trkpt lat="43.0637" lon="-0.69598">
        <ele>569</ele>
        <time>2021-08-20T18:07:02Z</time>
      </trkpt>
      <trkpt lat="43.06343" lon="-0.69605">
        <ele>569</ele>
        <time>2021-08-20T18:07:07Z</time>
      </trkpt>
      <trkpt lat="43.06325" lon="-0.69604">
        <ele>569</ele>
        <time>2021-08-20T18:07:10Z</time>
      </trkpt>
      <trkpt lat="43.06295" lon="-0.69588">
        <ele>570</ele>
        <time>2021-08-20T18:07:16Z</time>
      </trkpt>
      <trkpt lat="43.06264" lon="-0.69555">
        <ele>575</ele>
        <time>2021-08-20T18:07:23Z</time>
      </trkpt>
      <trkpt lat="43.06224" lon="-0.69475">
        <ele>588</ele>
        <time>2021-08-20T18:07:36Z</time>
      </trkpt>
      <trkpt lat="43.06199" lon="-0.69443">
        <ele>593</ele>
        <time>2021-08-20T18:07:42Z</time>
      </trkpt>
      <trkpt lat="43.06192" lon="-0.69441">
        <ele>593</ele>
        <time>2021-08-20T18:07:43Z</time>
      </trkpt>
      <trkpt lat="43.06187" lon="-0.69442">
        <ele>593</ele>
        <time>2021-08-20T18:07:44Z</time>
      </trkpt>
      <trkpt lat="43.06183" lon="-0.69448">
        <ele>591</ele>
        <time>2021-08-20T18:07:45Z</time>
      </trkpt>
      <trkpt lat="43.06178" lon="-0.6947">
        <ele>588</ele>
        <time>2021-08-20T18:07:48Z</time>
      </trkpt>
      <trkpt lat="43.06171" lon="-0.6948">
        <ele>586</ele>
        <time>2021-08-20T18:07:50Z</time>
      </trkpt>
      <trkpt lat="43.0616" lon="-0.69485">
        <ele>586</ele>
        <time>2021-08-20T18:07:52Z</time>
      </trkpt>
      <trkpt lat="43.06149" lon="-0.6948">
        <ele>589</ele>
        <time>2021-08-20T18:07:54Z</time>
      </trkpt>
      <trkpt lat="43.06087" lon="-0.69435">
        <ele>599</ele>
        <time>2021-08-20T18:08:06Z</time>
      </trkpt>
      <trkpt lat="43.06042" lon="-0.69377">
        <ele>606</ele>
        <time>2021-08-20T18:08:17Z</time>
      </trkpt>
      <trkpt lat="43.06019" lon="-0.6934">
        <ele>605</ele>
        <time>2021-08-20T18:08:24Z</time>
      </trkpt>
      <trkpt lat="43.06001" lon="-0.69322">
        <ele>604</ele>
        <time>2021-08-20T18:08:28Z</time>
      </trkpt>
      <trkpt lat="43.05953" lon="-0.69259">
        <ele>598</ele>
        <time>2021-08-20T18:08:39Z</time>
      </trkpt>
      <trkpt lat="43.05942" lon="-0.69249">
        <ele>596</ele>
        <time>2021-08-20T18:08:42Z</time>
      </trkpt>
      <trkpt lat="43.05931" lon="-0.69248">
        <ele>595</ele>
        <time>2021-08-20T18:08:44Z</time>
      </trkpt>
      <trkpt lat="43.05901" lon="-0.69258">
        <ele>599</ele>
        <time>2021-08-20T18:08:49Z</time>
      </trkpt>
      <trkpt lat="43.05899" lon="-0.69253">
        <ele>598</ele>
        <time>2021-08-20T18:08:50Z</time>
      </trkpt>
      <trkpt lat="43.059" lon="-0.69236">
        <ele>595</ele>
        <time>2021-08-20T18:08:52Z</time>
      </trkpt>
      <trkpt lat="43.05904" lon="-0.69217">
        <ele>592</ele>
        <time>2021-08-20T18:08:55Z</time>
      </trkpt>
      <trkpt lat="43.05905" lon="-0.69164">
        <ele>586</ele>
        <time>2021-08-20T18:09:02Z</time>
      </trkpt>
      <trkpt lat="43.05899" lon="-0.69127">
        <ele>584</ele>
        <time>2021-08-20T18:09:07Z</time>
      </trkpt>
      <trkpt lat="43.05884" lon="-0.69087">
        <ele>583</ele>
        <time>2021-08-20T18:09:12Z</time>
      </trkpt>
      <trkpt lat="43.0586" lon="-0.69051">
        <ele>581</ele>
        <time>2021-08-20T18:09:19Z</time>
      </trkpt>
      <trkpt lat="43.05826" lon="-0.69013">
        <ele>579</ele>
        <time>2021-08-20T18:09:27Z</time>
      </trkpt>
      <trkpt lat="43.05793" lon="-0.68986">
        <ele>575</ele>
        <time>2021-08-20T18:09:33Z</time>
      </trkpt>
      <trkpt lat="43.05763" lon="-0.68975">
        <ele>573</ele>
        <time>2021-08-20T18:09:39Z</time>
      </trkpt>
      <trkpt lat="43.05735" lon="-0.6898">
        <ele>572</ele>
        <time>2021-08-20T18:09:44Z</time>
      </trkpt>
      <trkpt lat="43.05716" lon="-0.68988">
        <ele>572</ele>
        <time>2021-08-20T18:09:48Z</time>
      </trkpt>
      <trkpt lat="43.05675" lon="-0.68975">
        <ele>565</ele>
        <time>2021-08-20T18:09:55Z</time>
      </trkpt>
      <trkpt lat="43.05665" lon="-0.68982">
        <ele>566</ele>
        <time>2021-08-20T18:09:57Z</time>
      </trkpt>
      <trkpt lat="43.05653" lon="-0.69002">
        <ele>573</ele>
        <time>2021-08-20T18:10:00Z</time>
      </trkpt>
      <trkpt lat="43.05618" lon="-0.69038">
        <ele>583</ele>
        <time>2021-08-20T18:10:08Z</time>
      </trkpt>
      <trkpt lat="43.05602" lon="-0.6905">
        <ele>585</ele>
        <time>2021-08-20T18:10:11Z</time>
      </trkpt>
      <trkpt lat="43.05596" lon="-0.69048">
        <ele>584</ele>
        <time>2021-08-20T18:10:13Z</time>
      </trkpt>
      <trkpt lat="43.05594" lon="-0.6904">
        <ele>583</ele>
        <time>2021-08-20T18:10:14Z</time>
      </trkpt>
      <trkpt lat="43.05601" lon="-0.68994">
        <ele>575</ele>
        <time>2021-08-20T18:10:20Z</time>
      </trkpt>
      <trkpt lat="43.056" lon="-0.68958">
        <ele>569</ele>
        <time>2021-08-20T18:10:24Z</time>
      </trkpt>
      <trkpt lat="43.05596" lon="-0.68916">
        <ele>564</ele>
        <time>2021-08-20T18:10:30Z</time>
      </trkpt>
      <trkpt lat="43.05598" lon="-0.68892">
        <ele>561</ele>
        <time>2021-08-20T18:10:33Z</time>
      </trkpt>
      <trkpt lat="43.05612" lon="-0.68838">
        <ele>553</ele>
        <time>2021-08-20T18:10:40Z</time>
      </trkpt>
      <trkpt lat="43.0561" lon="-0.68817">
        <ele>551</ele>
        <time>2021-08-20T18:10:43Z</time>
      </trkpt>
      <trkpt lat="43.05596" lon="-0.68775">
        <ele>551</ele>
        <time>2021-08-20T18:10:49Z</time>
      </trkpt>
      <trkpt lat="43.05593" lon="-0.68741">
        <ele>548</ele>
        <time>2021-08-20T18:10:54Z</time>
      </trkpt>
      <trkpt lat="43.05589" lon="-0.68711">
        <ele>545</ele>
        <time>2021-08-20T18:10:58Z</time>
      </trkpt>
      <trkpt lat="43.05589" lon="-0.68678">
        <ele>541</ele>
        <time>2021-08-20T18:11:02Z</time>
      </trkpt>
      <trkpt lat="43.05582" lon="-0.68626">
        <ele>536</ele>
        <time>2021-08-20T18:11:09Z</time>
      </trkpt>
      <trkpt lat="43.05594" lon="-0.68576">
        <ele>527</ele>
        <time>2021-08-20T18:11:16Z</time>
      </trkpt>
      <trkpt lat="43.05598" lon="-0.68548">
        <ele>523</ele>
        <time>2021-08-20T18:11:19Z</time>
      </trkpt>
      <trkpt lat="43.05597" lon="-0.68494">
        <ele>518</ele>
        <time>2021-08-20T18:11:26Z</time>
      </trkpt>
      <trkpt lat="43.05591" lon="-0.6846">
        <ele>516</ele>
        <time>2021-08-20T18:11:31Z</time>
      </trkpt>
      <trkpt lat="43.0558" lon="-0.6844">
        <ele>515</ele>
        <time>2021-08-20T18:11:34Z</time>
      </trkpt>
      <trkpt lat="43.05564" lon="-0.68431">
        <ele>512</ele>
        <time>2021-08-20T18:11:37Z</time>
      </trkpt>
      <trkpt lat="43.05551" lon="-0.68428">
        <ele>511</ele>
        <time>2021-08-20T18:11:40Z</time>
      </trkpt>
      <trkpt lat="43.05496" lon="-0.68439">
        <ele>508</ele>
        <time>2021-08-20T18:11:50Z</time>
      </trkpt>
      <trkpt lat="43.05485" lon="-0.68448">
        <ele>508</ele>
        <time>2021-08-20T18:11:52Z</time>
      </trkpt>
      <trkpt lat="43.0547" lon="-0.68486">
        <ele>515</ele>
        <time>2021-08-20T18:11:57Z</time>
      </trkpt>
      <trkpt lat="43.05465" lon="-0.68491">
        <ele>515</ele>
        <time>2021-08-20T18:11:59Z</time>
      </trkpt>
      <trkpt lat="43.05439" lon="-0.68489">
        <ele>510</ele>
        <time>2021-08-20T18:12:03Z</time>
      </trkpt>
      <trkpt lat="43.05427" lon="-0.68493">
        <ele>508</ele>
        <time>2021-08-20T18:12:05Z</time>
      </trkpt>
      <trkpt lat="43.05382" lon="-0.68532">
        <ele>512</ele>
        <time>2021-08-20T18:12:15Z</time>
      </trkpt>
      <trkpt lat="43.0537" lon="-0.68531">
        <ele>510</ele>
        <time>2021-08-20T18:12:17Z</time>
      </trkpt>
      <trkpt lat="43.05341" lon="-0.68513">
        <ele>506</ele>
        <time>2021-08-20T18:12:23Z</time>
      </trkpt>
      <trkpt lat="43.05337" lon="-0.68507">
        <ele>505</ele>
        <time>2021-08-20T18:12:24Z</time>
      </trkpt>
      <trkpt lat="43.05336" lon="-0.685">
        <ele>504</ele>
        <time>2021-08-20T18:12:25Z</time>
      </trkpt>
      <trkpt lat="43.05343" lon="-0.68459">
        <ele>502</ele>
        <time>2021-08-20T18:12:30Z</time>
      </trkpt>
      <trkpt lat="43.05351" lon="-0.68433">
        <ele>500</ele>
        <time>2021-08-20T18:12:34Z</time>
      </trkpt>
      <trkpt lat="43.05392" lon="-0.68416">
        <ele>491</ele>
        <time>2021-08-20T18:12:41Z</time>
      </trkpt>
      <trkpt lat="43.05436" lon="-0.68372">
        <ele>484</ele>
        <time>2021-08-20T18:12:51Z</time>
      </trkpt>
      <trkpt lat="43.05456" lon="-0.68351">
        <ele>484</ele>
        <time>2021-08-20T18:12:56Z</time>
      </trkpt>
      <trkpt lat="43.05487" lon="-0.68272">
        <ele>476</ele>
        <time>2021-08-20T18:13:07Z</time>
      </trkpt>
      <trkpt lat="43.05487" lon="-0.68259">
        <ele>474</ele>
        <time>2021-08-20T18:13:09Z</time>
      </trkpt>
      <trkpt lat="43.05481" lon="-0.6825">
        <ele>472</ele>
        <time>2021-08-20T18:13:10Z</time>
      </trkpt>
      <trkpt lat="43.05446" lon="-0.68239">
        <ele>468</ele>
        <time>2021-08-20T18:13:17Z</time>
      </trkpt>
      <trkpt lat="43.05415" lon="-0.68234">
        <ele>466</ele>
        <time>2021-08-20T18:13:22Z</time>
      </trkpt>
      <trkpt lat="43.05412" lon="-0.68226">
        <ele>466</ele>
        <time>2021-08-20T18:13:24Z</time>
      </trkpt>
      <trkpt lat="43.05416" lon="-0.68206">
        <ele>464</ele>
        <time>2021-08-20T18:13:26Z</time>
      </trkpt>
      <trkpt lat="43.05416" lon="-0.68146">
        <ele>459</ele>
        <time>2021-08-20T18:13:34Z</time>
      </trkpt>
      <trkpt lat="43.05411" lon="-0.68095">
        <ele>455</ele>
        <time>2021-08-20T18:13:41Z</time>
      </trkpt>
      <trkpt lat="43.05388" lon="-0.68027">
        <ele>449</ele>
        <time>2021-08-20T18:13:51Z</time>
      </trkpt>
      <trkpt lat="43.05345" lon="-0.6793">
        <ele>439</ele>
        <time>2021-08-20T18:14:05Z</time>
      </trkpt>
      <trkpt lat="43.05301" lon="-0.67808">
        <ele>415</ele>
        <time>2021-08-20T18:14:23Z</time>
      </trkpt>
      <trkpt lat="43.05293" lon="-0.67798">
        <ele>413</ele>
        <time>2021-08-20T18:14:25Z</time>
      </trkpt>
      <trkpt lat="43.05278" lon="-0.67796">
        <ele>411</ele>
        <time>2021-08-20T18:14:28Z</time>
      </trkpt>
      <trkpt lat="43.05212" lon="-0.67802">
        <ele>410</ele>
        <time>2021-08-20T18:14:39Z</time>
      </trkpt>
      <trkpt lat="43.05195" lon="-0.67789">
        <ele>408</ele>
        <time>2021-08-20T18:14:43Z</time>
      </trkpt>
      <trkpt lat="43.05128" lon="-0.67719">
        <ele>401</ele>
        <time>2021-08-20T18:14:58Z</time>
      </trkpt>
      <trkpt lat="43.05124" lon="-0.677">
        <ele>399</ele>
        <time>2021-08-20T18:15:00Z</time>
      </trkpt>
      <trkpt lat="43.05125" lon="-0.67694">
        <ele>398</ele>
        <time>2021-08-20T18:15:01Z</time>
      </trkpt>
      <trkpt lat="43.05106" lon="-0.67687">
        <ele>398</ele>
        <time>2021-08-20T18:15:05Z</time>
      </trkpt>
      <trkpt lat="43.05091" lon="-0.6768">
        <ele>398</ele>
        <time>2021-08-20T18:15:08Z</time>
      </trkpt>
      <trkpt lat="43.05059" lon="-0.67653">
        <ele>397</ele>
        <time>2021-08-20T18:15:14Z</time>
      </trkpt>
      <trkpt lat="43.05043" lon="-0.67646">
        <ele>398</ele>
        <time>2021-08-20T18:15:17Z</time>
      </trkpt>
      <trkpt lat="43.05021" lon="-0.67645">
        <ele>399</ele>
        <time>2021-08-20T18:15:21Z</time>
      </trkpt>
      <trkpt lat="43.05015" lon="-0.6764">
        <ele>400</ele>
        <time>2021-08-20T18:15:22Z</time>
      </trkpt>
      <trkpt lat="43.05012" lon="-0.67619">
        <ele>400</ele>
        <time>2021-08-20T18:15:25Z</time>
      </trkpt>
      <trkpt lat="43.05006" lon="-0.67592">
        <ele>400</ele>
        <time>2021-08-20T18:15:29Z</time>
      </trkpt>
      <trkpt lat="43.05003" lon="-0.67586">
        <ele>400</ele>
        <time>2021-08-20T18:15:30Z</time>
      </trkpt>
      <trkpt lat="43.05011" lon="-0.67579">
        <ele>400</ele>
        <time>2021-08-20T18:15:31Z</time>
      </trkpt>
      <trkpt lat="43.05037" lon="-0.67536">
        <ele>404</ele>
        <time>2021-08-20T18:15:39Z</time>
      </trkpt>
      <trkpt lat="43.05048" lon="-0.67528">
        <ele>404</ele>
        <time>2021-08-20T18:15:41Z</time>
      </trkpt>
      <trkpt lat="43.05057" lon="-0.67522">
        <ele>403</ele>
        <time>2021-08-20T18:15:43Z</time>
      </trkpt>
      <trkpt lat="43.05076" lon="-0.67501">
        <ele>401</ele>
        <time>2021-08-20T18:15:47Z</time>
      </trkpt>
      <trkpt lat="43.05089" lon="-0.67476">
        <ele>402</ele>
        <time>2021-08-20T18:15:51Z</time>
      </trkpt>
      <trkpt lat="43.05097" lon="-0.6744">
        <ele>406</ele>
        <time>2021-08-20T18:15:56Z</time>
      </trkpt>
      <trkpt lat="43.05094" lon="-0.6736">
        <ele>412</ele>
        <time>2021-08-20T18:16:06Z</time>
      </trkpt>
      <trkpt lat="43.05084" lon="-0.67316">
        <ele>413</ele>
        <time>2021-08-20T18:16:12Z</time>
      </trkpt>
      <trkpt lat="43.05063" lon="-0.67262">
        <ele>418</ele>
        <time>2021-08-20T18:16:20Z</time>
      </trkpt>
      <trkpt lat="43.0505" lon="-0.67241">
        <ele>420</ele>
        <time>2021-08-20T18:16:24Z</time>
      </trkpt>
      <trkpt lat="43.04997" lon="-0.67172">
        <ele>425</ele>
        <time>2021-08-20T18:16:37Z</time>
      </trkpt>
      <trkpt lat="43.04993" lon="-0.67162">
        <ele>426</ele>
        <time>2021-08-20T18:16:38Z</time>
      </trkpt>
      <trkpt lat="43.04992" lon="-0.67143">
        <ele>427</ele>
        <time>2021-08-20T18:16:41Z</time>
      </trkpt>
      <trkpt lat="43.04989" lon="-0.67137">
        <ele>428</ele>
        <time>2021-08-20T18:16:42Z</time>
      </trkpt>
      <trkpt lat="43.04977" lon="-0.67125">
        <ele>432</ele>
        <time>2021-08-20T18:16:44Z</time>
      </trkpt>
      <trkpt lat="43.04972" lon="-0.67114">
        <ele>434</ele>
        <time>2021-08-20T18:16:46Z</time>
      </trkpt>
      <trkpt lat="43.04972" lon="-0.67106">
        <ele>434</ele>
        <time>2021-08-20T18:16:47Z</time>
      </trkpt>
      <trkpt lat="43.04976" lon="-0.67098">
        <ele>434</ele>
        <time>2021-08-20T18:16:48Z</time>
      </trkpt>
      <trkpt lat="43.04989" lon="-0.67086">
        <ele>431</ele>
        <time>2021-08-20T18:16:51Z</time>
      </trkpt>
      <trkpt lat="43.04996" lon="-0.67076">
        <ele>429</ele>
        <time>2021-08-20T18:16:53Z</time>
      </trkpt>
      <trkpt lat="43.05004" lon="-0.67053">
        <ele>430</ele>
        <time>2021-08-20T18:16:56Z</time>
      </trkpt>
      <trkpt lat="43.05004" lon="-0.6704">
        <ele>430</ele>
        <time>2021-08-20T18:16:58Z</time>
      </trkpt>
      <trkpt lat="43.05001" lon="-0.67018">
        <ele>431</ele>
        <time>2021-08-20T18:17:01Z</time>
      </trkpt>
      <trkpt lat="43.04994" lon="-0.67002">
        <ele>433</ele>
        <time>2021-08-20T18:17:03Z</time>
      </trkpt>
      <trkpt lat="43.04981" lon="-0.66986">
        <ele>436</ele>
        <time>2021-08-20T18:17:06Z</time>
      </trkpt>
      <trkpt lat="43.04978" lon="-0.66973">
        <ele>436</ele>
        <time>2021-08-20T18:17:08Z</time>
      </trkpt>
      <trkpt lat="43.04976" lon="-0.66947">
        <ele>436</ele>
        <time>2021-08-20T18:17:12Z</time>
      </trkpt>
      <trkpt lat="43.04976" lon="-0.6692">
        <ele>435</ele>
        <time>2021-08-20T18:17:15Z</time>
      </trkpt>
      <trkpt lat="43.04984" lon="-0.66866">
        <ele>437</ele>
        <time>2021-08-20T18:17:22Z</time>
      </trkpt>
      <trkpt lat="43.0498" lon="-0.66839">
        <ele>439</ele>
        <time>2021-08-20T18:17:26Z</time>
      </trkpt>
      <trkpt lat="43.04969" lon="-0.66812">
        <ele>441</ele>
        <time>2021-08-20T18:17:30Z</time>
      </trkpt>
      <trkpt lat="43.04959" lon="-0.668">
        <ele>443</ele>
        <time>2021-08-20T18:17:32Z</time>
      </trkpt>
      <trkpt lat="43.04933" lon="-0.66779">
        <ele>444</ele>
        <time>2021-08-20T18:17:38Z</time>
      </trkpt>
      <trkpt lat="43.04903" lon="-0.6676">
        <ele>448</ele>
        <time>2021-08-20T18:17:44Z</time>
      </trkpt>
      <trkpt lat="43.04898" lon="-0.66751">
        <ele>449</ele>
        <time>2021-08-20T18:17:45Z</time>
      </trkpt>
      <trkpt lat="43.04875" lon="-0.66669">
        <ele>451</ele>
        <time>2021-08-20T18:17:56Z</time>
      </trkpt>
      <trkpt lat="43.0487" lon="-0.66641">
        <ele>452</ele>
        <time>2021-08-20T18:18:00Z</time>
      </trkpt>
      <trkpt lat="43.04871" lon="-0.66609">
        <ele>454</ele>
        <time>2021-08-20T18:18:04Z</time>
      </trkpt>
      <trkpt lat="43.04874" lon="-0.66588">
        <ele>454</ele>
        <time>2021-08-20T18:18:07Z</time>
      </trkpt>
      <trkpt lat="43.04881" lon="-0.66547">
        <ele>455</ele>
        <time>2021-08-20T18:18:13Z</time>
      </trkpt>
      <trkpt lat="43.04886" lon="-0.66538">
        <ele>455</ele>
        <time>2021-08-20T18:18:14Z</time>
      </trkpt>
      <trkpt lat="43.0492" lon="-0.66511">
        <ele>452</ele>
        <time>2021-08-20T18:18:21Z</time>
      </trkpt>
      <trkpt lat="43.04926" lon="-0.66505">
        <ele>453</ele>
        <time>2021-08-20T18:18:22Z</time>
      </trkpt>
      <trkpt lat="43.04938" lon="-0.66481">
        <ele>457</ele>
        <time>2021-08-20T18:18:26Z</time>
      </trkpt>
      <trkpt lat="43.04949" lon="-0.66447">
        <ele>460</ele>
        <time>2021-08-20T18:18:31Z</time>
      </trkpt>
      <trkpt lat="43.04957" lon="-0.66395">
        <ele>465</ele>
        <time>2021-08-20T18:18:38Z</time>
      </trkpt>
      <trkpt lat="43.0497" lon="-0.66329">
        <ele>470</ele>
        <time>2021-08-20T18:18:47Z</time>
      </trkpt>
      <trkpt lat="43.04982" lon="-0.66283">
        <ele>470</ele>
        <time>2021-08-20T18:18:53Z</time>
      </trkpt>
      <trkpt lat="43.04995" lon="-0.66263">
        <ele>468</ele>
        <time>2021-08-20T18:18:57Z</time>
      </trkpt>
      <trkpt lat="43.05" lon="-0.6625">
        <ele>467</ele>
        <time>2021-08-20T18:18:59Z</time>
      </trkpt>
      <trkpt lat="43.05003" lon="-0.66236">
        <ele>469</ele>
        <time>2021-08-20T18:19:00Z</time>
      </trkpt>
      <trkpt lat="43.05002" lon="-0.66221">
        <ele>469</ele>
        <time>2021-08-20T18:19:02Z</time>
      </trkpt>
      <trkpt lat="43.04995" lon="-0.6619">
        <ele>471</ele>
        <time>2021-08-20T18:19:07Z</time>
      </trkpt>
      <trkpt lat="43.04971" lon="-0.66133">
        <ele>478</ele>
        <time>2021-08-20T18:19:15Z</time>
      </trkpt>
      <trkpt lat="43.04956" lon="-0.66085">
        <ele>480</ele>
        <time>2021-08-20T18:19:22Z</time>
      </trkpt>
      <trkpt lat="43.04952" lon="-0.66064">
        <ele>482</ele>
        <time>2021-08-20T18:19:25Z</time>
      </trkpt>
      <trkpt lat="43.04952" lon="-0.66008">
        <ele>486</ele>
        <time>2021-08-20T18:19:32Z</time>
      </trkpt>
      <trkpt lat="43.0495" lon="-0.65991">
        <ele>486</ele>
        <time>2021-08-20T18:19:34Z</time>
      </trkpt>
      <trkpt lat="43.04946" lon="-0.6598">
        <ele>486</ele>
        <time>2021-08-20T18:19:36Z</time>
      </trkpt>
      <trkpt lat="43.04924" lon="-0.6595">
        <ele>482</ele>
        <time>2021-08-20T18:19:41Z</time>
      </trkpt>
      <trkpt lat="43.04911" lon="-0.65928">
        <ele>482</ele>
        <time>2021-08-20T18:19:45Z</time>
      </trkpt>
      <trkpt lat="43.04903" lon="-0.65908">
        <ele>484</ele>
        <time>2021-08-20T18:19:48Z</time>
      </trkpt>
      <trkpt lat="43.04899" lon="-0.65893">
        <ele>485</ele>
        <time>2021-08-20T18:19:50Z</time>
      </trkpt>
      <trkpt lat="43.04898" lon="-0.65881">
        <ele>486</ele>
        <time>2021-08-20T18:19:52Z</time>
      </trkpt>
      <trkpt lat="43.049" lon="-0.65867">
        <ele>486</ele>
        <time>2021-08-20T18:19:54Z</time>
      </trkpt>
      <trkpt lat="43.04907" lon="-0.6584">
        <ele>487</ele>
        <time>2021-08-20T18:19:57Z</time>
      </trkpt>
      <trkpt lat="43.04909" lon="-0.65829">
        <ele>487</ele>
        <time>2021-08-20T18:19:59Z</time>
      </trkpt>
      <trkpt lat="43.04908" lon="-0.65804">
        <ele>488</ele>
        <time>2021-08-20T18:20:02Z</time>
      </trkpt>
      <trkpt lat="43.04905" lon="-0.65791">
        <ele>489</ele>
        <time>2021-08-20T18:20:04Z</time>
      </trkpt>
      <trkpt lat="43.04901" lon="-0.65779">
        <ele>490</ele>
        <time>2021-08-20T18:20:05Z</time>
      </trkpt>
      <trkpt lat="43.04895" lon="-0.6577">
        <ele>490</ele>
        <time>2021-08-20T18:20:07Z</time>
      </trkpt>
      <trkpt lat="43.04888" lon="-0.65761">
        <ele>491</ele>
        <time>2021-08-20T18:20:09Z</time>
      </trkpt>
      <trkpt lat="43.04869" lon="-0.6575">
        <ele>491</ele>
        <time>2021-08-20T18:20:12Z</time>
      </trkpt>
      <trkpt lat="43.04845" lon="-0.6575">
        <ele>492</ele>
        <time>2021-08-20T18:20:17Z</time>
      </trkpt>
      <trkpt lat="43.04832" lon="-0.65744">
        <ele>493</ele>
        <time>2021-08-20T18:20:19Z</time>
      </trkpt>
      <trkpt lat="43.04827" lon="-0.65743">
        <ele>494</ele>
        <time>2021-08-20T18:20:20Z</time>
      </trkpt>
      <trkpt lat="43.04809" lon="-0.65744">
        <ele>498</ele>
        <time>2021-08-20T18:20:23Z</time>
      </trkpt>
      <trkpt lat="43.04799" lon="-0.65741">
        <ele>501</ele>
        <time>2021-08-20T18:20:25Z</time>
      </trkpt>
      <trkpt lat="43.04789" lon="-0.65734">
        <ele>504</ele>
        <time>2021-08-20T18:20:27Z</time>
      </trkpt>
      <trkpt lat="43.04778" lon="-0.65723">
        <ele>506</ele>
        <time>2021-08-20T18:20:30Z</time>
      </trkpt>
      <trkpt lat="43.04748" lon="-0.65668">
        <ele>512</ele>
        <time>2021-08-20T18:20:38Z</time>
      </trkpt>
      <trkpt lat="43.04743" lon="-0.65653">
        <ele>514</ele>
        <time>2021-08-20T18:20:41Z</time>
      </trkpt>
      <trkpt lat="43.04741" lon="-0.65638">
        <ele>515</ele>
        <time>2021-08-20T18:20:43Z</time>
      </trkpt>
      <trkpt lat="43.04741" lon="-0.65622">
        <ele>516</ele>
        <time>2021-08-20T18:20:45Z</time>
      </trkpt>
      <trkpt lat="43.04745" lon="-0.65596">
        <ele>515</ele>
        <time>2021-08-20T18:20:48Z</time>
      </trkpt>
      <trkpt lat="43.04744" lon="-0.65579">
        <ele>515</ele>
        <time>2021-08-20T18:20:50Z</time>
      </trkpt>
      <trkpt lat="43.04742" lon="-0.65555">
        <ele>517</ele>
        <time>2021-08-20T18:20:53Z</time>
      </trkpt>
      <trkpt lat="43.04743" lon="-0.65537">
        <ele>517</ele>
        <time>2021-08-20T18:20:56Z</time>
      </trkpt>
      <trkpt lat="43.04748" lon="-0.65507">
        <ele>516</ele>
        <time>2021-08-20T18:21:00Z</time>
      </trkpt>
      <trkpt lat="43.04747" lon="-0.65496">
        <ele>517</ele>
        <time>2021-08-20T18:21:01Z</time>
      </trkpt>
      <trkpt lat="43.04743" lon="-0.65485">
        <ele>519</ele>
        <time>2021-08-20T18:21:03Z</time>
      </trkpt>
      <trkpt lat="43.04737" lon="-0.65474">
        <ele>521</ele>
        <time>2021-08-20T18:21:05Z</time>
      </trkpt>
      <trkpt lat="43.04723" lon="-0.65454">
        <ele>524</ele>
        <time>2021-08-20T18:21:08Z</time>
      </trkpt>
      <trkpt lat="43.04708" lon="-0.65425">
        <ele>526</ele>
        <time>2021-08-20T18:21:13Z</time>
      </trkpt>
      <trkpt lat="43.04694" lon="-0.65407">
        <ele>527</ele>
        <time>2021-08-20T18:21:16Z</time>
      </trkpt>
      <trkpt lat="43.04687" lon="-0.65395">
        <ele>527</ele>
        <time>2021-08-20T18:21:18Z</time>
      </trkpt>
      <trkpt lat="43.04681" lon="-0.65376">
        <ele>528</ele>
        <time>2021-08-20T18:21:21Z</time>
      </trkpt>
      <trkpt lat="43.04658" lon="-0.65282">
        <ele>532</ele>
        <time>2021-08-20T18:21:34Z</time>
      </trkpt>
      <trkpt lat="43.04655" lon="-0.65248">
        <ele>535</ele>
        <time>2021-08-20T18:21:38Z</time>
      </trkpt>
      <trkpt lat="43.04656" lon="-0.65211">
        <ele>536</ele>
        <time>2021-08-20T18:21:43Z</time>
      </trkpt>
      <trkpt lat="43.04654" lon="-0.65177">
        <ele>537</ele>
        <time>2021-08-20T18:21:48Z</time>
      </trkpt>
      <trkpt lat="43.04646" lon="-0.65138">
        <ele>540</ele>
        <time>2021-08-20T18:21:53Z</time>
      </trkpt>
      <trkpt lat="43.04643" lon="-0.65116">
        <ele>541</ele>
        <time>2021-08-20T18:21:56Z</time>
      </trkpt>
      <trkpt lat="43.04641" lon="-0.65104">
        <ele>541</ele>
        <time>2021-08-20T18:21:57Z</time>
      </trkpt>
      <trkpt lat="43.0464" lon="-0.65095">
        <ele>541</ele>
        <time>2021-08-20T18:21:59Z</time>
      </trkpt>
      <trkpt lat="43.04625" lon="-0.65069">
        <ele>542</ele>
        <time>2021-08-20T18:22:03Z</time>
      </trkpt>
      <trkpt lat="43.04601" lon="-0.65045">
        <ele>543</ele>
        <time>2021-08-20T18:22:08Z</time>
      </trkpt>
      <trkpt lat="43.04589" lon="-0.6504">
        <ele>543</ele>
        <time>2021-08-20T18:22:10Z</time>
      </trkpt>
      <trkpt lat="43.04574" lon="-0.65039">
        <ele>545</ele>
        <time>2021-08-20T18:22:13Z</time>
      </trkpt>
      <trkpt lat="43.04549" lon="-0.65031">
        <ele>551</ele>
        <time>2021-08-20T18:22:18Z</time>
      </trkpt>
      <trkpt lat="43.04532" lon="-0.65018">
        <ele>553</ele>
        <time>2021-08-20T18:22:21Z</time>
      </trkpt>
      <trkpt lat="43.04522" lon="-0.64998">
        <ele>552</ele>
        <time>2021-08-20T18:22:24Z</time>
      </trkpt>
      <trkpt lat="43.04491" lon="-0.64922">
        <ele>556</ele>
        <time>2021-08-20T18:22:36Z</time>
      </trkpt>
      <trkpt lat="43.04424" lon="-0.64855">
        <ele>566</ele>
        <time>2021-08-20T18:22:50Z</time>
      </trkpt>
      <trkpt lat="43.0439" lon="-0.64803">
        <ele>571</ele>
        <time>2021-08-20T18:22:59Z</time>
      </trkpt>
      <trkpt lat="43.0438" lon="-0.64783">
        <ele>573</ele>
        <time>2021-08-20T18:23:03Z</time>
      </trkpt>
      <trkpt lat="43.04379" lon="-0.64776">
        <ele>574</ele>
        <time>2021-08-20T18:23:03Z</time>
      </trkpt>
      <trkpt lat="43.04369" lon="-0.64736">
        <ele>577</ele>
        <time>2021-08-20T18:23:09Z</time>
      </trkpt>
      <trkpt lat="43.04364" lon="-0.64726">
        <ele>577</ele>
        <time>2021-08-20T18:23:11Z</time>
      </trkpt>
      <trkpt lat="43.04341" lon="-0.64699">
        <ele>577</ele>
        <time>2021-08-20T18:23:16Z</time>
      </trkpt>
      <trkpt lat="43.04333" lon="-0.64676">
        <ele>577</ele>
        <time>2021-08-20T18:23:19Z</time>
      </trkpt>
      <trkpt lat="43.04311" lon="-0.6464">
        <ele>581</ele>
        <time>2021-08-20T18:23:25Z</time>
      </trkpt>
      <trkpt lat="43.0429" lon="-0.64583">
        <ele>584</ele>
        <time>2021-08-20T18:23:34Z</time>
      </trkpt>
      <trkpt lat="43.0427" lon="-0.64563">
        <ele>585</ele>
        <time>2021-08-20T18:23:38Z</time>
      </trkpt>
      <trkpt lat="43.04263" lon="-0.6455">
        <ele>586</ele>
        <time>2021-08-20T18:23:40Z</time>
      </trkpt>
      <trkpt lat="43.04256" lon="-0.64533">
        <ele>586</ele>
        <time>2021-08-20T18:23:43Z</time>
      </trkpt>
      <trkpt lat="43.04248" lon="-0.6451">
        <ele>587</ele>
        <time>2021-08-20T18:23:46Z</time>
      </trkpt>
      <trkpt lat="43.04245" lon="-0.64492">
        <ele>588</ele>
        <time>2021-08-20T18:23:48Z</time>
      </trkpt>
      <trkpt lat="43.04246" lon="-0.64466">
        <ele>590</ele>
        <time>2021-08-20T18:23:52Z</time>
      </trkpt>
      <trkpt lat="43.04224" lon="-0.64383">
        <ele>602</ele>
        <time>2021-08-20T18:24:03Z</time>
      </trkpt>
      <trkpt lat="43.04204" lon="-0.64325">
        <ele>610</ele>
        <time>2021-08-20T18:24:12Z</time>
      </trkpt>
      <trkpt lat="43.04207" lon="-0.64311">
        <ele>610</ele>
        <time>2021-08-20T18:24:13Z</time>
      </trkpt>
      <trkpt lat="43.04214" lon="-0.64305">
        <ele>609</ele>
        <time>2021-08-20T18:24:15Z</time>
      </trkpt>
      <trkpt lat="43.04225" lon="-0.64298">
        <ele>608</ele>
        <time>2021-08-20T18:24:17Z</time>
      </trkpt>
      <trkpt lat="43.04235" lon="-0.64301">
        <ele>606</ele>
        <time>2021-08-20T18:24:19Z</time>
      </trkpt>
      <trkpt lat="43.04254" lon="-0.64323">
        <ele>601</ele>
        <time>2021-08-20T18:24:23Z</time>
      </trkpt>
      <trkpt lat="43.04295" lon="-0.64356">
        <ele>607</ele>
        <time>2021-08-20T18:24:32Z</time>
      </trkpt>
      <trkpt lat="43.04384" lon="-0.64487">
        <ele>608</ele>
        <time>2021-08-20T18:24:55Z</time>
      </trkpt>
      <trkpt lat="43.04393" lon="-0.64488">
        <ele>610</ele>
        <time>2021-08-20T18:24:57Z</time>
      </trkpt>
      <trkpt lat="43.04398" lon="-0.64483">
        <ele>613</ele>
        <time>2021-08-20T18:24:58Z</time>
      </trkpt>
      <trkpt lat="43.04399" lon="-0.64474">
        <ele>614</ele>
        <time>2021-08-20T18:24:59Z</time>
      </trkpt>
      <trkpt lat="43.04396" lon="-0.64463">
        <ele>616</ele>
        <time>2021-08-20T18:25:00Z</time>
      </trkpt>
      <trkpt lat="43.0437" lon="-0.64429">
        <ele>614</ele>
        <time>2021-08-20T18:25:07Z</time>
      </trkpt>
      <trkpt lat="43.04365" lon="-0.64391">
        <ele>619</ele>
        <time>2021-08-20T18:25:12Z</time>
      </trkpt>
      <trkpt lat="43.0435" lon="-0.64363">
        <ele>619</ele>
        <time>2021-08-20T18:25:16Z</time>
      </trkpt>
      <trkpt lat="43.04328" lon="-0.64265">
        <ele>628</ele>
        <time>2021-08-20T18:25:30Z</time>
      </trkpt>
      <trkpt lat="43.04325" lon="-0.64219">
        <ele>632</ele>
        <time>2021-08-20T18:25:36Z</time>
      </trkpt>
      <trkpt lat="43.04326" lon="-0.64174">
        <ele>636</ele>
        <time>2021-08-20T18:25:42Z</time>
      </trkpt>
      <trkpt lat="43.04331" lon="-0.64138">
        <ele>638</ele>
        <time>2021-08-20T18:25:46Z</time>
      </trkpt>
      <trkpt lat="43.04338" lon="-0.64112">
        <ele>640</ele>
        <time>2021-08-20T18:25:50Z</time>
      </trkpt>
      <trkpt lat="43.04372" lon="-0.64062">
        <ele>654</ele>
        <time>2021-08-20T18:25:59Z</time>
      </trkpt>
      <trkpt lat="43.04377" lon="-0.64049">
        <ele>656</ele>
        <time>2021-08-20T18:26:01Z</time>
      </trkpt>
      <trkpt lat="43.0438" lon="-0.64035">
        <ele>657</ele>
        <time>2021-08-20T18:26:03Z</time>
      </trkpt>
      <trkpt lat="43.04378" lon="-0.64016">
        <ele>656</ele>
        <time>2021-08-20T18:26:05Z</time>
      </trkpt>
      <trkpt lat="43.04373" lon="-0.63998">
        <ele>655</ele>
        <time>2021-08-20T18:26:08Z</time>
      </trkpt>
      <trkpt lat="43.04363" lon="-0.63989">
        <ele>653</ele>
        <time>2021-08-20T18:26:10Z</time>
      </trkpt>
      <trkpt lat="43.04347" lon="-0.63972">
        <ele>652</ele>
        <time>2021-08-20T18:26:13Z</time>
      </trkpt>
      <trkpt lat="43.04334" lon="-0.63948">
        <ele>653</ele>
        <time>2021-08-20T18:26:17Z</time>
      </trkpt>
      <trkpt lat="43.04322" lon="-0.6392">
        <ele>656</ele>
        <time>2021-08-20T18:26:22Z</time>
      </trkpt>
      <trkpt lat="43.04303" lon="-0.63842">
        <ele>667</ele>
        <time>2021-08-20T18:26:32Z</time>
      </trkpt>
      <trkpt lat="43.04301" lon="-0.63811">
        <ele>672</ele>
        <time>2021-08-20T18:26:36Z</time>
      </trkpt>
      <trkpt lat="43.04298" lon="-0.63789">
        <ele>675</ele>
        <time>2021-08-20T18:26:39Z</time>
      </trkpt>
      <trkpt lat="43.04289" lon="-0.63775">
        <ele>676</ele>
        <time>2021-08-20T18:26:42Z</time>
      </trkpt>
      <trkpt lat="43.04277" lon="-0.63767">
        <ele>675</ele>
        <time>2021-08-20T18:26:44Z</time>
      </trkpt>
      <trkpt lat="43.04262" lon="-0.63766">
        <ele>672</ele>
        <time>2021-08-20T18:26:47Z</time>
      </trkpt>
      <trkpt lat="43.04204" lon="-0.63782">
        <ele>667</ele>
        <time>2021-08-20T18:26:57Z</time>
      </trkpt>
      <trkpt lat="43.04189" lon="-0.63781">
        <ele>667</ele>
        <time>2021-08-20T18:27:00Z</time>
      </trkpt>
      <trkpt lat="43.04178" lon="-0.63772">
        <ele>668</ele>
        <time>2021-08-20T18:27:02Z</time>
      </trkpt>
      <trkpt lat="43.04172" lon="-0.63746">
        <ele>671</ele>
        <time>2021-08-20T18:27:06Z</time>
      </trkpt>
      <trkpt lat="43.04158" lon="-0.63652">
        <ele>678</ele>
        <time>2021-08-20T18:27:18Z</time>
      </trkpt>
      <trkpt lat="43.04146" lon="-0.636">
        <ele>680</ele>
        <time>2021-08-20T18:27:25Z</time>
      </trkpt>
      <trkpt lat="43.04136" lon="-0.63572">
        <ele>680</ele>
        <time>2021-08-20T18:27:29Z</time>
      </trkpt>
      <trkpt lat="43.04116" lon="-0.63553">
        <ele>677</ele>
        <time>2021-08-20T18:27:34Z</time>
      </trkpt>
      <trkpt lat="43.04108" lon="-0.63542">
        <ele>676</ele>
        <time>2021-08-20T18:27:36Z</time>
      </trkpt>
      <trkpt lat="43.04103" lon="-0.63525">
        <ele>675</ele>
        <time>2021-08-20T18:27:38Z</time>
      </trkpt>
      <trkpt lat="43.04095" lon="-0.63491">
        <ele>672</ele>
        <time>2021-08-20T18:27:43Z</time>
      </trkpt>
      <trkpt lat="43.04088" lon="-0.63461">
        <ele>669</ele>
        <time>2021-08-20T18:27:47Z</time>
      </trkpt>
      <trkpt lat="43.04113" lon="-0.63289">
        <ele>669</ele>
        <time>2021-08-20T18:28:10Z</time>
      </trkpt>
      <trkpt lat="43.04124" lon="-0.63248">
        <ele>670</ele>
        <time>2021-08-20T18:28:15Z</time>
      </trkpt>
      <trkpt lat="43.04152" lon="-0.63226">
        <ele>676</ele>
        <time>2021-08-20T18:28:21Z</time>
      </trkpt>
      <trkpt lat="43.04157" lon="-0.63217">
        <ele>677</ele>
        <time>2021-08-20T18:28:22Z</time>
      </trkpt>
      <trkpt lat="43.04158" lon="-0.63205">
        <ele>677</ele>
        <time>2021-08-20T18:28:24Z</time>
      </trkpt>
      <trkpt lat="43.04154" lon="-0.63184">
        <ele>676</ele>
        <time>2021-08-20T18:28:27Z</time>
      </trkpt>
      <trkpt lat="43.04103" lon="-0.63039">
        <ele>667</ele>
        <time>2021-08-20T18:28:48Z</time>
      </trkpt>
      <trkpt lat="43.041" lon="-0.63025">
        <ele>666</ele>
        <time>2021-08-20T18:28:50Z</time>
      </trkpt>
      <trkpt lat="43.041" lon="-0.63011">
        <ele>667</ele>
        <time>2021-08-20T18:28:51Z</time>
      </trkpt>
      <trkpt lat="43.04121" lon="-0.62945">
        <ele>677</ele>
        <time>2021-08-20T18:29:01Z</time>
      </trkpt>
      <trkpt lat="43.04123" lon="-0.62933">
        <ele>678</ele>
        <time>2021-08-20T18:29:02Z</time>
      </trkpt>
      <trkpt lat="43.04121" lon="-0.62921">
        <ele>678</ele>
        <time>2021-08-20T18:29:04Z</time>
      </trkpt>
      <trkpt lat="43.04113" lon="-0.62907">
        <ele>678</ele>
        <time>2021-08-20T18:29:06Z</time>
      </trkpt>
      <trkpt lat="43.04105" lon="-0.62903">
        <ele>677</ele>
        <time>2021-08-20T18:29:08Z</time>
      </trkpt>
      <trkpt lat="43.0409" lon="-0.62902">
        <ele>674</ele>
        <time>2021-08-20T18:29:11Z</time>
      </trkpt>
      <trkpt lat="43.04061" lon="-0.62912">
        <ele>666</ele>
        <time>2021-08-20T18:29:16Z</time>
      </trkpt>
      <trkpt lat="43.04051" lon="-0.62911">
        <ele>665</ele>
        <time>2021-08-20T18:29:18Z</time>
      </trkpt>
      <trkpt lat="43.04043" lon="-0.62907">
        <ele>665</ele>
        <time>2021-08-20T18:29:19Z</time>
      </trkpt>
      <trkpt lat="43.04015" lon="-0.62881">
        <ele>666</ele>
        <time>2021-08-20T18:29:25Z</time>
      </trkpt>
      <trkpt lat="43.03994" lon="-0.62855">
        <ele>668</ele>
        <time>2021-08-20T18:29:30Z</time>
      </trkpt>
      <trkpt lat="43.03975" lon="-0.62815">
        <ele>669</ele>
        <time>2021-08-20T18:29:36Z</time>
      </trkpt>
      <trkpt lat="43.03941" lon="-0.62779">
        <ele>663</ele>
        <time>2021-08-20T18:29:44Z</time>
      </trkpt>
      <trkpt lat="43.03911" lon="-0.62722">
        <ele>664</ele>
        <time>2021-08-20T18:29:53Z</time>
      </trkpt>
      <trkpt lat="43.03847" lon="-0.62625">
        <ele>662</ele>
        <time>2021-08-20T18:30:10Z</time>
      </trkpt>
      <trkpt lat="43.03837" lon="-0.62604">
        <ele>662</ele>
        <time>2021-08-20T18:30:13Z</time>
      </trkpt>
      <trkpt lat="43.03836" lon="-0.62582">
        <ele>665</ele>
        <time>2021-08-20T18:30:16Z</time>
      </trkpt>
      <trkpt lat="43.03848" lon="-0.62531">
        <ele>669</ele>
        <time>2021-08-20T18:30:23Z</time>
      </trkpt>
      <trkpt lat="43.03846" lon="-0.6244">
        <ele>674</ele>
        <time>2021-08-20T18:30:35Z</time>
      </trkpt>
      <trkpt lat="43.03859" lon="-0.62287">
        <ele>675</ele>
        <time>2021-08-20T18:30:55Z</time>
      </trkpt>
      <trkpt lat="43.03864" lon="-0.62262">
        <ele>673</ele>
        <time>2021-08-20T18:30:59Z</time>
      </trkpt>
      <trkpt lat="43.03867" lon="-0.62245">
        <ele>670</ele>
        <time>2021-08-20T18:31:01Z</time>
      </trkpt>
      <trkpt lat="43.03873" lon="-0.62234">
        <ele>667</ele>
        <time>2021-08-20T18:31:03Z</time>
      </trkpt>
      <trkpt lat="43.03884" lon="-0.6222">
        <ele>665</ele>
        <time>2021-08-20T18:31:05Z</time>
      </trkpt>
      <trkpt lat="43.03898" lon="-0.62218">
        <ele>670</ele>
        <time>2021-08-20T18:31:08Z</time>
      </trkpt>
      <trkpt lat="43.03912" lon="-0.62219">
        <ele>676</ele>
        <time>2021-08-20T18:31:10Z</time>
      </trkpt>
      <trkpt lat="43.03937" lon="-0.62215">
        <ele>682</ele>
        <time>2021-08-20T18:31:15Z</time>
      </trkpt>
      <trkpt lat="43.03955" lon="-0.62208">
        <ele>686</ele>
        <time>2021-08-20T18:31:18Z</time>
      </trkpt>
      <trkpt lat="43.03973" lon="-0.62192">
        <ele>687</ele>
        <time>2021-08-20T18:31:22Z</time>
      </trkpt>
      <trkpt lat="43.0398" lon="-0.6218">
        <ele>686</ele>
        <time>2021-08-20T18:31:24Z</time>
      </trkpt>
      <trkpt lat="43.03982" lon="-0.62161">
        <ele>684</ele>
        <time>2021-08-20T18:31:26Z</time>
      </trkpt>
      <trkpt lat="43.03978" lon="-0.62143">
        <ele>682</ele>
        <time>2021-08-20T18:31:29Z</time>
      </trkpt>
      <trkpt lat="43.03969" lon="-0.62119">
        <ele>677</ele>
        <time>2021-08-20T18:31:32Z</time>
      </trkpt>
      <trkpt lat="43.0396" lon="-0.62098">
        <ele>672</ele>
        <time>2021-08-20T18:31:36Z</time>
      </trkpt>
      <trkpt lat="43.03952" lon="-0.62076">
        <ele>667</ele>
        <time>2021-08-20T18:31:39Z</time>
      </trkpt>
      <trkpt lat="43.03914" lon="-0.61986">
        <ele>653</ele>
        <time>2021-08-20T18:31:52Z</time>
      </trkpt>
      <trkpt lat="43.03907" lon="-0.61959">
        <ele>649</ele>
        <time>2021-08-20T18:31:56Z</time>
      </trkpt>
      <trkpt lat="43.03907" lon="-0.61958">
        <ele>649</ele>
        <time>2021-08-20T18:31:56Z</time>
      </trkpt>
      <trkpt lat="43.03904" lon="-0.61943">
        <ele>647</ele>
        <time>2021-08-20T18:31:58Z</time>
      </trkpt>
      <trkpt lat="43.03908" lon="-0.6187">
        <ele>644</ele>
        <time>2021-08-20T18:32:08Z</time>
      </trkpt>
      <trkpt lat="43.03912" lon="-0.61838">
        <ele>642</ele>
        <time>2021-08-20T18:32:12Z</time>
      </trkpt>
      <trkpt lat="43.0396" lon="-0.61656">
        <ele>626</ele>
        <time>2021-08-20T18:32:37Z</time>
      </trkpt>
      <trkpt lat="43.03968" lon="-0.61576">
        <ele>612</ele>
        <time>2021-08-20T18:32:48Z</time>
      </trkpt>
      <trkpt lat="43.03969" lon="-0.61566">
        <ele>610</ele>
        <time>2021-08-20T18:32:49Z</time>
      </trkpt>
      <trkpt lat="43.03977" lon="-0.61552">
        <ele>610</ele>
        <time>2021-08-20T18:32:51Z</time>
      </trkpt>
      <trkpt lat="43.04013" lon="-0.61524">
        <ele>612</ele>
        <time>2021-08-20T18:32:59Z</time>
      </trkpt>
      <trkpt lat="43.04042" lon="-0.61504">
        <ele>607</ele>
        <time>2021-08-20T18:33:04Z</time>
      </trkpt>
      <trkpt lat="43.04058" lon="-0.61497">
        <ele>605</ele>
        <time>2021-08-20T18:33:07Z</time>
      </trkpt>
      <trkpt lat="43.04099" lon="-0.61491">
        <ele>607</ele>
        <time>2021-08-20T18:33:15Z</time>
      </trkpt>
      <trkpt lat="43.04122" lon="-0.61493">
        <ele>612</ele>
        <time>2021-08-20T18:33:19Z</time>
      </trkpt>
      <trkpt lat="43.04133" lon="-0.61489">
        <ele>614</ele>
        <time>2021-08-20T18:33:21Z</time>
      </trkpt>
      <trkpt lat="43.04139" lon="-0.61484">
        <ele>614</ele>
        <time>2021-08-20T18:33:22Z</time>
      </trkpt>
      <trkpt lat="43.04141" lon="-0.61479">
        <ele>613</ele>
        <time>2021-08-20T18:33:23Z</time>
      </trkpt>
      <trkpt lat="43.04142" lon="-0.61467">
        <ele>611</ele>
        <time>2021-08-20T18:33:24Z</time>
      </trkpt>
      <trkpt lat="43.04138" lon="-0.61413">
        <ele>599</ele>
        <time>2021-08-20T18:33:31Z</time>
      </trkpt>
      <trkpt lat="43.04138" lon="-0.61361">
        <ele>590</ele>
        <time>2021-08-20T18:33:38Z</time>
      </trkpt>
      <trkpt lat="43.04148" lon="-0.61298">
        <ele>585</ele>
        <time>2021-08-20T18:33:46Z</time>
      </trkpt>
      <trkpt lat="43.04151" lon="-0.61263">
        <ele>581</ele>
        <time>2021-08-20T18:33:51Z</time>
      </trkpt>
      <trkpt lat="43.04147" lon="-0.6116">
        <ele>565</ele>
        <time>2021-08-20T18:34:04Z</time>
      </trkpt>
      <trkpt lat="43.04148" lon="-0.61139">
        <ele>563</ele>
        <time>2021-08-20T18:34:07Z</time>
      </trkpt>
      <trkpt lat="43.0415" lon="-0.61125">
        <ele>562</ele>
        <time>2021-08-20T18:34:09Z</time>
      </trkpt>
      <trkpt lat="43.04169" lon="-0.61083">
        <ele>564</ele>
        <time>2021-08-20T18:34:16Z</time>
      </trkpt>
      <trkpt lat="43.0418" lon="-0.61051">
        <ele>563</ele>
        <time>2021-08-20T18:34:20Z</time>
      </trkpt>
      <trkpt lat="43.04184" lon="-0.61033">
        <ele>561</ele>
        <time>2021-08-20T18:34:23Z</time>
      </trkpt>
      <trkpt lat="43.04183" lon="-0.6102">
        <ele>560</ele>
        <time>2021-08-20T18:34:24Z</time>
      </trkpt>
      <trkpt lat="43.04179" lon="-0.60999">
        <ele>558</ele>
        <time>2021-08-20T18:34:27Z</time>
      </trkpt>
      <trkpt lat="43.04178" lon="-0.60982">
        <ele>557</ele>
        <time>2021-08-20T18:34:29Z</time>
      </trkpt>
      <trkpt lat="43.04179" lon="-0.60972">
        <ele>557</ele>
        <time>2021-08-20T18:34:31Z</time>
      </trkpt>
      <trkpt lat="43.04185" lon="-0.60958">
        <ele>556</ele>
        <time>2021-08-20T18:34:33Z</time>
      </trkpt>
      <trkpt lat="43.04214" lon="-0.60923">
        <ele>552</ele>
        <time>2021-08-20T18:34:40Z</time>
      </trkpt>
      <trkpt lat="43.04225" lon="-0.60906">
        <ele>549</ele>
        <time>2021-08-20T18:34:43Z</time>
      </trkpt>
      <trkpt lat="43.04236" lon="-0.60879">
        <ele>547</ele>
        <time>2021-08-20T18:34:47Z</time>
      </trkpt>
      <trkpt lat="43.0424" lon="-0.60856">
        <ele>546</ele>
        <time>2021-08-20T18:34:50Z</time>
      </trkpt>
      <trkpt lat="43.04241" lon="-0.60807">
        <ele>539</ele>
        <time>2021-08-20T18:34:56Z</time>
      </trkpt>
      <trkpt lat="43.04236" lon="-0.60789">
        <ele>536</ele>
        <time>2021-08-20T18:34:59Z</time>
      </trkpt>
      <trkpt lat="43.0423" lon="-0.60779">
        <ele>534</ele>
        <time>2021-08-20T18:35:00Z</time>
      </trkpt>
      <trkpt lat="43.04222" lon="-0.60769">
        <ele>533</ele>
        <time>2021-08-20T18:35:02Z</time>
      </trkpt>
      <trkpt lat="43.04213" lon="-0.60762">
        <ele>531</ele>
        <time>2021-08-20T18:35:04Z</time>
      </trkpt>
      <trkpt lat="43.04206" lon="-0.60759">
        <ele>531</ele>
        <time>2021-08-20T18:35:05Z</time>
      </trkpt>
      <trkpt lat="43.04196" lon="-0.60759">
        <ele>531</ele>
        <time>2021-08-20T18:35:07Z</time>
      </trkpt>
      <trkpt lat="43.04146" lon="-0.60766">
        <ele>532</ele>
        <time>2021-08-20T18:35:16Z</time>
      </trkpt>
      <trkpt lat="43.0412" lon="-0.60769">
        <ele>530</ele>
        <time>2021-08-20T18:35:21Z</time>
      </trkpt>
      <trkpt lat="43.04107" lon="-0.60773">
        <ele>530</ele>
        <time>2021-08-20T18:35:23Z</time>
      </trkpt>
      <trkpt lat="43.04086" lon="-0.60787">
        <ele>532</ele>
        <time>2021-08-20T18:35:27Z</time>
      </trkpt>
      <trkpt lat="43.04077" lon="-0.6079">
        <ele>532</ele>
        <time>2021-08-20T18:35:29Z</time>
      </trkpt>
      <trkpt lat="43.04014" lon="-0.60768">
        <ele>514</ele>
        <time>2021-08-20T18:35:40Z</time>
      </trkpt>
      <trkpt lat="43.04" lon="-0.6077">
        <ele>512</ele>
        <time>2021-08-20T18:35:43Z</time>
      </trkpt>
      <trkpt lat="43.03978" lon="-0.60787">
        <ele>509</ele>
        <time>2021-08-20T18:35:47Z</time>
      </trkpt>
      <trkpt lat="43.03942" lon="-0.60822">
        <ele>502</ele>
        <time>2021-08-20T18:35:55Z</time>
      </trkpt>
      <trkpt lat="43.0394" lon="-0.60834">
        <ele>503</ele>
        <time>2021-08-20T18:35:57Z</time>
      </trkpt>
      <trkpt lat="43.03939" lon="-0.60856">
        <ele>500</ele>
        <time>2021-08-20T18:36:00Z</time>
      </trkpt>
      <trkpt lat="43.03944" lon="-0.60878">
        <ele>500</ele>
        <time>2021-08-20T18:36:03Z</time>
      </trkpt>
      <trkpt lat="43.03975" lon="-0.60958">
        <ele>505</ele>
        <time>2021-08-20T18:36:14Z</time>
      </trkpt>
      <trkpt lat="43.03993" lon="-0.61025">
        <ele>505</ele>
        <time>2021-08-20T18:36:24Z</time>
      </trkpt>
      <trkpt lat="43.03993" lon="-0.61034">
        <ele>506</ele>
        <time>2021-08-20T18:36:25Z</time>
      </trkpt>
      <trkpt lat="43.03991" lon="-0.61041">
        <ele>506</ele>
        <time>2021-08-20T18:36:26Z</time>
      </trkpt>
      <trkpt lat="43.0398" lon="-0.61044">
        <ele>505</ele>
        <time>2021-08-20T18:36:28Z</time>
      </trkpt>
      <trkpt lat="43.03957" lon="-0.61038">
        <ele>502</ele>
        <time>2021-08-20T18:36:32Z</time>
      </trkpt>
      <trkpt lat="43.03948" lon="-0.61033">
        <ele>500</ele>
        <time>2021-08-20T18:36:34Z</time>
      </trkpt>
      <trkpt lat="43.03943" lon="-0.61026">
        <ele>498</ele>
        <time>2021-08-20T18:36:35Z</time>
      </trkpt>
      <trkpt lat="43.03932" lon="-0.60999">
        <ele>493</ele>
        <time>2021-08-20T18:36:39Z</time>
      </trkpt>
      <trkpt lat="43.03917" lon="-0.60978">
        <ele>489</ele>
        <time>2021-08-20T18:36:43Z</time>
      </trkpt>
      <trkpt lat="43.03884" lon="-0.60956">
        <ele>478</ele>
        <time>2021-08-20T18:36:49Z</time>
      </trkpt>
      <trkpt lat="43.03846" lon="-0.60948">
        <ele>465</ele>
        <time>2021-08-20T18:36:56Z</time>
      </trkpt>
      <trkpt lat="43.03839" lon="-0.60954">
        <ele>464</ele>
        <time>2021-08-20T18:36:58Z</time>
      </trkpt>
      <trkpt lat="43.03836" lon="-0.60965">
        <ele>464</ele>
        <time>2021-08-20T18:36:59Z</time>
      </trkpt>
      <trkpt lat="43.03825" lon="-0.61053">
        <ele>468</ele>
        <time>2021-08-20T18:37:11Z</time>
      </trkpt>
      <trkpt lat="43.03809" lon="-0.61098">
        <ele>463</ele>
        <time>2021-08-20T18:37:17Z</time>
      </trkpt>
      <trkpt lat="43.03803" lon="-0.6111">
        <ele>461</ele>
        <time>2021-08-20T18:37:19Z</time>
      </trkpt>
      <trkpt lat="43.0379" lon="-0.61121">
        <ele>455</ele>
        <time>2021-08-20T18:37:22Z</time>
      </trkpt>
      <trkpt lat="43.03782" lon="-0.61134">
        <ele>451</ele>
        <time>2021-08-20T18:37:24Z</time>
      </trkpt>
      <trkpt lat="43.03763" lon="-0.61233">
        <ele>451</ele>
        <time>2021-08-20T18:37:38Z</time>
      </trkpt>
      <trkpt lat="43.03756" lon="-0.61255">
        <ele>449</ele>
        <time>2021-08-20T18:37:41Z</time>
      </trkpt>
      <trkpt lat="43.03739" lon="-0.613">
        <ele>444</ele>
        <time>2021-08-20T18:37:47Z</time>
      </trkpt>
      <trkpt lat="43.03732" lon="-0.61338">
        <ele>444</ele>
        <time>2021-08-20T18:37:52Z</time>
      </trkpt>
      <trkpt lat="43.03715" lon="-0.61414">
        <ele>441</ele>
        <time>2021-08-20T18:38:03Z</time>
      </trkpt>
      <trkpt lat="43.03692" lon="-0.61489">
        <ele>438</ele>
        <time>2021-08-20T18:38:13Z</time>
      </trkpt>
      <trkpt lat="43.03676" lon="-0.61538">
        <ele>437</ele>
        <time>2021-08-20T18:38:20Z</time>
      </trkpt>
      <trkpt lat="43.03654" lon="-0.6159">
        <ele>444</ele>
        <time>2021-08-20T18:38:28Z</time>
      </trkpt>
      <trkpt lat="43.03645" lon="-0.616">
        <ele>447</ele>
        <time>2021-08-20T18:38:30Z</time>
      </trkpt>
      <trkpt lat="43.03638" lon="-0.61601">
        <ele>449</ele>
        <time>2021-08-20T18:38:31Z</time>
      </trkpt>
      <trkpt lat="43.03633" lon="-0.61598">
        <ele>451</ele>
        <time>2021-08-20T18:38:32Z</time>
      </trkpt>
      <trkpt lat="43.03628" lon="-0.61576">
        <ele>451</ele>
        <time>2021-08-20T18:38:35Z</time>
      </trkpt>
      <trkpt lat="43.03627" lon="-0.61505">
        <ele>448</ele>
        <time>2021-08-20T18:38:45Z</time>
      </trkpt>
      <trkpt lat="43.03631" lon="-0.6147">
        <ele>444</ele>
        <time>2021-08-20T18:38:49Z</time>
      </trkpt>
      <trkpt lat="43.03638" lon="-0.61442">
        <ele>439</ele>
        <time>2021-08-20T18:38:53Z</time>
      </trkpt>
      <trkpt lat="43.03652" lon="-0.61416">
        <ele>429</ele>
        <time>2021-08-20T18:38:57Z</time>
      </trkpt>
      <trkpt lat="43.0367" lon="-0.61393">
        <ele>422</ele>
        <time>2021-08-20T18:39:02Z</time>
      </trkpt>
      <trkpt lat="43.03675" lon="-0.61376">
        <ele>423</ele>
        <time>2021-08-20T18:39:04Z</time>
      </trkpt>
      <trkpt lat="43.03677" lon="-0.6135">
        <ele>423</ele>
        <time>2021-08-20T18:39:07Z</time>
      </trkpt>
      <trkpt lat="43.03675" lon="-0.61325">
        <ele>421</ele>
        <time>2021-08-20T18:39:11Z</time>
      </trkpt>
      <trkpt lat="43.03669" lon="-0.6131">
        <ele>417</ele>
        <time>2021-08-20T18:39:13Z</time>
      </trkpt>
      <trkpt lat="43.03655" lon="-0.61287">
        <ele>419</ele>
        <time>2021-08-20T18:39:17Z</time>
      </trkpt>
      <trkpt lat="43.03654" lon="-0.61269">
        <ele>417</ele>
        <time>2021-08-20T18:39:19Z</time>
      </trkpt>
      <trkpt lat="43.03664" lon="-0.61228">
        <ele>410</ele>
        <time>2021-08-20T18:39:25Z</time>
      </trkpt>
      <trkpt lat="43.03664" lon="-0.61154">
        <ele>406</ele>
        <time>2021-08-20T18:39:34Z</time>
      </trkpt>
      <trkpt lat="43.03662" lon="-0.61115">
        <ele>405</ele>
        <time>2021-08-20T18:39:39Z</time>
      </trkpt>
      <trkpt lat="43.03651" lon="-0.61076">
        <ele>408</ele>
        <time>2021-08-20T18:39:45Z</time>
      </trkpt>
      <trkpt lat="43.03642" lon="-0.61031">
        <ele>408</ele>
        <time>2021-08-20T18:39:51Z</time>
      </trkpt>
      <trkpt lat="43.03644" lon="-0.60991">
        <ele>405</ele>
        <time>2021-08-20T18:39:56Z</time>
      </trkpt>
      <trkpt lat="43.03654" lon="-0.60952">
        <ele>400</ele>
        <time>2021-08-20T18:40:02Z</time>
      </trkpt>
      <trkpt lat="43.03664" lon="-0.60903">
        <ele>395</ele>
        <time>2021-08-20T18:40:08Z</time>
      </trkpt>
      <trkpt lat="43.03664" lon="-0.60882">
        <ele>395</ele>
        <time>2021-08-20T18:40:11Z</time>
      </trkpt>
      <trkpt lat="43.03656" lon="-0.60806">
        <ele>395</ele>
        <time>2021-08-20T18:40:21Z</time>
      </trkpt>
      <trkpt lat="43.03652" lon="-0.60771">
        <ele>392</ele>
        <time>2021-08-20T18:40:25Z</time>
      </trkpt>
      <trkpt lat="43.03647" lon="-0.60729">
        <ele>386</ele>
        <time>2021-08-20T18:40:31Z</time>
      </trkpt>
      <trkpt lat="43.03644" lon="-0.60717">
        <ele>384</ele>
        <time>2021-08-20T18:40:33Z</time>
      </trkpt>
      <trkpt lat="43.03638" lon="-0.60708">
        <ele>383</ele>
        <time>2021-08-20T18:40:34Z</time>
      </trkpt>
      <trkpt lat="43.03628" lon="-0.60702">
        <ele>382</ele>
        <time>2021-08-20T18:40:36Z</time>
      </trkpt>
      <trkpt lat="43.03618" lon="-0.607">
        <ele>382</ele>
        <time>2021-08-20T18:40:38Z</time>
      </trkpt>
      <trkpt lat="43.03611" lon="-0.60702">
        <ele>383</ele>
        <time>2021-08-20T18:40:39Z</time>
      </trkpt>
      <trkpt lat="43.03596" lon="-0.6071">
        <ele>387</ele>
        <time>2021-08-20T18:40:42Z</time>
      </trkpt>
      <trkpt lat="43.0359" lon="-0.60714">
        <ele>389</ele>
        <time>2021-08-20T18:40:43Z</time>
      </trkpt>
      <trkpt lat="43.03584" lon="-0.60714">
        <ele>389</ele>
        <time>2021-08-20T18:40:44Z</time>
      </trkpt>
      <trkpt lat="43.03577" lon="-0.60707">
        <ele>387</ele>
        <time>2021-08-20T18:40:46Z</time>
      </trkpt>
      <trkpt lat="43.03575" lon="-0.607">
        <ele>385</ele>
        <time>2021-08-20T18:40:47Z</time>
      </trkpt>
      <trkpt lat="43.03575" lon="-0.60692">
        <ele>383</ele>
        <time>2021-08-20T18:40:48Z</time>
      </trkpt>
      <trkpt lat="43.03577" lon="-0.60687">
        <ele>381</ele>
        <time>2021-08-20T18:40:49Z</time>
      </trkpt>
      <trkpt lat="43.03583" lon="-0.6068">
        <ele>378</ele>
        <time>2021-08-20T18:40:50Z</time>
      </trkpt>
      <trkpt lat="43.03588" lon="-0.60678">
        <ele>378</ele>
        <time>2021-08-20T18:40:51Z</time>
      </trkpt>
      <trkpt lat="43.03646" lon="-0.60677">
        <ele>376</ele>
        <time>2021-08-20T18:41:01Z</time>
      </trkpt>
      <trkpt lat="43.0365" lon="-0.60674">
        <ele>375</ele>
        <time>2021-08-20T18:41:02Z</time>
      </trkpt>
      <trkpt lat="43.03654" lon="-0.60668">
        <ele>374</ele>
        <time>2021-08-20T18:41:03Z</time>
      </trkpt>
      <trkpt lat="43.03657" lon="-0.60662">
        <ele>373</ele>
        <time>2021-08-20T18:41:04Z</time>
      </trkpt>
      <trkpt lat="43.03656" lon="-0.60637">
        <ele>369</ele>
        <time>2021-08-20T18:41:07Z</time>
      </trkpt>
      <trkpt lat="43.03669" lon="-0.60634">
        <ele>369</ele>
        <time>2021-08-20T18:41:10Z</time>
      </trkpt>
      <trkpt lat="43.03674" lon="-0.60633">
        <ele>369</ele>
        <time>2021-08-20T18:41:11Z</time>
      </trkpt>
      <trkpt lat="43.03711" lon="-0.60624">
        <ele>374</ele>
        <time>2021-08-20T18:41:17Z</time>
      </trkpt>
      <trkpt lat="43.03744" lon="-0.60616">
        <ele>378</ele>
        <time>2021-08-20T18:41:23Z</time>
      </trkpt>
      <trkpt lat="43.03801" lon="-0.60598">
        <ele>382</ele>
        <time>2021-08-20T18:41:34Z</time>
      </trkpt>
      <trkpt lat="43.03818" lon="-0.60591">
        <ele>380</ele>
        <time>2021-08-20T18:41:37Z</time>
      </trkpt>
      <trkpt lat="43.03836" lon="-0.60581">
        <ele>379</ele>
        <time>2021-08-20T18:41:40Z</time>
      </trkpt>
      <trkpt lat="43.03881" lon="-0.6055">
        <ele>382</ele>
        <time>2021-08-20T18:41:49Z</time>
      </trkpt>
      <trkpt lat="43.039" lon="-0.60532">
        <ele>378</ele>
        <time>2021-08-20T18:41:53Z</time>
      </trkpt>
      <trkpt lat="43.03944" lon="-0.6049">
        <ele>374</ele>
        <time>2021-08-20T18:42:03Z</time>
      </trkpt>
      <trkpt lat="43.03971" lon="-0.60454">
        <ele>375</ele>
        <time>2021-08-20T18:42:10Z</time>
      </trkpt>
      <trkpt lat="43.03979" lon="-0.60438">
        <ele>373</ele>
        <time>2021-08-20T18:42:12Z</time>
      </trkpt>
      <trkpt lat="43.03987" lon="-0.6042">
        <ele>370</ele>
        <time>2021-08-20T18:42:15Z</time>
      </trkpt>
      <trkpt lat="43.03995" lon="-0.60401">
        <ele>368</ele>
        <time>2021-08-20T18:42:18Z</time>
      </trkpt>
      <trkpt lat="43.04006" lon="-0.6036">
        <ele>370</ele>
        <time>2021-08-20T18:42:23Z</time>
      </trkpt>
      <trkpt lat="43.04011" lon="-0.60326">
        <ele>371</ele>
        <time>2021-08-20T18:42:28Z</time>
      </trkpt>
      <trkpt lat="43.04016" lon="-0.60289">
        <ele>373</ele>
        <time>2021-08-20T18:42:33Z</time>
      </trkpt>
      <trkpt lat="43.04024" lon="-0.6025">
        <ele>375</ele>
        <time>2021-08-20T18:42:38Z</time>
      </trkpt>
      <trkpt lat="43.04029" lon="-0.60232">
        <ele>375</ele>
        <time>2021-08-20T18:42:41Z</time>
      </trkpt>
      <trkpt lat="43.04036" lon="-0.60214">
        <ele>375</ele>
        <time>2021-08-20T18:42:43Z</time>
      </trkpt>
      <trkpt lat="43.0405" lon="-0.60191">
        <ele>375</ele>
        <time>2021-08-20T18:42:47Z</time>
      </trkpt>
      <trkpt lat="43.04063" lon="-0.60173">
        <ele>373</ele>
        <time>2021-08-20T18:42:50Z</time>
      </trkpt>
      <trkpt lat="43.04079" lon="-0.60155">
        <ele>373</ele>
        <time>2021-08-20T18:42:54Z</time>
      </trkpt>
      <trkpt lat="43.04098" lon="-0.60139">
        <ele>372</ele>
        <time>2021-08-20T18:42:58Z</time>
      </trkpt>
      <trkpt lat="43.04111" lon="-0.60131">
        <ele>372</ele>
        <time>2021-08-20T18:43:01Z</time>
      </trkpt>
      <trkpt lat="43.04123" lon="-0.60128">
        <ele>373</ele>
        <time>2021-08-20T18:43:03Z</time>
      </trkpt>
      <trkpt lat="43.04136" lon="-0.60128">
        <ele>374</ele>
        <time>2021-08-20T18:43:05Z</time>
      </trkpt>
      <trkpt lat="43.0417" lon="-0.60133">
        <ele>380</ele>
        <time>2021-08-20T18:43:11Z</time>
      </trkpt>
      <trkpt lat="43.04182" lon="-0.60132">
        <ele>382</ele>
        <time>2021-08-20T18:43:13Z</time>
      </trkpt>
      <trkpt lat="43.04191" lon="-0.60129">
        <ele>383</ele>
        <time>2021-08-20T18:43:15Z</time>
      </trkpt>
      <trkpt lat="43.04203" lon="-0.60122">
        <ele>383</ele>
        <time>2021-08-20T18:43:17Z</time>
      </trkpt>
      <trkpt lat="43.04221" lon="-0.60106">
        <ele>381</ele>
        <time>2021-08-20T18:43:21Z</time>
      </trkpt>
      <trkpt lat="43.04253" lon="-0.60076">
        <ele>377</ele>
        <time>2021-08-20T18:43:28Z</time>
      </trkpt>
      <trkpt lat="43.04267" lon="-0.60066">
        <ele>377</ele>
        <time>2021-08-20T18:43:31Z</time>
      </trkpt>
      <trkpt lat="43.04291" lon="-0.60054">
        <ele>377</ele>
        <time>2021-08-20T18:43:35Z</time>
      </trkpt>
      <trkpt lat="43.0441" lon="-0.60045">
        <ele>372</ele>
        <time>2021-08-20T18:43:57Z</time>
      </trkpt>
      <trkpt lat="43.04425" lon="-0.60046">
        <ele>371</ele>
        <time>2021-08-20T18:43:59Z</time>
      </trkpt>
      <trkpt lat="43.0445" lon="-0.60054">
        <ele>369</ele>
        <time>2021-08-20T18:44:04Z</time>
      </trkpt>
      <trkpt lat="43.04466" lon="-0.60063">
        <ele>367</ele>
        <time>2021-08-20T18:44:07Z</time>
      </trkpt>
      <trkpt lat="43.04476" lon="-0.60068">
        <ele>366</ele>
        <time>2021-08-20T18:44:09Z</time>
      </trkpt>
      <trkpt lat="43.04494" lon="-0.60087">
        <ele>364</ele>
        <time>2021-08-20T18:44:13Z</time>
      </trkpt>
      <trkpt lat="43.04536" lon="-0.60127">
        <ele>369</ele>
        <time>2021-08-20T18:44:22Z</time>
      </trkpt>
      <trkpt lat="43.04555" lon="-0.60139">
        <ele>372</ele>
        <time>2021-08-20T18:44:26Z</time>
      </trkpt>
      <trkpt lat="43.04574" lon="-0.60145">
        <ele>376</ele>
        <time>2021-08-20T18:44:29Z</time>
      </trkpt>
      <trkpt lat="43.04602" lon="-0.60148">
        <ele>374</ele>
        <time>2021-08-20T18:44:34Z</time>
      </trkpt>
      <trkpt lat="43.04626" lon="-0.60147">
        <ele>370</ele>
        <time>2021-08-20T18:44:38Z</time>
      </trkpt>
      <trkpt lat="43.04714" lon="-0.60143">
        <ele>354</ele>
        <time>2021-08-20T18:44:54Z</time>
      </trkpt>
      <trkpt lat="43.04852" lon="-0.60133">
        <ele>344</ele>
        <time>2021-08-20T18:45:19Z</time>
      </trkpt>
      <trkpt lat="43.04944" lon="-0.60128">
        <ele>345</ele>
        <time>2021-08-20T18:45:35Z</time>
      </trkpt>
      <trkpt lat="43.04963" lon="-0.60127">
        <ele>345</ele>
        <time>2021-08-20T18:45:38Z</time>
      </trkpt>
      <trkpt lat="43.04988" lon="-0.60129">
        <ele>346</ele>
        <time>2021-08-20T18:45:43Z</time>
      </trkpt>
      <trkpt lat="43.04998" lon="-0.60131">
        <ele>346</ele>
        <time>2021-08-20T18:45:45Z</time>
      </trkpt>
      <trkpt lat="43.05011" lon="-0.60134">
        <ele>346</ele>
        <time>2021-08-20T18:45:47Z</time>
      </trkpt>
      <trkpt lat="43.05031" lon="-0.6014">
        <ele>346</ele>
        <time>2021-08-20T18:45:51Z</time>
      </trkpt>
      <trkpt lat="43.05049" lon="-0.60141">
        <ele>346</ele>
        <time>2021-08-20T18:45:54Z</time>
      </trkpt>
      <trkpt lat="43.05074" lon="-0.60136">
        <ele>345</ele>
        <time>2021-08-20T18:45:58Z</time>
      </trkpt>
      <trkpt lat="43.05091" lon="-0.60128">
        <ele>345</ele>
        <time>2021-08-20T18:46:02Z</time>
      </trkpt>
      <trkpt lat="43.05095" lon="-0.60125">
        <ele>345</ele>
        <time>2021-08-20T18:46:02Z</time>
      </trkpt>
      <trkpt lat="43.05106" lon="-0.60118">
        <ele>345</ele>
        <time>2021-08-20T18:46:05Z</time>
      </trkpt>
      <trkpt lat="43.05121" lon="-0.60103">
        <ele>344</ele>
        <time>2021-08-20T18:46:08Z</time>
      </trkpt>
      <trkpt lat="43.05136" lon="-0.6008">
        <ele>344</ele>
        <time>2021-08-20T18:46:12Z</time>
      </trkpt>
      <trkpt lat="43.05176" lon="-0.59996">
        <ele>343</ele>
        <time>2021-08-20T18:46:25Z</time>
      </trkpt>
      <trkpt lat="43.05197" lon="-0.59964">
        <ele>347</ele>
        <time>2021-08-20T18:46:31Z</time>
      </trkpt>
      <trkpt lat="43.05222" lon="-0.59941">
        <ele>349</ele>
        <time>2021-08-20T18:46:36Z</time>
      </trkpt>
      <trkpt lat="43.05268" lon="-0.5991">
        <ele>353</ele>
        <time>2021-08-20T18:46:45Z</time>
      </trkpt>
      <trkpt lat="43.05282" lon="-0.59898">
        <ele>356</ele>
        <time>2021-08-20T18:46:48Z</time>
      </trkpt>
      <trkpt lat="43.05425" lon="-0.59803">
        <ele>351</ele>
        <time>2021-08-20T18:47:16Z</time>
      </trkpt>
      <trkpt lat="43.05448" lon="-0.59785">
        <ele>350</ele>
        <time>2021-08-20T18:47:21Z</time>
      </trkpt>
      <trkpt lat="43.05462" lon="-0.59772">
        <ele>348</ele>
        <time>2021-08-20T18:47:24Z</time>
      </trkpt>
      <trkpt lat="43.05475" lon="-0.59752">
        <ele>345</ele>
        <time>2021-08-20T18:47:27Z</time>
      </trkpt>
      <trkpt lat="43.05502" lon="-0.59702">
        <ele>353</ele>
        <time>2021-08-20T18:47:36Z</time>
      </trkpt>
      <trkpt lat="43.05515" lon="-0.59685">
        <ele>355</ele>
        <time>2021-08-20T18:47:39Z</time>
      </trkpt>
      <trkpt lat="43.05544" lon="-0.59677">
        <ele>355</ele>
        <time>2021-08-20T18:47:44Z</time>
      </trkpt>
      <trkpt lat="43.05612" lon="-0.59676">
        <ele>352</ele>
        <time>2021-08-20T18:47:56Z</time>
      </trkpt>
      <trkpt lat="43.05654" lon="-0.59683">
        <ele>350</ele>
        <time>2021-08-20T18:48:04Z</time>
      </trkpt>
      <trkpt lat="43.05691" lon="-0.59694">
        <ele>350</ele>
        <time>2021-08-20T18:48:10Z</time>
      </trkpt>
      <trkpt lat="43.05717" lon="-0.59702">
        <ele>350</ele>
        <time>2021-08-20T18:48:15Z</time>
      </trkpt>
      <trkpt lat="43.05814" lon="-0.59745">
        <ele>350</ele>
        <time>2021-08-20T18:48:33Z</time>
      </trkpt>
      <trkpt lat="43.05871" lon="-0.59773">
        <ele>353</ele>
        <time>2021-08-20T18:48:44Z</time>
      </trkpt>
      <trkpt lat="43.06117" lon="-0.59883">
        <ele>346</ele>
        <time>2021-08-20T18:49:30Z</time>
      </trkpt>
      <trkpt lat="43.06164" lon="-0.59898">
        <ele>345</ele>
        <time>2021-08-20T18:49:39Z</time>
      </trkpt>
      <trkpt lat="43.06311" lon="-0.59916">
        <ele>331</ele>
        <time>2021-08-20T18:50:05Z</time>
      </trkpt>
      <trkpt lat="43.06332" lon="-0.59921">
        <ele>329</ele>
        <time>2021-08-20T18:50:09Z</time>
      </trkpt>
      <trkpt lat="43.06343" lon="-0.59926">
        <ele>331</ele>
        <time>2021-08-20T18:50:11Z</time>
      </trkpt>
      <trkpt lat="43.06361" lon="-0.59936">
        <ele>334</ele>
        <time>2021-08-20T18:50:14Z</time>
      </trkpt>
      <trkpt lat="43.06376" lon="-0.59947">
        <ele>336</ele>
        <time>2021-08-20T18:50:17Z</time>
      </trkpt>
      <trkpt lat="43.06399" lon="-0.59971">
        <ele>335</ele>
        <time>2021-08-20T18:50:22Z</time>
      </trkpt>
      <trkpt lat="43.06489" lon="-0.60097">
        <ele>335</ele>
        <time>2021-08-20T18:50:45Z</time>
      </trkpt>
      <trkpt lat="43.06507" lon="-0.60118">
        <ele>336</ele>
        <time>2021-08-20T18:50:49Z</time>
      </trkpt>
      <trkpt lat="43.06535" lon="-0.60143">
        <ele>342</ele>
        <time>2021-08-20T18:50:55Z</time>
      </trkpt>
      <trkpt lat="43.06578" lon="-0.60172">
        <ele>349</ele>
        <time>2021-08-20T18:51:04Z</time>
      </trkpt>
      <trkpt lat="43.06619" lon="-0.60197">
        <ele>353</ele>
        <time>2021-08-20T18:51:12Z</time>
      </trkpt>
      <trkpt lat="43.06687" lon="-0.60238">
        <ele>341</ele>
        <time>2021-08-20T18:51:25Z</time>
      </trkpt>
      <trkpt lat="43.06713" lon="-0.60254">
        <ele>334</ele>
        <time>2021-08-20T18:51:30Z</time>
      </trkpt>
      <trkpt lat="43.06717" lon="-0.60256">
        <ele>333</ele>
        <time>2021-08-20T18:51:31Z</time>
      </trkpt>
      <trkpt lat="43.06754" lon="-0.6028">
        <ele>327</ele>
        <time>2021-08-20T18:51:38Z</time>
      </trkpt>
      <trkpt lat="43.06782" lon="-0.60302">
        <ele>328</ele>
        <time>2021-08-20T18:51:44Z</time>
      </trkpt>
      <trkpt lat="43.06793" lon="-0.60315">
        <ele>327</ele>
        <time>2021-08-20T18:51:47Z</time>
      </trkpt>
      <trkpt lat="43.06815" lon="-0.6035">
        <ele>324</ele>
        <time>2021-08-20T18:51:53Z</time>
      </trkpt>
      <trkpt lat="43.06837" lon="-0.60396">
        <ele>321</ele>
        <time>2021-08-20T18:52:00Z</time>
      </trkpt>
      <trkpt lat="43.06893" lon="-0.60512">
        <ele>325</ele>
        <time>2021-08-20T18:52:18Z</time>
      </trkpt>
      <trkpt lat="43.06897" lon="-0.60519">
        <ele>325</ele>
        <time>2021-08-20T18:52:19Z</time>
      </trkpt>
      <trkpt lat="43.06918" lon="-0.60554">
        <ele>321</ele>
        <time>2021-08-20T18:52:25Z</time>
      </trkpt>
      <trkpt lat="43.06934" lon="-0.60572">
        <ele>320</ele>
        <time>2021-08-20T18:52:29Z</time>
      </trkpt>
      <trkpt lat="43.06949" lon="-0.60584">
        <ele>319</ele>
        <time>2021-08-20T18:52:32Z</time>
      </trkpt>
      <trkpt lat="43.06959" lon="-0.6059">
        <ele>321</ele>
        <time>2021-08-20T18:52:34Z</time>
      </trkpt>
      <trkpt lat="43.06974" lon="-0.60595">
        <ele>322</ele>
        <time>2021-08-20T18:52:36Z</time>
      </trkpt>
      <trkpt lat="43.06991" lon="-0.60598">
        <ele>324</ele>
        <time>2021-08-20T18:52:39Z</time>
      </trkpt>
      <trkpt lat="43.07007" lon="-0.60597">
        <ele>325</ele>
        <time>2021-08-20T18:52:42Z</time>
      </trkpt>
      <trkpt lat="43.07022" lon="-0.60594">
        <ele>326</ele>
        <time>2021-08-20T18:52:45Z</time>
      </trkpt>
      <trkpt lat="43.07068" lon="-0.60577">
        <ele>333</ele>
        <time>2021-08-20T18:52:53Z</time>
      </trkpt>
      <trkpt lat="43.0709" lon="-0.60576">
        <ele>335</ele>
        <time>2021-08-20T18:52:57Z</time>
      </trkpt>
      <trkpt lat="43.07119" lon="-0.60579">
        <ele>332</ele>
        <time>2021-08-20T18:53:03Z</time>
      </trkpt>
      <trkpt lat="43.07136" lon="-0.60584">
        <ele>328</ele>
        <time>2021-08-20T18:53:06Z</time>
      </trkpt>
      <trkpt lat="43.07153" lon="-0.60593">
        <ele>327</ele>
        <time>2021-08-20T18:53:09Z</time>
      </trkpt>
      <trkpt lat="43.07171" lon="-0.60608">
        <ele>327</ele>
        <time>2021-08-20T18:53:13Z</time>
      </trkpt>
      <trkpt lat="43.07178" lon="-0.60616">
        <ele>328</ele>
        <time>2021-08-20T18:53:14Z</time>
      </trkpt>
      <trkpt lat="43.0719" lon="-0.60629">
        <ele>328</ele>
        <time>2021-08-20T18:53:17Z</time>
      </trkpt>
      <trkpt lat="43.07192" lon="-0.60624">
        <ele>328</ele>
        <time>2021-08-20T18:53:18Z</time>
      </trkpt>
      <trkpt lat="43.07197" lon="-0.60622">
        <ele>328</ele>
        <time>2021-08-20T18:53:19Z</time>
      </trkpt>
      <trkpt lat="43.07213" lon="-0.60621">
        <ele>329</ele>
        <time>2021-08-20T18:53:21Z</time>
      </trkpt>
      <trkpt lat="43.07237" lon="-0.60621">
        <ele>329</ele>
        <time>2021-08-20T18:53:26Z</time>
      </trkpt>
      <trkpt lat="43.0725" lon="-0.6062">
        <ele>330</ele>
        <time>2021-08-20T18:53:28Z</time>
      </trkpt>
      <trkpt lat="43.07267" lon="-0.60619">
        <ele>331</ele>
        <time>2021-08-20T18:53:31Z</time>
      </trkpt>
      <trkpt lat="43.07293" lon="-0.60616">
        <ele>334</ele>
        <time>2021-08-20T18:53:36Z</time>
      </trkpt>
      <trkpt lat="43.07318" lon="-0.60615">
        <ele>336</ele>
        <time>2021-08-20T18:53:40Z</time>
      </trkpt>
      <trkpt lat="43.07345" lon="-0.6062">
        <ele>337</ele>
        <time>2021-08-20T18:53:45Z</time>
      </trkpt>
      <trkpt lat="43.07367" lon="-0.60628">
        <ele>337</ele>
        <time>2021-08-20T18:53:49Z</time>
      </trkpt>
      <trkpt lat="43.07458" lon="-0.60677">
        <ele>325</ele>
        <time>2021-08-20T18:54:06Z</time>
      </trkpt>
      <trkpt lat="43.07475" lon="-0.60684">
        <ele>325</ele>
        <time>2021-08-20T18:54:10Z</time>
      </trkpt>
      <trkpt lat="43.0749" lon="-0.60687">
        <ele>326</ele>
        <time>2021-08-20T18:54:12Z</time>
      </trkpt>
      <trkpt lat="43.07509" lon="-0.6068">
        <ele>327</ele>
        <time>2021-08-20T18:54:16Z</time>
      </trkpt>
      <trkpt lat="43.07517" lon="-0.6067">
        <ele>329</ele>
        <time>2021-08-20T18:54:18Z</time>
      </trkpt>
      <trkpt lat="43.07523" lon="-0.60658">
        <ele>331</ele>
        <time>2021-08-20T18:54:20Z</time>
      </trkpt>
      <trkpt lat="43.07532" lon="-0.60627">
        <ele>338</ele>
        <time>2021-08-20T18:54:24Z</time>
      </trkpt>
      <trkpt lat="43.07541" lon="-0.60581">
        <ele>345</ele>
        <time>2021-08-20T18:54:30Z</time>
      </trkpt>
      <trkpt lat="43.07556" lon="-0.60548">
        <ele>344</ele>
        <time>2021-08-20T18:54:35Z</time>
      </trkpt>
      <trkpt lat="43.07591" lon="-0.60515">
        <ele>336</ele>
        <time>2021-08-20T18:54:43Z</time>
      </trkpt>
      <trkpt lat="43.07597" lon="-0.60515">
        <ele>336</ele>
        <time>2021-08-20T18:54:44Z</time>
      </trkpt>
      <trkpt lat="43.07606" lon="-0.60521">
        <ele>335</ele>
        <time>2021-08-20T18:54:46Z</time>
      </trkpt>
      <trkpt lat="43.07619" lon="-0.60532">
        <ele>334</ele>
        <time>2021-08-20T18:54:48Z</time>
      </trkpt>
      <trkpt lat="43.07629" lon="-0.6054">
        <ele>333</ele>
        <time>2021-08-20T18:54:50Z</time>
      </trkpt>
      <trkpt lat="43.07638" lon="-0.60552">
        <ele>333</ele>
        <time>2021-08-20T18:54:53Z</time>
      </trkpt>
      <trkpt lat="43.07665" lon="-0.60613">
        <ele>332</ele>
        <time>2021-08-20T18:55:02Z</time>
      </trkpt>
      <trkpt lat="43.07681" lon="-0.60575">
        <ele>337</ele>
        <time>2021-08-20T18:55:08Z</time>
      </trkpt>
      <trkpt lat="43.07688" lon="-0.60528">
        <ele>341</ele>
        <time>2021-08-20T18:55:14Z</time>
      </trkpt>
      <trkpt lat="43.07689" lon="-0.60496">
        <ele>343</ele>
        <time>2021-08-20T18:55:18Z</time>
      </trkpt>
      <trkpt lat="43.07685" lon="-0.60404">
        <ele>343</ele>
        <time>2021-08-20T18:55:30Z</time>
      </trkpt>
      <trkpt lat="43.07686" lon="-0.60359">
        <ele>342</ele>
        <time>2021-08-20T18:55:36Z</time>
      </trkpt>
      <trkpt lat="43.07695" lon="-0.60309">
        <ele>344</ele>
        <time>2021-08-20T18:55:43Z</time>
      </trkpt>
      <trkpt lat="43.0769" lon="-0.60268">
        <ele>342</ele>
        <time>2021-08-20T18:55:48Z</time>
      </trkpt>
      <trkpt lat="43.0769" lon="-0.60238">
        <ele>343</ele>
        <time>2021-08-20T18:55:52Z</time>
      </trkpt>
      <trkpt lat="43.07703" lon="-0.60106">
        <ele>354</ele>
        <time>2021-08-20T18:56:09Z</time>
      </trkpt>
      <trkpt lat="43.07705" lon="-0.60069">
        <ele>355</ele>
        <time>2021-08-20T18:56:14Z</time>
      </trkpt>
      <trkpt lat="43.07697" lon="-0.60003">
        <ele>353</ele>
        <time>2021-08-20T18:56:23Z</time>
      </trkpt>
      <trkpt lat="43.07699" lon="-0.59976">
        <ele>353</ele>
        <time>2021-08-20T18:56:26Z</time>
      </trkpt>
      <trkpt lat="43.07712" lon="-0.59915">
        <ele>354</ele>
        <time>2021-08-20T18:56:34Z</time>
      </trkpt>
      <trkpt lat="43.07722" lon="-0.59853">
        <ele>355</ele>
        <time>2021-08-20T18:56:43Z</time>
      </trkpt>
      <trkpt lat="43.07722" lon="-0.59731">
        <ele>359</ele>
        <time>2021-08-20T18:56:59Z</time>
      </trkpt>
      <trkpt lat="43.07728" lon="-0.59706">
        <ele>359</ele>
        <time>2021-08-20T18:57:02Z</time>
      </trkpt>
      <trkpt lat="43.07739" lon="-0.59681">
        <ele>355</ele>
        <time>2021-08-20T18:57:06Z</time>
      </trkpt>
      <trkpt lat="43.0777" lon="-0.59638">
        <ele>360</ele>
        <time>2021-08-20T18:57:14Z</time>
      </trkpt>
      <trkpt lat="43.07788" lon="-0.59594">
        <ele>366</ele>
        <time>2021-08-20T18:57:20Z</time>
      </trkpt>
      <trkpt lat="43.07794" lon="-0.5957">
        <ele>369</ele>
        <time>2021-08-20T18:57:23Z</time>
      </trkpt>
      <trkpt lat="43.07789" lon="-0.5949">
        <ele>370</ele>
        <time>2021-08-20T18:57:34Z</time>
      </trkpt>
      <trkpt lat="43.0779" lon="-0.5946">
        <ele>372</ele>
        <time>2021-08-20T18:57:38Z</time>
      </trkpt>
      <trkpt lat="43.07797" lon="-0.59429">
        <ele>374</ele>
        <time>2021-08-20T18:57:42Z</time>
      </trkpt>
      <trkpt lat="43.07822" lon="-0.59365">
        <ele>370</ele>
        <time>2021-08-20T18:57:51Z</time>
      </trkpt>
      <trkpt lat="43.0783" lon="-0.59339">
        <ele>366</ele>
        <time>2021-08-20T18:57:55Z</time>
      </trkpt>
      <trkpt lat="43.07837" lon="-0.59295">
        <ele>366</ele>
        <time>2021-08-20T18:58:01Z</time>
      </trkpt>
      <trkpt lat="43.07837" lon="-0.59288">
        <ele>366</ele>
        <time>2021-08-20T18:58:02Z</time>
      </trkpt>
      <trkpt lat="43.07844" lon="-0.59235">
        <ele>368</ele>
        <time>2021-08-20T18:58:09Z</time>
      </trkpt>
      <trkpt lat="43.07852" lon="-0.59085">
        <ele>378</ele>
        <time>2021-08-20T18:58:28Z</time>
      </trkpt>
      <trkpt lat="43.07844" lon="-0.59018">
        <ele>378</ele>
        <time>2021-08-20T18:58:37Z</time>
      </trkpt>
      <trkpt lat="43.07849" lon="-0.58845">
        <ele>385</ele>
        <time>2021-08-20T18:59:00Z</time>
      </trkpt>
      <trkpt lat="43.0787" lon="-0.58755">
        <ele>395</ele>
        <time>2021-08-20T18:59:12Z</time>
      </trkpt>
      <trkpt lat="43.07893" lon="-0.58669">
        <ele>398</ele>
        <time>2021-08-20T18:59:24Z</time>
      </trkpt>
      <trkpt lat="43.07902" lon="-0.58617">
        <ele>399</ele>
        <time>2021-08-20T18:59:31Z</time>
      </trkpt>
      <trkpt lat="43.07904" lon="-0.58595">
        <ele>399</ele>
        <time>2021-08-20T18:59:34Z</time>
      </trkpt>
      <trkpt lat="43.07904" lon="-0.58566">
        <ele>399</ele>
        <time>2021-08-20T18:59:38Z</time>
      </trkpt>
      <trkpt lat="43.07895" lon="-0.58474">
        <ele>404</ele>
        <time>2021-08-20T18:59:50Z</time>
      </trkpt>
      <trkpt lat="43.07869" lon="-0.58374">
        <ele>410</ele>
        <time>2021-08-20T19:00:03Z</time>
      </trkpt>
      <trkpt lat="43.07865" lon="-0.58231">
        <ele>420</ele>
        <time>2021-08-20T19:00:22Z</time>
      </trkpt>
      <trkpt lat="43.07869" lon="-0.5821">
        <ele>419</ele>
        <time>2021-08-20T19:00:25Z</time>
      </trkpt>
      <trkpt lat="43.07881" lon="-0.58179">
        <ele>420</ele>
        <time>2021-08-20T19:00:29Z</time>
      </trkpt>
      <trkpt lat="43.07885" lon="-0.58158">
        <ele>420</ele>
        <time>2021-08-20T19:00:32Z</time>
      </trkpt>
      <trkpt lat="43.07886" lon="-0.58125">
        <ele>421</ele>
        <time>2021-08-20T19:00:36Z</time>
      </trkpt>
      <trkpt lat="43.07889" lon="-0.58095">
        <ele>422</ele>
        <time>2021-08-20T19:00:40Z</time>
      </trkpt>
      <trkpt lat="43.07908" lon="-0.58002">
        <ele>430</ele>
        <time>2021-08-20T19:00:53Z</time>
      </trkpt>
      <trkpt lat="43.07911" lon="-0.57976">
        <ele>430</ele>
        <time>2021-08-20T19:00:56Z</time>
      </trkpt>
      <trkpt lat="43.07911" lon="-0.57922">
        <ele>431</ele>
        <time>2021-08-20T19:01:03Z</time>
      </trkpt>
      <trkpt lat="43.07914" lon="-0.57905">
        <ele>431</ele>
        <time>2021-08-20T19:01:06Z</time>
      </trkpt>
      <trkpt lat="43.07924" lon="-0.57885">
        <ele>434</ele>
        <time>2021-08-20T19:01:09Z</time>
      </trkpt>
      <trkpt lat="43.07964" lon="-0.57827">
        <ele>439</ele>
        <time>2021-08-20T19:01:19Z</time>
      </trkpt>
      <trkpt lat="43.07975" lon="-0.57813">
        <ele>442</ele>
        <time>2021-08-20T19:01:22Z</time>
      </trkpt>
      <trkpt lat="43.07981" lon="-0.5781">
        <ele>442</ele>
        <time>2021-08-20T19:01:23Z</time>
      </trkpt>
      <trkpt lat="43.0799" lon="-0.57812">
        <ele>440</ele>
        <time>2021-08-20T19:01:25Z</time>
      </trkpt>
      <trkpt lat="43.07997" lon="-0.5782">
        <ele>438</ele>
        <time>2021-08-20T19:01:26Z</time>
      </trkpt>
      <trkpt lat="43.08013" lon="-0.5788">
        <ele>443</ele>
        <time>2021-08-20T19:01:35Z</time>
      </trkpt>
      <trkpt lat="43.08023" lon="-0.57893">
        <ele>445</ele>
        <time>2021-08-20T19:01:37Z</time>
      </trkpt>
      <trkpt lat="43.08045" lon="-0.57899">
        <ele>446</ele>
        <time>2021-08-20T19:01:41Z</time>
      </trkpt>
      <trkpt lat="43.08065" lon="-0.57898">
        <ele>445</ele>
        <time>2021-08-20T19:01:45Z</time>
      </trkpt>
      <trkpt lat="43.08078" lon="-0.57895">
        <ele>444</ele>
        <time>2021-08-20T19:01:47Z</time>
      </trkpt>
      <trkpt lat="43.08088" lon="-0.57887">
        <ele>445</ele>
        <time>2021-08-20T19:01:49Z</time>
      </trkpt>
      <trkpt lat="43.08095" lon="-0.57874">
        <ele>445</ele>
        <time>2021-08-20T19:01:51Z</time>
      </trkpt>
      <trkpt lat="43.08098" lon="-0.57861">
        <ele>443</ele>
        <time>2021-08-20T19:01:53Z</time>
      </trkpt>
      <trkpt lat="43.08111" lon="-0.57737">
        <ele>444</ele>
        <time>2021-08-20T19:02:09Z</time>
      </trkpt>
      <trkpt lat="43.08113" lon="-0.57698">
        <ele>444</ele>
        <time>2021-08-20T19:02:14Z</time>
      </trkpt>
      <trkpt lat="43.08108" lon="-0.57661">
        <ele>444</ele>
        <time>2021-08-20T19:02:19Z</time>
      </trkpt>
      <trkpt lat="43.08098" lon="-0.57625">
        <ele>447</ele>
        <time>2021-08-20T19:02:24Z</time>
      </trkpt>
      <trkpt lat="43.08054" lon="-0.57549">
        <ele>466</ele>
        <time>2021-08-20T19:02:37Z</time>
      </trkpt>
      <trkpt lat="43.08051" lon="-0.57532">
        <ele>468</ele>
        <time>2021-08-20T19:02:39Z</time>
      </trkpt>
      <trkpt lat="43.08052" lon="-0.57512">
        <ele>468</ele>
        <time>2021-08-20T19:02:42Z</time>
      </trkpt>
      <trkpt lat="43.08069" lon="-0.57421">
        <ele>464</ele>
        <time>2021-08-20T19:02:54Z</time>
      </trkpt>
      <trkpt lat="43.08101" lon="-0.57355">
        <ele>463</ele>
        <time>2021-08-20T19:03:04Z</time>
      </trkpt>
      <trkpt lat="43.08115" lon="-0.57324">
        <ele>464</ele>
        <time>2021-08-20T19:03:09Z</time>
      </trkpt>
      <trkpt lat="43.08121" lon="-0.57299">
        <ele>465</ele>
        <time>2021-08-20T19:03:12Z</time>
      </trkpt>
      <trkpt lat="43.08121" lon="-0.57233">
        <ele>466</ele>
        <time>2021-08-20T19:03:21Z</time>
      </trkpt>
      <trkpt lat="43.08113" lon="-0.5717">
        <ele>468</ele>
        <time>2021-08-20T19:03:29Z</time>
      </trkpt>
      <trkpt lat="43.08104" lon="-0.5714">
        <ele>468</ele>
        <time>2021-08-20T19:03:33Z</time>
      </trkpt>
      <trkpt lat="43.08091" lon="-0.57116">
        <ele>468</ele>
        <time>2021-08-20T19:03:37Z</time>
      </trkpt>
      <trkpt lat="43.08062" lon="-0.57072">
        <ele>479</ele>
        <time>2021-08-20T19:03:45Z</time>
      </trkpt>
      <trkpt lat="43.08055" lon="-0.57052">
        <ele>482</ele>
        <time>2021-08-20T19:03:48Z</time>
      </trkpt>
      <trkpt lat="43.0805" lon="-0.57022">
        <ele>484</ele>
        <time>2021-08-20T19:03:52Z</time>
      </trkpt>
      <trkpt lat="43.08056" lon="-0.56929">
        <ele>481</ele>
        <time>2021-08-20T19:04:04Z</time>
      </trkpt>
      <trkpt lat="43.08049" lon="-0.56877">
        <ele>485</ele>
        <time>2021-08-20T19:04:11Z</time>
      </trkpt>
      <trkpt lat="43.08027" lon="-0.56815">
        <ele>488</ele>
        <time>2021-08-20T19:04:20Z</time>
      </trkpt>
      <trkpt lat="43.08013" lon="-0.56768">
        <ele>489</ele>
        <time>2021-08-20T19:04:26Z</time>
      </trkpt>
      <trkpt lat="43.08008" lon="-0.56736">
        <ele>490</ele>
        <time>2021-08-20T19:04:31Z</time>
      </trkpt>
      <trkpt lat="43.08027" lon="-0.56626">
        <ele>498</ele>
        <time>2021-08-20T19:04:45Z</time>
      </trkpt>
      <trkpt lat="43.08028" lon="-0.56569">
        <ele>502</ele>
        <time>2021-08-20T19:04:53Z</time>
      </trkpt>
      <trkpt lat="43.07997" lon="-0.56385">
        <ele>497</ele>
        <time>2021-08-20T19:05:17Z</time>
      </trkpt>
      <trkpt lat="43.07991" lon="-0.56373">
        <ele>499</ele>
        <time>2021-08-20T19:05:19Z</time>
      </trkpt>
      <trkpt lat="43.07987" lon="-0.56368">
        <ele>500</ele>
        <time>2021-08-20T19:05:20Z</time>
      </trkpt>
      <trkpt lat="43.07977" lon="-0.56357">
        <ele>502</ele>
        <time>2021-08-20T19:05:22Z</time>
      </trkpt>
      <trkpt lat="43.07965" lon="-0.56346">
        <ele>504</ele>
        <time>2021-08-20T19:05:25Z</time>
      </trkpt>
      <trkpt lat="43.07956" lon="-0.56342">
        <ele>506</ele>
        <time>2021-08-20T19:05:27Z</time>
      </trkpt>
      <trkpt lat="43.0789" lon="-0.56336">
        <ele>519</ele>
        <time>2021-08-20T19:05:38Z</time>
      </trkpt>
      <trkpt lat="43.07876" lon="-0.56328">
        <ele>521</ele>
        <time>2021-08-20T19:05:41Z</time>
      </trkpt>
      <trkpt lat="43.0784" lon="-0.56288">
        <ele>522</ele>
        <time>2021-08-20T19:05:49Z</time>
      </trkpt>
      <trkpt lat="43.07828" lon="-0.56266">
        <ele>521</ele>
        <time>2021-08-20T19:05:53Z</time>
      </trkpt>
      <trkpt lat="43.07815" lon="-0.56188">
        <ele>525</ele>
        <time>2021-08-20T19:06:03Z</time>
      </trkpt>
      <trkpt lat="43.07803" lon="-0.5609">
        <ele>532</ele>
        <time>2021-08-20T19:06:16Z</time>
      </trkpt>
      <trkpt lat="43.07797" lon="-0.5606">
        <ele>535</ele>
        <time>2021-08-20T19:06:20Z</time>
      </trkpt>
      <trkpt lat="43.07787" lon="-0.56032">
        <ele>536</ele>
        <time>2021-08-20T19:06:24Z</time>
      </trkpt>
      <trkpt lat="43.0774" lon="-0.55974">
        <ele>534</ele>
        <time>2021-08-20T19:06:36Z</time>
      </trkpt>
      <trkpt lat="43.07733" lon="-0.55957">
        <ele>537</ele>
        <time>2021-08-20T19:06:38Z</time>
      </trkpt>
      <trkpt lat="43.07723" lon="-0.55913">
        <ele>539</ele>
        <time>2021-08-20T19:06:44Z</time>
      </trkpt>
      <trkpt lat="43.07707" lon="-0.55853">
        <ele>543</ele>
        <time>2021-08-20T19:06:52Z</time>
      </trkpt>
      <trkpt lat="43.07702" lon="-0.55836">
        <ele>543</ele>
        <time>2021-08-20T19:06:55Z</time>
      </trkpt>
      <trkpt lat="43.07695" lon="-0.55809">
        <ele>545</ele>
        <time>2021-08-20T19:06:59Z</time>
      </trkpt>
      <trkpt lat="43.07692" lon="-0.55789">
        <ele>547</ele>
        <time>2021-08-20T19:07:01Z</time>
      </trkpt>
      <trkpt lat="43.0769" lon="-0.55774">
        <ele>549</ele>
        <time>2021-08-20T19:07:03Z</time>
      </trkpt>
      <trkpt lat="43.07688" lon="-0.55765">
        <ele>549</ele>
        <time>2021-08-20T19:07:04Z</time>
      </trkpt>
      <trkpt lat="43.0769" lon="-0.55708">
        <ele>553</ele>
        <time>2021-08-20T19:07:12Z</time>
      </trkpt>
      <trkpt lat="43.07679" lon="-0.55666">
        <ele>553</ele>
        <time>2021-08-20T19:07:18Z</time>
      </trkpt>
      <trkpt lat="43.07651" lon="-0.55505">
        <ele>556</ele>
        <time>2021-08-20T19:07:39Z</time>
      </trkpt>
      <trkpt lat="43.07629" lon="-0.55423">
        <ele>565</ele>
        <time>2021-08-20T19:07:50Z</time>
      </trkpt>
      <trkpt lat="43.07612" lon="-0.55373">
        <ele>569</ele>
        <time>2021-08-20T19:07:58Z</time>
      </trkpt>
      <trkpt lat="43.07558" lon="-0.55308">
        <ele>576</ele>
        <time>2021-08-20T19:08:10Z</time>
      </trkpt>
      <trkpt lat="43.07533" lon="-0.55235">
        <ele>578</ele>
        <time>2021-08-20T19:08:21Z</time>
      </trkpt>
      <trkpt lat="43.07529" lon="-0.55213">
        <ele>579</ele>
        <time>2021-08-20T19:08:24Z</time>
      </trkpt>
      <trkpt lat="43.07528" lon="-0.55192">
        <ele>579</ele>
        <time>2021-08-20T19:08:27Z</time>
      </trkpt>
      <trkpt lat="43.07531" lon="-0.55163">
        <ele>579</ele>
        <time>2021-08-20T19:08:30Z</time>
      </trkpt>
      <trkpt lat="43.07537" lon="-0.5513">
        <ele>581</ele>
        <time>2021-08-20T19:08:35Z</time>
      </trkpt>
      <trkpt lat="43.07539" lon="-0.55108">
        <ele>583</ele>
        <time>2021-08-20T19:08:38Z</time>
      </trkpt>
      <trkpt lat="43.07513" lon="-0.54899">
        <ele>598</ele>
        <time>2021-08-20T19:09:05Z</time>
      </trkpt>
      <trkpt lat="43.07485" lon="-0.54632">
        <ele>620</ele>
        <time>2021-08-20T19:09:40Z</time>
      </trkpt>
      <trkpt lat="43.07463" lon="-0.54522">
        <ele>635</ele>
        <time>2021-08-20T19:09:55Z</time>
      </trkpt>
      <trkpt lat="43.07463" lon="-0.54493">
        <ele>637</ele>
        <time>2021-08-20T19:09:59Z</time>
      </trkpt>
      <trkpt lat="43.07477" lon="-0.54413">
        <ele>636</ele>
        <time>2021-08-20T19:10:10Z</time>
      </trkpt>
      <trkpt lat="43.07475" lon="-0.54387">
        <ele>638</ele>
        <time>2021-08-20T19:10:13Z</time>
      </trkpt>
      <trkpt lat="43.07458" lon="-0.54332">
        <ele>650</ele>
        <time>2021-08-20T19:10:21Z</time>
      </trkpt>
      <trkpt lat="43.07453" lon="-0.543">
        <ele>653</ele>
        <time>2021-08-20T19:10:25Z</time>
      </trkpt>
      <trkpt lat="43.07452" lon="-0.5427">
        <ele>653</ele>
        <time>2021-08-20T19:10:29Z</time>
      </trkpt>
      <trkpt lat="43.07461" lon="-0.54209">
        <ele>648</ele>
        <time>2021-08-20T19:10:37Z</time>
      </trkpt>
      <trkpt lat="43.0746" lon="-0.54175">
        <ele>649</ele>
        <time>2021-08-20T19:10:41Z</time>
      </trkpt>
      <trkpt lat="43.07454" lon="-0.54143">
        <ele>652</ele>
        <time>2021-08-20T19:10:46Z</time>
      </trkpt>
      <trkpt lat="43.07445" lon="-0.54115">
        <ele>655</ele>
        <time>2021-08-20T19:10:50Z</time>
      </trkpt>
      <trkpt lat="43.07432" lon="-0.54081">
        <ele>660</ele>
        <time>2021-08-20T19:10:55Z</time>
      </trkpt>
      <trkpt lat="43.07396" lon="-0.54012">
        <ele>666</ele>
        <time>2021-08-20T19:11:06Z</time>
      </trkpt>
      <trkpt lat="43.07369" lon="-0.53965">
        <ele>674</ele>
        <time>2021-08-20T19:11:13Z</time>
      </trkpt>
      <trkpt lat="43.07349" lon="-0.5392">
        <ele>680</ele>
        <time>2021-08-20T19:11:20Z</time>
      </trkpt>
      <trkpt lat="43.07335" lon="-0.53874">
        <ele>687</ele>
        <time>2021-08-20T19:11:27Z</time>
      </trkpt>
      <trkpt lat="43.07322" lon="-0.53791">
        <ele>698</ele>
        <time>2021-08-20T19:11:38Z</time>
      </trkpt>
      <trkpt lat="43.0732" lon="-0.53753">
        <ele>700</ele>
        <time>2021-08-20T19:11:43Z</time>
      </trkpt>
      <trkpt lat="43.07323" lon="-0.53722">
        <ele>702</ele>
        <time>2021-08-20T19:11:47Z</time>
      </trkpt>
      <trkpt lat="43.0734" lon="-0.53615">
        <ele>706</ele>
        <time>2021-08-20T19:12:01Z</time>
      </trkpt>
      <trkpt lat="43.0734" lon="-0.53591">
        <ele>709</ele>
        <time>2021-08-20T19:12:04Z</time>
      </trkpt>
      <trkpt lat="43.07335" lon="-0.53524">
        <ele>716</ele>
        <time>2021-08-20T19:12:13Z</time>
      </trkpt>
      <trkpt lat="43.07331" lon="-0.53487">
        <ele>719</ele>
        <time>2021-08-20T19:12:18Z</time>
      </trkpt>
      <trkpt lat="43.07322" lon="-0.53455">
        <ele>723</ele>
        <time>2021-08-20T19:12:22Z</time>
      </trkpt>
      <trkpt lat="43.073" lon="-0.53406">
        <ele>736</ele>
        <time>2021-08-20T19:12:30Z</time>
      </trkpt>
      <trkpt lat="43.0729" lon="-0.53377">
        <ele>744</ele>
        <time>2021-08-20T19:12:34Z</time>
      </trkpt>
      <trkpt lat="43.07284" lon="-0.53309">
        <ele>759</ele>
        <time>2021-08-20T19:12:43Z</time>
      </trkpt>
      <trkpt lat="43.07286" lon="-0.53283">
        <ele>763</ele>
        <time>2021-08-20T19:12:46Z</time>
      </trkpt>
      <trkpt lat="43.07291" lon="-0.53264">
        <ele>765</ele>
        <time>2021-08-20T19:12:49Z</time>
      </trkpt>
      <trkpt lat="43.07317" lon="-0.53202">
        <ele>766</ele>
        <time>2021-08-20T19:12:58Z</time>
      </trkpt>
      <trkpt lat="43.07339" lon="-0.53163">
        <ele>764</ele>
        <time>2021-08-20T19:13:05Z</time>
      </trkpt>
      <trkpt lat="43.07344" lon="-0.53145">
        <ele>764</ele>
        <time>2021-08-20T19:13:07Z</time>
      </trkpt>
      <trkpt lat="43.07349" lon="-0.53121">
        <ele>765</ele>
        <time>2021-08-20T19:13:10Z</time>
      </trkpt>
      <trkpt lat="43.07351" lon="-0.531">
        <ele>767</ele>
        <time>2021-08-20T19:13:13Z</time>
      </trkpt>
      <trkpt lat="43.07349" lon="-0.53062">
        <ele>770</ele>
        <time>2021-08-20T19:13:18Z</time>
      </trkpt>
      <trkpt lat="43.07342" lon="-0.5303">
        <ele>772</ele>
        <time>2021-08-20T19:13:22Z</time>
      </trkpt>
      <trkpt lat="43.07338" lon="-0.5302">
        <ele>774</ele>
        <time>2021-08-20T19:13:24Z</time>
      </trkpt>
      <trkpt lat="43.07332" lon="-0.53012">
        <ele>777</ele>
        <time>2021-08-20T19:13:25Z</time>
      </trkpt>
      <trkpt lat="43.07303" lon="-0.5299">
        <ele>793</ele>
        <time>2021-08-20T19:13:31Z</time>
      </trkpt>
      <trkpt lat="43.0729" lon="-0.52976">
        <ele>798</ele>
        <time>2021-08-20T19:13:34Z</time>
      </trkpt>
      <trkpt lat="43.07277" lon="-0.52958">
        <ele>801</ele>
        <time>2021-08-20T19:13:37Z</time>
      </trkpt>
      <trkpt lat="43.0725" lon="-0.52913">
        <ele>805</ele>
        <time>2021-08-20T19:13:45Z</time>
      </trkpt>
      <trkpt lat="43.07246" lon="-0.52905">
        <ele>806</ele>
        <time>2021-08-20T19:13:46Z</time>
      </trkpt>
      <trkpt lat="43.07237" lon="-0.52856">
        <ele>798</ele>
        <time>2021-08-20T19:13:53Z</time>
      </trkpt>
      <trkpt lat="43.07234" lon="-0.52847">
        <ele>797</ele>
        <time>2021-08-20T19:13:54Z</time>
      </trkpt>
      <trkpt lat="43.07225" lon="-0.5283">
        <ele>798</ele>
        <time>2021-08-20T19:13:57Z</time>
      </trkpt>
      <trkpt lat="43.07212" lon="-0.52817">
        <ele>803</ele>
        <time>2021-08-20T19:14:00Z</time>
      </trkpt>
      <trkpt lat="43.07205" lon="-0.52812">
        <ele>806</ele>
        <time>2021-08-20T19:14:01Z</time>
      </trkpt>
      <trkpt lat="43.07196" lon="-0.52808">
        <ele>810</ele>
        <time>2021-08-20T19:14:03Z</time>
      </trkpt>
      <trkpt lat="43.0717" lon="-0.52804">
        <ele>822</ele>
        <time>2021-08-20T19:14:07Z</time>
      </trkpt>
      <trkpt lat="43.07163" lon="-0.52801">
        <ele>825</ele>
        <time>2021-08-20T19:14:09Z</time>
      </trkpt>
      <trkpt lat="43.07153" lon="-0.52787">
        <ele>826</ele>
        <time>2021-08-20T19:14:11Z</time>
      </trkpt>
      <trkpt lat="43.07148" lon="-0.52763">
        <ele>822</ele>
        <time>2021-08-20T19:14:15Z</time>
      </trkpt>
      <trkpt lat="43.07141" lon="-0.5272">
        <ele>819</ele>
        <time>2021-08-20T19:14:20Z</time>
      </trkpt>
      <trkpt lat="43.0713" lon="-0.52678">
        <ele>821</ele>
        <time>2021-08-20T19:14:26Z</time>
      </trkpt>
      <trkpt lat="43.07119" lon="-0.52631">
        <ele>825</ele>
        <time>2021-08-20T19:14:32Z</time>
      </trkpt>
      <trkpt lat="43.07097" lon="-0.52573">
        <ele>835</ele>
        <time>2021-08-20T19:14:41Z</time>
      </trkpt>
      <trkpt lat="43.07019" lon="-0.5231">
        <ele>877</ele>
        <time>2021-08-20T19:15:18Z</time>
      </trkpt>
      <trkpt lat="43.07" lon="-0.52165">
        <ele>892</ele>
        <time>2021-08-20T19:15:37Z</time>
      </trkpt>
      <trkpt lat="43.07011" lon="-0.52052">
        <ele>898</ele>
        <time>2021-08-20T19:15:52Z</time>
      </trkpt>
      <trkpt lat="43.0701" lon="-0.52001">
        <ele>902</ele>
        <time>2021-08-20T19:15:58Z</time>
      </trkpt>
      <trkpt lat="43.07003" lon="-0.51957">
        <ele>913</ele>
        <time>2021-08-20T19:16:04Z</time>
      </trkpt>
      <trkpt lat="43.07003" lon="-0.51945">
        <ele>914</ele>
        <time>2021-08-20T19:16:06Z</time>
      </trkpt>
      <trkpt lat="43.07005" lon="-0.51919">
        <ele>917</ele>
        <time>2021-08-20T19:16:09Z</time>
      </trkpt>
      <trkpt lat="43.07044" lon="-0.51776">
        <ele>924</ele>
        <time>2021-08-20T19:16:29Z</time>
      </trkpt>
      <trkpt lat="43.07053" lon="-0.51691">
        <ele>931</ele>
        <time>2021-08-20T19:16:40Z</time>
      </trkpt>
      <trkpt lat="43.07054" lon="-0.51669">
        <ele>934</ele>
        <time>2021-08-20T19:16:43Z</time>
      </trkpt>
      <trkpt lat="43.07052" lon="-0.51646">
        <ele>937</ele>
        <time>2021-08-20T19:16:46Z</time>
      </trkpt>
      <trkpt lat="43.07046" lon="-0.51604">
        <ele>943</ele>
        <time>2021-08-20T19:16:52Z</time>
      </trkpt>
      <trkpt lat="43.07048" lon="-0.5158">
        <ele>943</ele>
        <time>2021-08-20T19:16:55Z</time>
      </trkpt>
      <trkpt lat="43.07058" lon="-0.51523">
        <ele>945</ele>
        <time>2021-08-20T19:17:02Z</time>
      </trkpt>
      <trkpt lat="43.07059" lon="-0.51451">
        <ele>957</ele>
        <time>2021-08-20T19:17:12Z</time>
      </trkpt>
      <trkpt lat="43.07075" lon="-0.51365">
        <ele>960</ele>
        <time>2021-08-20T19:17:23Z</time>
      </trkpt>
      <trkpt lat="43.07077" lon="-0.51347">
        <ele>961</ele>
        <time>2021-08-20T19:17:26Z</time>
      </trkpt>
      <trkpt lat="43.07075" lon="-0.51298">
        <ele>964</ele>
        <time>2021-08-20T19:17:32Z</time>
      </trkpt>
      <trkpt lat="43.07071" lon="-0.51286">
        <ele>966</ele>
        <time>2021-08-20T19:17:34Z</time>
      </trkpt>
      <trkpt lat="43.07063" lon="-0.51271">
        <ele>971</ele>
        <time>2021-08-20T19:17:36Z</time>
      </trkpt>
      <trkpt lat="43.07037" lon="-0.51232">
        <ele>987</ele>
        <time>2021-08-20T19:17:43Z</time>
      </trkpt>
      <trkpt lat="43.07033" lon="-0.51223">
        <ele>989</ele>
        <time>2021-08-20T19:17:44Z</time>
      </trkpt>
      <trkpt lat="43.07032" lon="-0.51207">
        <ele>989</ele>
        <time>2021-08-20T19:17:47Z</time>
      </trkpt>
      <trkpt lat="43.07033" lon="-0.5117">
        <ele>988</ele>
        <time>2021-08-20T19:17:51Z</time>
      </trkpt>
      <trkpt lat="43.07024" lon="-0.51136">
        <ele>992</ele>
        <time>2021-08-20T19:17:56Z</time>
      </trkpt>
      <trkpt lat="43.07001" lon="-0.51076">
        <ele>996</ele>
        <time>2021-08-20T19:18:05Z</time>
      </trkpt>
      <trkpt lat="43.06994" lon="-0.51067">
        <ele>999</ele>
        <time>2021-08-20T19:18:07Z</time>
      </trkpt>
      <trkpt lat="43.06985" lon="-0.51058">
        <ele>1002</ele>
        <time>2021-08-20T19:18:09Z</time>
      </trkpt>
      <trkpt lat="43.06942" lon="-0.51031">
        <ele>1012</ele>
        <time>2021-08-20T19:18:17Z</time>
      </trkpt>
      <trkpt lat="43.0686" lon="-0.51008">
        <ele>1025</ele>
        <time>2021-08-20T19:18:32Z</time>
      </trkpt>
      <trkpt lat="43.06852" lon="-0.51001">
        <ele>1025</ele>
        <time>2021-08-20T19:18:34Z</time>
      </trkpt>
      <trkpt lat="43.06851" lon="-0.50996">
        <ele>1025</ele>
        <time>2021-08-20T19:18:34Z</time>
      </trkpt>
      <trkpt lat="43.06851" lon="-0.50989">
        <ele>1027</ele>
        <time>2021-08-20T19:18:35Z</time>
      </trkpt>
      <trkpt lat="43.06854" lon="-0.50981">
        <ele>1028</ele>
        <time>2021-08-20T19:18:36Z</time>
      </trkpt>
      <trkpt lat="43.06913" lon="-0.5094">
        <ele>1026</ele>
        <time>2021-08-20T19:18:48Z</time>
      </trkpt>
      <trkpt lat="43.06942" lon="-0.50917">
        <ele>1028</ele>
        <time>2021-08-20T19:18:54Z</time>
      </trkpt>
      <trkpt lat="43.06969" lon="-0.50889">
        <ele>1031</ele>
        <time>2021-08-20T19:19:00Z</time>
      </trkpt>
      <trkpt lat="43.07012" lon="-0.50835">
        <ele>1036</ele>
        <time>2021-08-20T19:19:10Z</time>
      </trkpt>
      <trkpt lat="43.0704" lon="-0.50796">
        <ele>1039</ele>
        <time>2021-08-20T19:19:18Z</time>
      </trkpt>
      <trkpt lat="43.07045" lon="-0.50785">
        <ele>1040</ele>
        <time>2021-08-20T19:19:19Z</time>
      </trkpt>
      <trkpt lat="43.07047" lon="-0.50775">
        <ele>1040</ele>
        <time>2021-08-20T19:19:21Z</time>
      </trkpt>
      <trkpt lat="43.07047" lon="-0.50752">
        <ele>1042</ele>
        <time>2021-08-20T19:19:24Z</time>
      </trkpt>
      <trkpt lat="43.07043" lon="-0.50722">
        <ele>1041</ele>
        <time>2021-08-20T19:19:28Z</time>
      </trkpt>
      <trkpt lat="43.07031" lon="-0.50682">
        <ele>1041</ele>
        <time>2021-08-20T19:19:33Z</time>
      </trkpt>
      <trkpt lat="43.07013" lon="-0.50641">
        <ele>1041</ele>
        <time>2021-08-20T19:19:39Z</time>
      </trkpt>
      <trkpt lat="43.07009" lon="-0.50634">
        <ele>1041</ele>
        <time>2021-08-20T19:19:41Z</time>
      </trkpt>
      <trkpt lat="43.07003" lon="-0.50629">
        <ele>1041</ele>
        <time>2021-08-20T19:19:42Z</time>
      </trkpt>
      <trkpt lat="43.06984" lon="-0.50622">
        <ele>1045</ele>
        <time>2021-08-20T19:19:45Z</time>
      </trkpt>
      <trkpt lat="43.06973" lon="-0.50613">
        <ele>1047</ele>
        <time>2021-08-20T19:19:48Z</time>
      </trkpt>
      <trkpt lat="43.0695" lon="-0.50565">
        <ele>1046</ele>
        <time>2021-08-20T19:19:55Z</time>
      </trkpt>
      <trkpt lat="43.06934" lon="-0.50536">
        <ele>1045</ele>
        <time>2021-08-20T19:20:00Z</time>
      </trkpt>
      <trkpt lat="43.06921" lon="-0.50498">
        <ele>1042</ele>
        <time>2021-08-20T19:20:05Z</time>
      </trkpt>
      <trkpt lat="43.06917" lon="-0.50471">
        <ele>1042</ele>
        <time>2021-08-20T19:20:09Z</time>
      </trkpt>
      <trkpt lat="43.06918" lon="-0.50452">
        <ele>1041</ele>
        <time>2021-08-20T19:20:11Z</time>
      </trkpt>
      <trkpt lat="43.06938" lon="-0.50378">
        <ele>1031</ele>
        <time>2021-08-20T19:20:22Z</time>
      </trkpt>
      <trkpt lat="43.06941" lon="-0.50359">
        <ele>1030</ele>
        <time>2021-08-20T19:20:24Z</time>
      </trkpt>
      <trkpt lat="43.06946" lon="-0.50307">
        <ele>1028</ele>
        <time>2021-08-20T19:20:31Z</time>
      </trkpt>
      <trkpt lat="43.06946" lon="-0.50288">
        <ele>1027</ele>
        <time>2021-08-20T19:20:33Z</time>
      </trkpt>
      <trkpt lat="43.06937" lon="-0.50222">
        <ele>1025</ele>
        <time>2021-08-20T19:20:42Z</time>
      </trkpt>
      <trkpt lat="43.06933" lon="-0.5021">
        <ele>1024</ele>
        <time>2021-08-20T19:20:44Z</time>
      </trkpt>
      <trkpt lat="43.0692" lon="-0.50185">
        <ele>1024</ele>
        <time>2021-08-20T19:20:48Z</time>
      </trkpt>
      <trkpt lat="43.06889" lon="-0.50153">
        <ele>1026</ele>
        <time>2021-08-20T19:20:55Z</time>
      </trkpt>
      <trkpt lat="43.06853" lon="-0.50101">
        <ele>1019</ele>
        <time>2021-08-20T19:21:04Z</time>
      </trkpt>
      <trkpt lat="43.0684" lon="-0.50089">
        <ele>1018</ele>
        <time>2021-08-20T19:21:07Z</time>
      </trkpt>
      <trkpt lat="43.06815" lon="-0.50078">
        <ele>1017</ele>
        <time>2021-08-20T19:21:11Z</time>
      </trkpt>
      <trkpt lat="43.06796" lon="-0.50063">
        <ele>1013</ele>
        <time>2021-08-20T19:21:15Z</time>
      </trkpt>
      <trkpt lat="43.0678" lon="-0.50054">
        <ele>1012</ele>
        <time>2021-08-20T19:21:18Z</time>
      </trkpt>
      <trkpt lat="43.06744" lon="-0.50053">
        <ele>1013</ele>
        <time>2021-08-20T19:21:25Z</time>
      </trkpt>
      <trkpt lat="43.06711" lon="-0.50044">
        <ele>1006</ele>
        <time>2021-08-20T19:21:31Z</time>
      </trkpt>
      <trkpt lat="43.06698" lon="-0.50048">
        <ele>1006</ele>
        <time>2021-08-20T19:21:33Z</time>
      </trkpt>
      <trkpt lat="43.06687" lon="-0.50055">
        <ele>1007</ele>
        <time>2021-08-20T19:21:35Z</time>
      </trkpt>
      <trkpt lat="43.06597" lon="-0.50124">
        <ele>1018</ele>
        <time>2021-08-20T19:21:54Z</time>
      </trkpt>
      <trkpt lat="43.0653" lon="-0.50196">
        <ele>1027</ele>
        <time>2021-08-20T19:22:09Z</time>
      </trkpt>
      <trkpt lat="43.06516" lon="-0.502">
        <ele>1025</ele>
        <time>2021-08-20T19:22:11Z</time>
      </trkpt>
      <trkpt lat="43.06506" lon="-0.50196">
        <ele>1022</ele>
        <time>2021-08-20T19:22:13Z</time>
      </trkpt>
      <trkpt lat="43.06502" lon="-0.50193">
        <ele>1021</ele>
        <time>2021-08-20T19:22:14Z</time>
      </trkpt>
      <trkpt lat="43.06499" lon="-0.50185">
        <ele>1019</ele>
        <time>2021-08-20T19:22:15Z</time>
      </trkpt>
      <trkpt lat="43.06498" lon="-0.50168">
        <ele>1017</ele>
        <time>2021-08-20T19:22:17Z</time>
      </trkpt>
      <trkpt lat="43.06497" lon="-0.50133">
        <ele>1017</ele>
        <time>2021-08-20T19:22:22Z</time>
      </trkpt>
      <trkpt lat="43.06499" lon="-0.50109">
        <ele>1016</ele>
        <time>2021-08-20T19:22:25Z</time>
      </trkpt>
      <trkpt lat="43.0652" lon="-0.50005">
        <ele>1013</ele>
        <time>2021-08-20T19:22:39Z</time>
      </trkpt>
      <trkpt lat="43.06523" lon="-0.49981">
        <ele>1012</ele>
        <time>2021-08-20T19:22:42Z</time>
      </trkpt>
      <trkpt lat="43.06525" lon="-0.49934">
        <ele>1011</ele>
        <time>2021-08-20T19:22:48Z</time>
      </trkpt>
      <trkpt lat="43.06523" lon="-0.49916">
        <ele>1011</ele>
        <time>2021-08-20T19:22:51Z</time>
      </trkpt>
      <trkpt lat="43.06516" lon="-0.49884">
        <ele>1010</ele>
        <time>2021-08-20T19:22:55Z</time>
      </trkpt>
      <trkpt lat="43.06504" lon="-0.49837">
        <ele>1007</ele>
        <time>2021-08-20T19:23:02Z</time>
      </trkpt>
      <trkpt lat="43.06498" lon="-0.49829">
        <ele>1006</ele>
        <time>2021-08-20T19:23:03Z</time>
      </trkpt>
      <trkpt lat="43.06493" lon="-0.49823">
        <ele>1006</ele>
        <time>2021-08-20T19:23:04Z</time>
      </trkpt>
      <trkpt lat="43.06481" lon="-0.49819">
        <ele>1006</ele>
        <time>2021-08-20T19:23:07Z</time>
      </trkpt>
      <trkpt lat="43.0647" lon="-0.49826">
        <ele>1007</ele>
        <time>2021-08-20T19:23:09Z</time>
      </trkpt>
      <trkpt lat="43.06441" lon="-0.49854">
        <ele>1013</ele>
        <time>2021-08-20T19:23:15Z</time>
      </trkpt>
      <trkpt lat="43.06428" lon="-0.49865">
        <ele>1016</ele>
        <time>2021-08-20T19:23:18Z</time>
      </trkpt>
      <trkpt lat="43.06408" lon="-0.49871">
        <ele>1020</ele>
        <time>2021-08-20T19:23:21Z</time>
      </trkpt>
      <trkpt lat="43.06393" lon="-0.49869">
        <ele>1022</ele>
        <time>2021-08-20T19:23:24Z</time>
      </trkpt>
      <trkpt lat="43.06381" lon="-0.4986">
        <ele>1022</ele>
        <time>2021-08-20T19:23:26Z</time>
      </trkpt>
      <trkpt lat="43.06373" lon="-0.4985">
        <ele>1021</ele>
        <time>2021-08-20T19:23:28Z</time>
      </trkpt>
      <trkpt lat="43.0634" lon="-0.49805">
        <ele>1017</ele>
        <time>2021-08-20T19:23:37Z</time>
      </trkpt>
      <trkpt lat="43.06319" lon="-0.4977">
        <ele>1014</ele>
        <time>2021-08-20T19:23:43Z</time>
      </trkpt>
      <trkpt lat="43.06294" lon="-0.49748">
        <ele>1015</ele>
        <time>2021-08-20T19:23:48Z</time>
      </trkpt>
      <trkpt lat="43.06269" lon="-0.49715">
        <ele>1013</ele>
        <time>2021-08-20T19:23:54Z</time>
      </trkpt>
      <trkpt lat="43.06255" lon="-0.49705">
        <ele>1013</ele>
        <time>2021-08-20T19:23:57Z</time>
      </trkpt>
      <trkpt lat="43.06237" lon="-0.49698">
        <ele>1015</ele>
        <time>2021-08-20T19:24:00Z</time>
      </trkpt>
      <trkpt lat="43.06225" lon="-0.49691">
        <ele>1016</ele>
        <time>2021-08-20T19:24:03Z</time>
      </trkpt>
      <trkpt lat="43.06193" lon="-0.49653">
        <ele>1014</ele>
        <time>2021-08-20T19:24:10Z</time>
      </trkpt>
      <trkpt lat="43.06182" lon="-0.49647">
        <ele>1014</ele>
        <time>2021-08-20T19:24:12Z</time>
      </trkpt>
      <trkpt lat="43.0617" lon="-0.49643">
        <ele>1015</ele>
        <time>2021-08-20T19:24:14Z</time>
      </trkpt>
      <trkpt lat="43.06142" lon="-0.49639">
        <ele>1017</ele>
        <time>2021-08-20T19:24:19Z</time>
      </trkpt>
      <trkpt lat="43.06114" lon="-0.49638">
        <ele>1019</ele>
        <time>2021-08-20T19:24:24Z</time>
      </trkpt>
      <trkpt lat="43.06086" lon="-0.49624">
        <ele>1018</ele>
        <time>2021-08-20T19:24:30Z</time>
      </trkpt>
      <trkpt lat="43.06078" lon="-0.49621">
        <ele>1019</ele>
        <time>2021-08-20T19:24:31Z</time>
      </trkpt>
      <trkpt lat="43.0606" lon="-0.49618">
        <ele>1025</ele>
        <time>2021-08-20T19:24:34Z</time>
      </trkpt>
      <trkpt lat="43.06051" lon="-0.49614">
        <ele>1028</ele>
        <time>2021-08-20T19:24:36Z</time>
      </trkpt>
      <trkpt lat="43.06046" lon="-0.4961">
        <ele>1029</ele>
        <time>2021-08-20T19:24:37Z</time>
      </trkpt>
      <trkpt lat="43.06037" lon="-0.49596">
        <ele>1029</ele>
        <time>2021-08-20T19:24:39Z</time>
      </trkpt>
      <trkpt lat="43.06007" lon="-0.49466">
        <ele>1022</ele>
        <time>2021-08-20T19:24:57Z</time>
      </trkpt>
      <trkpt lat="43.06004" lon="-0.49436">
        <ele>1020</ele>
        <time>2021-08-20T19:25:01Z</time>
      </trkpt>
      <trkpt lat="43.06006" lon="-0.49411">
        <ele>1018</ele>
        <time>2021-08-20T19:25:04Z</time>
      </trkpt>
      <trkpt lat="43.06025" lon="-0.49365">
        <ele>1012</ele>
        <time>2021-08-20T19:25:11Z</time>
      </trkpt>
      <trkpt lat="43.06049" lon="-0.49313">
        <ele>1007</ele>
        <time>2021-08-20T19:25:19Z</time>
      </trkpt>
      <trkpt lat="43.06061" lon="-0.49275">
        <ele>1005</ele>
        <time>2021-08-20T19:25:25Z</time>
      </trkpt>
      <trkpt lat="43.0606" lon="-0.49244">
        <ele>1005</ele>
        <time>2021-08-20T19:25:29Z</time>
      </trkpt>
      <trkpt lat="43.06011" lon="-0.49097">
        <ele>1006</ele>
        <time>2021-08-20T19:25:50Z</time>
      </trkpt>
      <trkpt lat="43.06005" lon="-0.49088">
        <ele>1007</ele>
        <time>2021-08-20T19:25:51Z</time>
      </trkpt>
      <trkpt lat="43.05999" lon="-0.49085">
        <ele>1008</ele>
        <time>2021-08-20T19:25:52Z</time>
      </trkpt>
      <trkpt lat="43.05993" lon="-0.49084">
        <ele>1007</ele>
        <time>2021-08-20T19:25:54Z</time>
      </trkpt>
      <trkpt lat="43.05986" lon="-0.49088">
        <ele>1006</ele>
        <time>2021-08-20T19:25:55Z</time>
      </trkpt>
      <trkpt lat="43.05971" lon="-0.49115">
        <ele>1007</ele>
        <time>2021-08-20T19:25:59Z</time>
      </trkpt>
      <trkpt lat="43.05954" lon="-0.49137">
        <ele>1007</ele>
        <time>2021-08-20T19:26:03Z</time>
      </trkpt>
      <trkpt lat="43.05949" lon="-0.49146">
        <ele>1008</ele>
        <time>2021-08-20T19:26:05Z</time>
      </trkpt>
      <trkpt lat="43.05946" lon="-0.49157">
        <ele>1009</ele>
        <time>2021-08-20T19:26:06Z</time>
      </trkpt>
      <trkpt lat="43.05937" lon="-0.49246">
        <ele>1014</ele>
        <time>2021-08-20T19:26:18Z</time>
      </trkpt>
      <trkpt lat="43.05928" lon="-0.49298">
        <ele>1017</ele>
        <time>2021-08-20T19:26:25Z</time>
      </trkpt>
      <trkpt lat="43.05921" lon="-0.49318">
        <ele>1018</ele>
        <time>2021-08-20T19:26:28Z</time>
      </trkpt>
      <trkpt lat="43.05913" lon="-0.49331">
        <ele>1019</ele>
        <time>2021-08-20T19:26:30Z</time>
      </trkpt>
      <trkpt lat="43.0589" lon="-0.49347">
        <ele>1022</ele>
        <time>2021-08-20T19:26:35Z</time>
      </trkpt>
      <trkpt lat="43.05874" lon="-0.49346">
        <ele>1021</ele>
        <time>2021-08-20T19:26:38Z</time>
      </trkpt>
      <trkpt lat="43.05867" lon="-0.49342">
        <ele>1019</ele>
        <time>2021-08-20T19:26:39Z</time>
      </trkpt>
      <trkpt lat="43.05841" lon="-0.49316">
        <ele>1011</ele>
        <time>2021-08-20T19:26:45Z</time>
      </trkpt>
      <trkpt lat="43.05835" lon="-0.49304">
        <ele>1009</ele>
        <time>2021-08-20T19:26:47Z</time>
      </trkpt>
      <trkpt lat="43.05835" lon="-0.49292">
        <ele>1008</ele>
        <time>2021-08-20T19:26:48Z</time>
      </trkpt>
      <trkpt lat="43.05838" lon="-0.49286">
        <ele>1007</ele>
        <time>2021-08-20T19:26:49Z</time>
      </trkpt>
      <trkpt lat="43.05846" lon="-0.49271">
        <ele>1006</ele>
        <time>2021-08-20T19:26:51Z</time>
      </trkpt>
      <trkpt lat="43.05868" lon="-0.49243">
        <ele>1005</ele>
        <time>2021-08-20T19:26:57Z</time>
      </trkpt>
      <trkpt lat="43.05881" lon="-0.49219">
        <ele>1005</ele>
        <time>2021-08-20T19:27:01Z</time>
      </trkpt>
      <trkpt lat="43.05897" lon="-0.49152">
        <ele>1000</ele>
        <time>2021-08-20T19:27:10Z</time>
      </trkpt>
      <trkpt lat="43.05905" lon="-0.49126">
        <ele>997</ele>
        <time>2021-08-20T19:27:14Z</time>
      </trkpt>
      <trkpt lat="43.05915" lon="-0.49105">
        <ele>994</ele>
        <time>2021-08-20T19:27:17Z</time>
      </trkpt>
      <trkpt lat="43.05935" lon="-0.49078">
        <ele>993</ele>
        <time>2021-08-20T19:27:22Z</time>
      </trkpt>
      <trkpt lat="43.05942" lon="-0.49063">
        <ele>991</ele>
        <time>2021-08-20T19:27:24Z</time>
      </trkpt>
      <trkpt lat="43.05969" lon="-0.48995">
        <ele>981</ele>
        <time>2021-08-20T19:27:34Z</time>
      </trkpt>
      <trkpt lat="43.06006" lon="-0.48919">
        <ele>969</ele>
        <time>2021-08-20T19:27:46Z</time>
      </trkpt>
      <trkpt lat="43.06022" lon="-0.4887">
        <ele>956</ele>
        <time>2021-08-20T19:27:53Z</time>
      </trkpt>
      <trkpt lat="43.06026" lon="-0.48862">
        <ele>954</ele>
        <time>2021-08-20T19:27:54Z</time>
      </trkpt>
      <trkpt lat="43.06048" lon="-0.48839">
        <ele>950</ele>
        <time>2021-08-20T19:27:59Z</time>
      </trkpt>
      <trkpt lat="43.06049" lon="-0.48829">
        <ele>948</ele>
        <time>2021-08-20T19:28:01Z</time>
      </trkpt>
      <trkpt lat="43.06047" lon="-0.48825">
        <ele>947</ele>
        <time>2021-08-20T19:28:01Z</time>
      </trkpt>
      <trkpt lat="43.06042" lon="-0.48823">
        <ele>947</ele>
        <time>2021-08-20T19:28:02Z</time>
      </trkpt>
      <trkpt lat="43.06037" lon="-0.48824">
        <ele>947</ele>
        <time>2021-08-20T19:28:03Z</time>
      </trkpt>
      <trkpt lat="43.06027" lon="-0.48831">
        <ele>948</ele>
        <time>2021-08-20T19:28:05Z</time>
      </trkpt>
      <trkpt lat="43.06004" lon="-0.48858">
        <ele>954</ele>
        <time>2021-08-20T19:28:10Z</time>
      </trkpt>
      <trkpt lat="43.05969" lon="-0.48884">
        <ele>955</ele>
        <time>2021-08-20T19:28:17Z</time>
      </trkpt>
      <trkpt lat="43.05956" lon="-0.48903">
        <ele>956</ele>
        <time>2021-08-20T19:28:21Z</time>
      </trkpt>
      <trkpt lat="43.05938" lon="-0.48916">
        <ele>955</ele>
        <time>2021-08-20T19:28:24Z</time>
      </trkpt>
      <trkpt lat="43.05926" lon="-0.48921">
        <ele>953</ele>
        <time>2021-08-20T19:28:27Z</time>
      </trkpt>
      <trkpt lat="43.05918" lon="-0.48924">
        <ele>952</ele>
        <time>2021-08-20T19:28:28Z</time>
      </trkpt>
      <trkpt lat="43.05908" lon="-0.48924">
        <ele>954</ele>
        <time>2021-08-20T19:28:30Z</time>
      </trkpt>
      <trkpt lat="43.05902" lon="-0.48921">
        <ele>955</ele>
        <time>2021-08-20T19:28:31Z</time>
      </trkpt>
      <trkpt lat="43.05895" lon="-0.48912">
        <ele>956</ele>
        <time>2021-08-20T19:28:33Z</time>
      </trkpt>
      <trkpt lat="43.05894" lon="-0.48902">
        <ele>955</ele>
        <time>2021-08-20T19:28:34Z</time>
      </trkpt>
      <trkpt lat="43.05907" lon="-0.48873">
        <ele>947</ele>
        <time>2021-08-20T19:28:39Z</time>
      </trkpt>
      <trkpt lat="43.05959" lon="-0.48691">
        <ele>925</ele>
        <time>2021-08-20T19:29:04Z</time>
      </trkpt>
      <trkpt lat="43.05979" lon="-0.48627">
        <ele>916</ele>
        <time>2021-08-20T19:29:13Z</time>
      </trkpt>
      <trkpt lat="43.06002" lon="-0.48563">
        <ele>908</ele>
        <time>2021-08-20T19:29:22Z</time>
      </trkpt>
      <trkpt lat="43.06055" lon="-0.48224">
        <ele>888</ele>
        <time>2021-08-20T19:30:07Z</time>
      </trkpt>
      <trkpt lat="43.06076" lon="-0.48034">
        <ele>883</ele>
        <time>2021-08-20T19:30:32Z</time>
      </trkpt>
      <trkpt lat="43.06113" lon="-0.47872">
        <ele>879</ele>
        <time>2021-08-20T19:30:54Z</time>
      </trkpt>
      <trkpt lat="43.06122" lon="-0.47848">
        <ele>879</ele>
        <time>2021-08-20T19:30:58Z</time>
      </trkpt>
      <trkpt lat="43.06136" lon="-0.47826">
        <ele>879</ele>
        <time>2021-08-20T19:31:02Z</time>
      </trkpt>
      <trkpt lat="43.06179" lon="-0.47715">
        <ele>880</ele>
        <time>2021-08-20T19:31:18Z</time>
      </trkpt>
      <trkpt lat="43.06229" lon="-0.47539">
        <ele>879</ele>
        <time>2021-08-20T19:31:43Z</time>
      </trkpt>
      <trkpt lat="43.06258" lon="-0.47449">
        <ele>879</ele>
        <time>2021-08-20T19:31:55Z</time>
      </trkpt>
      <trkpt lat="43.06272" lon="-0.47421">
        <ele>878</ele>
        <time>2021-08-20T19:32:00Z</time>
      </trkpt>
      <trkpt lat="43.06333" lon="-0.47394">
        <ele>878</ele>
        <time>2021-08-20T19:32:11Z</time>
      </trkpt>
      <trkpt lat="43.06348" lon="-0.47377">
        <ele>878</ele>
        <time>2021-08-20T19:32:15Z</time>
      </trkpt>
      <trkpt lat="43.06372" lon="-0.47323">
        <ele>878</ele>
        <time>2021-08-20T19:32:23Z</time>
      </trkpt>
      <trkpt lat="43.06397" lon="-0.47242">
        <ele>877</ele>
        <time>2021-08-20T19:32:34Z</time>
      </trkpt>
      <trkpt lat="43.06414" lon="-0.47175">
        <ele>879</ele>
        <time>2021-08-20T19:32:43Z</time>
      </trkpt>
      <trkpt lat="43.06424" lon="-0.47143">
        <ele>879</ele>
        <time>2021-08-20T19:32:48Z</time>
      </trkpt>
      <trkpt lat="43.06437" lon="-0.47125">
        <ele>878</ele>
        <time>2021-08-20T19:32:51Z</time>
      </trkpt>
      <trkpt lat="43.06492" lon="-0.47068">
        <ele>877</ele>
        <time>2021-08-20T19:33:04Z</time>
      </trkpt>
      <trkpt lat="43.065" lon="-0.47058">
        <ele>876</ele>
        <time>2021-08-20T19:33:05Z</time>
      </trkpt>
      <trkpt lat="43.06505" lon="-0.47048">
        <ele>876</ele>
        <time>2021-08-20T19:33:07Z</time>
      </trkpt>
      <trkpt lat="43.06507" lon="-0.47029">
        <ele>876</ele>
        <time>2021-08-20T19:33:10Z</time>
      </trkpt>
      <trkpt lat="43.06505" lon="-0.46981">
        <ele>875</ele>
        <time>2021-08-20T19:33:16Z</time>
      </trkpt>
      <trkpt lat="43.06506" lon="-0.46966">
        <ele>876</ele>
        <time>2021-08-20T19:33:18Z</time>
      </trkpt>
      <trkpt lat="43.0651" lon="-0.46941">
        <ele>876</ele>
        <time>2021-08-20T19:33:21Z</time>
      </trkpt>
      <trkpt lat="43.06529" lon="-0.46863">
        <ele>879</ele>
        <time>2021-08-20T19:33:32Z</time>
      </trkpt>
      <trkpt lat="43.06534" lon="-0.4683">
        <ele>881</ele>
        <time>2021-08-20T19:33:36Z</time>
      </trkpt>
      <trkpt lat="43.06541" lon="-0.46687">
        <ele>884</ele>
        <time>2021-08-20T19:33:55Z</time>
      </trkpt>
      <trkpt lat="43.06546" lon="-0.46583">
        <ele>885</ele>
        <time>2021-08-20T19:34:08Z</time>
      </trkpt>
      <trkpt lat="43.06542" lon="-0.4655">
        <ele>884</ele>
        <time>2021-08-20T19:34:13Z</time>
      </trkpt>
      <trkpt lat="43.06534" lon="-0.46512">
        <ele>883</ele>
        <time>2021-08-20T19:34:18Z</time>
      </trkpt>
      <trkpt lat="43.06536" lon="-0.4641">
        <ele>875</ele>
        <time>2021-08-20T19:34:31Z</time>
      </trkpt>
      <trkpt lat="43.0654" lon="-0.46396">
        <ele>874</ele>
        <time>2021-08-20T19:34:33Z</time>
      </trkpt>
      <trkpt lat="43.06549" lon="-0.46376">
        <ele>874</ele>
        <time>2021-08-20T19:34:36Z</time>
      </trkpt>
      <trkpt lat="43.06561" lon="-0.4633">
        <ele>872</ele>
        <time>2021-08-20T19:34:42Z</time>
      </trkpt>
      <trkpt lat="43.06572" lon="-0.463">
        <ele>871</ele>
        <time>2021-08-20T19:34:47Z</time>
      </trkpt>
      <trkpt lat="43.06594" lon="-0.4625">
        <ele>871</ele>
        <time>2021-08-20T19:34:54Z</time>
      </trkpt>
      <trkpt lat="43.06616" lon="-0.46179">
        <ele>871</ele>
        <time>2021-08-20T19:35:04Z</time>
      </trkpt>
      <trkpt lat="43.06628" lon="-0.46151">
        <ele>873</ele>
        <time>2021-08-20T19:35:09Z</time>
      </trkpt>
      <trkpt lat="43.06632" lon="-0.46132">
        <ele>873</ele>
        <time>2021-08-20T19:35:11Z</time>
      </trkpt>
      <trkpt lat="43.06628" lon="-0.46013">
        <ele>868</ele>
        <time>2021-08-20T19:35:27Z</time>
      </trkpt>
      <trkpt lat="43.06627" lon="-0.46002">
        <ele>868</ele>
        <time>2021-08-20T19:35:28Z</time>
      </trkpt>
      <trkpt lat="43.06623" lon="-0.45993">
        <ele>868</ele>
        <time>2021-08-20T19:35:30Z</time>
      </trkpt>
      <trkpt lat="43.06613" lon="-0.45982">
        <ele>866</ele>
        <time>2021-08-20T19:35:32Z</time>
      </trkpt>
      <trkpt lat="43.06588" lon="-0.45966">
        <ele>859</ele>
        <time>2021-08-20T19:35:37Z</time>
      </trkpt>
      <trkpt lat="43.06569" lon="-0.45948">
        <ele>857</ele>
        <time>2021-08-20T19:35:41Z</time>
      </trkpt>
      <trkpt lat="43.06559" lon="-0.45931">
        <ele>856</ele>
        <time>2021-08-20T19:35:44Z</time>
      </trkpt>
      <trkpt lat="43.06548" lon="-0.45897">
        <ele>857</ele>
        <time>2021-08-20T19:35:48Z</time>
      </trkpt>
      <trkpt lat="43.06539" lon="-0.45886">
        <ele>856</ele>
        <time>2021-08-20T19:35:51Z</time>
      </trkpt>
      <trkpt lat="43.06511" lon="-0.45874">
        <ele>852</ele>
        <time>2021-08-20T19:35:56Z</time>
      </trkpt>
      <trkpt lat="43.06469" lon="-0.45836">
        <ele>848</ele>
        <time>2021-08-20T19:36:05Z</time>
      </trkpt>
      <trkpt lat="43.06451" lon="-0.45824">
        <ele>847</ele>
        <time>2021-08-20T19:36:08Z</time>
      </trkpt>
      <trkpt lat="43.06429" lon="-0.45816">
        <ele>844</ele>
        <time>2021-08-20T19:36:12Z</time>
      </trkpt>
      <trkpt lat="43.06392" lon="-0.45809">
        <ele>841</ele>
        <time>2021-08-20T19:36:19Z</time>
      </trkpt>
      <trkpt lat="43.06371" lon="-0.45797">
        <ele>839</ele>
        <time>2021-08-20T19:36:23Z</time>
      </trkpt>
      <trkpt lat="43.06351" lon="-0.45779">
        <ele>838</ele>
        <time>2021-08-20T19:36:27Z</time>
      </trkpt>
      <trkpt lat="43.06342" lon="-0.45775">
        <ele>837</ele>
        <time>2021-08-20T19:36:29Z</time>
      </trkpt>
      <trkpt lat="43.06333" lon="-0.45776">
        <ele>836</ele>
        <time>2021-08-20T19:36:31Z</time>
      </trkpt>
      <trkpt lat="43.06308" lon="-0.45786">
        <ele>837</ele>
        <time>2021-08-20T19:36:35Z</time>
      </trkpt>
      <trkpt lat="43.06304" lon="-0.45787">
        <ele>837</ele>
        <time>2021-08-20T19:36:36Z</time>
      </trkpt>
      <trkpt lat="43.06301" lon="-0.45788">
        <ele>837</ele>
        <time>2021-08-20T19:36:37Z</time>
      </trkpt>
      <trkpt lat="43.06294" lon="-0.45789">
        <ele>837</ele>
        <time>2021-08-20T19:36:38Z</time>
      </trkpt>
      <trkpt lat="43.06282" lon="-0.45785">
        <ele>837</ele>
        <time>2021-08-20T19:36:40Z</time>
      </trkpt>
      <trkpt lat="43.06253" lon="-0.45767">
        <ele>834</ele>
        <time>2021-08-20T19:36:46Z</time>
      </trkpt>
      <trkpt lat="43.06244" lon="-0.45764">
        <ele>834</ele>
        <time>2021-08-20T19:36:47Z</time>
      </trkpt>
      <trkpt lat="43.06236" lon="-0.45761">
        <ele>833</ele>
        <time>2021-08-20T19:36:49Z</time>
      </trkpt>
      <trkpt lat="43.06195" lon="-0.4576">
        <ele>833</ele>
        <time>2021-08-20T19:36:56Z</time>
      </trkpt>
      <trkpt lat="43.06179" lon="-0.45751">
        <ele>831</ele>
        <time>2021-08-20T19:36:59Z</time>
      </trkpt>
      <trkpt lat="43.06159" lon="-0.4573">
        <ele>830</ele>
        <time>2021-08-20T19:37:04Z</time>
      </trkpt>
      <trkpt lat="43.06153" lon="-0.45721">
        <ele>830</ele>
        <time>2021-08-20T19:37:05Z</time>
      </trkpt>
      <trkpt lat="43.06151" lon="-0.45714">
        <ele>830</ele>
        <time>2021-08-20T19:37:06Z</time>
      </trkpt>
      <trkpt lat="43.06152" lon="-0.45705">
        <ele>829</ele>
        <time>2021-08-20T19:37:07Z</time>
      </trkpt>
      <trkpt lat="43.06158" lon="-0.45694">
        <ele>827</ele>
        <time>2021-08-20T19:37:09Z</time>
      </trkpt>
      <trkpt lat="43.06196" lon="-0.45667">
        <ele>823</ele>
        <time>2021-08-20T19:37:17Z</time>
      </trkpt>
      <trkpt lat="43.06209" lon="-0.45647">
        <ele>820</ele>
        <time>2021-08-20T19:37:20Z</time>
      </trkpt>
      <trkpt lat="43.06217" lon="-0.45615">
        <ele>816</ele>
        <time>2021-08-20T19:37:25Z</time>
      </trkpt>
      <trkpt lat="43.06217" lon="-0.45604">
        <ele>815</ele>
        <time>2021-08-20T19:37:26Z</time>
      </trkpt>
      <trkpt lat="43.06212" lon="-0.4559">
        <ele>814</ele>
        <time>2021-08-20T19:37:28Z</time>
      </trkpt>
      <trkpt lat="43.06206" lon="-0.45581">
        <ele>813</ele>
        <time>2021-08-20T19:37:30Z</time>
      </trkpt>
      <trkpt lat="43.0619" lon="-0.45571">
        <ele>810</ele>
        <time>2021-08-20T19:37:33Z</time>
      </trkpt>
      <trkpt lat="43.06085" lon="-0.4556">
        <ele>804</ele>
        <time>2021-08-20T19:37:52Z</time>
      </trkpt>
      <trkpt lat="43.06071" lon="-0.45556">
        <ele>802</ele>
        <time>2021-08-20T19:37:54Z</time>
      </trkpt>
      <trkpt lat="43.05957" lon="-0.45503">
        <ele>781</ele>
        <time>2021-08-20T19:38:16Z</time>
      </trkpt>
      <trkpt lat="43.05917" lon="-0.45492">
        <ele>778</ele>
        <time>2021-08-20T19:38:23Z</time>
      </trkpt>
      <trkpt lat="43.0589" lon="-0.45477">
        <ele>771</ele>
        <time>2021-08-20T19:38:28Z</time>
      </trkpt>
      <trkpt lat="43.05868" lon="-0.45476">
        <ele>768</ele>
        <time>2021-08-20T19:38:32Z</time>
      </trkpt>
      <trkpt lat="43.05862" lon="-0.45473">
        <ele>767</ele>
        <time>2021-08-20T19:38:33Z</time>
      </trkpt>
      <trkpt lat="43.05858" lon="-0.45468">
        <ele>765</ele>
        <time>2021-08-20T19:38:34Z</time>
      </trkpt>
      <trkpt lat="43.05855" lon="-0.45461">
        <ele>764</ele>
        <time>2021-08-20T19:38:35Z</time>
      </trkpt>
      <trkpt lat="43.05855" lon="-0.45451">
        <ele>762</ele>
        <time>2021-08-20T19:38:36Z</time>
      </trkpt>
      <trkpt lat="43.05857" lon="-0.45443">
        <ele>761</ele>
        <time>2021-08-20T19:38:37Z</time>
      </trkpt>
      <trkpt lat="43.05861" lon="-0.45437">
        <ele>761</ele>
        <time>2021-08-20T19:38:39Z</time>
      </trkpt>
      <trkpt lat="43.05876" lon="-0.45428">
        <ele>761</ele>
        <time>2021-08-20T19:38:41Z</time>
      </trkpt>
      <trkpt lat="43.05896" lon="-0.45425">
        <ele>761</ele>
        <time>2021-08-20T19:38:45Z</time>
      </trkpt>
      <trkpt lat="43.05938" lon="-0.45432">
        <ele>765</ele>
        <time>2021-08-20T19:38:53Z</time>
      </trkpt>
      <trkpt lat="43.05955" lon="-0.45432">
        <ele>765</ele>
        <time>2021-08-20T19:38:56Z</time>
      </trkpt>
      <trkpt lat="43.05969" lon="-0.45426">
        <ele>764</ele>
        <time>2021-08-20T19:38:58Z</time>
      </trkpt>
      <trkpt lat="43.05977" lon="-0.45419">
        <ele>763</ele>
        <time>2021-08-20T19:39:00Z</time>
      </trkpt>
      <trkpt lat="43.05982" lon="-0.45413">
        <ele>762</ele>
        <time>2021-08-20T19:39:01Z</time>
      </trkpt>
      <trkpt lat="43.05989" lon="-0.45401">
        <ele>760</ele>
        <time>2021-08-20T19:39:03Z</time>
      </trkpt>
      <trkpt lat="43.05992" lon="-0.45394">
        <ele>758</ele>
        <time>2021-08-20T19:39:04Z</time>
      </trkpt>
      <trkpt lat="43.05996" lon="-0.45386">
        <ele>757</ele>
        <time>2021-08-20T19:39:05Z</time>
      </trkpt>
      <trkpt lat="43.06004" lon="-0.4537">
        <ele>754</ele>
        <time>2021-08-20T19:39:08Z</time>
      </trkpt>
      <trkpt lat="43.06009" lon="-0.45363">
        <ele>753</ele>
        <time>2021-08-20T19:39:09Z</time>
      </trkpt>
      <trkpt lat="43.06012" lon="-0.45359">
        <ele>752</ele>
        <time>2021-08-20T19:39:10Z</time>
      </trkpt>
      <trkpt lat="43.06022" lon="-0.45351">
        <ele>751</ele>
        <time>2021-08-20T19:39:12Z</time>
      </trkpt>
      <trkpt lat="43.06038" lon="-0.45345">
        <ele>750</ele>
        <time>2021-08-20T19:39:15Z</time>
      </trkpt>
      <trkpt lat="43.06049" lon="-0.45341">
        <ele>750</ele>
        <time>2021-08-20T19:39:17Z</time>
      </trkpt>
      <trkpt lat="43.06084" lon="-0.45323">
        <ele>747</ele>
        <time>2021-08-20T19:39:24Z</time>
      </trkpt>
      <trkpt lat="43.06174" lon="-0.45254">
        <ele>738</ele>
        <time>2021-08-20T19:39:42Z</time>
      </trkpt>
      <trkpt lat="43.06185" lon="-0.45247">
        <ele>737</ele>
        <time>2021-08-20T19:39:44Z</time>
      </trkpt>
      <trkpt lat="43.06206" lon="-0.45225">
        <ele>735</ele>
        <time>2021-08-20T19:39:49Z</time>
      </trkpt>
      <trkpt lat="43.06225" lon="-0.45193">
        <ele>731</ele>
        <time>2021-08-20T19:39:54Z</time>
      </trkpt>
      <trkpt lat="43.06285" lon="-0.45069">
        <ele>724</ele>
        <time>2021-08-20T19:40:14Z</time>
      </trkpt>
      <trkpt lat="43.06289" lon="-0.45057">
        <ele>724</ele>
        <time>2021-08-20T19:40:15Z</time>
      </trkpt>
      <trkpt lat="43.06292" lon="-0.45039">
        <ele>724</ele>
        <time>2021-08-20T19:40:18Z</time>
      </trkpt>
      <trkpt lat="43.06294" lon="-0.45008">
        <ele>722</ele>
        <time>2021-08-20T19:40:22Z</time>
      </trkpt>
      <trkpt lat="43.06295" lon="-0.44994">
        <ele>722</ele>
        <time>2021-08-20T19:40:24Z</time>
      </trkpt>
      <trkpt lat="43.063" lon="-0.44937">
        <ele>721</ele>
        <time>2021-08-20T19:40:31Z</time>
      </trkpt>
      <trkpt lat="43.063" lon="-0.4492">
        <ele>720</ele>
        <time>2021-08-20T19:40:33Z</time>
      </trkpt>
      <trkpt lat="43.06296" lon="-0.44884">
        <ele>717</ele>
        <time>2021-08-20T19:40:38Z</time>
      </trkpt>
      <trkpt lat="43.06293" lon="-0.44802">
        <ele>714</ele>
        <time>2021-08-20T19:40:49Z</time>
      </trkpt>
      <trkpt lat="43.0629" lon="-0.44782">
        <ele>712</ele>
        <time>2021-08-20T19:40:51Z</time>
      </trkpt>
      <trkpt lat="43.06279" lon="-0.44738">
        <ele>707</ele>
        <time>2021-08-20T19:40:57Z</time>
      </trkpt>
      <trkpt lat="43.06262" lon="-0.44643">
        <ele>701</ele>
        <time>2021-08-20T19:41:10Z</time>
      </trkpt>
      <trkpt lat="43.06258" lon="-0.44608">
        <ele>697</ele>
        <time>2021-08-20T19:41:15Z</time>
      </trkpt>
      <trkpt lat="43.06257" lon="-0.44579">
        <ele>695</ele>
        <time>2021-08-20T19:41:18Z</time>
      </trkpt>
      <trkpt lat="43.06264" lon="-0.44436">
        <ele>688</ele>
        <time>2021-08-20T19:41:37Z</time>
      </trkpt>
      <trkpt lat="43.06261" lon="-0.44329">
        <ele>676</ele>
        <time>2021-08-20T19:41:51Z</time>
      </trkpt>
      <trkpt lat="43.0626" lon="-0.4418">
        <ele>668</ele>
        <time>2021-08-20T19:42:10Z</time>
      </trkpt>
      <trkpt lat="43.06254" lon="-0.44104">
        <ele>660</ele>
        <time>2021-08-20T19:42:20Z</time>
      </trkpt>
      <trkpt lat="43.06256" lon="-0.44086">
        <ele>659</ele>
        <time>2021-08-20T19:42:23Z</time>
      </trkpt>
      <trkpt lat="43.06264" lon="-0.44058">
        <ele>660</ele>
        <time>2021-08-20T19:42:27Z</time>
      </trkpt>
      <trkpt lat="43.06263" lon="-0.44051">
        <ele>659</ele>
        <time>2021-08-20T19:42:27Z</time>
      </trkpt>
      <trkpt lat="43.06261" lon="-0.44043">
        <ele>657</ele>
        <time>2021-08-20T19:42:29Z</time>
      </trkpt>
      <trkpt lat="43.06257" lon="-0.44038">
        <ele>654</ele>
        <time>2021-08-20T19:42:30Z</time>
      </trkpt>
      <trkpt lat="43.06251" lon="-0.44034">
        <ele>651</ele>
        <time>2021-08-20T19:42:31Z</time>
      </trkpt>
      <trkpt lat="43.06246" lon="-0.44035">
        <ele>649</ele>
        <time>2021-08-20T19:42:32Z</time>
      </trkpt>
      <trkpt lat="43.06238" lon="-0.44043">
        <ele>647</ele>
        <time>2021-08-20T19:42:33Z</time>
      </trkpt>
      <trkpt lat="43.06235" lon="-0.44049">
        <ele>646</ele>
        <time>2021-08-20T19:42:34Z</time>
      </trkpt>
      <trkpt lat="43.06234" lon="-0.44057">
        <ele>647</ele>
        <time>2021-08-20T19:42:35Z</time>
      </trkpt>
      <trkpt lat="43.06234" lon="-0.44108">
        <ele>651</ele>
        <time>2021-08-20T19:42:42Z</time>
      </trkpt>
      <trkpt lat="43.06232" lon="-0.4412">
        <ele>651</ele>
        <time>2021-08-20T19:42:44Z</time>
      </trkpt>
      <trkpt lat="43.06206" lon="-0.44209">
        <ele>646</ele>
        <time>2021-08-20T19:42:56Z</time>
      </trkpt>
      <trkpt lat="43.06183" lon="-0.44301">
        <ele>641</ele>
        <time>2021-08-20T19:43:09Z</time>
      </trkpt>
      <trkpt lat="43.0617" lon="-0.44338">
        <ele>637</ele>
        <time>2021-08-20T19:43:14Z</time>
      </trkpt>
      <trkpt lat="43.06154" lon="-0.44372">
        <ele>636</ele>
        <time>2021-08-20T19:43:19Z</time>
      </trkpt>
      <trkpt lat="43.06133" lon="-0.44406">
        <ele>634</ele>
        <time>2021-08-20T19:43:25Z</time>
      </trkpt>
      <trkpt lat="43.06108" lon="-0.4444">
        <ele>630</ele>
        <time>2021-08-20T19:43:31Z</time>
      </trkpt>
      <trkpt lat="43.06097" lon="-0.44462">
        <ele>629</ele>
        <time>2021-08-20T19:43:35Z</time>
      </trkpt>
      <trkpt lat="43.06083" lon="-0.44497">
        <ele>629</ele>
        <time>2021-08-20T19:43:40Z</time>
      </trkpt>
      <trkpt lat="43.06079" lon="-0.44504">
        <ele>628</ele>
        <time>2021-08-20T19:43:41Z</time>
      </trkpt>
      <trkpt lat="43.06074" lon="-0.44509">
        <ele>628</ele>
        <time>2021-08-20T19:43:42Z</time>
      </trkpt>
      <trkpt lat="43.06069" lon="-0.44511">
        <ele>627</ele>
        <time>2021-08-20T19:43:43Z</time>
      </trkpt>
      <trkpt lat="43.06061" lon="-0.44508">
        <ele>625</ele>
        <time>2021-08-20T19:43:45Z</time>
      </trkpt>
      <trkpt lat="43.0606" lon="-0.44503">
        <ele>624</ele>
        <time>2021-08-20T19:43:45Z</time>
      </trkpt>
      <trkpt lat="43.06059" lon="-0.44495">
        <ele>623</ele>
        <time>2021-08-20T19:43:46Z</time>
      </trkpt>
      <trkpt lat="43.06063" lon="-0.44471">
        <ele>622</ele>
        <time>2021-08-20T19:43:50Z</time>
      </trkpt>
      <trkpt lat="43.06063" lon="-0.44458">
        <ele>620</ele>
        <time>2021-08-20T19:43:51Z</time>
      </trkpt>
      <trkpt lat="43.06059" lon="-0.44407">
        <ele>614</ele>
        <time>2021-08-20T19:43:58Z</time>
      </trkpt>
      <trkpt lat="43.06062" lon="-0.44358">
        <ele>610</ele>
        <time>2021-08-20T19:44:04Z</time>
      </trkpt>
      <trkpt lat="43.06061" lon="-0.44347">
        <ele>609</ele>
        <time>2021-08-20T19:44:06Z</time>
      </trkpt>
      <trkpt lat="43.06048" lon="-0.44302">
        <ele>603</ele>
        <time>2021-08-20T19:44:12Z</time>
      </trkpt>
      <trkpt lat="43.06046" lon="-0.44288">
        <ele>602</ele>
        <time>2021-08-20T19:44:14Z</time>
      </trkpt>
      <trkpt lat="43.06045" lon="-0.44276">
        <ele>601</ele>
        <time>2021-08-20T19:44:15Z</time>
      </trkpt>
      <trkpt lat="43.06054" lon="-0.44216">
        <ele>598</ele>
        <time>2021-08-20T19:44:23Z</time>
      </trkpt>
      <trkpt lat="43.06053" lon="-0.44177">
        <ele>593</ele>
        <time>2021-08-20T19:44:29Z</time>
      </trkpt>
      <trkpt lat="43.06056" lon="-0.44141">
        <ele>591</ele>
        <time>2021-08-20T19:44:33Z</time>
      </trkpt>
      <trkpt lat="43.06055" lon="-0.44117">
        <ele>589</ele>
        <time>2021-08-20T19:44:36Z</time>
      </trkpt>
      <trkpt lat="43.0605" lon="-0.44089">
        <ele>585</ele>
        <time>2021-08-20T19:44:40Z</time>
      </trkpt>
      <trkpt lat="43.06037" lon="-0.44035">
        <ele>578</ele>
        <time>2021-08-20T19:44:48Z</time>
      </trkpt>
      <trkpt lat="43.06036" lon="-0.44018">
        <ele>577</ele>
        <time>2021-08-20T19:44:50Z</time>
      </trkpt>
      <trkpt lat="43.0604" lon="-0.4396">
        <ele>575</ele>
        <time>2021-08-20T19:44:57Z</time>
      </trkpt>
      <trkpt lat="43.06043" lon="-0.43947">
        <ele>575</ele>
        <time>2021-08-20T19:44:59Z</time>
      </trkpt>
      <trkpt lat="43.06054" lon="-0.43921">
        <ele>575</ele>
        <time>2021-08-20T19:45:03Z</time>
      </trkpt>
      <trkpt lat="43.06064" lon="-0.43908">
        <ele>575</ele>
        <time>2021-08-20T19:45:05Z</time>
      </trkpt>
      <trkpt lat="43.06119" lon="-0.4385">
        <ele>572</ele>
        <time>2021-08-20T19:45:18Z</time>
      </trkpt>
      <trkpt lat="43.06148" lon="-0.43808">
        <ele>568</ele>
        <time>2021-08-20T19:45:25Z</time>
      </trkpt>
      <trkpt lat="43.06167" lon="-0.43787">
        <ele>568</ele>
        <time>2021-08-20T19:45:30Z</time>
      </trkpt>
      <trkpt lat="43.06172" lon="-0.43775">
        <ele>567</ele>
        <time>2021-08-20T19:45:31Z</time>
      </trkpt>
      <trkpt lat="43.06172" lon="-0.43767">
        <ele>565</ele>
        <time>2021-08-20T19:45:32Z</time>
      </trkpt>
      <trkpt lat="43.06168" lon="-0.43761">
        <ele>563</ele>
        <time>2021-08-20T19:45:34Z</time>
      </trkpt>
      <trkpt lat="43.06164" lon="-0.43758">
        <ele>561</ele>
        <time>2021-08-20T19:45:34Z</time>
      </trkpt>
      <trkpt lat="43.06155" lon="-0.43757">
        <ele>559</ele>
        <time>2021-08-20T19:45:36Z</time>
      </trkpt>
      <trkpt lat="43.06123" lon="-0.43782">
        <ele>559</ele>
        <time>2021-08-20T19:45:43Z</time>
      </trkpt>
      <trkpt lat="43.06104" lon="-0.4379">
        <ele>557</ele>
        <time>2021-08-20T19:45:46Z</time>
      </trkpt>
      <trkpt lat="43.06085" lon="-0.43793">
        <ele>554</ele>
        <time>2021-08-20T19:45:49Z</time>
      </trkpt>
      <trkpt lat="43.06051" lon="-0.43793">
        <ele>549</ele>
        <time>2021-08-20T19:45:55Z</time>
      </trkpt>
      <trkpt lat="43.05938" lon="-0.43811">
        <ele>531</ele>
        <time>2021-08-20T19:46:16Z</time>
      </trkpt>
      <trkpt lat="43.05912" lon="-0.43822">
        <ele>527</ele>
        <time>2021-08-20T19:46:21Z</time>
      </trkpt>
      <trkpt lat="43.05898" lon="-0.4384">
        <ele>526</ele>
        <time>2021-08-20T19:46:24Z</time>
      </trkpt>
      <trkpt lat="43.05874" lon="-0.43892">
        <ele>525</ele>
        <time>2021-08-20T19:46:32Z</time>
      </trkpt>
      <trkpt lat="43.05847" lon="-0.43934">
        <ele>520</ele>
        <time>2021-08-20T19:46:39Z</time>
      </trkpt>
      <trkpt lat="43.05803" lon="-0.43985">
        <ele>517</ele>
        <time>2021-08-20T19:46:50Z</time>
      </trkpt>
      <trkpt lat="43.0579" lon="-0.43992">
        <ele>515</ele>
        <time>2021-08-20T19:46:52Z</time>
      </trkpt>
      <trkpt lat="43.05784" lon="-0.43994">
        <ele>514</ele>
        <time>2021-08-20T19:46:53Z</time>
      </trkpt>
      <trkpt lat="43.05775" lon="-0.43991">
        <ele>512</ele>
        <time>2021-08-20T19:46:55Z</time>
      </trkpt>
      <trkpt lat="43.05768" lon="-0.43988">
        <ele>511</ele>
        <time>2021-08-20T19:46:56Z</time>
      </trkpt>
      <trkpt lat="43.05762" lon="-0.43982">
        <ele>509</ele>
        <time>2021-08-20T19:46:57Z</time>
      </trkpt>
      <trkpt lat="43.05757" lon="-0.43974">
        <ele>507</ele>
        <time>2021-08-20T19:46:59Z</time>
      </trkpt>
      <trkpt lat="43.05754" lon="-0.43965">
        <ele>505</ele>
        <time>2021-08-20T19:47:00Z</time>
      </trkpt>
      <trkpt lat="43.05749" lon="-0.43937">
        <ele>501</ele>
        <time>2021-08-20T19:47:04Z</time>
      </trkpt>
      <trkpt lat="43.05744" lon="-0.43887">
        <ele>496</ele>
        <time>2021-08-20T19:47:10Z</time>
      </trkpt>
      <trkpt lat="43.05724" lon="-0.43784">
        <ele>488</ele>
        <time>2021-08-20T19:47:24Z</time>
      </trkpt>
      <trkpt lat="43.0572" lon="-0.43742">
        <ele>486</ele>
        <time>2021-08-20T19:47:30Z</time>
      </trkpt>
      <trkpt lat="43.05721" lon="-0.43705">
        <ele>488</ele>
        <time>2021-08-20T19:47:35Z</time>
      </trkpt>
      <trkpt lat="43.05723" lon="-0.43694">
        <ele>489</ele>
        <time>2021-08-20T19:47:36Z</time>
      </trkpt>
      <trkpt lat="43.05731" lon="-0.43671">
        <ele>492</ele>
        <time>2021-08-20T19:47:39Z</time>
      </trkpt>
      <trkpt lat="43.05748" lon="-0.43628">
        <ele>489</ele>
        <time>2021-08-20T19:47:46Z</time>
      </trkpt>
      <trkpt lat="43.05787" lon="-0.43538">
        <ele>474</ele>
        <time>2021-08-20T19:47:59Z</time>
      </trkpt>
      <trkpt lat="43.05798" lon="-0.43487">
        <ele>467</ele>
        <time>2021-08-20T19:48:06Z</time>
      </trkpt>
      <trkpt lat="43.0581" lon="-0.43321">
        <ele>460</ele>
        <time>2021-08-20T19:48:28Z</time>
      </trkpt>
      <trkpt lat="43.05812" lon="-0.43233">
        <ele>457</ele>
        <time>2021-08-20T19:48:39Z</time>
      </trkpt>
      <trkpt lat="43.05806" lon="-0.43112">
        <ele>453</ele>
        <time>2021-08-20T19:48:55Z</time>
      </trkpt>
      <trkpt lat="43.05801" lon="-0.43065">
        <ele>451</ele>
        <time>2021-08-20T19:49:01Z</time>
      </trkpt>
      <trkpt lat="43.05794" lon="-0.4304">
        <ele>451</ele>
        <time>2021-08-20T19:49:05Z</time>
      </trkpt>
      <trkpt lat="43.05776" lon="-0.43001">
        <ele>450</ele>
        <time>2021-08-20T19:49:11Z</time>
      </trkpt>
      <trkpt lat="43.05758" lon="-0.42982">
        <ele>450</ele>
        <time>2021-08-20T19:49:15Z</time>
      </trkpt>
      <trkpt lat="43.05776" lon="-0.42965">
        <ele>449</ele>
        <time>2021-08-20T19:49:19Z</time>
      </trkpt>
      <trkpt lat="43.05776" lon="-0.43001">
        <ele>450</ele>
        <time>2021-08-20T19:49:23Z</time>
      </trkpt>
      <trkpt lat="43.05758" lon="-0.42982">
        <ele>450</ele>
        <time>2021-08-20T19:49:27Z</time>
      </trkpt>
      <trkpt lat="43.05694" lon="-0.43043">
        <ele>453</ele>
        <time>2021-08-20T19:49:41Z</time>
      </trkpt>
      <trkpt lat="43.05674" lon="-0.43057">
        <ele>454</ele>
        <time>2021-08-20T19:49:45Z</time>
      </trkpt>
      <trkpt lat="43.05603" lon="-0.431">
        <ele>455</ele>
        <time>2021-08-20T19:49:59Z</time>
      </trkpt>
      <trkpt lat="43.05524" lon="-0.43138">
        <ele>455</ele>
        <time>2021-08-20T19:50:14Z</time>
      </trkpt>
      <trkpt lat="43.05512" lon="-0.43142">
        <ele>455</ele>
        <time>2021-08-20T19:50:16Z</time>
      </trkpt>
      <trkpt lat="43.05495" lon="-0.43141">
        <ele>455</ele>
        <time>2021-08-20T19:50:19Z</time>
      </trkpt>
      <trkpt lat="43.05422" lon="-0.43124">
        <ele>454</ele>
        <time>2021-08-20T19:50:32Z</time>
      </trkpt>
      <trkpt lat="43.05386" lon="-0.43114">
        <ele>453</ele>
        <time>2021-08-20T19:50:39Z</time>
      </trkpt>
      <trkpt lat="43.0532" lon="-0.43102">
        <ele>451</ele>
        <time>2021-08-20T19:50:51Z</time>
      </trkpt>
      <trkpt lat="43.05201" lon="-0.43074">
        <ele>449</ele>
        <time>2021-08-20T19:51:12Z</time>
      </trkpt>
      <trkpt lat="43.04814" lon="-0.42967">
        <ele>444</ele>
        <time>2021-08-20T19:52:22Z</time>
      </trkpt>
      <trkpt lat="43.04715" lon="-0.42928">
        <ele>443</ele>
        <time>2021-08-20T19:52:41Z</time>
      </trkpt>
      <trkpt lat="43.0466" lon="-0.42897">
        <ele>443</ele>
        <time>2021-08-20T19:52:51Z</time>
      </trkpt>
      <trkpt lat="43.04511" lon="-0.42766">
        <ele>443</ele>
        <time>2021-08-20T19:53:23Z</time>
      </trkpt>
      <trkpt lat="43.04446" lon="-0.42722">
        <ele>444</ele>
        <time>2021-08-20T19:53:36Z</time>
      </trkpt>
      <trkpt lat="43.0437" lon="-0.42667">
        <ele>442</ele>
        <time>2021-08-20T19:53:51Z</time>
      </trkpt>
      <trkpt lat="43.04364" lon="-0.42662">
        <ele>442</ele>
        <time>2021-08-20T19:53:52Z</time>
      </trkpt>
      <trkpt lat="43.0434" lon="-0.42645">
        <ele>442</ele>
        <time>2021-08-20T19:53:57Z</time>
      </trkpt>
      <trkpt lat="43.04201" lon="-0.42574">
        <ele>443</ele>
        <time>2021-08-20T19:54:24Z</time>
      </trkpt>
      <trkpt lat="43.03928" lon="-0.42485">
        <ele>448</ele>
        <time>2021-08-20T19:55:14Z</time>
      </trkpt>
      <trkpt lat="43.03865" lon="-0.42458">
        <ele>449</ele>
        <time>2021-08-20T19:55:25Z</time>
      </trkpt>
      <trkpt lat="43.03814" lon="-0.42433">
        <ele>450</ele>
        <time>2021-08-20T19:55:35Z</time>
      </trkpt>
      <trkpt lat="43.03739" lon="-0.42395">
        <ele>450</ele>
        <time>2021-08-20T19:55:49Z</time>
      </trkpt>
      <trkpt lat="43.03731" lon="-0.42391">
        <ele>451</ele>
        <time>2021-08-20T19:55:51Z</time>
      </trkpt>
      <trkpt lat="43.03726" lon="-0.42389">
        <ele>451</ele>
        <time>2021-08-20T19:55:52Z</time>
      </trkpt>
      <trkpt lat="43.03711" lon="-0.42374">
        <ele>451</ele>
        <time>2021-08-20T19:55:55Z</time>
      </trkpt>
      <trkpt lat="43.03707" lon="-0.42372">
        <ele>451</ele>
        <time>2021-08-20T19:55:56Z</time>
      </trkpt>
      <trkpt lat="43.03697" lon="-0.42369">
        <ele>452</ele>
        <time>2021-08-20T19:55:57Z</time>
      </trkpt>
      <trkpt lat="43.0369" lon="-0.42359">
        <ele>452</ele>
        <time>2021-08-20T19:55:59Z</time>
      </trkpt>
      <trkpt lat="43.03688" lon="-0.42351">
        <ele>452</ele>
        <time>2021-08-20T19:56:00Z</time>
      </trkpt>
      <trkpt lat="43.03688" lon="-0.42341">
        <ele>451</ele>
        <time>2021-08-20T19:56:02Z</time>
      </trkpt>
      <trkpt lat="43.03665" lon="-0.42313">
        <ele>451</ele>
        <time>2021-08-20T19:56:07Z</time>
      </trkpt>
      <trkpt lat="43.03629" lon="-0.42297">
        <ele>451</ele>
        <time>2021-08-20T19:56:14Z</time>
      </trkpt>
      <trkpt lat="43.03361" lon="-0.42203">
        <ele>454</ele>
        <time>2021-08-20T19:57:03Z</time>
      </trkpt>
      <trkpt lat="43.03314" lon="-0.42192">
        <ele>453</ele>
        <time>2021-08-20T19:57:12Z</time>
      </trkpt>
      <trkpt lat="43.03259" lon="-0.42183">
        <ele>453</ele>
        <time>2021-08-20T19:57:21Z</time>
      </trkpt>
      <trkpt lat="43.03138" lon="-0.42177">
        <ele>455</ele>
        <time>2021-08-20T19:57:43Z</time>
      </trkpt>
      <trkpt lat="43.03016" lon="-0.42175">
        <ele>454</ele>
        <time>2021-08-20T19:58:05Z</time>
      </trkpt>
      <trkpt lat="43.02886" lon="-0.42167">
        <ele>455</ele>
        <time>2021-08-20T19:58:28Z</time>
      </trkpt>
      <trkpt lat="43.02576" lon="-0.42153">
        <ele>461</ele>
        <time>2021-08-20T19:59:23Z</time>
      </trkpt>
      <trkpt lat="43.02497" lon="-0.42152">
        <ele>461</ele>
        <time>2021-08-20T19:59:37Z</time>
      </trkpt>
      <trkpt lat="43.02489" lon="-0.42152">
        <ele>461</ele>
        <time>2021-08-20T19:59:39Z</time>
      </trkpt>
      <trkpt lat="43.02456" lon="-0.42155">
        <ele>461</ele>
        <time>2021-08-20T19:59:44Z</time>
      </trkpt>
      <trkpt lat="43.02421" lon="-0.4217">
        <ele>462</ele>
        <time>2021-08-20T19:59:51Z</time>
      </trkpt>
      <trkpt lat="43.02415" lon="-0.42176">
        <ele>462</ele>
        <time>2021-08-20T19:59:52Z</time>
      </trkpt>
      <trkpt lat="43.02413" lon="-0.42184">
        <ele>462</ele>
        <time>2021-08-20T19:59:53Z</time>
      </trkpt>
      <trkpt lat="43.02409" lon="-0.4219">
        <ele>462</ele>
        <time>2021-08-20T19:59:54Z</time>
      </trkpt>
      <trkpt lat="43.02404" lon="-0.42195">
        <ele>462</ele>
        <time>2021-08-20T19:59:56Z</time>
      </trkpt>
      <trkpt lat="43.02398" lon="-0.42197">
        <ele>462</ele>
        <time>2021-08-20T19:59:57Z</time>
      </trkpt>
      <trkpt lat="43.02392" lon="-0.42196">
        <ele>462</ele>
        <time>2021-08-20T19:59:58Z</time>
      </trkpt>
      <trkpt lat="43.02387" lon="-0.42194">
        <ele>462</ele>
        <time>2021-08-20T19:59:59Z</time>
      </trkpt>
      <trkpt lat="43.02383" lon="-0.4219">
        <ele>462</ele>
        <time>2021-08-20T19:59:59Z</time>
      </trkpt>
      <trkpt lat="43.0238" lon="-0.42185">
        <ele>461</ele>
        <time>2021-08-20T20:00:00Z</time>
      </trkpt>
      <trkpt lat="43.02349" lon="-0.42187">
        <ele>461</ele>
        <time>2021-08-20T20:00:06Z</time>
      </trkpt>
      <trkpt lat="43.02296" lon="-0.4219">
        <ele>460</ele>
        <time>2021-08-20T20:00:15Z</time>
      </trkpt>
      <trkpt lat="43.02044" lon="-0.42283">
        <ele>463</ele>
        <time>2021-08-20T20:01:02Z</time>
      </trkpt>
      <trkpt lat="43.01968" lon="-0.423">
        <ele>465</ele>
        <time>2021-08-20T20:01:15Z</time>
      </trkpt>
      <trkpt lat="43.01872" lon="-0.42316">
        <ele>468</ele>
        <time>2021-08-20T20:01:33Z</time>
      </trkpt>
      <trkpt lat="43.01843" lon="-0.42317">
        <ele>469</ele>
        <time>2021-08-20T20:01:38Z</time>
      </trkpt>
      <trkpt lat="43.01544" lon="-0.42297">
        <ele>478</ele>
        <time>2021-08-20T20:02:31Z</time>
      </trkpt>
      <trkpt lat="43.01513" lon="-0.42298">
        <ele>478</ele>
        <time>2021-08-20T20:02:37Z</time>
      </trkpt>
      <trkpt lat="43.01499" lon="-0.42299">
        <ele>479</ele>
        <time>2021-08-20T20:02:39Z</time>
      </trkpt>
      <trkpt lat="43.01421" lon="-0.42307">
        <ele>476</ele>
        <time>2021-08-20T20:02:53Z</time>
      </trkpt>
      <trkpt lat="43.01275" lon="-0.42305">
        <ele>474</ele>
        <time>2021-08-20T20:03:19Z</time>
      </trkpt>
      <trkpt lat="43.01217" lon="-0.42298">
        <ele>476</ele>
        <time>2021-08-20T20:03:29Z</time>
      </trkpt>
      <trkpt lat="43.0119" lon="-0.4229">
        <ele>476</ele>
        <time>2021-08-20T20:03:34Z</time>
      </trkpt>
      <trkpt lat="43.01151" lon="-0.42275">
        <ele>475</ele>
        <time>2021-08-20T20:03:41Z</time>
      </trkpt>
      <trkpt lat="43.00996" lon="-0.42201">
        <ele>477</ele>
        <time>2021-08-20T20:04:11Z</time>
      </trkpt>
      <trkpt lat="43.00901" lon="-0.42139">
        <ele>483</ele>
        <time>2021-08-20T20:04:29Z</time>
      </trkpt>
      <trkpt lat="43.0085" lon="-0.42112">
        <ele>486</ele>
        <time>2021-08-20T20:04:39Z</time>
      </trkpt>
      <trkpt lat="43.0083" lon="-0.42104">
        <ele>486</ele>
        <time>2021-08-20T20:04:43Z</time>
      </trkpt>
      <trkpt lat="43.00858" lon="-0.42142">
        <ele>492</ele>
        <time>2021-08-20T20:04:50Z</time>
      </trkpt>
      <trkpt lat="43.00883" lon="-0.42171">
        <ele>493</ele>
        <time>2021-08-20T20:04:56Z</time>
      </trkpt>
      <trkpt lat="43.0091" lon="-0.42197">
        <ele>495</ele>
        <time>2021-08-20T20:05:02Z</time>
      </trkpt>
      <trkpt lat="43.0091" lon="-0.42204">
        <ele>497</ele>
        <time>2021-08-20T20:05:02Z</time>
      </trkpt>
      <trkpt lat="43.00908" lon="-0.42208">
        <ele>499</ele>
        <time>2021-08-20T20:05:03Z</time>
      </trkpt>
      <trkpt lat="43.00903" lon="-0.42206">
        <ele>501</ele>
        <time>2021-08-20T20:05:04Z</time>
      </trkpt>
      <trkpt lat="43.00891" lon="-0.42195">
        <ele>500</ele>
        <time>2021-08-20T20:05:07Z</time>
      </trkpt>
      <trkpt lat="43.00873" lon="-0.42183">
        <ele>501</ele>
        <time>2021-08-20T20:05:10Z</time>
      </trkpt>
      <trkpt lat="43.00838" lon="-0.42156">
        <ele>500</ele>
        <time>2021-08-20T20:05:17Z</time>
      </trkpt>
      <trkpt lat="43.00808" lon="-0.4214">
        <ele>501</ele>
        <time>2021-08-20T20:05:23Z</time>
      </trkpt>
      <trkpt lat="43.00773" lon="-0.42125">
        <ele>501</ele>
        <time>2021-08-20T20:05:30Z</time>
      </trkpt>
      <trkpt lat="43.00727" lon="-0.42122">
        <ele>504</ele>
        <time>2021-08-20T20:05:38Z</time>
      </trkpt>
      <trkpt lat="43.00773" lon="-0.42125">
        <ele>501</ele>
        <time>2021-08-20T20:05:46Z</time>
      </trkpt>
      <trkpt lat="43.00808" lon="-0.4214">
        <ele>501</ele>
        <time>2021-08-20T20:05:52Z</time>
      </trkpt>
      <trkpt lat="43.00838" lon="-0.42156">
        <ele>500</ele>
        <time>2021-08-20T20:05:58Z</time>
      </trkpt>
      <trkpt lat="43.00873" lon="-0.42183">
        <ele>501</ele>
        <time>2021-08-20T20:06:05Z</time>
      </trkpt>
      <trkpt lat="43.00891" lon="-0.42195">
        <ele>500</ele>
        <time>2021-08-20T20:06:09Z</time>
      </trkpt>
      <trkpt lat="43.00903" lon="-0.42206">
        <ele>501</ele>
        <time>2021-08-20T20:06:11Z</time>
      </trkpt>
      <trkpt lat="43.00908" lon="-0.42208">
        <ele>499</ele>
        <time>2021-08-20T20:06:12Z</time>
      </trkpt>
      <trkpt lat="43.0091" lon="-0.42204">
        <ele>497</ele>
        <time>2021-08-20T20:06:13Z</time>
      </trkpt>
      <trkpt lat="43.0091" lon="-0.42197">
        <ele>495</ele>
        <time>2021-08-20T20:06:14Z</time>
      </trkpt>
      <trkpt lat="43.00883" lon="-0.42171">
        <ele>493</ele>
        <time>2021-08-20T20:06:20Z</time>
      </trkpt>
      <trkpt lat="43.00858" lon="-0.42142">
        <ele>492</ele>
        <time>2021-08-20T20:06:26Z</time>
      </trkpt>
      <trkpt lat="43.0083" lon="-0.42104">
        <ele>486</ele>
        <time>2021-08-20T20:06:33Z</time>
      </trkpt>
      <trkpt lat="43.00801" lon="-0.42094">
        <ele>486</ele>
        <time>2021-08-20T20:06:38Z</time>
      </trkpt>
      <trkpt lat="43.00749" lon="-0.42085">
        <ele>488</ele>
        <time>2021-08-20T20:06:47Z</time>
      </trkpt>
      <trkpt lat="43.00722" lon="-0.42084">
        <ele>487</ele>
        <time>2021-08-20T20:06:52Z</time>
      </trkpt>
      <trkpt lat="43.00676" lon="-0.42092">
        <ele>490</ele>
        <time>2021-08-20T20:07:00Z</time>
      </trkpt>
      <trkpt lat="43.0065" lon="-0.42102">
        <ele>493</ele>
        <time>2021-08-20T20:07:05Z</time>
      </trkpt>
      <trkpt lat="43.00578" lon="-0.42142">
        <ele>494</ele>
        <time>2021-08-20T20:07:19Z</time>
      </trkpt>
      <trkpt lat="43.00533" lon="-0.42155">
        <ele>494</ele>
        <time>2021-08-20T20:07:27Z</time>
      </trkpt>
      <trkpt lat="43.00497" lon="-0.42154">
        <ele>490</ele>
        <time>2021-08-20T20:07:34Z</time>
      </trkpt>
      <trkpt lat="43.00462" lon="-0.42145">
        <ele>485</ele>
        <time>2021-08-20T20:07:40Z</time>
      </trkpt>
      <trkpt lat="43.00427" lon="-0.42127">
        <ele>481</ele>
        <time>2021-08-20T20:07:47Z</time>
      </trkpt>
      <trkpt lat="43.00407" lon="-0.42118">
        <ele>481</ele>
        <time>2021-08-20T20:07:50Z</time>
      </trkpt>
      <trkpt lat="43.00387" lon="-0.42108">
        <ele>481</ele>
        <time>2021-08-20T20:07:54Z</time>
      </trkpt>
      <trkpt lat="43.00289" lon="-0.42049">
        <ele>482</ele>
        <time>2021-08-20T20:08:13Z</time>
      </trkpt>
      <trkpt lat="43.00222" lon="-0.42017">
        <ele>485</ele>
        <time>2021-08-20T20:08:26Z</time>
      </trkpt>
      <trkpt lat="43.00193" lon="-0.4201">
        <ele>487</ele>
        <time>2021-08-20T20:08:31Z</time>
      </trkpt>
      <trkpt lat="43.00174" lon="-0.42009">
        <ele>489</ele>
        <time>2021-08-20T20:08:34Z</time>
      </trkpt>
      <trkpt lat="43.00157" lon="-0.42009">
        <ele>489</ele>
        <time>2021-08-20T20:08:37Z</time>
      </trkpt>
      <trkpt lat="43.00137" lon="-0.42011">
        <ele>487</ele>
        <time>2021-08-20T20:08:41Z</time>
      </trkpt>
      <trkpt lat="43.00111" lon="-0.42017">
        <ele>486</ele>
        <time>2021-08-20T20:08:46Z</time>
      </trkpt>
      <trkpt lat="43.00085" lon="-0.42026">
        <ele>486</ele>
        <time>2021-08-20T20:08:51Z</time>
      </trkpt>
      <trkpt lat="42.99944" lon="-0.42088">
        <ele>488</ele>
        <time>2021-08-20T20:09:17Z</time>
      </trkpt>
      <trkpt lat="42.99732" lon="-0.42176">
        <ele>487</ele>
        <time>2021-08-20T20:09:56Z</time>
      </trkpt>
      <trkpt lat="42.99653" lon="-0.42195">
        <ele>490</ele>
        <time>2021-08-20T20:10:11Z</time>
      </trkpt>
      <trkpt lat="42.99416" lon="-0.42224">
        <ele>498</ele>
        <time>2021-08-20T20:10:53Z</time>
      </trkpt>
      <trkpt lat="42.99323" lon="-0.42234">
        <ele>498</ele>
        <time>2021-08-20T20:11:09Z</time>
      </trkpt>
      <trkpt lat="42.99302" lon="-0.42243">
        <ele>499</ele>
        <time>2021-08-20T20:11:13Z</time>
      </trkpt>
      <trkpt lat="42.99237" lon="-0.42328">
        <ele>510</ele>
        <time>2021-08-20T20:11:29Z</time>
      </trkpt>
      <trkpt lat="42.99169" lon="-0.42422">
        <ele>514</ele>
        <time>2021-08-20T20:11:47Z</time>
      </trkpt>
      <trkpt lat="42.99156" lon="-0.42434">
        <ele>515</ele>
        <time>2021-08-20T20:11:49Z</time>
      </trkpt>
      <trkpt lat="42.99012" lon="-0.42516">
        <ele>520</ele>
        <time>2021-08-20T20:12:17Z</time>
      </trkpt>
      <trkpt lat="42.98937" lon="-0.42588">
        <ele>524</ele>
        <time>2021-08-20T20:12:33Z</time>
      </trkpt>
      <trkpt lat="42.98909" lon="-0.42624">
        <ele>525</ele>
        <time>2021-08-20T20:12:40Z</time>
      </trkpt>
      <trkpt lat="42.98878" lon="-0.42646">
        <ele>526</ele>
        <time>2021-08-20T20:12:47Z</time>
      </trkpt>
      <trkpt lat="42.9886" lon="-0.42656">
        <ele>527</ele>
        <time>2021-08-20T20:12:50Z</time>
      </trkpt>
      <trkpt lat="42.98845" lon="-0.42657">
        <ele>527</ele>
        <time>2021-08-20T20:12:53Z</time>
      </trkpt>
      <trkpt lat="42.98828" lon="-0.42654">
        <ele>527</ele>
        <time>2021-08-20T20:12:56Z</time>
      </trkpt>
      <trkpt lat="42.98819" lon="-0.42651">
        <ele>527</ele>
        <time>2021-08-20T20:12:57Z</time>
      </trkpt>
      <trkpt lat="42.9881" lon="-0.42644">
        <ele>526</ele>
        <time>2021-08-20T20:12:59Z</time>
      </trkpt>
      <trkpt lat="42.98808" lon="-0.42645">
        <ele>527</ele>
        <time>2021-08-20T20:13:00Z</time>
      </trkpt>
      <trkpt lat="42.98805" lon="-0.42645">
        <ele>527</ele>
        <time>2021-08-20T20:13:00Z</time>
      </trkpt>
      <trkpt lat="42.98802" lon="-0.42644">
        <ele>526</ele>
        <time>2021-08-20T20:13:01Z</time>
      </trkpt>
      <trkpt lat="42.98788" lon="-0.42654">
        <ele>527</ele>
        <time>2021-08-20T20:13:03Z</time>
      </trkpt>
      <trkpt lat="42.98776" lon="-0.42664">
        <ele>528</ele>
        <time>2021-08-20T20:13:06Z</time>
      </trkpt>
      <trkpt lat="42.98772" lon="-0.42668">
        <ele>528</ele>
        <time>2021-08-20T20:13:07Z</time>
      </trkpt>
      <trkpt lat="42.98742" lon="-0.42691">
        <ele>529</ele>
        <time>2021-08-20T20:13:13Z</time>
      </trkpt>
      <trkpt lat="42.98736" lon="-0.42695">
        <ele>529</ele>
        <time>2021-08-20T20:13:14Z</time>
      </trkpt>
      <trkpt lat="42.98705" lon="-0.42718">
        <ele>530</ele>
        <time>2021-08-20T20:13:20Z</time>
      </trkpt>
      <trkpt lat="42.98693" lon="-0.42732">
        <ele>530</ele>
        <time>2021-08-20T20:13:23Z</time>
      </trkpt>
      <trkpt lat="42.98687" lon="-0.42744">
        <ele>530</ele>
        <time>2021-08-20T20:13:25Z</time>
      </trkpt>
      <trkpt lat="42.98683" lon="-0.42757">
        <ele>531</ele>
        <time>2021-08-20T20:13:27Z</time>
      </trkpt>
      <trkpt lat="42.98677" lon="-0.42778">
        <ele>532</ele>
        <time>2021-08-20T20:13:30Z</time>
      </trkpt>
      <trkpt lat="42.98674" lon="-0.42782">
        <ele>532</ele>
        <time>2021-08-20T20:13:31Z</time>
      </trkpt>
      <trkpt lat="42.98657" lon="-0.42789">
        <ele>532</ele>
        <time>2021-08-20T20:13:34Z</time>
      </trkpt>
      <trkpt lat="42.98581" lon="-0.42816">
        <ele>530</ele>
        <time>2021-08-20T20:13:48Z</time>
      </trkpt>
      <trkpt lat="42.9858" lon="-0.42816">
        <ele>530</ele>
        <time>2021-08-20T20:13:48Z</time>
      </trkpt>
      <trkpt lat="42.98574" lon="-0.42818">
        <ele>529</ele>
        <time>2021-08-20T20:13:49Z</time>
      </trkpt>
      <trkpt lat="42.98554" lon="-0.42726">
        <ele>526</ele>
        <time>2021-08-20T20:14:02Z</time>
      </trkpt>
      <trkpt lat="42.98545" lon="-0.42729">
        <ele>526</ele>
        <time>2021-08-20T20:14:03Z</time>
      </trkpt>
      <trkpt lat="42.98516" lon="-0.42742">
        <ele>525</ele>
        <time>2021-08-20T20:14:09Z</time>
      </trkpt>
      <trkpt lat="42.98507" lon="-0.42745">
        <ele>524</ele>
        <time>2021-08-20T20:14:10Z</time>
      </trkpt>
      <trkpt lat="42.98493" lon="-0.42751">
        <ele>524</ele>
        <time>2021-08-20T20:14:13Z</time>
      </trkpt>
      <trkpt lat="42.9848" lon="-0.42757">
        <ele>523</ele>
        <time>2021-08-20T20:14:15Z</time>
      </trkpt>
      <trkpt lat="42.98472" lon="-0.42761">
        <ele>523</ele>
        <time>2021-08-20T20:14:17Z</time>
      </trkpt>
      <trkpt lat="42.98438" lon="-0.42775">
        <ele>522</ele>
        <time>2021-08-20T20:14:23Z</time>
      </trkpt>
      <trkpt lat="42.98397" lon="-0.42793">
        <ele>522</ele>
        <time>2021-08-20T20:14:31Z</time>
      </trkpt>
      <trkpt lat="42.98377" lon="-0.42798">
        <ele>522</ele>
        <time>2021-08-20T20:14:34Z</time>
      </trkpt>
      <trkpt lat="42.98362" lon="-0.42796">
        <ele>522</ele>
        <time>2021-08-20T20:14:37Z</time>
      </trkpt>
      <trkpt lat="42.98353" lon="-0.42793">
        <ele>522</ele>
        <time>2021-08-20T20:14:39Z</time>
      </trkpt>
      <trkpt lat="42.98347" lon="-0.42789">
        <ele>522</ele>
        <time>2021-08-20T20:14:40Z</time>
      </trkpt>
      <trkpt lat="42.98275" lon="-0.42706">
        <ele>527</ele>
        <time>2021-08-20T20:14:57Z</time>
      </trkpt>
      <trkpt lat="42.98264" lon="-0.42689">
        <ele>526</ele>
        <time>2021-08-20T20:15:00Z</time>
      </trkpt>
      <trkpt lat="42.98214" lon="-0.42573">
        <ele>525</ele>
        <time>2021-08-20T20:15:17Z</time>
      </trkpt>
      <trkpt lat="42.98207" lon="-0.42551">
        <ele>524</ele>
        <time>2021-08-20T20:15:20Z</time>
      </trkpt>
      <trkpt lat="42.9819" lon="-0.4243">
        <ele>519</ele>
        <time>2021-08-20T20:15:36Z</time>
      </trkpt>
      <trkpt lat="42.98179" lon="-0.42313">
        <ele>516</ele>
        <time>2021-08-20T20:15:52Z</time>
      </trkpt>
      <trkpt lat="42.98134" lon="-0.42119">
        <ele>510</ele>
        <time>2021-08-20T20:16:18Z</time>
      </trkpt>
      <trkpt lat="42.98122" lon="-0.42094">
        <ele>509</ele>
        <time>2021-08-20T20:16:22Z</time>
      </trkpt>
      <trkpt lat="42.98112" lon="-0.42087">
        <ele>509</ele>
        <time>2021-08-20T20:16:24Z</time>
      </trkpt>
      <trkpt lat="42.98102" lon="-0.42083">
        <ele>509</ele>
        <time>2021-08-20T20:16:26Z</time>
      </trkpt>
      <trkpt lat="42.9802" lon="-0.4207">
        <ele>508</ele>
        <time>2021-08-20T20:16:41Z</time>
      </trkpt>
      <trkpt lat="42.97976" lon="-0.42062">
        <ele>510</ele>
        <time>2021-08-20T20:16:49Z</time>
      </trkpt>
      <trkpt lat="42.9797" lon="-0.42061">
        <ele>510</ele>
        <time>2021-08-20T20:16:50Z</time>
      </trkpt>
      <trkpt lat="42.97946" lon="-0.42057">
        <ele>512</ele>
        <time>2021-08-20T20:16:54Z</time>
      </trkpt>
      <trkpt lat="42.97934" lon="-0.4205">
        <ele>512</ele>
        <time>2021-08-20T20:16:56Z</time>
      </trkpt>
      <trkpt lat="42.97922" lon="-0.42035">
        <ele>512</ele>
        <time>2021-08-20T20:16:59Z</time>
      </trkpt>
      <trkpt lat="42.97904" lon="-0.41993">
        <ele>514</ele>
        <time>2021-08-20T20:17:05Z</time>
      </trkpt>
      <trkpt lat="42.97899" lon="-0.41968">
        <ele>516</ele>
        <time>2021-08-20T20:17:09Z</time>
      </trkpt>
      <trkpt lat="42.97895" lon="-0.41945">
        <ele>517</ele>
        <time>2021-08-20T20:17:12Z</time>
      </trkpt>
      <trkpt lat="42.97893" lon="-0.41911">
        <ele>519</ele>
        <time>2021-08-20T20:17:16Z</time>
      </trkpt>
      <trkpt lat="42.9789" lon="-0.41902">
        <ele>521</ele>
        <time>2021-08-20T20:17:18Z</time>
      </trkpt>
      <trkpt lat="42.97885" lon="-0.41889">
        <ele>523</ele>
        <time>2021-08-20T20:17:20Z</time>
      </trkpt>
      <trkpt lat="42.97878" lon="-0.41882">
        <ele>525</ele>
        <time>2021-08-20T20:17:21Z</time>
      </trkpt>
      <trkpt lat="42.97869" lon="-0.41877">
        <ele>528</ele>
        <time>2021-08-20T20:17:23Z</time>
      </trkpt>
      <trkpt lat="42.97851" lon="-0.41881">
        <ele>532</ele>
        <time>2021-08-20T20:17:26Z</time>
      </trkpt>
      <trkpt lat="42.97842" lon="-0.41889">
        <ele>532</ele>
        <time>2021-08-20T20:17:28Z</time>
      </trkpt>
      <trkpt lat="42.97834" lon="-0.41901">
        <ele>532</ele>
        <time>2021-08-20T20:17:30Z</time>
      </trkpt>
      <trkpt lat="42.97822" lon="-0.41981">
        <ele>533</ele>
        <time>2021-08-20T20:17:41Z</time>
      </trkpt>
      <trkpt lat="42.97808" lon="-0.42047">
        <ele>542</ele>
        <time>2021-08-20T20:17:50Z</time>
      </trkpt>
      <trkpt lat="42.97807" lon="-0.42067">
        <ele>544</ele>
        <time>2021-08-20T20:17:52Z</time>
      </trkpt>
      <trkpt lat="42.97793" lon="-0.42071">
        <ele>548</ele>
        <time>2021-08-20T20:17:55Z</time>
      </trkpt>
      <trkpt lat="42.97783" lon="-0.42067">
        <ele>551</ele>
        <time>2021-08-20T20:17:57Z</time>
      </trkpt>
      <trkpt lat="42.97779" lon="-0.42062">
        <ele>551</ele>
        <time>2021-08-20T20:17:58Z</time>
      </trkpt>
      <trkpt lat="42.97776" lon="-0.4206">
        <ele>552</ele>
        <time>2021-08-20T20:17:58Z</time>
      </trkpt>
      <trkpt lat="42.97773" lon="-0.42051">
        <ele>551</ele>
        <time>2021-08-20T20:18:00Z</time>
      </trkpt>
      <trkpt lat="42.97773" lon="-0.42041">
        <ele>550</ele>
        <time>2021-08-20T20:18:01Z</time>
      </trkpt>
      <trkpt lat="42.97779" lon="-0.42018">
        <ele>546</ele>
        <time>2021-08-20T20:18:04Z</time>
      </trkpt>
      <trkpt lat="42.97794" lon="-0.41978">
        <ele>541</ele>
        <time>2021-08-20T20:18:10Z</time>
      </trkpt>
      <trkpt lat="42.97798" lon="-0.41948">
        <ele>540</ele>
        <time>2021-08-20T20:18:14Z</time>
      </trkpt>
      <trkpt lat="42.97799" lon="-0.41904">
        <ele>543</ele>
        <time>2021-08-20T20:18:20Z</time>
      </trkpt>
      <trkpt lat="42.978" lon="-0.41895">
        <ele>544</ele>
        <time>2021-08-20T20:18:21Z</time>
      </trkpt>
      <trkpt lat="42.97809" lon="-0.41868">
        <ele>545</ele>
        <time>2021-08-20T20:18:25Z</time>
      </trkpt>
      <trkpt lat="42.97844" lon="-0.41791">
        <ele>548</ele>
        <time>2021-08-20T20:18:36Z</time>
      </trkpt>
      <trkpt lat="42.9786" lon="-0.41732">
        <ele>555</ele>
        <time>2021-08-20T20:18:45Z</time>
      </trkpt>
      <trkpt lat="42.97867" lon="-0.41714">
        <ele>557</ele>
        <time>2021-08-20T20:18:47Z</time>
      </trkpt>
      <trkpt lat="42.97886" lon="-0.41683">
        <ele>558</ele>
        <time>2021-08-20T20:18:53Z</time>
      </trkpt>
      <trkpt lat="42.97937" lon="-0.4163">
        <ele>553</ele>
        <time>2021-08-20T20:19:04Z</time>
      </trkpt>
      <trkpt lat="42.97967" lon="-0.41583">
        <ele>552</ele>
        <time>2021-08-20T20:19:12Z</time>
      </trkpt>
      <trkpt lat="42.97989" lon="-0.41533">
        <ele>552</ele>
        <time>2021-08-20T20:19:20Z</time>
      </trkpt>
      <trkpt lat="42.9801" lon="-0.41501">
        <ele>553</ele>
        <time>2021-08-20T20:19:25Z</time>
      </trkpt>
      <trkpt lat="42.98011" lon="-0.41487">
        <ele>554</ele>
        <time>2021-08-20T20:19:27Z</time>
      </trkpt>
      <trkpt lat="42.9801" lon="-0.41474">
        <ele>555</ele>
        <time>2021-08-20T20:19:29Z</time>
      </trkpt>
      <trkpt lat="42.98" lon="-0.41461">
        <ele>558</ele>
        <time>2021-08-20T20:19:31Z</time>
      </trkpt>
      <trkpt lat="42.97988" lon="-0.41457">
        <ele>561</ele>
        <time>2021-08-20T20:19:33Z</time>
      </trkpt>
      <trkpt lat="42.97979" lon="-0.41461">
        <ele>562</ele>
        <time>2021-08-20T20:19:35Z</time>
      </trkpt>
      <trkpt lat="42.97974" lon="-0.41465">
        <ele>563</ele>
        <time>2021-08-20T20:19:36Z</time>
      </trkpt>
      <trkpt lat="42.97963" lon="-0.41491">
        <ele>563</ele>
        <time>2021-08-20T20:19:40Z</time>
      </trkpt>
      <trkpt lat="42.97953" lon="-0.41534">
        <ele>561</ele>
        <time>2021-08-20T20:19:46Z</time>
      </trkpt>
      <trkpt lat="42.97942" lon="-0.41558">
        <ele>562</ele>
        <time>2021-08-20T20:19:50Z</time>
      </trkpt>
      <trkpt lat="42.97927" lon="-0.41585">
        <ele>564</ele>
        <time>2021-08-20T20:19:54Z</time>
      </trkpt>
      <trkpt lat="42.97857" lon="-0.41637">
        <ele>575</ele>
        <time>2021-08-20T20:20:08Z</time>
      </trkpt>
      <trkpt lat="42.9784" lon="-0.41657">
        <ele>577</ele>
        <time>2021-08-20T20:20:12Z</time>
      </trkpt>
      <trkpt lat="42.97837" lon="-0.41662">
        <ele>577</ele>
        <time>2021-08-20T20:20:13Z</time>
      </trkpt>
      <trkpt lat="42.97828" lon="-0.41672">
        <ele>579</ele>
        <time>2021-08-20T20:20:15Z</time>
      </trkpt>
      <trkpt lat="42.97783" lon="-0.41743">
        <ele>579</ele>
        <time>2021-08-20T20:20:27Z</time>
      </trkpt>
      <trkpt lat="42.97683" lon="-0.41876">
        <ele>591</ele>
        <time>2021-08-20T20:20:52Z</time>
      </trkpt>
      <trkpt lat="42.97648" lon="-0.41944">
        <ele>592</ele>
        <time>2021-08-20T20:21:03Z</time>
      </trkpt>
      <trkpt lat="42.97626" lon="-0.42001">
        <ele>590</ele>
        <time>2021-08-20T20:21:11Z</time>
      </trkpt>
      <trkpt lat="42.97604" lon="-0.42068">
        <ele>593</ele>
        <time>2021-08-20T20:21:21Z</time>
      </trkpt>
      <trkpt lat="42.97596" lon="-0.42081">
        <ele>593</ele>
        <time>2021-08-20T20:21:23Z</time>
      </trkpt>
      <trkpt lat="42.97587" lon="-0.42087">
        <ele>595</ele>
        <time>2021-08-20T20:21:25Z</time>
      </trkpt>
      <trkpt lat="42.97577" lon="-0.42088">
        <ele>599</ele>
        <time>2021-08-20T20:21:27Z</time>
      </trkpt>
      <trkpt lat="42.97569" lon="-0.42084">
        <ele>602</ele>
        <time>2021-08-20T20:21:28Z</time>
      </trkpt>
      <trkpt lat="42.97563" lon="-0.42073">
        <ele>605</ele>
        <time>2021-08-20T20:21:30Z</time>
      </trkpt>
      <trkpt lat="42.9756" lon="-0.42063">
        <ele>607</ele>
        <time>2021-08-20T20:21:31Z</time>
      </trkpt>
      <trkpt lat="42.97564" lon="-0.42044">
        <ele>608</ele>
        <time>2021-08-20T20:21:34Z</time>
      </trkpt>
      <trkpt lat="42.97572" lon="-0.42028">
        <ele>606</ele>
        <time>2021-08-20T20:21:36Z</time>
      </trkpt>
      <trkpt lat="42.97611" lon="-0.41978">
        <ele>600</ele>
        <time>2021-08-20T20:21:46Z</time>
      </trkpt>
      <trkpt lat="42.97619" lon="-0.41955">
        <ele>602</ele>
        <time>2021-08-20T20:21:49Z</time>
      </trkpt>
      <trkpt lat="42.97645" lon="-0.41856">
        <ele>613</ele>
        <time>2021-08-20T20:22:03Z</time>
      </trkpt>
      <trkpt lat="42.97668" lon="-0.41811">
        <ele>613</ele>
        <time>2021-08-20T20:22:10Z</time>
      </trkpt>
      <trkpt lat="42.97723" lon="-0.41724">
        <ele>610</ele>
        <time>2021-08-20T20:22:25Z</time>
      </trkpt>
      <trkpt lat="42.97743" lon="-0.41672">
        <ele>614</ele>
        <time>2021-08-20T20:22:33Z</time>
      </trkpt>
      <trkpt lat="42.97747" lon="-0.41647">
        <ele>615</ele>
        <time>2021-08-20T20:22:36Z</time>
      </trkpt>
      <trkpt lat="42.97748" lon="-0.41635">
        <ele>616</ele>
        <time>2021-08-20T20:22:38Z</time>
      </trkpt>
      <trkpt lat="42.97749" lon="-0.41618">
        <ele>616</ele>
        <time>2021-08-20T20:22:40Z</time>
      </trkpt>
      <trkpt lat="42.97739" lon="-0.41521">
        <ele>626</ele>
        <time>2021-08-20T20:22:53Z</time>
      </trkpt>
      <trkpt lat="42.97739" lon="-0.41491">
        <ele>628</ele>
        <time>2021-08-20T20:22:57Z</time>
      </trkpt>
      <trkpt lat="42.97745" lon="-0.4146">
        <ele>630</ele>
        <time>2021-08-20T20:23:01Z</time>
      </trkpt>
      <trkpt lat="42.97765" lon="-0.41405">
        <ele>628</ele>
        <time>2021-08-20T20:23:09Z</time>
      </trkpt>
      <trkpt lat="42.97772" lon="-0.41369">
        <ele>630</ele>
        <time>2021-08-20T20:23:14Z</time>
      </trkpt>
      <trkpt lat="42.97782" lon="-0.41286">
        <ele>638</ele>
        <time>2021-08-20T20:23:25Z</time>
      </trkpt>
      <trkpt lat="42.97809" lon="-0.41215">
        <ele>633</ele>
        <time>2021-08-20T20:23:35Z</time>
      </trkpt>
      <trkpt lat="42.97814" lon="-0.4119">
        <ele>634</ele>
        <time>2021-08-20T20:23:38Z</time>
      </trkpt>
      <trkpt lat="42.97821" lon="-0.41126">
        <ele>637</ele>
        <time>2021-08-20T20:23:47Z</time>
      </trkpt>
      <trkpt lat="42.97835" lon="-0.41066">
        <ele>635</ele>
        <time>2021-08-20T20:23:55Z</time>
      </trkpt>
      <trkpt lat="42.97836" lon="-0.41045">
        <ele>636</ele>
        <time>2021-08-20T20:23:58Z</time>
      </trkpt>
      <trkpt lat="42.97834" lon="-0.41026">
        <ele>637</ele>
        <time>2021-08-20T20:24:00Z</time>
      </trkpt>
      <trkpt lat="42.97799" lon="-0.40943">
        <ele>644</ele>
        <time>2021-08-20T20:24:13Z</time>
      </trkpt>
      <trkpt lat="42.97794" lon="-0.40904">
        <ele>645</ele>
        <time>2021-08-20T20:24:18Z</time>
      </trkpt>
      <trkpt lat="42.97794" lon="-0.40837">
        <ele>646</ele>
        <time>2021-08-20T20:24:27Z</time>
      </trkpt>
      <trkpt lat="42.97791" lon="-0.40809">
        <ele>644</ele>
        <time>2021-08-20T20:24:30Z</time>
      </trkpt>
      <trkpt lat="42.97784" lon="-0.40787">
        <ele>643</ele>
        <time>2021-08-20T20:24:33Z</time>
      </trkpt>
      <trkpt lat="42.97777" lon="-0.40768">
        <ele>642</ele>
        <time>2021-08-20T20:24:36Z</time>
      </trkpt>
      <trkpt lat="42.97769" lon="-0.40755">
        <ele>643</ele>
        <time>2021-08-20T20:24:38Z</time>
      </trkpt>
      <trkpt lat="42.97757" lon="-0.40741">
        <ele>645</ele>
        <time>2021-08-20T20:24:41Z</time>
      </trkpt>
      <trkpt lat="42.97739" lon="-0.40728">
        <ele>647</ele>
        <time>2021-08-20T20:24:45Z</time>
      </trkpt>
      <trkpt lat="42.97716" lon="-0.40715">
        <ele>652</ele>
        <time>2021-08-20T20:24:49Z</time>
      </trkpt>
      <trkpt lat="42.97708" lon="-0.40709">
        <ele>653</ele>
        <time>2021-08-20T20:24:51Z</time>
      </trkpt>
      <trkpt lat="42.977" lon="-0.407">
        <ele>655</ele>
        <time>2021-08-20T20:24:53Z</time>
      </trkpt>
      <trkpt lat="42.97695" lon="-0.40691">
        <ele>656</ele>
        <time>2021-08-20T20:24:54Z</time>
      </trkpt>
      <trkpt lat="42.97684" lon="-0.40665">
        <ele>658</ele>
        <time>2021-08-20T20:24:58Z</time>
      </trkpt>
      <trkpt lat="42.97667" lon="-0.40587">
        <ele>658</ele>
        <time>2021-08-20T20:25:09Z</time>
      </trkpt>
      <trkpt lat="42.97657" lon="-0.40565">
        <ele>657</ele>
        <time>2021-08-20T20:25:12Z</time>
      </trkpt>
      <trkpt lat="42.9764" lon="-0.40546">
        <ele>658</ele>
        <time>2021-08-20T20:25:16Z</time>
      </trkpt>
      <trkpt lat="42.97623" lon="-0.40534">
        <ele>660</ele>
        <time>2021-08-20T20:25:19Z</time>
      </trkpt>
      <trkpt lat="42.97573" lon="-0.4051">
        <ele>671</ele>
        <time>2021-08-20T20:25:29Z</time>
      </trkpt>
      <trkpt lat="42.97558" lon="-0.40499">
        <ele>674</ele>
        <time>2021-08-20T20:25:32Z</time>
      </trkpt>
      <trkpt lat="42.97506" lon="-0.40426">
        <ele>680</ele>
        <time>2021-08-20T20:25:45Z</time>
      </trkpt>
      <trkpt lat="42.97495" lon="-0.40407">
        <ele>683</ele>
        <time>2021-08-20T20:25:48Z</time>
      </trkpt>
      <trkpt lat="42.97487" lon="-0.40356">
        <ele>682</ele>
        <time>2021-08-20T20:25:55Z</time>
      </trkpt>
      <trkpt lat="42.97482" lon="-0.40339">
        <ele>684</ele>
        <time>2021-08-20T20:25:57Z</time>
      </trkpt>
      <trkpt lat="42.97472" lon="-0.40312">
        <ele>688</ele>
        <time>2021-08-20T20:26:01Z</time>
      </trkpt>
      <trkpt lat="42.97466" lon="-0.40274">
        <ele>689</ele>
        <time>2021-08-20T20:26:06Z</time>
      </trkpt>
      <trkpt lat="42.97467" lon="-0.40255">
        <ele>688</ele>
        <time>2021-08-20T20:26:09Z</time>
      </trkpt>
      <trkpt lat="42.97466" lon="-0.40205">
        <ele>689</ele>
        <time>2021-08-20T20:26:15Z</time>
      </trkpt>
      <trkpt lat="42.97443" lon="-0.40073">
        <ele>696</ele>
        <time>2021-08-20T20:26:33Z</time>
      </trkpt>
      <trkpt lat="42.97441" lon="-0.40054">
        <ele>698</ele>
        <time>2021-08-20T20:26:35Z</time>
      </trkpt>
      <trkpt lat="42.97441" lon="-0.40036">
        <ele>697</ele>
        <time>2021-08-20T20:26:38Z</time>
      </trkpt>
      <trkpt lat="42.97446" lon="-0.39979">
        <ele>696</ele>
        <time>2021-08-20T20:26:45Z</time>
      </trkpt>
      <trkpt lat="42.97446" lon="-0.39978">
        <ele>696</ele>
        <time>2021-08-20T20:26:45Z</time>
      </trkpt>
      <trkpt lat="42.97446" lon="-0.39952">
        <ele>697</ele>
        <time>2021-08-20T20:26:49Z</time>
      </trkpt>
      <trkpt lat="42.97444" lon="-0.39924">
        <ele>700</ele>
        <time>2021-08-20T20:26:52Z</time>
      </trkpt>
      <trkpt lat="42.97433" lon="-0.39872">
        <ele>704</ele>
        <time>2021-08-20T20:27:00Z</time>
      </trkpt>
      <trkpt lat="42.97429" lon="-0.39826">
        <ele>702</ele>
        <time>2021-08-20T20:27:06Z</time>
      </trkpt>
      <trkpt lat="42.97422" lon="-0.39801">
        <ele>702</ele>
        <time>2021-08-20T20:27:09Z</time>
      </trkpt>
      <trkpt lat="42.97418" lon="-0.39793">
        <ele>703</ele>
        <time>2021-08-20T20:27:10Z</time>
      </trkpt>
      <trkpt lat="42.97395" lon="-0.39765">
        <ele>711</ele>
        <time>2021-08-20T20:27:16Z</time>
      </trkpt>
      <trkpt lat="42.97388" lon="-0.39751">
        <ele>713</ele>
        <time>2021-08-20T20:27:18Z</time>
      </trkpt>
      <trkpt lat="42.97384" lon="-0.39735">
        <ele>717</ele>
        <time>2021-08-20T20:27:20Z</time>
      </trkpt>
      <trkpt lat="42.97383" lon="-0.3972">
        <ele>719</ele>
        <time>2021-08-20T20:27:22Z</time>
      </trkpt>
      <trkpt lat="42.97384" lon="-0.39708">
        <ele>719</ele>
        <time>2021-08-20T20:27:24Z</time>
      </trkpt>
      <trkpt lat="42.97395" lon="-0.39679">
        <ele>714</ele>
        <time>2021-08-20T20:27:28Z</time>
      </trkpt>
      <trkpt lat="42.97401" lon="-0.39656">
        <ele>712</ele>
        <time>2021-08-20T20:27:31Z</time>
      </trkpt>
      <trkpt lat="42.97403" lon="-0.39609">
        <ele>716</ele>
        <time>2021-08-20T20:27:37Z</time>
      </trkpt>
      <trkpt lat="42.97406" lon="-0.39597">
        <ele>716</ele>
        <time>2021-08-20T20:27:39Z</time>
      </trkpt>
      <trkpt lat="42.97414" lon="-0.39581">
        <ele>712</ele>
        <time>2021-08-20T20:27:41Z</time>
      </trkpt>
      <trkpt lat="42.97417" lon="-0.39568">
        <ele>711</ele>
        <time>2021-08-20T20:27:43Z</time>
      </trkpt>
      <trkpt lat="42.97417" lon="-0.39545">
        <ele>713</ele>
        <time>2021-08-20T20:27:46Z</time>
      </trkpt>
      <trkpt lat="42.97414" lon="-0.39532">
        <ele>716</ele>
        <time>2021-08-20T20:27:48Z</time>
      </trkpt>
      <trkpt lat="42.97407" lon="-0.39505">
        <ele>722</ele>
        <time>2021-08-20T20:27:52Z</time>
      </trkpt>
      <trkpt lat="42.97403" lon="-0.39486">
        <ele>723</ele>
        <time>2021-08-20T20:27:54Z</time>
      </trkpt>
      <trkpt lat="42.97399" lon="-0.39425">
        <ele>716</ele>
        <time>2021-08-20T20:28:02Z</time>
      </trkpt>
      <trkpt lat="42.97396" lon="-0.39413">
        <ele>716</ele>
        <time>2021-08-20T20:28:04Z</time>
      </trkpt>
      <trkpt lat="42.97391" lon="-0.39398">
        <ele>716</ele>
        <time>2021-08-20T20:28:06Z</time>
      </trkpt>
      <trkpt lat="42.97386" lon="-0.39388">
        <ele>716</ele>
        <time>2021-08-20T20:28:08Z</time>
      </trkpt>
      <trkpt lat="42.97377" lon="-0.39381">
        <ele>719</ele>
        <time>2021-08-20T20:28:10Z</time>
      </trkpt>
      <trkpt lat="42.97332" lon="-0.39357">
        <ele>731</ele>
        <time>2021-08-20T20:28:18Z</time>
      </trkpt>
      <trkpt lat="42.97306" lon="-0.39339">
        <ele>741</ele>
        <time>2021-08-20T20:28:23Z</time>
      </trkpt>
      <trkpt lat="42.9725" lon="-0.39276">
        <ele>752</ele>
        <time>2021-08-20T20:28:36Z</time>
      </trkpt>
      <trkpt lat="42.97237" lon="-0.39261">
        <ele>754</ele>
        <time>2021-08-20T20:28:39Z</time>
      </trkpt>
      <trkpt lat="42.97189" lon="-0.39184">
        <ele>755</ele>
        <time>2021-08-20T20:28:52Z</time>
      </trkpt>
      <trkpt lat="42.97199" lon="-0.39147">
        <ele>750</ele>
        <time>2021-08-20T20:28:58Z</time>
      </trkpt>
      <trkpt lat="42.97212" lon="-0.39124">
        <ele>750</ele>
        <time>2021-08-20T20:29:01Z</time>
      </trkpt>
      <trkpt lat="42.97222" lon="-0.39134">
        <ele>748</ele>
        <time>2021-08-20T20:29:04Z</time>
      </trkpt>
      <trkpt lat="42.97273" lon="-0.39211">
        <ele>738</ele>
        <time>2021-08-20T20:29:17Z</time>
      </trkpt>
      <trkpt lat="42.97278" lon="-0.392">
        <ele>737</ele>
        <time>2021-08-20T20:29:19Z</time>
      </trkpt>
      <trkpt lat="42.97316" lon="-0.39157">
        <ele>734</ele>
        <time>2021-08-20T20:29:27Z</time>
      </trkpt>
      <trkpt lat="42.97323" lon="-0.3914">
        <ele>733</ele>
        <time>2021-08-20T20:29:30Z</time>
      </trkpt>
      <trkpt lat="42.9732" lon="-0.39119">
        <ele>732</ele>
        <time>2021-08-20T20:29:33Z</time>
      </trkpt>
      <trkpt lat="42.97313" lon="-0.39104">
        <ele>733</ele>
        <time>2021-08-20T20:29:35Z</time>
      </trkpt>
      <trkpt lat="42.97291" lon="-0.39052">
        <ele>741</ele>
        <time>2021-08-20T20:29:43Z</time>
      </trkpt>
      <trkpt lat="42.9728" lon="-0.39015">
        <ele>748</ele>
        <time>2021-08-20T20:29:48Z</time>
      </trkpt>
      <trkpt lat="42.97273" lon="-0.38978">
        <ele>752</ele>
        <time>2021-08-20T20:29:53Z</time>
      </trkpt>
      <trkpt lat="42.97257" lon="-0.38921">
        <ele>756</ele>
        <time>2021-08-20T20:30:01Z</time>
      </trkpt>
      <trkpt lat="42.97237" lon="-0.38881">
        <ele>762</ele>
        <time>2021-08-20T20:30:07Z</time>
      </trkpt>
      <trkpt lat="42.9722" lon="-0.38838">
        <ele>770</ele>
        <time>2021-08-20T20:30:14Z</time>
      </trkpt>
      <trkpt lat="42.97214" lon="-0.38793">
        <ele>774</ele>
        <time>2021-08-20T20:30:20Z</time>
      </trkpt>
      <trkpt lat="42.97169" lon="-0.38626">
        <ele>794</ele>
        <time>2021-08-20T20:30:43Z</time>
      </trkpt>
      <trkpt lat="42.97184" lon="-0.38554">
        <ele>790</ele>
        <time>2021-08-20T20:30:53Z</time>
      </trkpt>
      <trkpt lat="42.97188" lon="-0.3851">
        <ele>793</ele>
        <time>2021-08-20T20:30:58Z</time>
      </trkpt>
      <trkpt lat="42.9718" lon="-0.38471">
        <ele>794</ele>
        <time>2021-08-20T20:31:04Z</time>
      </trkpt>
      <trkpt lat="42.97153" lon="-0.38411">
        <ele>798</ele>
        <time>2021-08-20T20:31:13Z</time>
      </trkpt>
      <trkpt lat="42.97108" lon="-0.38283">
        <ele>809</ele>
        <time>2021-08-20T20:31:31Z</time>
      </trkpt>
      <trkpt lat="42.97098" lon="-0.3827">
        <ele>809</ele>
        <time>2021-08-20T20:31:34Z</time>
      </trkpt>
      <trkpt lat="42.97045" lon="-0.38236">
        <ele>815</ele>
        <time>2021-08-20T20:31:44Z</time>
      </trkpt>
      <trkpt lat="42.97033" lon="-0.3822">
        <ele>817</ele>
        <time>2021-08-20T20:31:47Z</time>
      </trkpt>
      <trkpt lat="42.97028" lon="-0.38208">
        <ele>817</ele>
        <time>2021-08-20T20:31:49Z</time>
      </trkpt>
      <trkpt lat="42.97007" lon="-0.38109">
        <ele>813</ele>
        <time>2021-08-20T20:32:02Z</time>
      </trkpt>
      <trkpt lat="42.97" lon="-0.38093">
        <ele>811</ele>
        <time>2021-08-20T20:32:05Z</time>
      </trkpt>
      <trkpt lat="42.96983" lon="-0.38066">
        <ele>814</ele>
        <time>2021-08-20T20:32:09Z</time>
      </trkpt>
      <trkpt lat="42.96975" lon="-0.3806">
        <ele>816</ele>
        <time>2021-08-20T20:32:11Z</time>
      </trkpt>
      <trkpt lat="42.96972" lon="-0.38061">
        <ele>816</ele>
        <time>2021-08-20T20:32:12Z</time>
      </trkpt>
      <trkpt lat="42.96967" lon="-0.38067">
        <ele>817</ele>
        <time>2021-08-20T20:32:13Z</time>
      </trkpt>
      <trkpt lat="42.96967" lon="-0.38074">
        <ele>817</ele>
        <time>2021-08-20T20:32:14Z</time>
      </trkpt>
      <trkpt lat="42.96967" lon="-0.38086">
        <ele>817</ele>
        <time>2021-08-20T20:32:15Z</time>
      </trkpt>
      <trkpt lat="42.96976" lon="-0.38116">
        <ele>819</ele>
        <time>2021-08-20T20:32:20Z</time>
      </trkpt>
      <trkpt lat="42.96993" lon="-0.38147">
        <ele>819</ele>
        <time>2021-08-20T20:32:25Z</time>
      </trkpt>
      <trkpt lat="42.96996" lon="-0.38157">
        <ele>820</ele>
        <time>2021-08-20T20:32:26Z</time>
      </trkpt>
      <trkpt lat="42.96997" lon="-0.38167">
        <ele>821</ele>
        <time>2021-08-20T20:32:27Z</time>
      </trkpt>
      <trkpt lat="42.96996" lon="-0.38212">
        <ele>824</ele>
        <time>2021-08-20T20:32:33Z</time>
      </trkpt>
      <trkpt lat="42.97001" lon="-0.38241">
        <ele>825</ele>
        <time>2021-08-20T20:32:37Z</time>
      </trkpt>
      <trkpt lat="42.96999" lon="-0.38253">
        <ele>827</ele>
        <time>2021-08-20T20:32:39Z</time>
      </trkpt>
      <trkpt lat="42.96993" lon="-0.38256">
        <ele>828</ele>
        <time>2021-08-20T20:32:40Z</time>
      </trkpt>
      <trkpt lat="42.96989" lon="-0.38253">
        <ele>829</ele>
        <time>2021-08-20T20:32:41Z</time>
      </trkpt>
      <trkpt lat="42.96986" lon="-0.38248">
        <ele>829</ele>
        <time>2021-08-20T20:32:41Z</time>
      </trkpt>
      <trkpt lat="42.96985" lon="-0.38238">
        <ele>828</ele>
        <time>2021-08-20T20:32:43Z</time>
      </trkpt>
      <trkpt lat="42.96982" lon="-0.38222">
        <ele>828</ele>
        <time>2021-08-20T20:32:45Z</time>
      </trkpt>
      <trkpt lat="42.9698" lon="-0.38171">
        <ele>824</ele>
        <time>2021-08-20T20:32:52Z</time>
      </trkpt>
      <trkpt lat="42.96977" lon="-0.3816">
        <ele>824</ele>
        <time>2021-08-20T20:32:53Z</time>
      </trkpt>
      <trkpt lat="42.96973" lon="-0.38152">
        <ele>824</ele>
        <time>2021-08-20T20:32:54Z</time>
      </trkpt>
      <trkpt lat="42.96968" lon="-0.38147">
        <ele>824</ele>
        <time>2021-08-20T20:32:55Z</time>
      </trkpt>
      <trkpt lat="42.96952" lon="-0.38137">
        <ele>826</ele>
        <time>2021-08-20T20:32:59Z</time>
      </trkpt>
      <trkpt lat="42.96945" lon="-0.38126">
        <ele>826</ele>
        <time>2021-08-20T20:33:00Z</time>
      </trkpt>
      <trkpt lat="42.96939" lon="-0.38106">
        <ele>825</ele>
        <time>2021-08-20T20:33:03Z</time>
      </trkpt>
      <trkpt lat="42.96936" lon="-0.381">
        <ele>825</ele>
        <time>2021-08-20T20:33:04Z</time>
      </trkpt>
      <trkpt lat="42.96931" lon="-0.38095">
        <ele>825</ele>
        <time>2021-08-20T20:33:05Z</time>
      </trkpt>
      <trkpt lat="42.96918" lon="-0.38091">
        <ele>828</ele>
        <time>2021-08-20T20:33:08Z</time>
      </trkpt>
      <trkpt lat="42.96893" lon="-0.38095">
        <ele>838</ele>
        <time>2021-08-20T20:33:12Z</time>
      </trkpt>
      <trkpt lat="42.96887" lon="-0.38093">
        <ele>840</ele>
        <time>2021-08-20T20:33:13Z</time>
      </trkpt>
      <trkpt lat="42.96881" lon="-0.38089">
        <ele>841</ele>
        <time>2021-08-20T20:33:14Z</time>
      </trkpt>
      <trkpt lat="42.96866" lon="-0.38071">
        <ele>846</ele>
        <time>2021-08-20T20:33:18Z</time>
      </trkpt>
      <trkpt lat="42.96863" lon="-0.38065">
        <ele>846</ele>
        <time>2021-08-20T20:33:19Z</time>
      </trkpt>
      <trkpt lat="42.96861" lon="-0.38058">
        <ele>847</ele>
        <time>2021-08-20T20:33:20Z</time>
      </trkpt>
      <trkpt lat="42.96861" lon="-0.38049">
        <ele>846</ele>
        <time>2021-08-20T20:33:21Z</time>
      </trkpt>
      <trkpt lat="42.96865" lon="-0.38034">
        <ele>843</ele>
        <time>2021-08-20T20:33:23Z</time>
      </trkpt>
      <trkpt lat="42.96877" lon="-0.38018">
        <ele>838</ele>
        <time>2021-08-20T20:33:26Z</time>
      </trkpt>
      <trkpt lat="42.96883" lon="-0.38005">
        <ele>834</ele>
        <time>2021-08-20T20:33:28Z</time>
      </trkpt>
      <trkpt lat="42.96884" lon="-0.37997">
        <ele>833</ele>
        <time>2021-08-20T20:33:29Z</time>
      </trkpt>
      <trkpt lat="42.96882" lon="-0.37975">
        <ele>833</ele>
        <time>2021-08-20T20:33:32Z</time>
      </trkpt>
      <trkpt lat="42.96874" lon="-0.37956">
        <ele>835</ele>
        <time>2021-08-20T20:33:35Z</time>
      </trkpt>
      <trkpt lat="42.96868" lon="-0.37951">
        <ele>836</ele>
        <time>2021-08-20T20:33:36Z</time>
      </trkpt>
      <trkpt lat="42.96853" lon="-0.37945">
        <ele>841</ele>
        <time>2021-08-20T20:33:39Z</time>
      </trkpt>
      <trkpt lat="42.96837" lon="-0.37944">
        <ele>845</ele>
        <time>2021-08-20T20:33:42Z</time>
      </trkpt>
      <trkpt lat="42.9683" lon="-0.37941">
        <ele>848</ele>
        <time>2021-08-20T20:33:43Z</time>
      </trkpt>
      <trkpt lat="42.96819" lon="-0.37932">
        <ele>853</ele>
        <time>2021-08-20T20:33:45Z</time>
      </trkpt>
      <trkpt lat="42.96816" lon="-0.37925">
        <ele>854</ele>
        <time>2021-08-20T20:33:46Z</time>
      </trkpt>
      <trkpt lat="42.96815" lon="-0.37917">
        <ele>854</ele>
        <time>2021-08-20T20:33:48Z</time>
      </trkpt>
      <trkpt lat="42.96817" lon="-0.37874">
        <ele>849</ele>
        <time>2021-08-20T20:33:53Z</time>
      </trkpt>
      <trkpt lat="42.96816" lon="-0.3786">
        <ele>848</ele>
        <time>2021-08-20T20:33:55Z</time>
      </trkpt>
      <trkpt lat="42.96796" lon="-0.37814">
        <ele>856</ele>
        <time>2021-08-20T20:34:02Z</time>
      </trkpt>
      <trkpt lat="42.96794" lon="-0.378">
        <ele>856</ele>
        <time>2021-08-20T20:34:04Z</time>
      </trkpt>
      <trkpt lat="42.96793" lon="-0.3776">
        <ele>854</ele>
        <time>2021-08-20T20:34:09Z</time>
      </trkpt>
      <trkpt lat="42.96792" lon="-0.3775">
        <ele>854</ele>
        <time>2021-08-20T20:34:10Z</time>
      </trkpt>
      <trkpt lat="42.96789" lon="-0.3774">
        <ele>855</ele>
        <time>2021-08-20T20:34:12Z</time>
      </trkpt>
      <trkpt lat="42.96783" lon="-0.37731">
        <ele>857</ele>
        <time>2021-08-20T20:34:13Z</time>
      </trkpt>
      <trkpt lat="42.96759" lon="-0.37704">
        <ele>864</ele>
        <time>2021-08-20T20:34:19Z</time>
      </trkpt>
      <trkpt lat="42.96754" lon="-0.37693">
        <ele>864</ele>
        <time>2021-08-20T20:34:21Z</time>
      </trkpt>
      <trkpt lat="42.9675" lon="-0.37679">
        <ele>864</ele>
        <time>2021-08-20T20:34:22Z</time>
      </trkpt>
      <trkpt lat="42.96748" lon="-0.37661">
        <ele>864</ele>
        <time>2021-08-20T20:34:25Z</time>
      </trkpt>
      <trkpt lat="42.9675" lon="-0.37647">
        <ele>862</ele>
        <time>2021-08-20T20:34:27Z</time>
      </trkpt>
      <trkpt lat="42.96756" lon="-0.37639">
        <ele>860</ele>
        <time>2021-08-20T20:34:28Z</time>
      </trkpt>
      <trkpt lat="42.96778" lon="-0.37616">
        <ele>856</ele>
        <time>2021-08-20T20:34:33Z</time>
      </trkpt>
      <trkpt lat="42.96796" lon="-0.37596">
        <ele>854</ele>
        <time>2021-08-20T20:34:37Z</time>
      </trkpt>
      <trkpt lat="42.96797" lon="-0.37581">
        <ele>855</ele>
        <time>2021-08-20T20:34:39Z</time>
      </trkpt>
      <trkpt lat="42.96791" lon="-0.37568">
        <ele>857</ele>
        <time>2021-08-20T20:34:41Z</time>
      </trkpt>
      <trkpt lat="42.96776" lon="-0.37555">
        <ele>859</ele>
        <time>2021-08-20T20:34:44Z</time>
      </trkpt>
      <trkpt lat="42.96763" lon="-0.37534">
        <ele>861</ele>
        <time>2021-08-20T20:34:48Z</time>
      </trkpt>
      <trkpt lat="42.96759" lon="-0.37486">
        <ele>863</ele>
        <time>2021-08-20T20:34:54Z</time>
      </trkpt>
      <trkpt lat="42.96749" lon="-0.37427">
        <ele>869</ele>
        <time>2021-08-20T20:35:02Z</time>
      </trkpt>
      <trkpt lat="42.96752" lon="-0.37351">
        <ele>869</ele>
        <time>2021-08-20T20:35:12Z</time>
      </trkpt>
      <trkpt lat="42.96737" lon="-0.37224">
        <ele>877</ele>
        <time>2021-08-20T20:35:29Z</time>
      </trkpt>
      <trkpt lat="42.9674" lon="-0.37191">
        <ele>877</ele>
        <time>2021-08-20T20:35:33Z</time>
      </trkpt>
      <trkpt lat="42.96749" lon="-0.37173">
        <ele>877</ele>
        <time>2021-08-20T20:35:36Z</time>
      </trkpt>
      <trkpt lat="42.96758" lon="-0.37164">
        <ele>879</ele>
        <time>2021-08-20T20:35:38Z</time>
      </trkpt>
      <trkpt lat="42.9677" lon="-0.37164">
        <ele>881</ele>
        <time>2021-08-20T20:35:40Z</time>
      </trkpt>
      <trkpt lat="42.96782" lon="-0.3717">
        <ele>883</ele>
        <time>2021-08-20T20:35:42Z</time>
      </trkpt>
      <trkpt lat="42.96817" lon="-0.37237">
        <ele>885</ele>
        <time>2021-08-20T20:35:53Z</time>
      </trkpt>
      <trkpt lat="42.96835" lon="-0.37256">
        <ele>888</ele>
        <time>2021-08-20T20:35:57Z</time>
      </trkpt>
      <trkpt lat="42.9686" lon="-0.37264">
        <ele>890</ele>
        <time>2021-08-20T20:36:02Z</time>
      </trkpt>
      <trkpt lat="42.96883" lon="-0.37257">
        <ele>894</ele>
        <time>2021-08-20T20:36:06Z</time>
      </trkpt>
      <trkpt lat="42.96898" lon="-0.37246">
        <ele>896</ele>
        <time>2021-08-20T20:36:09Z</time>
      </trkpt>
      <trkpt lat="42.96906" lon="-0.37227">
        <ele>899</ele>
        <time>2021-08-20T20:36:12Z</time>
      </trkpt>
      <trkpt lat="42.96906" lon="-0.37202">
        <ele>901</ele>
        <time>2021-08-20T20:36:15Z</time>
      </trkpt>
      <trkpt lat="42.96887" lon="-0.37161">
        <ele>902</ele>
        <time>2021-08-20T20:36:21Z</time>
      </trkpt>
      <trkpt lat="42.96884" lon="-0.37146">
        <ele>903</ele>
        <time>2021-08-20T20:36:23Z</time>
      </trkpt>
      <trkpt lat="42.96883" lon="-0.37134">
        <ele>903</ele>
        <time>2021-08-20T20:36:25Z</time>
      </trkpt>
      <trkpt lat="42.96892" lon="-0.37093">
        <ele>909</ele>
        <time>2021-08-20T20:36:31Z</time>
      </trkpt>
      <trkpt lat="42.96891" lon="-0.3708">
        <ele>910</ele>
        <time>2021-08-20T20:36:32Z</time>
      </trkpt>
      <trkpt lat="42.96887" lon="-0.37065">
        <ele>912</ele>
        <time>2021-08-20T20:36:34Z</time>
      </trkpt>
      <trkpt lat="42.96878" lon="-0.37044">
        <ele>914</ele>
        <time>2021-08-20T20:36:37Z</time>
      </trkpt>
      <trkpt lat="42.96859" lon="-0.37005">
        <ele>916</ele>
        <time>2021-08-20T20:36:44Z</time>
      </trkpt>
      <trkpt lat="42.96829" lon="-0.36953">
        <ele>918</ele>
        <time>2021-08-20T20:36:52Z</time>
      </trkpt>
      <trkpt lat="42.96815" lon="-0.36901">
        <ele>924</ele>
        <time>2021-08-20T20:36:59Z</time>
      </trkpt>
      <trkpt lat="42.96795" lon="-0.36855">
        <ele>928</ele>
        <time>2021-08-20T20:37:06Z</time>
      </trkpt>
      <trkpt lat="42.96785" lon="-0.36827">
        <ele>929</ele>
        <time>2021-08-20T20:37:10Z</time>
      </trkpt>
      <trkpt lat="42.96774" lon="-0.36783">
        <ele>932</ele>
        <time>2021-08-20T20:37:16Z</time>
      </trkpt>
      <trkpt lat="42.96771" lon="-0.36763">
        <ele>934</ele>
        <time>2021-08-20T20:37:19Z</time>
      </trkpt>
      <trkpt lat="42.96767" lon="-0.3671">
        <ele>939</ele>
        <time>2021-08-20T20:37:26Z</time>
      </trkpt>
      <trkpt lat="42.96759" lon="-0.36662">
        <ele>939</ele>
        <time>2021-08-20T20:37:32Z</time>
      </trkpt>
      <trkpt lat="42.96748" lon="-0.36618">
        <ele>943</ele>
        <time>2021-08-20T20:37:39Z</time>
      </trkpt>
      <trkpt lat="42.96726" lon="-0.3656">
        <ele>946</ele>
        <time>2021-08-20T20:37:47Z</time>
      </trkpt>
      <trkpt lat="42.96722" lon="-0.36545">
        <ele>946</ele>
        <time>2021-08-20T20:37:49Z</time>
      </trkpt>
      <trkpt lat="42.96719" lon="-0.36492">
        <ele>951</ele>
        <time>2021-08-20T20:37:56Z</time>
      </trkpt>
      <trkpt lat="42.96716" lon="-0.3647">
        <ele>954</ele>
        <time>2021-08-20T20:37:59Z</time>
      </trkpt>
      <trkpt lat="42.96697" lon="-0.36406">
        <ele>956</ele>
        <time>2021-08-20T20:38:08Z</time>
      </trkpt>
      <trkpt lat="42.96692" lon="-0.36338">
        <ele>965</ele>
        <time>2021-08-20T20:38:17Z</time>
      </trkpt>
      <trkpt lat="42.96687" lon="-0.36305">
        <ele>968</ele>
        <time>2021-08-20T20:38:21Z</time>
      </trkpt>
      <trkpt lat="42.96672" lon="-0.36246">
        <ele>971</ele>
        <time>2021-08-20T20:38:29Z</time>
      </trkpt>
      <trkpt lat="42.96646" lon="-0.36128">
        <ele>977</ele>
        <time>2021-08-20T20:38:45Z</time>
      </trkpt>
      <trkpt lat="42.96643" lon="-0.36066">
        <ele>983</ele>
        <time>2021-08-20T20:38:53Z</time>
      </trkpt>
      <trkpt lat="42.96627" lon="-0.35993">
        <ele>987</ele>
        <time>2021-08-20T20:39:03Z</time>
      </trkpt>
      <trkpt lat="42.96626" lon="-0.35935">
        <ele>991</ele>
        <time>2021-08-20T20:39:11Z</time>
      </trkpt>
      <trkpt lat="42.96623" lon="-0.35871">
        <ele>998</ele>
        <time>2021-08-20T20:39:19Z</time>
      </trkpt>
      <trkpt lat="42.96617" lon="-0.3582">
        <ele>1004</ele>
        <time>2021-08-20T20:39:26Z</time>
      </trkpt>
      <trkpt lat="42.96605" lon="-0.35769">
        <ele>1009</ele>
        <time>2021-08-20T20:39:33Z</time>
      </trkpt>
      <trkpt lat="42.96594" lon="-0.35721">
        <ele>1012</ele>
        <time>2021-08-20T20:39:40Z</time>
      </trkpt>
      <trkpt lat="42.96564" lon="-0.35617">
        <ele>1020</ele>
        <time>2021-08-20T20:39:54Z</time>
      </trkpt>
      <trkpt lat="42.96546" lon="-0.35593">
        <ele>1023</ele>
        <time>2021-08-20T20:39:59Z</time>
      </trkpt>
      <trkpt lat="42.96516" lon="-0.35567">
        <ele>1024</ele>
        <time>2021-08-20T20:40:05Z</time>
      </trkpt>
      <trkpt lat="42.96497" lon="-0.35538">
        <ele>1026</ele>
        <time>2021-08-20T20:40:10Z</time>
      </trkpt>
      <trkpt lat="42.96453" lon="-0.3549">
        <ele>1025</ele>
        <time>2021-08-20T20:40:20Z</time>
      </trkpt>
      <trkpt lat="42.96411" lon="-0.35419">
        <ele>1031</ele>
        <time>2021-08-20T20:40:32Z</time>
      </trkpt>
      <trkpt lat="42.96399" lon="-0.35369">
        <ele>1038</ele>
        <time>2021-08-20T20:40:39Z</time>
      </trkpt>
      <trkpt lat="42.96384" lon="-0.35341">
        <ele>1041</ele>
        <time>2021-08-20T20:40:43Z</time>
      </trkpt>
      <trkpt lat="42.96365" lon="-0.35322">
        <ele>1042</ele>
        <time>2021-08-20T20:40:47Z</time>
      </trkpt>
      <trkpt lat="42.96354" lon="-0.35295">
        <ele>1044</ele>
        <time>2021-08-20T20:40:51Z</time>
      </trkpt>
      <trkpt lat="42.96344" lon="-0.35251">
        <ele>1050</ele>
        <time>2021-08-20T20:40:57Z</time>
      </trkpt>
      <trkpt lat="42.96339" lon="-0.35145">
        <ele>1056</ele>
        <time>2021-08-20T20:41:11Z</time>
      </trkpt>
      <trkpt lat="42.96345" lon="-0.35117">
        <ele>1060</ele>
        <time>2021-08-20T20:41:15Z</time>
      </trkpt>
      <trkpt lat="42.96379" lon="-0.35062">
        <ele>1074</ele>
        <time>2021-08-20T20:41:24Z</time>
      </trkpt>
      <trkpt lat="42.96378" lon="-0.35036">
        <ele>1074</ele>
        <time>2021-08-20T20:41:28Z</time>
      </trkpt>
      <trkpt lat="42.96389" lon="-0.34945">
        <ele>1081</ele>
        <time>2021-08-20T20:41:40Z</time>
      </trkpt>
      <trkpt lat="42.96394" lon="-0.34917">
        <ele>1083</ele>
        <time>2021-08-20T20:41:44Z</time>
      </trkpt>
      <trkpt lat="42.96427" lon="-0.34874">
        <ele>1089</ele>
        <time>2021-08-20T20:41:52Z</time>
      </trkpt>
      <trkpt lat="42.96431" lon="-0.34861">
        <ele>1092</ele>
        <time>2021-08-20T20:41:54Z</time>
      </trkpt>
      <trkpt lat="42.96427" lon="-0.34812">
        <ele>1094</ele>
        <time>2021-08-20T20:42:00Z</time>
      </trkpt>
      <trkpt lat="42.96419" lon="-0.34785">
        <ele>1094</ele>
        <time>2021-08-20T20:42:04Z</time>
      </trkpt>
      <trkpt lat="42.96403" lon="-0.34762">
        <ele>1098</ele>
        <time>2021-08-20T20:42:08Z</time>
      </trkpt>
      <trkpt lat="42.96401" lon="-0.34745">
        <ele>1100</ele>
        <time>2021-08-20T20:42:10Z</time>
      </trkpt>
      <trkpt lat="42.96404" lon="-0.34715">
        <ele>1104</ele>
        <time>2021-08-20T20:42:14Z</time>
      </trkpt>
      <trkpt lat="42.96407" lon="-0.34632">
        <ele>1117</ele>
        <time>2021-08-20T20:42:25Z</time>
      </trkpt>
      <trkpt lat="42.96399" lon="-0.34617">
        <ele>1121</ele>
        <time>2021-08-20T20:42:27Z</time>
      </trkpt>
      <trkpt lat="42.96394" lon="-0.34614">
        <ele>1123</ele>
        <time>2021-08-20T20:42:28Z</time>
      </trkpt>
      <trkpt lat="42.9638" lon="-0.34615">
        <ele>1125</ele>
        <time>2021-08-20T20:42:31Z</time>
      </trkpt>
      <trkpt lat="42.96375" lon="-0.34623">
        <ele>1124</ele>
        <time>2021-08-20T20:42:32Z</time>
      </trkpt>
      <trkpt lat="42.96356" lon="-0.34695">
        <ele>1114</ele>
        <time>2021-08-20T20:42:42Z</time>
      </trkpt>
      <trkpt lat="42.963" lon="-0.34762">
        <ele>1121</ele>
        <time>2021-08-20T20:42:55Z</time>
      </trkpt>
      <trkpt lat="42.96278" lon="-0.34778">
        <ele>1129</ele>
        <time>2021-08-20T20:43:00Z</time>
      </trkpt>
      <trkpt lat="42.96242" lon="-0.34876">
        <ele>1129</ele>
        <time>2021-08-20T20:43:14Z</time>
      </trkpt>
      <trkpt lat="42.96235" lon="-0.34921">
        <ele>1127</ele>
        <time>2021-08-20T20:43:20Z</time>
      </trkpt>
      <trkpt lat="42.96234" lon="-0.34956">
        <ele>1123</ele>
        <time>2021-08-20T20:43:25Z</time>
      </trkpt>
      <trkpt lat="42.96228" lon="-0.34965">
        <ele>1126</ele>
        <time>2021-08-20T20:43:26Z</time>
      </trkpt>
      <trkpt lat="42.96222" lon="-0.34967">
        <ele>1130</ele>
        <time>2021-08-20T20:43:27Z</time>
      </trkpt>
      <trkpt lat="42.96219" lon="-0.34962">
        <ele>1133</ele>
        <time>2021-08-20T20:43:28Z</time>
      </trkpt>
      <trkpt lat="42.96229" lon="-0.34852">
        <ele>1144</ele>
        <time>2021-08-20T20:43:43Z</time>
      </trkpt>
      <trkpt lat="42.96255" lon="-0.34714">
        <ele>1152</ele>
        <time>2021-08-20T20:44:01Z</time>
      </trkpt>
      <trkpt lat="42.96251" lon="-0.34599">
        <ele>1174</ele>
        <time>2021-08-20T20:44:16Z</time>
      </trkpt>
      <trkpt lat="42.96262" lon="-0.34564">
        <ele>1173</ele>
        <time>2021-08-20T20:44:21Z</time>
      </trkpt>
      <trkpt lat="42.96277" lon="-0.34561">
        <ele>1166</ele>
        <time>2021-08-20T20:44:24Z</time>
      </trkpt>
      <trkpt lat="42.96302" lon="-0.34551">
        <ele>1156</ele>
        <time>2021-08-20T20:44:28Z</time>
      </trkpt>
      <trkpt lat="42.96311" lon="-0.34503">
        <ele>1157</ele>
        <time>2021-08-20T20:44:35Z</time>
      </trkpt>
      <trkpt lat="42.96311" lon="-0.34461">
        <ele>1163</ele>
        <time>2021-08-20T20:44:40Z</time>
      </trkpt>
      <trkpt lat="42.96308" lon="-0.34427">
        <ele>1169</ele>
        <time>2021-08-20T20:44:45Z</time>
      </trkpt>
      <trkpt lat="42.96322" lon="-0.34377">
        <ele>1172</ele>
        <time>2021-08-20T20:44:52Z</time>
      </trkpt>
      <trkpt lat="42.96323" lon="-0.34321">
        <ele>1180</ele>
        <time>2021-08-20T20:44:59Z</time>
      </trkpt>
      <trkpt lat="42.9633" lon="-0.34285">
        <ele>1181</ele>
        <time>2021-08-20T20:45:04Z</time>
      </trkpt>
      <trkpt lat="42.96337" lon="-0.34255">
        <ele>1183</ele>
        <time>2021-08-20T20:45:08Z</time>
      </trkpt>
      <trkpt lat="42.9634" lon="-0.34221">
        <ele>1185</ele>
        <time>2021-08-20T20:45:13Z</time>
      </trkpt>
      <trkpt lat="42.96347" lon="-0.34193">
        <ele>1188</ele>
        <time>2021-08-20T20:45:16Z</time>
      </trkpt>
      <trkpt lat="42.96347" lon="-0.34165">
        <ele>1188</ele>
        <time>2021-08-20T20:45:20Z</time>
      </trkpt>
      <trkpt lat="42.9635" lon="-0.34129">
        <ele>1190</ele>
        <time>2021-08-20T20:45:25Z</time>
      </trkpt>
      <trkpt lat="42.96346" lon="-0.34112">
        <ele>1189</ele>
        <time>2021-08-20T20:45:27Z</time>
      </trkpt>
      <trkpt lat="42.96339" lon="-0.34089">
        <ele>1187</ele>
        <time>2021-08-20T20:45:30Z</time>
      </trkpt>
      <trkpt lat="42.963" lon="-0.33985">
        <ele>1186</ele>
        <time>2021-08-20T20:45:46Z</time>
      </trkpt>
      <trkpt lat="42.96299" lon="-0.33975">
        <ele>1186</ele>
        <time>2021-08-20T20:45:47Z</time>
      </trkpt>
      <trkpt lat="42.963" lon="-0.33962">
        <ele>1188</ele>
        <time>2021-08-20T20:45:49Z</time>
      </trkpt>
      <trkpt lat="42.96309" lon="-0.33943">
        <ele>1191</ele>
        <time>2021-08-20T20:45:51Z</time>
      </trkpt>
      <trkpt lat="42.96316" lon="-0.33938">
        <ele>1192</ele>
        <time>2021-08-20T20:45:53Z</time>
      </trkpt>
      <trkpt lat="42.96359" lon="-0.3393">
        <ele>1206</ele>
        <time>2021-08-20T20:46:01Z</time>
      </trkpt>
      <trkpt lat="42.96374" lon="-0.33932">
        <ele>1211</ele>
        <time>2021-08-20T20:46:03Z</time>
      </trkpt>
      <trkpt lat="42.96382" lon="-0.33936">
        <ele>1213</ele>
        <time>2021-08-20T20:46:05Z</time>
      </trkpt>
      <trkpt lat="42.9639" lon="-0.33944">
        <ele>1215</ele>
        <time>2021-08-20T20:46:07Z</time>
      </trkpt>
      <trkpt lat="42.96396" lon="-0.33953">
        <ele>1216</ele>
        <time>2021-08-20T20:46:08Z</time>
      </trkpt>
      <trkpt lat="42.96404" lon="-0.33971">
        <ele>1216</ele>
        <time>2021-08-20T20:46:11Z</time>
      </trkpt>
      <trkpt lat="42.96407" lon="-0.3399">
        <ele>1215</ele>
        <time>2021-08-20T20:46:13Z</time>
      </trkpt>
      <trkpt lat="42.96407" lon="-0.34009">
        <ele>1213</ele>
        <time>2021-08-20T20:46:16Z</time>
      </trkpt>
      <trkpt lat="42.96415" lon="-0.34132">
        <ele>1211</ele>
        <time>2021-08-20T20:46:32Z</time>
      </trkpt>
      <trkpt lat="42.96418" lon="-0.3415">
        <ele>1211</ele>
        <time>2021-08-20T20:46:34Z</time>
      </trkpt>
      <trkpt lat="42.96462" lon="-0.34308">
        <ele>1212</ele>
        <time>2021-08-20T20:46:56Z</time>
      </trkpt>
      <trkpt lat="42.96471" lon="-0.34333">
        <ele>1213</ele>
        <time>2021-08-20T20:47:00Z</time>
      </trkpt>
      <trkpt lat="42.96479" lon="-0.34343">
        <ele>1215</ele>
        <time>2021-08-20T20:47:02Z</time>
      </trkpt>
      <trkpt lat="42.9649" lon="-0.34346">
        <ele>1219</ele>
        <time>2021-08-20T20:47:04Z</time>
      </trkpt>
      <trkpt lat="42.96499" lon="-0.3434">
        <ele>1224</ele>
        <time>2021-08-20T20:47:06Z</time>
      </trkpt>
      <trkpt lat="42.96507" lon="-0.34324">
        <ele>1230</ele>
        <time>2021-08-20T20:47:08Z</time>
      </trkpt>
      <trkpt lat="42.96509" lon="-0.34301">
        <ele>1233</ele>
        <time>2021-08-20T20:47:11Z</time>
      </trkpt>
      <trkpt lat="42.96509" lon="-0.34264">
        <ele>1237</ele>
        <time>2021-08-20T20:47:16Z</time>
      </trkpt>
      <trkpt lat="42.96506" lon="-0.34212">
        <ele>1244</ele>
        <time>2021-08-20T20:47:23Z</time>
      </trkpt>
      <trkpt lat="42.96502" lon="-0.34175">
        <ele>1248</ele>
        <time>2021-08-20T20:47:28Z</time>
      </trkpt>
      <trkpt lat="42.96494" lon="-0.34082">
        <ele>1259</ele>
        <time>2021-08-20T20:47:40Z</time>
      </trkpt>
      <trkpt lat="42.9649" lon="-0.3406">
        <ele>1258</ele>
        <time>2021-08-20T20:47:43Z</time>
      </trkpt>
      <trkpt lat="42.96479" lon="-0.34021">
        <ele>1253</ele>
        <time>2021-08-20T20:47:48Z</time>
      </trkpt>
      <trkpt lat="42.96476" lon="-0.33996">
        <ele>1253</ele>
        <time>2021-08-20T20:47:52Z</time>
      </trkpt>
      <trkpt lat="42.96473" lon="-0.33946">
        <ele>1256</ele>
        <time>2021-08-20T20:47:58Z</time>
      </trkpt>
      <trkpt lat="42.96465" lon="-0.33921">
        <ele>1254</ele>
        <time>2021-08-20T20:48:02Z</time>
      </trkpt>
      <trkpt lat="42.96463" lon="-0.33907">
        <ele>1254</ele>
        <time>2021-08-20T20:48:04Z</time>
      </trkpt>
      <trkpt lat="42.96467" lon="-0.33858">
        <ele>1261</ele>
        <time>2021-08-20T20:48:10Z</time>
      </trkpt>
      <trkpt lat="42.96465" lon="-0.33846">
        <ele>1261</ele>
        <time>2021-08-20T20:48:12Z</time>
      </trkpt>
      <trkpt lat="42.9645" lon="-0.33801">
        <ele>1263</ele>
        <time>2021-08-20T20:48:18Z</time>
      </trkpt>
      <trkpt lat="42.96447" lon="-0.33784">
        <ele>1266</ele>
        <time>2021-08-20T20:48:20Z</time>
      </trkpt>
      <trkpt lat="42.9645" lon="-0.33739">
        <ele>1281</ele>
        <time>2021-08-20T20:48:26Z</time>
      </trkpt>
      <trkpt lat="42.9645" lon="-0.33721">
        <ele>1285</ele>
        <time>2021-08-20T20:48:29Z</time>
      </trkpt>
      <trkpt lat="42.96436" lon="-0.33642">
        <ele>1292</ele>
        <time>2021-08-20T20:48:39Z</time>
      </trkpt>
      <trkpt lat="42.96427" lon="-0.33575">
        <ele>1301</ele>
        <time>2021-08-20T20:48:48Z</time>
      </trkpt>
      <trkpt lat="42.96407" lon="-0.33516">
        <ele>1302</ele>
        <time>2021-08-20T20:48:56Z</time>
      </trkpt>
      <trkpt lat="42.96373" lon="-0.33437">
        <ele>1312</ele>
        <time>2021-08-20T20:49:08Z</time>
      </trkpt>
      <trkpt lat="42.96364" lon="-0.33412">
        <ele>1315</ele>
        <time>2021-08-20T20:49:12Z</time>
      </trkpt>
      <trkpt lat="42.96328" lon="-0.33351">
        <ele>1318</ele>
        <time>2021-08-20T20:49:22Z</time>
      </trkpt>
      <trkpt lat="42.96318" lon="-0.33337">
        <ele>1320</ele>
        <time>2021-08-20T20:49:25Z</time>
      </trkpt>
      <trkpt lat="42.96282" lon="-0.33302">
        <ele>1324</ele>
        <time>2021-08-20T20:49:33Z</time>
      </trkpt>
      <trkpt lat="42.96239" lon="-0.33265">
        <ele>1329</ele>
        <time>2021-08-20T20:49:42Z</time>
      </trkpt>
      <trkpt lat="42.96228" lon="-0.33263">
        <ele>1330</ele>
        <time>2021-08-20T20:49:44Z</time>
      </trkpt>
      <trkpt lat="42.96172" lon="-0.3326">
        <ele>1335</ele>
        <time>2021-08-20T20:49:54Z</time>
      </trkpt>
      <trkpt lat="42.9616" lon="-0.33262">
        <ele>1336</ele>
        <time>2021-08-20T20:49:56Z</time>
      </trkpt>
      <trkpt lat="42.96149" lon="-0.33269">
        <ele>1335</ele>
        <time>2021-08-20T20:49:58Z</time>
      </trkpt>
      <trkpt lat="42.96117" lon="-0.33306">
        <ele>1328</ele>
        <time>2021-08-20T20:50:05Z</time>
      </trkpt>
      <trkpt lat="42.96107" lon="-0.3331">
        <ele>1329</ele>
        <time>2021-08-20T20:50:07Z</time>
      </trkpt>
      <trkpt lat="42.96096" lon="-0.33306">
        <ele>1332</ele>
        <time>2021-08-20T20:50:09Z</time>
      </trkpt>
      <trkpt lat="42.96072" lon="-0.33282">
        <ele>1345</ele>
        <time>2021-08-20T20:50:15Z</time>
      </trkpt>
      <trkpt lat="42.96062" lon="-0.33278">
        <ele>1348</ele>
        <time>2021-08-20T20:50:16Z</time>
      </trkpt>
      <trkpt lat="42.96045" lon="-0.33278">
        <ele>1351</ele>
        <time>2021-08-20T20:50:19Z</time>
      </trkpt>
      <trkpt lat="42.96031" lon="-0.33284">
        <ele>1352</ele>
        <time>2021-08-20T20:50:22Z</time>
      </trkpt>
      <trkpt lat="42.96023" lon="-0.33292">
        <ele>1351</ele>
        <time>2021-08-20T20:50:24Z</time>
      </trkpt>
      <trkpt lat="42.96011" lon="-0.33299">
        <ele>1352</ele>
        <time>2021-08-20T20:50:26Z</time>
      </trkpt>
      <trkpt lat="42.95994" lon="-0.33305">
        <ele>1354</ele>
        <time>2021-08-20T20:50:29Z</time>
      </trkpt>
      <trkpt lat="42.95977" lon="-0.33306">
        <ele>1355</ele>
        <time>2021-08-20T20:50:32Z</time>
      </trkpt>
      <trkpt lat="42.95928" lon="-0.33296">
        <ele>1359</ele>
        <time>2021-08-20T20:50:41Z</time>
      </trkpt>
      <trkpt lat="42.95905" lon="-0.33295">
        <ele>1360</ele>
        <time>2021-08-20T20:50:45Z</time>
      </trkpt>
      <trkpt lat="42.95878" lon="-0.33301">
        <ele>1359</ele>
        <time>2021-08-20T20:50:50Z</time>
      </trkpt>
      <trkpt lat="42.95861" lon="-0.33301">
        <ele>1359</ele>
        <time>2021-08-20T20:50:53Z</time>
      </trkpt>
      <trkpt lat="42.95846" lon="-0.33299">
        <ele>1359</ele>
        <time>2021-08-20T20:50:56Z</time>
      </trkpt>
      <trkpt lat="42.95828" lon="-0.3329">
        <ele>1359</ele>
        <time>2021-08-20T20:50:59Z</time>
      </trkpt>
      <trkpt lat="42.95815" lon="-0.33275">
        <ele>1359</ele>
        <time>2021-08-20T20:51:02Z</time>
      </trkpt>
      <trkpt lat="42.95806" lon="-0.33261">
        <ele>1360</ele>
        <time>2021-08-20T20:51:05Z</time>
      </trkpt>
      <trkpt lat="42.95808" lon="-0.33246">
        <ele>1361</ele>
        <time>2021-08-20T20:51:07Z</time>
      </trkpt>
      <trkpt lat="42.95812" lon="-0.33239">
        <ele>1362</ele>
        <time>2021-08-20T20:51:08Z</time>
      </trkpt>
      <trkpt lat="42.95817" lon="-0.33236">
        <ele>1362</ele>
        <time>2021-08-20T20:51:09Z</time>
      </trkpt>
      <trkpt lat="42.95826" lon="-0.33234">
        <ele>1362</ele>
        <time>2021-08-20T20:51:10Z</time>
      </trkpt>
      <trkpt lat="42.9584" lon="-0.33237">
        <ele>1362</ele>
        <time>2021-08-20T20:51:13Z</time>
      </trkpt>
      <trkpt lat="42.95847" lon="-0.33243">
        <ele>1361</ele>
        <time>2021-08-20T20:51:14Z</time>
      </trkpt>
      <trkpt lat="42.95864" lon="-0.33265">
        <ele>1360</ele>
        <time>2021-08-20T20:51:19Z</time>
      </trkpt>
      <trkpt lat="42.9588" lon="-0.33271">
        <ele>1361</ele>
        <time>2021-08-20T20:51:21Z</time>
      </trkpt>
      <trkpt lat="42.9591" lon="-0.33261">
        <ele>1363</ele>
        <time>2021-08-20T20:51:27Z</time>
      </trkpt>
      <trkpt lat="42.95919" lon="-0.3326">
        <ele>1364</ele>
        <time>2021-08-20T20:51:29Z</time>
      </trkpt>
      <trkpt lat="42.95938" lon="-0.33264">
        <ele>1363</ele>
        <time>2021-08-20T20:51:32Z</time>
      </trkpt>
      <trkpt lat="42.95951" lon="-0.33262">
        <ele>1363</ele>
        <time>2021-08-20T20:51:34Z</time>
      </trkpt>
      <trkpt lat="42.95964" lon="-0.33257">
        <ele>1364</ele>
        <time>2021-08-20T20:51:37Z</time>
      </trkpt>
      <trkpt lat="42.95972" lon="-0.3325">
        <ele>1365</ele>
        <time>2021-08-20T20:51:38Z</time>
      </trkpt>
      <trkpt lat="42.9598" lon="-0.3324">
        <ele>1366</ele>
        <time>2021-08-20T20:51:40Z</time>
      </trkpt>
      <trkpt lat="42.9599" lon="-0.33195">
        <ele>1373</ele>
        <time>2021-08-20T20:51:46Z</time>
      </trkpt>
      <trkpt lat="42.95994" lon="-0.33186">
        <ele>1374</ele>
        <time>2021-08-20T20:51:48Z</time>
      </trkpt>
      <trkpt lat="42.96043" lon="-0.33128">
        <ele>1384</ele>
        <time>2021-08-20T20:51:59Z</time>
      </trkpt>
      <trkpt lat="42.96056" lon="-0.33123">
        <ele>1386</ele>
        <time>2021-08-20T20:52:02Z</time>
      </trkpt>
      <trkpt lat="42.96086" lon="-0.33117">
        <ele>1387</ele>
        <time>2021-08-20T20:52:07Z</time>
      </trkpt>
      <trkpt lat="42.96103" lon="-0.33107">
        <ele>1390</ele>
        <time>2021-08-20T20:52:10Z</time>
      </trkpt>
      <trkpt lat="42.96111" lon="-0.33106">
        <ele>1391</ele>
        <time>2021-08-20T20:52:12Z</time>
      </trkpt>
      <trkpt lat="42.96121" lon="-0.33109">
        <ele>1390</ele>
        <time>2021-08-20T20:52:14Z</time>
      </trkpt>
      <trkpt lat="42.96131" lon="-0.3311">
        <ele>1390</ele>
        <time>2021-08-20T20:52:15Z</time>
      </trkpt>
      <trkpt lat="42.96151" lon="-0.33104">
        <ele>1392</ele>
        <time>2021-08-20T20:52:19Z</time>
      </trkpt>
      <trkpt lat="42.96184" lon="-0.33088">
        <ele>1398</ele>
        <time>2021-08-20T20:52:25Z</time>
      </trkpt>
      <trkpt lat="42.9622" lon="-0.33064">
        <ele>1406</ele>
        <time>2021-08-20T20:52:32Z</time>
      </trkpt>
      <trkpt lat="42.9625" lon="-0.33047">
        <ele>1412</ele>
        <time>2021-08-20T20:52:38Z</time>
      </trkpt>
      <trkpt lat="42.96274" lon="-0.33038">
        <ele>1422</ele>
        <time>2021-08-20T20:52:43Z</time>
      </trkpt>
      <trkpt lat="42.96294" lon="-0.3304">
        <ele>1426</ele>
        <time>2021-08-20T20:52:46Z</time>
      </trkpt>
      <trkpt lat="42.9631" lon="-0.33048">
        <ele>1428</ele>
        <time>2021-08-20T20:52:49Z</time>
      </trkpt>
      <trkpt lat="42.96327" lon="-0.33063">
        <ele>1428</ele>
        <time>2021-08-20T20:52:53Z</time>
      </trkpt>
      <trkpt lat="42.96336" lon="-0.3309">
        <ele>1422</ele>
        <time>2021-08-20T20:52:57Z</time>
      </trkpt>
      <trkpt lat="42.96348" lon="-0.33116">
        <ele>1419</ele>
        <time>2021-08-20T20:53:01Z</time>
      </trkpt>
      <trkpt lat="42.96357" lon="-0.33124">
        <ele>1420</ele>
        <time>2021-08-20T20:53:03Z</time>
      </trkpt>
      <trkpt lat="42.96369" lon="-0.33124">
        <ele>1424</ele>
        <time>2021-08-20T20:53:05Z</time>
      </trkpt>
      <trkpt lat="42.96381" lon="-0.33128">
        <ele>1427</ele>
        <time>2021-08-20T20:53:07Z</time>
      </trkpt>
      <trkpt lat="42.96413" lon="-0.33146">
        <ele>1430</ele>
        <time>2021-08-20T20:53:13Z</time>
      </trkpt>
      <trkpt lat="42.96437" lon="-0.33155">
        <ele>1437</ele>
        <time>2021-08-20T20:53:18Z</time>
      </trkpt>
      <trkpt lat="42.96446" lon="-0.33166">
        <ele>1436</ele>
        <time>2021-08-20T20:53:20Z</time>
      </trkpt>
      <trkpt lat="42.9645" lon="-0.33177">
        <ele>1435</ele>
        <time>2021-08-20T20:53:21Z</time>
      </trkpt>
      <trkpt lat="42.96457" lon="-0.33185">
        <ele>1436</ele>
        <time>2021-08-20T20:53:23Z</time>
      </trkpt>
      <trkpt lat="42.96476" lon="-0.332">
        <ele>1440</ele>
        <time>2021-08-20T20:53:27Z</time>
      </trkpt>
      <trkpt lat="42.96484" lon="-0.33218">
        <ele>1438</ele>
        <time>2021-08-20T20:53:30Z</time>
      </trkpt>
      <trkpt lat="42.96493" lon="-0.33228">
        <ele>1440</ele>
        <time>2021-08-20T20:53:32Z</time>
      </trkpt>
      <trkpt lat="42.96497" lon="-0.33239">
        <ele>1438</ele>
        <time>2021-08-20T20:53:33Z</time>
      </trkpt>
      <trkpt lat="42.96497" lon="-0.33255">
        <ele>1434</ele>
        <time>2021-08-20T20:53:35Z</time>
      </trkpt>
      <trkpt lat="42.96499" lon="-0.33269">
        <ele>1434</ele>
        <time>2021-08-20T20:53:37Z</time>
      </trkpt>
      <trkpt lat="42.96506" lon="-0.33294">
        <ele>1436</ele>
        <time>2021-08-20T20:53:41Z</time>
      </trkpt>
      <trkpt lat="42.96507" lon="-0.33319">
        <ele>1434</ele>
        <time>2021-08-20T20:53:44Z</time>
      </trkpt>
      <trkpt lat="42.96509" lon="-0.33337">
        <ele>1434</ele>
        <time>2021-08-20T20:53:46Z</time>
      </trkpt>
      <trkpt lat="42.96526" lon="-0.33395">
        <ele>1436</ele>
        <time>2021-08-20T20:53:54Z</time>
      </trkpt>
      <trkpt lat="42.96529" lon="-0.33414">
        <ele>1435</ele>
        <time>2021-08-20T20:53:57Z</time>
      </trkpt>
      <trkpt lat="42.96537" lon="-0.33432">
        <ele>1434</ele>
        <time>2021-08-20T20:54:00Z</time>
      </trkpt>
      <trkpt lat="42.96557" lon="-0.33451">
        <ele>1438</ele>
        <time>2021-08-20T20:54:04Z</time>
      </trkpt>
      <trkpt lat="42.96562" lon="-0.33453">
        <ele>1441</ele>
        <time>2021-08-20T20:54:05Z</time>
      </trkpt>
      <trkpt lat="42.96595" lon="-0.33442">
        <ele>1461</ele>
        <time>2021-08-20T20:54:11Z</time>
      </trkpt>
      <trkpt lat="42.96616" lon="-0.3344">
        <ele>1472</ele>
        <time>2021-08-20T20:54:15Z</time>
      </trkpt>
      <trkpt lat="42.96626" lon="-0.33447">
        <ele>1474</ele>
        <time>2021-08-20T20:54:17Z</time>
      </trkpt>
      <trkpt lat="42.9663" lon="-0.33453">
        <ele>1473</ele>
        <time>2021-08-20T20:54:18Z</time>
      </trkpt>
      <trkpt lat="42.96638" lon="-0.33482">
        <ele>1466</ele>
        <time>2021-08-20T20:54:22Z</time>
      </trkpt>
      <trkpt lat="42.96639" lon="-0.33506">
        <ele>1459</ele>
        <time>2021-08-20T20:54:25Z</time>
      </trkpt>
      <trkpt lat="42.96645" lon="-0.33525">
        <ele>1458</ele>
        <time>2021-08-20T20:54:28Z</time>
      </trkpt>
      <trkpt lat="42.96653" lon="-0.33536">
        <ele>1459</ele>
        <time>2021-08-20T20:54:30Z</time>
      </trkpt>
      <trkpt lat="42.96672" lon="-0.33549">
        <ele>1465</ele>
        <time>2021-08-20T20:54:34Z</time>
      </trkpt>
      <trkpt lat="42.96692" lon="-0.33558">
        <ele>1469</ele>
        <time>2021-08-20T20:54:37Z</time>
      </trkpt>
      <trkpt lat="42.96714" lon="-0.33558">
        <ele>1476</ele>
        <time>2021-08-20T20:54:41Z</time>
      </trkpt>
      <trkpt lat="42.96734" lon="-0.33563">
        <ele>1481</ele>
        <time>2021-08-20T20:54:45Z</time>
      </trkpt>
      <trkpt lat="42.9676" lon="-0.33587">
        <ele>1479</ele>
        <time>2021-08-20T20:54:50Z</time>
      </trkpt>
      <trkpt lat="42.9677" lon="-0.33591">
        <ele>1480</ele>
        <time>2021-08-20T20:54:52Z</time>
      </trkpt>
      <trkpt lat="42.96784" lon="-0.33593">
        <ele>1483</ele>
        <time>2021-08-20T20:54:55Z</time>
      </trkpt>
      <trkpt lat="42.9679" lon="-0.33598">
        <ele>1483</ele>
        <time>2021-08-20T20:54:56Z</time>
      </trkpt>
      <trkpt lat="42.96794" lon="-0.33603">
        <ele>1482</ele>
        <time>2021-08-20T20:54:57Z</time>
      </trkpt>
      <trkpt lat="42.96804" lon="-0.33628">
        <ele>1477</ele>
        <time>2021-08-20T20:55:01Z</time>
      </trkpt>
      <trkpt lat="42.96829" lon="-0.33653">
        <ele>1475</ele>
        <time>2021-08-20T20:55:06Z</time>
      </trkpt>
      <trkpt lat="42.9684" lon="-0.33658">
        <ele>1477</ele>
        <time>2021-08-20T20:55:08Z</time>
      </trkpt>
      <trkpt lat="42.96857" lon="-0.33658">
        <ele>1486</ele>
        <time>2021-08-20T20:55:11Z</time>
      </trkpt>
      <trkpt lat="42.96879" lon="-0.33665">
        <ele>1495</ele>
        <time>2021-08-20T20:55:15Z</time>
      </trkpt>
      <trkpt lat="42.96885" lon="-0.33671">
        <ele>1497</ele>
        <time>2021-08-20T20:55:17Z</time>
      </trkpt>
      <trkpt lat="42.96888" lon="-0.33679">
        <ele>1498</ele>
        <time>2021-08-20T20:55:18Z</time>
      </trkpt>
      <trkpt lat="42.96889" lon="-0.33689">
        <ele>1498</ele>
        <time>2021-08-20T20:55:19Z</time>
      </trkpt>
      <trkpt lat="42.96881" lon="-0.33716">
        <ele>1491</ele>
        <time>2021-08-20T20:55:23Z</time>
      </trkpt>
      <trkpt lat="42.96881" lon="-0.33727">
        <ele>1490</ele>
        <time>2021-08-20T20:55:24Z</time>
      </trkpt>
      <trkpt lat="42.9689" lon="-0.33742">
        <ele>1494</ele>
        <time>2021-08-20T20:55:27Z</time>
      </trkpt>
      <trkpt lat="42.96891" lon="-0.33754">
        <ele>1495</ele>
        <time>2021-08-20T20:55:28Z</time>
      </trkpt>
      <trkpt lat="42.96884" lon="-0.33778">
        <ele>1492</ele>
        <time>2021-08-20T20:55:32Z</time>
      </trkpt>
      <trkpt lat="42.96882" lon="-0.33794">
        <ele>1492</ele>
        <time>2021-08-20T20:55:34Z</time>
      </trkpt>
      <trkpt lat="42.96882" lon="-0.33804">
        <ele>1493</ele>
        <time>2021-08-20T20:55:35Z</time>
      </trkpt>
      <trkpt lat="42.96886" lon="-0.33832">
        <ele>1498</ele>
        <time>2021-08-20T20:55:39Z</time>
      </trkpt>
      <trkpt lat="42.96897" lon="-0.33885">
        <ele>1502</ele>
        <time>2021-08-20T20:55:46Z</time>
      </trkpt>
      <trkpt lat="42.969" lon="-0.33929">
        <ele>1502</ele>
        <time>2021-08-20T20:55:52Z</time>
      </trkpt>
      <trkpt lat="42.96925" lon="-0.34025">
        <ele>1511</ele>
        <time>2021-08-20T20:56:05Z</time>
      </trkpt>
      <trkpt lat="42.96931" lon="-0.34042">
        <ele>1515</ele>
        <time>2021-08-20T20:56:08Z</time>
      </trkpt>
      <trkpt lat="42.9694" lon="-0.34055">
        <ele>1521</ele>
        <time>2021-08-20T20:56:10Z</time>
      </trkpt>
      <trkpt lat="42.96943" lon="-0.34069">
        <ele>1523</ele>
        <time>2021-08-20T20:56:12Z</time>
      </trkpt>
      <trkpt lat="42.96942" lon="-0.34082">
        <ele>1522</ele>
        <time>2021-08-20T20:56:13Z</time>
      </trkpt>
      <trkpt lat="42.96925" lon="-0.34122">
        <ele>1510</ele>
        <time>2021-08-20T20:56:19Z</time>
      </trkpt>
      <trkpt lat="42.96925" lon="-0.34135">
        <ele>1510</ele>
        <time>2021-08-20T20:56:21Z</time>
      </trkpt>
      <trkpt lat="42.9693" lon="-0.3415">
        <ele>1514</ele>
        <time>2021-08-20T20:56:23Z</time>
      </trkpt>
      <trkpt lat="42.96959" lon="-0.34209">
        <ele>1528</ele>
        <time>2021-08-20T20:56:33Z</time>
      </trkpt>
      <trkpt lat="42.96987" lon="-0.3428">
        <ele>1540</ele>
        <time>2021-08-20T20:56:43Z</time>
      </trkpt>
      <trkpt lat="42.96988" lon="-0.34292">
        <ele>1540</ele>
        <time>2021-08-20T20:56:45Z</time>
      </trkpt>
      <trkpt lat="42.96983" lon="-0.34331">
        <ele>1532</ele>
        <time>2021-08-20T20:56:50Z</time>
      </trkpt>
      <trkpt lat="42.96982" lon="-0.34359">
        <ele>1526</ele>
        <time>2021-08-20T20:56:53Z</time>
      </trkpt>
      <trkpt lat="42.96986" lon="-0.34374">
        <ele>1525</ele>
        <time>2021-08-20T20:56:56Z</time>
      </trkpt>
      <trkpt lat="42.96994" lon="-0.34382">
        <ele>1528</ele>
        <time>2021-08-20T20:56:57Z</time>
      </trkpt>
      <trkpt lat="42.97017" lon="-0.34401">
        <ele>1537</ele>
        <time>2021-08-20T20:57:02Z</time>
      </trkpt>
      <trkpt lat="42.97028" lon="-0.34415">
        <ele>1541</ele>
        <time>2021-08-20T20:57:05Z</time>
      </trkpt>
      <trkpt lat="42.97065" lon="-0.3449">
        <ele>1547</ele>
        <time>2021-08-20T20:57:17Z</time>
      </trkpt>
      <trkpt lat="42.97079" lon="-0.34526">
        <ele>1548</ele>
        <time>2021-08-20T20:57:22Z</time>
      </trkpt>
      <trkpt lat="42.97085" lon="-0.34535">
        <ele>1550</ele>
        <time>2021-08-20T20:57:23Z</time>
      </trkpt>
      <trkpt lat="42.97099" lon="-0.34547">
        <ele>1555</ele>
        <time>2021-08-20T20:57:26Z</time>
      </trkpt>
      <trkpt lat="42.97141" lon="-0.34576">
        <ele>1567</ele>
        <time>2021-08-20T20:57:35Z</time>
      </trkpt>
      <trkpt lat="42.97145" lon="-0.34583">
        <ele>1567</ele>
        <time>2021-08-20T20:57:36Z</time>
      </trkpt>
      <trkpt lat="42.97156" lon="-0.34626">
        <ele>1560</ele>
        <time>2021-08-20T20:57:42Z</time>
      </trkpt>
      <trkpt lat="42.97157" lon="-0.34649">
        <ele>1554</ele>
        <time>2021-08-20T20:57:45Z</time>
      </trkpt>
      <trkpt lat="42.97159" lon="-0.34665">
        <ele>1551</ele>
        <time>2021-08-20T20:57:47Z</time>
      </trkpt>
      <trkpt lat="42.97163" lon="-0.34675">
        <ele>1551</ele>
        <time>2021-08-20T20:57:48Z</time>
      </trkpt>
      <trkpt lat="42.97171" lon="-0.34678">
        <ele>1553</ele>
        <time>2021-08-20T20:57:50Z</time>
      </trkpt>
      <trkpt lat="42.97176" lon="-0.34677">
        <ele>1554</ele>
        <time>2021-08-20T20:57:51Z</time>
      </trkpt>
      <trkpt lat="42.97182" lon="-0.34669">
        <ele>1556</ele>
        <time>2021-08-20T20:57:52Z</time>
      </trkpt>
      <trkpt lat="42.97184" lon="-0.34639">
        <ele>1563</ele>
        <time>2021-08-20T20:57:56Z</time>
      </trkpt>
      <trkpt lat="42.97185" lon="-0.34601">
        <ele>1573</ele>
        <time>2021-08-20T20:58:01Z</time>
      </trkpt>
      <trkpt lat="42.97189" lon="-0.34589">
        <ele>1576</ele>
        <time>2021-08-20T20:58:03Z</time>
      </trkpt>
      <trkpt lat="42.97197" lon="-0.34579">
        <ele>1580</ele>
        <time>2021-08-20T20:58:05Z</time>
      </trkpt>
      <trkpt lat="42.97206" lon="-0.34577">
        <ele>1581</ele>
        <time>2021-08-20T20:58:06Z</time>
      </trkpt>
      <trkpt lat="42.97244" lon="-0.34578">
        <ele>1584</ele>
        <time>2021-08-20T20:58:13Z</time>
      </trkpt>
      <trkpt lat="42.9725" lon="-0.34581">
        <ele>1584</ele>
        <time>2021-08-20T20:58:14Z</time>
      </trkpt>
      <trkpt lat="42.97257" lon="-0.3459">
        <ele>1583</ele>
        <time>2021-08-20T20:58:16Z</time>
      </trkpt>
      <trkpt lat="42.97261" lon="-0.34603">
        <ele>1581</ele>
        <time>2021-08-20T20:58:18Z</time>
      </trkpt>
      <trkpt lat="42.97264" lon="-0.3462">
        <ele>1578</ele>
        <time>2021-08-20T20:58:20Z</time>
      </trkpt>
      <trkpt lat="42.9727" lon="-0.34635">
        <ele>1576</ele>
        <time>2021-08-20T20:58:22Z</time>
      </trkpt>
      <trkpt lat="42.97278" lon="-0.34641">
        <ele>1576</ele>
        <time>2021-08-20T20:58:24Z</time>
      </trkpt>
      <trkpt lat="42.97295" lon="-0.34647">
        <ele>1579</ele>
        <time>2021-08-20T20:58:27Z</time>
      </trkpt>
      <trkpt lat="42.97332" lon="-0.34652">
        <ele>1587</ele>
        <time>2021-08-20T20:58:34Z</time>
      </trkpt>
      <trkpt lat="42.97345" lon="-0.34651">
        <ele>1587</ele>
        <time>2021-08-20T20:58:36Z</time>
      </trkpt>
      <trkpt lat="42.97352" lon="-0.34648">
        <ele>1588</ele>
        <time>2021-08-20T20:58:37Z</time>
      </trkpt>
      <trkpt lat="42.97362" lon="-0.34638">
        <ele>1589</ele>
        <time>2021-08-20T20:58:40Z</time>
      </trkpt>
      <trkpt lat="42.97367" lon="-0.34626">
        <ele>1592</ele>
        <time>2021-08-20T20:58:41Z</time>
      </trkpt>
      <trkpt lat="42.97367" lon="-0.34611">
        <ele>1595</ele>
        <time>2021-08-20T20:58:43Z</time>
      </trkpt>
      <trkpt lat="42.97362" lon="-0.34565">
        <ele>1603</ele>
        <time>2021-08-20T20:58:49Z</time>
      </trkpt>
      <trkpt lat="42.97366" lon="-0.34549">
        <ele>1605</ele>
        <time>2021-08-20T20:58:52Z</time>
      </trkpt>
      <trkpt lat="42.97373" lon="-0.34538">
        <ele>1606</ele>
        <time>2021-08-20T20:58:53Z</time>
      </trkpt>
      <trkpt lat="42.97396" lon="-0.34528">
        <ele>1607</ele>
        <time>2021-08-20T20:58:58Z</time>
      </trkpt>
      <trkpt lat="42.97409" lon="-0.34518">
        <ele>1608</ele>
        <time>2021-08-20T20:59:00Z</time>
      </trkpt>
      <trkpt lat="42.97416" lon="-0.34503">
        <ele>1610</ele>
        <time>2021-08-20T20:59:03Z</time>
      </trkpt>
      <trkpt lat="42.97424" lon="-0.34472">
        <ele>1614</ele>
        <time>2021-08-20T20:59:07Z</time>
      </trkpt>
      <trkpt lat="42.97436" lon="-0.34451">
        <ele>1617</ele>
        <time>2021-08-20T20:59:10Z</time>
      </trkpt>
      <trkpt lat="42.97447" lon="-0.34445">
        <ele>1619</ele>
        <time>2021-08-20T20:59:13Z</time>
      </trkpt>
      <trkpt lat="42.97464" lon="-0.34444">
        <ele>1620</ele>
        <time>2021-08-20T20:59:16Z</time>
      </trkpt>
      <trkpt lat="42.97477" lon="-0.34449">
        <ele>1620</ele>
        <time>2021-08-20T20:59:18Z</time>
      </trkpt>
      <trkpt lat="42.97512" lon="-0.34478">
        <ele>1622</ele>
        <time>2021-08-20T20:59:25Z</time>
      </trkpt>
      <trkpt lat="42.97538" lon="-0.34521">
        <ele>1622</ele>
        <time>2021-08-20T20:59:33Z</time>
      </trkpt>
      <trkpt lat="42.97549" lon="-0.34531">
        <ele>1623</ele>
        <time>2021-08-20T20:59:35Z</time>
      </trkpt>
      <trkpt lat="42.9756" lon="-0.34533">
        <ele>1624</ele>
        <time>2021-08-20T20:59:37Z</time>
      </trkpt>
      <trkpt lat="42.97574" lon="-0.34529">
        <ele>1626</ele>
        <time>2021-08-20T20:59:39Z</time>
      </trkpt>
      <trkpt lat="42.97587" lon="-0.34519">
        <ele>1629</ele>
        <time>2021-08-20T20:59:42Z</time>
      </trkpt>
      <trkpt lat="42.97598" lon="-0.34499">
        <ele>1634</ele>
        <time>2021-08-20T20:59:45Z</time>
      </trkpt>
      <trkpt lat="42.97608" lon="-0.34486">
        <ele>1637</ele>
        <time>2021-08-20T20:59:48Z</time>
      </trkpt>
      <trkpt lat="42.97616" lon="-0.34484">
        <ele>1639</ele>
        <time>2021-08-20T20:59:49Z</time>
      </trkpt>
      <trkpt lat="42.97626" lon="-0.34488">
        <ele>1640</ele>
        <time>2021-08-20T20:59:51Z</time>
      </trkpt>
      <trkpt lat="42.97645" lon="-0.34513">
        <ele>1637</ele>
        <time>2021-08-20T20:59:56Z</time>
      </trkpt>
      <trkpt lat="42.9766" lon="-0.34525">
        <ele>1636</ele>
        <time>2021-08-20T20:59:59Z</time>
      </trkpt>
      <trkpt lat="42.97681" lon="-0.34534">
        <ele>1635</ele>
        <time>2021-08-20T21:00:03Z</time>
      </trkpt>
      <trkpt lat="42.97694" lon="-0.34534">
        <ele>1634</ele>
        <time>2021-08-20T21:00:05Z</time>
      </trkpt>
      <trkpt lat="42.97708" lon="-0.34528">
        <ele>1636</ele>
        <time>2021-08-20T21:00:08Z</time>
      </trkpt>
      <trkpt lat="42.97715" lon="-0.34524">
        <ele>1637</ele>
        <time>2021-08-20T21:00:09Z</time>
      </trkpt>
      <trkpt lat="42.97726" lon="-0.3451">
        <ele>1640</ele>
        <time>2021-08-20T21:00:12Z</time>
      </trkpt>
      <trkpt lat="42.97748" lon="-0.34464">
        <ele>1651</ele>
        <time>2021-08-20T21:00:19Z</time>
      </trkpt>
      <trkpt lat="42.97777" lon="-0.34421">
        <ele>1654</ele>
        <time>2021-08-20T21:00:27Z</time>
      </trkpt>
      <trkpt lat="42.97807" lon="-0.34355">
        <ele>1661</ele>
        <time>2021-08-20T21:00:37Z</time>
      </trkpt>
      <trkpt lat="42.97816" lon="-0.34317">
        <ele>1669</ele>
        <time>2021-08-20T21:00:42Z</time>
      </trkpt>
      <trkpt lat="42.97823" lon="-0.34307">
        <ele>1671</ele>
        <time>2021-08-20T21:00:44Z</time>
      </trkpt>
      <trkpt lat="42.97837" lon="-0.34301">
        <ele>1671</ele>
        <time>2021-08-20T21:00:46Z</time>
      </trkpt>
      <trkpt lat="42.97852" lon="-0.343">
        <ele>1671</ele>
        <time>2021-08-20T21:00:49Z</time>
      </trkpt>
      <trkpt lat="42.97873" lon="-0.3431">
        <ele>1667</ele>
        <time>2021-08-20T21:00:53Z</time>
      </trkpt>
      <trkpt lat="42.97888" lon="-0.3431">
        <ele>1667</ele>
        <time>2021-08-20T21:00:56Z</time>
      </trkpt>
      <trkpt lat="42.97897" lon="-0.34301">
        <ele>1669</ele>
        <time>2021-08-20T21:00:58Z</time>
      </trkpt>
      <trkpt lat="42.97897" lon="-0.34289">
        <ele>1673</ele>
        <time>2021-08-20T21:00:59Z</time>
      </trkpt>
      <trkpt lat="42.97894" lon="-0.3428">
        <ele>1676</ele>
        <time>2021-08-20T21:01:00Z</time>
      </trkpt>
      <trkpt lat="42.97886" lon="-0.34273">
        <ele>1679</ele>
        <time>2021-08-20T21:01:02Z</time>
      </trkpt>
      <trkpt lat="42.97849" lon="-0.34279">
        <ele>1678</ele>
        <time>2021-08-20T21:01:09Z</time>
      </trkpt>
      <trkpt lat="42.97818" lon="-0.34275">
        <ele>1682</ele>
        <time>2021-08-20T21:01:14Z</time>
      </trkpt>
      <trkpt lat="42.97806" lon="-0.34279">
        <ele>1683</ele>
        <time>2021-08-20T21:01:16Z</time>
      </trkpt>
      <trkpt lat="42.97787" lon="-0.34302">
        <ele>1679</ele>
        <time>2021-08-20T21:01:21Z</time>
      </trkpt>
      <trkpt lat="42.97774" lon="-0.34314">
        <ele>1678</ele>
        <time>2021-08-20T21:01:24Z</time>
      </trkpt>
      <trkpt lat="42.97747" lon="-0.34324">
        <ele>1679</ele>
        <time>2021-08-20T21:01:29Z</time>
      </trkpt>
      <trkpt lat="42.97734" lon="-0.34322">
        <ele>1679</ele>
        <time>2021-08-20T21:01:31Z</time>
      </trkpt>
      <trkpt lat="42.97724" lon="-0.34318">
        <ele>1679</ele>
        <time>2021-08-20T21:01:33Z</time>
      </trkpt>
      <trkpt lat="42.97714" lon="-0.34308">
        <ele>1680</ele>
        <time>2021-08-20T21:01:35Z</time>
      </trkpt>
      <trkpt lat="42.97709" lon="-0.34292">
        <ele>1683</ele>
        <time>2021-08-20T21:01:37Z</time>
      </trkpt>
      <trkpt lat="42.97698" lon="-0.34232">
        <ele>1693</ele>
        <time>2021-08-20T21:01:45Z</time>
      </trkpt>
      <trkpt lat="42.9769" lon="-0.34208">
        <ele>1695</ele>
        <time>2021-08-20T21:01:49Z</time>
      </trkpt>
      <trkpt lat="42.97651" lon="-0.34155">
        <ele>1695</ele>
        <time>2021-08-20T21:01:59Z</time>
      </trkpt>
      <trkpt lat="42.97638" lon="-0.34129">
        <ele>1696</ele>
        <time>2021-08-20T21:02:03Z</time>
      </trkpt>
      <trkpt lat="42.9763" lon="-0.34102">
        <ele>1698</ele>
        <time>2021-08-20T21:02:07Z</time>
      </trkpt>
      <trkpt lat="42.97627" lon="-0.34074">
        <ele>1701</ele>
        <time>2021-08-20T21:02:10Z</time>
      </trkpt>
      <trkpt lat="42.97628" lon="-0.34044">
        <ele>1704</ele>
        <time>2021-08-20T21:02:14Z</time>
      </trkpt>
      <trkpt lat="42.97634" lon="-0.34019">
        <ele>1707</ele>
        <time>2021-08-20T21:02:18Z</time>
      </trkpt>
      <trkpt lat="42.97657" lon="-0.3398">
        <ele>1709</ele>
        <time>2021-08-20T21:02:24Z</time>
      </trkpt>
      <trkpt lat="42.97662" lon="-0.33965">
        <ele>1708</ele>
        <time>2021-08-20T21:02:26Z</time>
      </trkpt>
      <trkpt lat="42.97662" lon="-0.3395">
        <ele>1707</ele>
        <time>2021-08-20T21:02:28Z</time>
      </trkpt>
      <trkpt lat="42.97641" lon="-0.33903">
        <ele>1705</ele>
        <time>2021-08-20T21:02:35Z</time>
      </trkpt>
      <trkpt lat="42.97637" lon="-0.33891">
        <ele>1704</ele>
        <time>2021-08-20T21:02:37Z</time>
      </trkpt>
      <trkpt lat="42.97622" lon="-0.33823">
        <ele>1696</ele>
        <time>2021-08-20T21:02:46Z</time>
      </trkpt>
      <trkpt lat="42.97612" lon="-0.33801">
        <ele>1694</ele>
        <time>2021-08-20T21:02:50Z</time>
      </trkpt>
      <trkpt lat="42.97598" lon="-0.33786">
        <ele>1694</ele>
        <time>2021-08-20T21:02:53Z</time>
      </trkpt>
      <trkpt lat="42.9754" lon="-0.33739">
        <ele>1694</ele>
        <time>2021-08-20T21:03:05Z</time>
      </trkpt>
      <trkpt lat="42.97529" lon="-0.33725">
        <ele>1693</ele>
        <time>2021-08-20T21:03:08Z</time>
      </trkpt>
      <trkpt lat="42.97521" lon="-0.33711">
        <ele>1692</ele>
        <time>2021-08-20T21:03:10Z</time>
      </trkpt>
      <trkpt lat="42.97514" lon="-0.33684">
        <ele>1686</ele>
        <time>2021-08-20T21:03:14Z</time>
      </trkpt>
      <trkpt lat="42.97514" lon="-0.33631">
        <ele>1679</ele>
        <time>2021-08-20T21:03:20Z</time>
      </trkpt>
      <trkpt lat="42.97506" lon="-0.33555">
        <ele>1673</ele>
        <time>2021-08-20T21:03:30Z</time>
      </trkpt>
      <trkpt lat="42.97499" lon="-0.3351">
        <ele>1668</ele>
        <time>2021-08-20T21:03:36Z</time>
      </trkpt>
      <trkpt lat="42.97492" lon="-0.33485">
        <ele>1666</ele>
        <time>2021-08-20T21:03:40Z</time>
      </trkpt>
      <trkpt lat="42.97485" lon="-0.33465">
        <ele>1666</ele>
        <time>2021-08-20T21:03:43Z</time>
      </trkpt>
      <trkpt lat="42.97472" lon="-0.33444">
        <ele>1666</ele>
        <time>2021-08-20T21:03:46Z</time>
      </trkpt>
      <trkpt lat="42.97445" lon="-0.33412">
        <ele>1669</ele>
        <time>2021-08-20T21:03:53Z</time>
      </trkpt>
      <trkpt lat="42.97436" lon="-0.33393">
        <ele>1667</ele>
        <time>2021-08-20T21:03:56Z</time>
      </trkpt>
      <trkpt lat="42.97408" lon="-0.33309">
        <ele>1659</ele>
        <time>2021-08-20T21:04:08Z</time>
      </trkpt>
      <trkpt lat="42.97392" lon="-0.33274">
        <ele>1656</ele>
        <time>2021-08-20T21:04:13Z</time>
      </trkpt>
      <trkpt lat="42.97367" lon="-0.33242">
        <ele>1653</ele>
        <time>2021-08-20T21:04:19Z</time>
      </trkpt>
      <trkpt lat="42.97335" lon="-0.33213">
        <ele>1650</ele>
        <time>2021-08-20T21:04:26Z</time>
      </trkpt>
      <trkpt lat="42.97311" lon="-0.33202">
        <ele>1646</ele>
        <time>2021-08-20T21:04:31Z</time>
      </trkpt>
      <trkpt lat="42.97295" lon="-0.33198">
        <ele>1645</ele>
        <time>2021-08-20T21:04:33Z</time>
      </trkpt>
      <trkpt lat="42.97279" lon="-0.33196">
        <ele>1644</ele>
        <time>2021-08-20T21:04:36Z</time>
      </trkpt>
      <trkpt lat="42.97259" lon="-0.33198">
        <ele>1644</ele>
        <time>2021-08-20T21:04:40Z</time>
      </trkpt>
      <trkpt lat="42.97234" lon="-0.33205">
        <ele>1649</ele>
        <time>2021-08-20T21:04:44Z</time>
      </trkpt>
      <trkpt lat="42.97223" lon="-0.332">
        <ele>1650</ele>
        <time>2021-08-20T21:04:46Z</time>
      </trkpt>
      <trkpt lat="42.97216" lon="-0.33188">
        <ele>1649</ele>
        <time>2021-08-20T21:04:48Z</time>
      </trkpt>
      <trkpt lat="42.97215" lon="-0.33169">
        <ele>1645</ele>
        <time>2021-08-20T21:04:51Z</time>
      </trkpt>
      <trkpt lat="42.97216" lon="-0.33153">
        <ele>1642</ele>
        <time>2021-08-20T21:04:53Z</time>
      </trkpt>
      <trkpt lat="42.97225" lon="-0.33113">
        <ele>1632</ele>
        <time>2021-08-20T21:04:58Z</time>
      </trkpt>
      <trkpt lat="42.97223" lon="-0.33101">
        <ele>1630</ele>
        <time>2021-08-20T21:05:00Z</time>
      </trkpt>
      <trkpt lat="42.97221" lon="-0.33093">
        <ele>1629</ele>
        <time>2021-08-20T21:05:01Z</time>
      </trkpt>
      <trkpt lat="42.97205" lon="-0.33071">
        <ele>1630</ele>
        <time>2021-08-20T21:05:05Z</time>
      </trkpt>
      <trkpt lat="42.97192" lon="-0.3304">
        <ele>1628</ele>
        <time>2021-08-20T21:05:10Z</time>
      </trkpt>
      <trkpt lat="42.97177" lon="-0.33014">
        <ele>1627</ele>
        <time>2021-08-20T21:05:14Z</time>
      </trkpt>
      <trkpt lat="42.97166" lon="-0.32976">
        <ele>1625</ele>
        <time>2021-08-20T21:05:19Z</time>
      </trkpt>
      <trkpt lat="42.97158" lon="-0.32936">
        <ele>1623</ele>
        <time>2021-08-20T21:05:25Z</time>
      </trkpt>
      <trkpt lat="42.97147" lon="-0.32872">
        <ele>1620</ele>
        <time>2021-08-20T21:05:33Z</time>
      </trkpt>
      <trkpt lat="42.97148" lon="-0.32861">
        <ele>1619</ele>
        <time>2021-08-20T21:05:35Z</time>
      </trkpt>
      <trkpt lat="42.97156" lon="-0.32826">
        <ele>1614</ele>
        <time>2021-08-20T21:05:40Z</time>
      </trkpt>
      <trkpt lat="42.97154" lon="-0.32816">
        <ele>1613</ele>
        <time>2021-08-20T21:05:41Z</time>
      </trkpt>
      <trkpt lat="42.97148" lon="-0.32805">
        <ele>1613</ele>
        <time>2021-08-20T21:05:43Z</time>
      </trkpt>
      <trkpt lat="42.97134" lon="-0.32787">
        <ele>1614</ele>
        <time>2021-08-20T21:05:46Z</time>
      </trkpt>
      <trkpt lat="42.97122" lon="-0.3277">
        <ele>1615</ele>
        <time>2021-08-20T21:05:49Z</time>
      </trkpt>
      <trkpt lat="42.97117" lon="-0.32753">
        <ele>1614</ele>
        <time>2021-08-20T21:05:52Z</time>
      </trkpt>
      <trkpt lat="42.97117" lon="-0.3274">
        <ele>1614</ele>
        <time>2021-08-20T21:05:53Z</time>
      </trkpt>
      <trkpt lat="42.97122" lon="-0.32721">
        <ele>1613</ele>
        <time>2021-08-20T21:05:56Z</time>
      </trkpt>
      <trkpt lat="42.97133" lon="-0.32697">
        <ele>1613</ele>
        <time>2021-08-20T21:06:00Z</time>
      </trkpt>
      <trkpt lat="42.97178" lon="-0.3262">
        <ele>1609</ele>
        <time>2021-08-20T21:06:13Z</time>
      </trkpt>
      <trkpt lat="42.97191" lon="-0.32608">
        <ele>1607</ele>
        <time>2021-08-20T21:06:15Z</time>
      </trkpt>
      <trkpt lat="42.97223" lon="-0.32582">
        <ele>1602</ele>
        <time>2021-08-20T21:06:22Z</time>
      </trkpt>
      <trkpt lat="42.97238" lon="-0.32563">
        <ele>1597</ele>
        <time>2021-08-20T21:06:26Z</time>
      </trkpt>
      <trkpt lat="42.97246" lon="-0.32542">
        <ele>1594</ele>
        <time>2021-08-20T21:06:29Z</time>
      </trkpt>
      <trkpt lat="42.97249" lon="-0.32527">
        <ele>1591</ele>
        <time>2021-08-20T21:06:31Z</time>
      </trkpt>
      <trkpt lat="42.97248" lon="-0.32509">
        <ele>1589</ele>
        <time>2021-08-20T21:06:33Z</time>
      </trkpt>
      <trkpt lat="42.97244" lon="-0.32493">
        <ele>1587</ele>
        <time>2021-08-20T21:06:35Z</time>
      </trkpt>
      <trkpt lat="42.97238" lon="-0.32483">
        <ele>1585</ele>
        <time>2021-08-20T21:06:37Z</time>
      </trkpt>
      <trkpt lat="42.9723" lon="-0.32473">
        <ele>1583</ele>
        <time>2021-08-20T21:06:39Z</time>
      </trkpt>
      <trkpt lat="42.97222" lon="-0.32468">
        <ele>1582</ele>
        <time>2021-08-20T21:06:40Z</time>
      </trkpt>
      <trkpt lat="42.9718" lon="-0.3247">
        <ele>1585</ele>
        <time>2021-08-20T21:06:48Z</time>
      </trkpt>
      <trkpt lat="42.97157" lon="-0.32463">
        <ele>1586</ele>
        <time>2021-08-20T21:06:52Z</time>
      </trkpt>
      <trkpt lat="42.97141" lon="-0.32464">
        <ele>1590</ele>
        <time>2021-08-20T21:06:55Z</time>
      </trkpt>
      <trkpt lat="42.97129" lon="-0.3246">
        <ele>1592</ele>
        <time>2021-08-20T21:06:57Z</time>
      </trkpt>
      <trkpt lat="42.97096" lon="-0.32436">
        <ele>1594</ele>
        <time>2021-08-20T21:07:04Z</time>
      </trkpt>
      <trkpt lat="42.97087" lon="-0.32422">
        <ele>1594</ele>
        <time>2021-08-20T21:07:06Z</time>
      </trkpt>
      <trkpt lat="42.97087" lon="-0.3241">
        <ele>1594</ele>
        <time>2021-08-20T21:07:08Z</time>
      </trkpt>
      <trkpt lat="42.97092" lon="-0.32399">
        <ele>1593</ele>
        <time>2021-08-20T21:07:09Z</time>
      </trkpt>
      <trkpt lat="42.97098" lon="-0.32391">
        <ele>1591</ele>
        <time>2021-08-20T21:07:11Z</time>
      </trkpt>
      <trkpt lat="42.97129" lon="-0.3237">
        <ele>1578</ele>
        <time>2021-08-20T21:07:17Z</time>
      </trkpt>
      <trkpt lat="42.97137" lon="-0.32356">
        <ele>1573</ele>
        <time>2021-08-20T21:07:19Z</time>
      </trkpt>
      <trkpt lat="42.97142" lon="-0.32335">
        <ele>1568</ele>
        <time>2021-08-20T21:07:22Z</time>
      </trkpt>
      <trkpt lat="42.97144" lon="-0.32321">
        <ele>1568</ele>
        <time>2021-08-20T21:07:24Z</time>
      </trkpt>
      <trkpt lat="42.97143" lon="-0.3231">
        <ele>1569</ele>
        <time>2021-08-20T21:07:26Z</time>
      </trkpt>
      <trkpt lat="42.97136" lon="-0.32288">
        <ele>1576</ele>
        <time>2021-08-20T21:07:29Z</time>
      </trkpt>
      <trkpt lat="42.97134" lon="-0.32276">
        <ele>1578</ele>
        <time>2021-08-20T21:07:30Z</time>
      </trkpt>
      <trkpt lat="42.97135" lon="-0.32264">
        <ele>1579</ele>
        <time>2021-08-20T21:07:32Z</time>
      </trkpt>
      <trkpt lat="42.97141" lon="-0.32242">
        <ele>1578</ele>
        <time>2021-08-20T21:07:35Z</time>
      </trkpt>
      <trkpt lat="42.97146" lon="-0.32233">
        <ele>1576</ele>
        <time>2021-08-20T21:07:36Z</time>
      </trkpt>
      <trkpt lat="42.97177" lon="-0.32213">
        <ele>1562</ele>
        <time>2021-08-20T21:07:43Z</time>
      </trkpt>
      <trkpt lat="42.97185" lon="-0.32201">
        <ele>1560</ele>
        <time>2021-08-20T21:07:45Z</time>
      </trkpt>
      <trkpt lat="42.97193" lon="-0.32175">
        <ele>1560</ele>
        <time>2021-08-20T21:07:48Z</time>
      </trkpt>
      <trkpt lat="42.97215" lon="-0.32132">
        <ele>1552</ele>
        <time>2021-08-20T21:07:55Z</time>
      </trkpt>
      <trkpt lat="42.9722" lon="-0.32118">
        <ele>1550</ele>
        <time>2021-08-20T21:07:57Z</time>
      </trkpt>
      <trkpt lat="42.97226" lon="-0.32091">
        <ele>1548</ele>
        <time>2021-08-20T21:08:01Z</time>
      </trkpt>
      <trkpt lat="42.97227" lon="-0.32079">
        <ele>1548</ele>
        <time>2021-08-20T21:08:02Z</time>
      </trkpt>
      <trkpt lat="42.97224" lon="-0.32052">
        <ele>1551</ele>
        <time>2021-08-20T21:08:06Z</time>
      </trkpt>
      <trkpt lat="42.97225" lon="-0.32028">
        <ele>1551</ele>
        <time>2021-08-20T21:08:09Z</time>
      </trkpt>
      <trkpt lat="42.97236" lon="-0.31952">
        <ele>1546</ele>
        <time>2021-08-20T21:08:19Z</time>
      </trkpt>
      <trkpt lat="42.97242" lon="-0.31897">
        <ele>1546</ele>
        <time>2021-08-20T21:08:26Z</time>
      </trkpt>
      <trkpt lat="42.97248" lon="-0.31862">
        <ele>1546</ele>
        <time>2021-08-20T21:08:31Z</time>
      </trkpt>
      <trkpt lat="42.97251" lon="-0.31836">
        <ele>1548</ele>
        <time>2021-08-20T21:08:35Z</time>
      </trkpt>
      <trkpt lat="42.97253" lon="-0.31823">
        <ele>1552</ele>
        <time>2021-08-20T21:08:36Z</time>
      </trkpt>
      <trkpt lat="42.97257" lon="-0.31815">
        <ele>1554</ele>
        <time>2021-08-20T21:08:38Z</time>
      </trkpt>
      <trkpt lat="42.97263" lon="-0.3181">
        <ele>1554</ele>
        <time>2021-08-20T21:08:39Z</time>
      </trkpt>
      <trkpt lat="42.97283" lon="-0.31803">
        <ele>1553</ele>
        <time>2021-08-20T21:08:42Z</time>
      </trkpt>
      <trkpt lat="42.97332" lon="-0.31803">
        <ele>1544</ele>
        <time>2021-08-20T21:08:51Z</time>
      </trkpt>
      <trkpt lat="42.97374" lon="-0.31819">
        <ele>1524</ele>
        <time>2021-08-20T21:08:59Z</time>
      </trkpt>
      <trkpt lat="42.97392" lon="-0.31821">
        <ele>1519</ele>
        <time>2021-08-20T21:09:02Z</time>
      </trkpt>
      <trkpt lat="42.97417" lon="-0.31826">
        <ele>1512</ele>
        <time>2021-08-20T21:09:07Z</time>
      </trkpt>
      <trkpt lat="42.97437" lon="-0.31833">
        <ele>1502</ele>
        <time>2021-08-20T21:09:10Z</time>
      </trkpt>
      <trkpt lat="42.97442" lon="-0.31833">
        <ele>1501</ele>
        <time>2021-08-20T21:09:11Z</time>
      </trkpt>
      <trkpt lat="42.97448" lon="-0.31828">
        <ele>1504</ele>
        <time>2021-08-20T21:09:12Z</time>
      </trkpt>
      <trkpt lat="42.97452" lon="-0.3182">
        <ele>1509</ele>
        <time>2021-08-20T21:09:14Z</time>
      </trkpt>
      <trkpt lat="42.97462" lon="-0.31809">
        <ele>1514</ele>
        <time>2021-08-20T21:09:16Z</time>
      </trkpt>
      <trkpt lat="42.97504" lon="-0.31788">
        <ele>1516</ele>
        <time>2021-08-20T21:09:24Z</time>
      </trkpt>
      <trkpt lat="42.97536" lon="-0.31765">
        <ele>1513</ele>
        <time>2021-08-20T21:09:30Z</time>
      </trkpt>
      <trkpt lat="42.97554" lon="-0.31733">
        <ele>1512</ele>
        <time>2021-08-20T21:09:36Z</time>
      </trkpt>
      <trkpt lat="42.97565" lon="-0.31701">
        <ele>1508</ele>
        <time>2021-08-20T21:09:40Z</time>
      </trkpt>
      <trkpt lat="42.97568" lon="-0.31674">
        <ele>1508</ele>
        <time>2021-08-20T21:09:44Z</time>
      </trkpt>
      <trkpt lat="42.9757" lon="-0.31646">
        <ele>1506</ele>
        <time>2021-08-20T21:09:47Z</time>
      </trkpt>
      <trkpt lat="42.97564" lon="-0.31558">
        <ele>1507</ele>
        <time>2021-08-20T21:09:59Z</time>
      </trkpt>
      <trkpt lat="42.97563" lon="-0.31505">
        <ele>1505</ele>
        <time>2021-08-20T21:10:06Z</time>
      </trkpt>
      <trkpt lat="42.97561" lon="-0.31486">
        <ele>1506</ele>
        <time>2021-08-20T21:10:08Z</time>
      </trkpt>
      <trkpt lat="42.97553" lon="-0.3147">
        <ele>1512</ele>
        <time>2021-08-20T21:10:11Z</time>
      </trkpt>
      <trkpt lat="42.97553" lon="-0.31462">
        <ele>1512</ele>
        <time>2021-08-20T21:10:12Z</time>
      </trkpt>
      <trkpt lat="42.97557" lon="-0.3145">
        <ele>1507</ele>
        <time>2021-08-20T21:10:14Z</time>
      </trkpt>
      <trkpt lat="42.97564" lon="-0.31438">
        <ele>1500</ele>
        <time>2021-08-20T21:10:16Z</time>
      </trkpt>
      <trkpt lat="42.97568" lon="-0.31421">
        <ele>1496</ele>
        <time>2021-08-20T21:10:18Z</time>
      </trkpt>
      <trkpt lat="42.97573" lon="-0.31351">
        <ele>1491</ele>
        <time>2021-08-20T21:10:27Z</time>
      </trkpt>
      <trkpt lat="42.97564" lon="-0.3132">
        <ele>1498</ele>
        <time>2021-08-20T21:10:31Z</time>
      </trkpt>
      <trkpt lat="42.97561" lon="-0.31295">
        <ele>1500</ele>
        <time>2021-08-20T21:10:35Z</time>
      </trkpt>
      <trkpt lat="42.97566" lon="-0.31276">
        <ele>1497</ele>
        <time>2021-08-20T21:10:37Z</time>
      </trkpt>
      <trkpt lat="42.97573" lon="-0.31253">
        <ele>1492</ele>
        <time>2021-08-20T21:10:41Z</time>
      </trkpt>
      <trkpt lat="42.97587" lon="-0.31219">
        <ele>1485</ele>
        <time>2021-08-20T21:10:46Z</time>
      </trkpt>
      <trkpt lat="42.97603" lon="-0.31148">
        <ele>1478</ele>
        <time>2021-08-20T21:10:55Z</time>
      </trkpt>
      <trkpt lat="42.97616" lon="-0.31083">
        <ele>1472</ele>
        <time>2021-08-20T21:11:04Z</time>
      </trkpt>
      <trkpt lat="42.97616" lon="-0.31062">
        <ele>1467</ele>
        <time>2021-08-20T21:11:07Z</time>
      </trkpt>
      <trkpt lat="42.97614" lon="-0.31045">
        <ele>1465</ele>
        <time>2021-08-20T21:11:09Z</time>
      </trkpt>
      <trkpt lat="42.97612" lon="-0.3104">
        <ele>1465</ele>
        <time>2021-08-20T21:11:10Z</time>
      </trkpt>
      <trkpt lat="42.9761" lon="-0.31036">
        <ele>1465</ele>
        <time>2021-08-20T21:11:10Z</time>
      </trkpt>
      <trkpt lat="42.97559" lon="-0.30974">
        <ele>1474</ele>
        <time>2021-08-20T21:11:23Z</time>
      </trkpt>
      <trkpt lat="42.97524" lon="-0.30914">
        <ele>1464</ele>
        <time>2021-08-20T21:11:33Z</time>
      </trkpt>
      <trkpt lat="42.97483" lon="-0.30872">
        <ele>1469</ele>
        <time>2021-08-20T21:11:42Z</time>
      </trkpt>
      <trkpt lat="42.97467" lon="-0.30845">
        <ele>1466</ele>
        <time>2021-08-20T21:11:46Z</time>
      </trkpt>
      <trkpt lat="42.97448" lon="-0.30802">
        <ele>1466</ele>
        <time>2021-08-20T21:11:53Z</time>
      </trkpt>
      <trkpt lat="42.97446" lon="-0.30792">
        <ele>1465</ele>
        <time>2021-08-20T21:11:54Z</time>
      </trkpt>
      <trkpt lat="42.97448" lon="-0.30781">
        <ele>1462</ele>
        <time>2021-08-20T21:11:56Z</time>
      </trkpt>
      <trkpt lat="42.97453" lon="-0.30767">
        <ele>1458</ele>
        <time>2021-08-20T21:11:58Z</time>
      </trkpt>
      <trkpt lat="42.97462" lon="-0.30749">
        <ele>1451</ele>
        <time>2021-08-20T21:12:00Z</time>
      </trkpt>
      <trkpt lat="42.97466" lon="-0.30723">
        <ele>1450</ele>
        <time>2021-08-20T21:12:04Z</time>
      </trkpt>
      <trkpt lat="42.97481" lon="-0.30599">
        <ele>1445</ele>
        <time>2021-08-20T21:12:20Z</time>
      </trkpt>
      <trkpt lat="42.97479" lon="-0.30576">
        <ele>1444</ele>
        <time>2021-08-20T21:12:23Z</time>
      </trkpt>
      <trkpt lat="42.97475" lon="-0.30566">
        <ele>1442</ele>
        <time>2021-08-20T21:12:25Z</time>
      </trkpt>
      <trkpt lat="42.9746" lon="-0.30548">
        <ele>1442</ele>
        <time>2021-08-20T21:12:28Z</time>
      </trkpt>
      <trkpt lat="42.97438" lon="-0.30534">
        <ele>1445</ele>
        <time>2021-08-20T21:12:33Z</time>
      </trkpt>
      <trkpt lat="42.97427" lon="-0.30525">
        <ele>1446</ele>
        <time>2021-08-20T21:12:35Z</time>
      </trkpt>
      <trkpt lat="42.97414" lon="-0.30508">
        <ele>1445</ele>
        <time>2021-08-20T21:12:38Z</time>
      </trkpt>
      <trkpt lat="42.97393" lon="-0.30477">
        <ele>1439</ele>
        <time>2021-08-20T21:12:44Z</time>
      </trkpt>
      <trkpt lat="42.97384" lon="-0.30469">
        <ele>1438</ele>
        <time>2021-08-20T21:12:46Z</time>
      </trkpt>
      <trkpt lat="42.97377" lon="-0.30465">
        <ele>1438</ele>
        <time>2021-08-20T21:12:47Z</time>
      </trkpt>
      <trkpt lat="42.97367" lon="-0.30463">
        <ele>1439</ele>
        <time>2021-08-20T21:12:49Z</time>
      </trkpt>
      <trkpt lat="42.97352" lon="-0.30465">
        <ele>1443</ele>
        <time>2021-08-20T21:12:51Z</time>
      </trkpt>
      <trkpt lat="42.97344" lon="-0.30462">
        <ele>1444</ele>
        <time>2021-08-20T21:12:53Z</time>
      </trkpt>
      <trkpt lat="42.97321" lon="-0.30444">
        <ele>1441</ele>
        <time>2021-08-20T21:12:58Z</time>
      </trkpt>
      <trkpt lat="42.97312" lon="-0.30443">
        <ele>1442</ele>
        <time>2021-08-20T21:12:59Z</time>
      </trkpt>
      <trkpt lat="42.973" lon="-0.30446">
        <ele>1446</ele>
        <time>2021-08-20T21:13:01Z</time>
      </trkpt>
      <trkpt lat="42.97282" lon="-0.30446">
        <ele>1449</ele>
        <time>2021-08-20T21:13:05Z</time>
      </trkpt>
      <trkpt lat="42.97274" lon="-0.30442">
        <ele>1449</ele>
        <time>2021-08-20T21:13:06Z</time>
      </trkpt>
      <trkpt lat="42.97268" lon="-0.30435">
        <ele>1447</ele>
        <time>2021-08-20T21:13:07Z</time>
      </trkpt>
      <trkpt lat="42.97255" lon="-0.30415">
        <ele>1441</ele>
        <time>2021-08-20T21:13:11Z</time>
      </trkpt>
      <trkpt lat="42.97241" lon="-0.30398">
        <ele>1440</ele>
        <time>2021-08-20T21:13:14Z</time>
      </trkpt>
      <trkpt lat="42.97227" lon="-0.30369">
        <ele>1438</ele>
        <time>2021-08-20T21:13:19Z</time>
      </trkpt>
      <trkpt lat="42.97206" lon="-0.30344">
        <ele>1440</ele>
        <time>2021-08-20T21:13:24Z</time>
      </trkpt>
      <trkpt lat="42.97172" lon="-0.30285">
        <ele>1437</ele>
        <time>2021-08-20T21:13:34Z</time>
      </trkpt>
      <trkpt lat="42.97147" lon="-0.30234">
        <ele>1435</ele>
        <time>2021-08-20T21:13:42Z</time>
      </trkpt>
      <trkpt lat="42.9713" lon="-0.30209">
        <ele>1433</ele>
        <time>2021-08-20T21:13:46Z</time>
      </trkpt>
      <trkpt lat="42.97115" lon="-0.30193">
        <ele>1433</ele>
        <time>2021-08-20T21:13:49Z</time>
      </trkpt>
      <trkpt lat="42.97093" lon="-0.30176">
        <ele>1434</ele>
        <time>2021-08-20T21:13:54Z</time>
      </trkpt>
      <trkpt lat="42.9704" lon="-0.30129">
        <ele>1434</ele>
        <time>2021-08-20T21:14:05Z</time>
      </trkpt>
      <trkpt lat="42.97027" lon="-0.30114">
        <ele>1433</ele>
        <time>2021-08-20T21:14:08Z</time>
      </trkpt>
      <trkpt lat="42.9702" lon="-0.30097">
        <ele>1429</ele>
        <time>2021-08-20T21:14:11Z</time>
      </trkpt>
      <trkpt lat="42.97012" lon="-0.30064">
        <ele>1420</ele>
        <time>2021-08-20T21:14:15Z</time>
      </trkpt>
      <trkpt lat="42.97005" lon="-0.30053">
        <ele>1419</ele>
        <time>2021-08-20T21:14:17Z</time>
      </trkpt>
      <trkpt lat="42.97" lon="-0.3005">
        <ele>1420</ele>
        <time>2021-08-20T21:14:18Z</time>
      </trkpt>
      <trkpt lat="42.9699" lon="-0.30051">
        <ele>1418</ele>
        <time>2021-08-20T21:14:20Z</time>
      </trkpt>
      <trkpt lat="42.96977" lon="-0.3006">
        <ele>1419</ele>
        <time>2021-08-20T21:14:22Z</time>
      </trkpt>
      <trkpt lat="42.96898" lon="-0.30122">
        <ele>1428</ele>
        <time>2021-08-20T21:14:39Z</time>
      </trkpt>
      <trkpt lat="42.96868" lon="-0.30149">
        <ele>1427</ele>
        <time>2021-08-20T21:14:45Z</time>
      </trkpt>
      <trkpt lat="42.96836" lon="-0.30195">
        <ele>1433</ele>
        <time>2021-08-20T21:14:53Z</time>
      </trkpt>
      <trkpt lat="42.96829" lon="-0.30201">
        <ele>1433</ele>
        <time>2021-08-20T21:14:55Z</time>
      </trkpt>
      <trkpt lat="42.96823" lon="-0.30203">
        <ele>1432</ele>
        <time>2021-08-20T21:14:56Z</time>
      </trkpt>
      <trkpt lat="42.9679" lon="-0.30198">
        <ele>1420</ele>
        <time>2021-08-20T21:15:02Z</time>
      </trkpt>
      <trkpt lat="42.96779" lon="-0.302">
        <ele>1417</ele>
        <time>2021-08-20T21:15:04Z</time>
      </trkpt>
      <trkpt lat="42.9677" lon="-0.30204">
        <ele>1416</ele>
        <time>2021-08-20T21:15:05Z</time>
      </trkpt>
      <trkpt lat="42.96756" lon="-0.30214">
        <ele>1416</ele>
        <time>2021-08-20T21:15:08Z</time>
      </trkpt>
      <trkpt lat="42.9671" lon="-0.30262">
        <ele>1428</ele>
        <time>2021-08-20T21:15:19Z</time>
      </trkpt>
      <trkpt lat="42.96694" lon="-0.30273">
        <ele>1428</ele>
        <time>2021-08-20T21:15:22Z</time>
      </trkpt>
      <trkpt lat="42.96682" lon="-0.30276">
        <ele>1428</ele>
        <time>2021-08-20T21:15:24Z</time>
      </trkpt>
      <trkpt lat="42.96665" lon="-0.30275">
        <ele>1425</ele>
        <time>2021-08-20T21:15:27Z</time>
      </trkpt>
      <trkpt lat="42.96655" lon="-0.30272">
        <ele>1423</ele>
        <time>2021-08-20T21:15:29Z</time>
      </trkpt>
      <trkpt lat="42.96647" lon="-0.30265">
        <ele>1420</ele>
        <time>2021-08-20T21:15:30Z</time>
      </trkpt>
      <trkpt lat="42.96637" lon="-0.30248">
        <ele>1415</ele>
        <time>2021-08-20T21:15:33Z</time>
      </trkpt>
      <trkpt lat="42.96627" lon="-0.30225">
        <ele>1409</ele>
        <time>2021-08-20T21:15:37Z</time>
      </trkpt>
      <trkpt lat="42.9661" lon="-0.30196">
        <ele>1402</ele>
        <time>2021-08-20T21:15:42Z</time>
      </trkpt>
      <trkpt lat="42.96601" lon="-0.30187">
        <ele>1401</ele>
        <time>2021-08-20T21:15:44Z</time>
      </trkpt>
      <trkpt lat="42.96595" lon="-0.30185">
        <ele>1401</ele>
        <time>2021-08-20T21:15:45Z</time>
      </trkpt>
      <trkpt lat="42.96588" lon="-0.30186">
        <ele>1402</ele>
        <time>2021-08-20T21:15:46Z</time>
      </trkpt>
      <trkpt lat="42.96525" lon="-0.30225">
        <ele>1396</ele>
        <time>2021-08-20T21:15:58Z</time>
      </trkpt>
      <trkpt lat="42.96477" lon="-0.30263">
        <ele>1392</ele>
        <time>2021-08-20T21:16:08Z</time>
      </trkpt>
      <trkpt lat="42.96461" lon="-0.3028">
        <ele>1391</ele>
        <time>2021-08-20T21:16:12Z</time>
      </trkpt>
      <trkpt lat="42.96437" lon="-0.30297">
        <ele>1389</ele>
        <time>2021-08-20T21:16:17Z</time>
      </trkpt>
      <trkpt lat="42.96427" lon="-0.30315">
        <ele>1391</ele>
        <time>2021-08-20T21:16:19Z</time>
      </trkpt>
      <trkpt lat="42.96422" lon="-0.30321">
        <ele>1391</ele>
        <time>2021-08-20T21:16:21Z</time>
      </trkpt>
      <trkpt lat="42.96418" lon="-0.30323">
        <ele>1391</ele>
        <time>2021-08-20T21:16:21Z</time>
      </trkpt>
      <trkpt lat="42.96415" lon="-0.30325">
        <ele>1392</ele>
        <time>2021-08-20T21:16:22Z</time>
      </trkpt>
      <trkpt lat="42.9641" lon="-0.30326">
        <ele>1395</ele>
        <time>2021-08-20T21:16:23Z</time>
      </trkpt>
      <trkpt lat="42.96406" lon="-0.30328">
        <ele>1398</ele>
        <time>2021-08-20T21:16:24Z</time>
      </trkpt>
      <trkpt lat="42.96379" lon="-0.30332">
        <ele>1414</ele>
        <time>2021-08-20T21:16:29Z</time>
      </trkpt>
      <trkpt lat="42.9637" lon="-0.30325">
        <ele>1417</ele>
        <time>2021-08-20T21:16:30Z</time>
      </trkpt>
      <trkpt lat="42.96354" lon="-0.30279">
        <ele>1408</ele>
        <time>2021-08-20T21:16:37Z</time>
      </trkpt>
      <trkpt lat="42.96327" lon="-0.30161">
        <ele>1384</ele>
        <time>2021-08-20T21:16:53Z</time>
      </trkpt>
      <trkpt lat="42.96291" lon="-0.30059">
        <ele>1388</ele>
        <time>2021-08-20T21:17:08Z</time>
      </trkpt>
      <trkpt lat="42.96276" lon="-0.30021">
        <ele>1389</ele>
        <time>2021-08-20T21:17:13Z</time>
      </trkpt>
      <trkpt lat="42.96257" lon="-0.29944">
        <ele>1377</ele>
        <time>2021-08-20T21:17:24Z</time>
      </trkpt>
      <trkpt lat="42.96242" lon="-0.29926">
        <ele>1382</ele>
        <time>2021-08-20T21:17:28Z</time>
      </trkpt>
      <trkpt lat="42.96231" lon="-0.29898">
        <ele>1377</ele>
        <time>2021-08-20T21:17:32Z</time>
      </trkpt>
      <trkpt lat="42.96213" lon="-0.29875">
        <ele>1378</ele>
        <time>2021-08-20T21:17:36Z</time>
      </trkpt>
      <trkpt lat="42.96175" lon="-0.29801">
        <ele>1362</ele>
        <time>2021-08-20T21:17:48Z</time>
      </trkpt>
      <trkpt lat="42.96166" lon="-0.29791">
        <ele>1363</ele>
        <time>2021-08-20T21:17:50Z</time>
      </trkpt>
      <trkpt lat="42.96129" lon="-0.29771">
        <ele>1378</ele>
        <time>2021-08-20T21:17:57Z</time>
      </trkpt>
      <trkpt lat="42.96093" lon="-0.29737">
        <ele>1386</ele>
        <time>2021-08-20T21:18:05Z</time>
      </trkpt>
      <trkpt lat="42.96081" lon="-0.2971">
        <ele>1381</ele>
        <time>2021-08-20T21:18:09Z</time>
      </trkpt>
      <trkpt lat="42.96059" lon="-0.29653">
        <ele>1370</ele>
        <time>2021-08-20T21:18:17Z</time>
      </trkpt>
      <trkpt lat="42.96039" lon="-0.29613">
        <ele>1365</ele>
        <time>2021-08-20T21:18:24Z</time>
      </trkpt>
      <trkpt lat="42.96024" lon="-0.29591">
        <ele>1366</ele>
        <time>2021-08-20T21:18:28Z</time>
      </trkpt>
      <trkpt lat="42.96012" lon="-0.2958">
        <ele>1371</ele>
        <time>2021-08-20T21:18:30Z</time>
      </trkpt>
      <trkpt lat="42.95988" lon="-0.29564">
        <ele>1385</ele>
        <time>2021-08-20T21:18:35Z</time>
      </trkpt>
      <trkpt lat="42.95957" lon="-0.29531">
        <ele>1395</ele>
        <time>2021-08-20T21:18:42Z</time>
      </trkpt>
      <trkpt lat="42.95946" lon="-0.29511">
        <ele>1394</ele>
        <time>2021-08-20T21:18:45Z</time>
      </trkpt>
      <trkpt lat="42.95941" lon="-0.29491">
        <ele>1387</ele>
        <time>2021-08-20T21:18:48Z</time>
      </trkpt>
      <trkpt lat="42.95937" lon="-0.29467">
        <ele>1377</ele>
        <time>2021-08-20T21:18:51Z</time>
      </trkpt>
      <trkpt lat="42.95935" lon="-0.29454">
        <ele>1371</ele>
        <time>2021-08-20T21:18:53Z</time>
      </trkpt>
      <trkpt lat="42.95932" lon="-0.29444">
        <ele>1368</ele>
        <time>2021-08-20T21:18:54Z</time>
      </trkpt>
      <trkpt lat="42.95878" lon="-0.29374">
        <ele>1369</ele>
        <time>2021-08-20T21:19:07Z</time>
      </trkpt>
      <trkpt lat="42.95855" lon="-0.29328">
        <ele>1367</ele>
        <time>2021-08-20T21:19:15Z</time>
      </trkpt>
      <trkpt lat="42.95839" lon="-0.29312">
        <ele>1376</ele>
        <time>2021-08-20T21:19:18Z</time>
      </trkpt>
      <trkpt lat="42.9583" lon="-0.29299">
        <ele>1381</ele>
        <time>2021-08-20T21:19:21Z</time>
      </trkpt>
      <trkpt lat="42.95826" lon="-0.2928">
        <ele>1380</ele>
        <time>2021-08-20T21:19:23Z</time>
      </trkpt>
      <trkpt lat="42.9583" lon="-0.29238">
        <ele>1367</ele>
        <time>2021-08-20T21:19:29Z</time>
      </trkpt>
      <trkpt lat="42.95828" lon="-0.29223">
        <ele>1365</ele>
        <time>2021-08-20T21:19:31Z</time>
      </trkpt>
      <trkpt lat="42.95824" lon="-0.29209">
        <ele>1365</ele>
        <time>2021-08-20T21:19:33Z</time>
      </trkpt>
      <trkpt lat="42.95819" lon="-0.29197">
        <ele>1366</ele>
        <time>2021-08-20T21:19:34Z</time>
      </trkpt>
      <trkpt lat="42.95807" lon="-0.29182">
        <ele>1373</ele>
        <time>2021-08-20T21:19:37Z</time>
      </trkpt>
      <trkpt lat="42.95804" lon="-0.29173">
        <ele>1373</ele>
        <time>2021-08-20T21:19:39Z</time>
      </trkpt>
      <trkpt lat="42.95803" lon="-0.29164">
        <ele>1371</ele>
        <time>2021-08-20T21:19:40Z</time>
      </trkpt>
      <trkpt lat="42.95806" lon="-0.29135">
        <ele>1350</ele>
        <time>2021-08-20T21:19:44Z</time>
      </trkpt>
      <trkpt lat="42.95805" lon="-0.29125">
        <ele>1345</ele>
        <time>2021-08-20T21:19:45Z</time>
      </trkpt>
      <trkpt lat="42.95803" lon="-0.29117">
        <ele>1342</ele>
        <time>2021-08-20T21:19:46Z</time>
      </trkpt>
      <trkpt lat="42.95795" lon="-0.29108">
        <ele>1344</ele>
        <time>2021-08-20T21:19:48Z</time>
      </trkpt>
      <trkpt lat="42.95769" lon="-0.29101">
        <ele>1366</ele>
        <time>2021-08-20T21:19:53Z</time>
      </trkpt>
      <trkpt lat="42.9574" lon="-0.29061">
        <ele>1367</ele>
        <time>2021-08-20T21:20:00Z</time>
      </trkpt>
      <trkpt lat="42.95736" lon="-0.29059">
        <ele>1370</ele>
        <time>2021-08-20T21:20:01Z</time>
      </trkpt>
      <trkpt lat="42.9572" lon="-0.29063">
        <ele>1389</ele>
        <time>2021-08-20T21:20:04Z</time>
      </trkpt>
      <trkpt lat="42.95696" lon="-0.29069">
        <ele>1418</ele>
        <time>2021-08-20T21:20:08Z</time>
      </trkpt>
      <trkpt lat="42.9562" lon="-0.29075">
        <ele>1483</ele>
        <time>2021-08-20T21:20:21Z</time>
      </trkpt>
      <trkpt lat="42.95607" lon="-0.29073">
        <ele>1491</ele>
        <time>2021-08-20T21:20:24Z</time>
      </trkpt>
      <trkpt lat="42.95588" lon="-0.29061">
        <ele>1495</ele>
        <time>2021-08-20T21:20:27Z</time>
      </trkpt>
      <trkpt lat="42.95518" lon="-0.2899">
        <ele>1446</ele>
        <time>2021-08-20T21:20:43Z</time>
      </trkpt>
      <trkpt lat="42.95506" lon="-0.28978">
        <ele>1433</ele>
        <time>2021-08-20T21:20:46Z</time>
      </trkpt>
      <trkpt lat="42.95499" lon="-0.28964">
        <ele>1417</ele>
        <time>2021-08-20T21:20:48Z</time>
      </trkpt>
      <trkpt lat="42.95496" lon="-0.28953">
        <ele>1404</ele>
        <time>2021-08-20T21:20:49Z</time>
      </trkpt>
      <trkpt lat="42.95496" lon="-0.2894">
        <ele>1388</ele>
        <time>2021-08-20T21:20:51Z</time>
      </trkpt>
      <trkpt lat="42.95494" lon="-0.28929">
        <ele>1375</ele>
        <time>2021-08-20T21:20:53Z</time>
      </trkpt>
      <trkpt lat="42.9549" lon="-0.2892">
        <ele>1367</ele>
        <time>2021-08-20T21:20:54Z</time>
      </trkpt>
      <trkpt lat="42.95484" lon="-0.28911">
        <ele>1365</ele>
        <time>2021-08-20T21:20:55Z</time>
      </trkpt>
      <trkpt lat="42.9546" lon="-0.2889">
        <ele>1376</ele>
        <time>2021-08-20T21:21:01Z</time>
      </trkpt>
      <trkpt lat="42.95444" lon="-0.28867">
        <ele>1379</ele>
        <time>2021-08-20T21:21:05Z</time>
      </trkpt>
      <trkpt lat="42.95439" lon="-0.28857">
        <ele>1379</ele>
        <time>2021-08-20T21:21:06Z</time>
      </trkpt>
      <trkpt lat="42.95434" lon="-0.2884">
        <ele>1376</ele>
        <time>2021-08-20T21:21:09Z</time>
      </trkpt>
      <trkpt lat="42.9543" lon="-0.28807">
        <ele>1370</ele>
        <time>2021-08-20T21:21:13Z</time>
      </trkpt>
      <trkpt lat="42.95423" lon="-0.28782">
        <ele>1368</ele>
        <time>2021-08-20T21:21:17Z</time>
      </trkpt>
      <trkpt lat="42.95401" lon="-0.2872">
        <ele>1375</ele>
        <time>2021-08-20T21:21:25Z</time>
      </trkpt>
      <trkpt lat="42.9539" lon="-0.28684">
        <ele>1379</ele>
        <time>2021-08-20T21:21:31Z</time>
      </trkpt>
      <trkpt lat="42.9539" lon="-0.28674">
        <ele>1378</ele>
        <time>2021-08-20T21:21:32Z</time>
      </trkpt>
      <trkpt lat="42.95394" lon="-0.28663">
        <ele>1375</ele>
        <time>2021-08-20T21:21:33Z</time>
      </trkpt>
      <trkpt lat="42.95401" lon="-0.28651">
        <ele>1371</ele>
        <time>2021-08-20T21:21:35Z</time>
      </trkpt>
      <trkpt lat="42.9541" lon="-0.28637">
        <ele>1367</ele>
        <time>2021-08-20T21:21:38Z</time>
      </trkpt>
      <trkpt lat="42.95421" lon="-0.28601">
        <ele>1364</ele>
        <time>2021-08-20T21:21:43Z</time>
      </trkpt>
      <trkpt lat="42.95439" lon="-0.28567">
        <ele>1364</ele>
        <time>2021-08-20T21:21:48Z</time>
      </trkpt>
      <trkpt lat="42.95461" lon="-0.28513">
        <ele>1367</ele>
        <time>2021-08-20T21:21:56Z</time>
      </trkpt>
      <trkpt lat="42.95493" lon="-0.28458">
        <ele>1360</ele>
        <time>2021-08-20T21:22:06Z</time>
      </trkpt>
      <trkpt lat="42.95503" lon="-0.28412">
        <ele>1357</ele>
        <time>2021-08-20T21:22:12Z</time>
      </trkpt>
      <trkpt lat="42.95504" lon="-0.28395">
        <ele>1356</ele>
        <time>2021-08-20T21:22:14Z</time>
      </trkpt>
      <trkpt lat="42.95502" lon="-0.2838">
        <ele>1356</ele>
        <time>2021-08-20T21:22:16Z</time>
      </trkpt>
      <trkpt lat="42.9549" lon="-0.2835">
        <ele>1364</ele>
        <time>2021-08-20T21:22:21Z</time>
      </trkpt>
      <trkpt lat="42.95489" lon="-0.28341">
        <ele>1365</ele>
        <time>2021-08-20T21:22:22Z</time>
      </trkpt>
      <trkpt lat="42.95491" lon="-0.28326">
        <ele>1364</ele>
        <time>2021-08-20T21:22:24Z</time>
      </trkpt>
      <trkpt lat="42.95494" lon="-0.28312">
        <ele>1363</ele>
        <time>2021-08-20T21:22:26Z</time>
      </trkpt>
      <trkpt lat="42.95496" lon="-0.28248">
        <ele>1369</ele>
        <time>2021-08-20T21:22:34Z</time>
      </trkpt>
      <trkpt lat="42.95501" lon="-0.28185">
        <ele>1366</ele>
        <time>2021-08-20T21:22:42Z</time>
      </trkpt>
      <trkpt lat="42.95499" lon="-0.28159">
        <ele>1369</ele>
        <time>2021-08-20T21:22:46Z</time>
      </trkpt>
      <trkpt lat="42.95487" lon="-0.28124">
        <ele>1389</ele>
        <time>2021-08-20T21:22:51Z</time>
      </trkpt>
      <trkpt lat="42.95486" lon="-0.2811">
        <ele>1391</ele>
        <time>2021-08-20T21:22:52Z</time>
      </trkpt>
      <trkpt lat="42.95491" lon="-0.28095">
        <ele>1388</ele>
        <time>2021-08-20T21:22:55Z</time>
      </trkpt>
      <trkpt lat="42.95511" lon="-0.28055">
        <ele>1381</ele>
        <time>2021-08-20T21:23:01Z</time>
      </trkpt>
      <trkpt lat="42.95517" lon="-0.28039">
        <ele>1382</ele>
        <time>2021-08-20T21:23:03Z</time>
      </trkpt>
      <trkpt lat="42.95523" lon="-0.28001">
        <ele>1388</ele>
        <time>2021-08-20T21:23:08Z</time>
      </trkpt>
      <trkpt lat="42.9553" lon="-0.27967">
        <ele>1388</ele>
        <time>2021-08-20T21:23:13Z</time>
      </trkpt>
      <trkpt lat="42.9554" lon="-0.2784">
        <ele>1393</ele>
        <time>2021-08-20T21:23:30Z</time>
      </trkpt>
      <trkpt lat="42.95542" lon="-0.27821">
        <ele>1394</ele>
        <time>2021-08-20T21:23:32Z</time>
      </trkpt>
      <trkpt lat="42.9554" lon="-0.27801">
        <ele>1396</ele>
        <time>2021-08-20T21:23:35Z</time>
      </trkpt>
      <trkpt lat="42.95534" lon="-0.27773">
        <ele>1399</ele>
        <time>2021-08-20T21:23:38Z</time>
      </trkpt>
      <trkpt lat="42.95531" lon="-0.27746">
        <ele>1401</ele>
        <time>2021-08-20T21:23:42Z</time>
      </trkpt>
      <trkpt lat="42.95531" lon="-0.27733">
        <ele>1402</ele>
        <time>2021-08-20T21:23:44Z</time>
      </trkpt>
      <trkpt lat="42.95537" lon="-0.27721">
        <ele>1403</ele>
        <time>2021-08-20T21:23:46Z</time>
      </trkpt>
      <trkpt lat="42.9555" lon="-0.27708">
        <ele>1402</ele>
        <time>2021-08-20T21:23:48Z</time>
      </trkpt>
      <trkpt lat="42.95573" lon="-0.27683">
        <ele>1402</ele>
        <time>2021-08-20T21:23:54Z</time>
      </trkpt>
      <trkpt lat="42.95594" lon="-0.27663">
        <ele>1403</ele>
        <time>2021-08-20T21:23:58Z</time>
      </trkpt>
      <trkpt lat="42.9564" lon="-0.27628">
        <ele>1410</ele>
        <time>2021-08-20T21:24:08Z</time>
      </trkpt>
      <trkpt lat="42.95648" lon="-0.27626">
        <ele>1411</ele>
        <time>2021-08-20T21:24:09Z</time>
      </trkpt>
      <trkpt lat="42.95662" lon="-0.27627">
        <ele>1410</ele>
        <time>2021-08-20T21:24:12Z</time>
      </trkpt>
      <trkpt lat="42.95685" lon="-0.27634">
        <ele>1410</ele>
        <time>2021-08-20T21:24:16Z</time>
      </trkpt>
      <trkpt lat="42.95718" lon="-0.27637">
        <ele>1413</ele>
        <time>2021-08-20T21:24:22Z</time>
      </trkpt>
      <trkpt lat="42.95735" lon="-0.27644">
        <ele>1413</ele>
        <time>2021-08-20T21:24:25Z</time>
      </trkpt>
      <trkpt lat="42.9576" lon="-0.27662">
        <ele>1406</ele>
        <time>2021-08-20T21:24:30Z</time>
      </trkpt>
      <trkpt lat="42.95771" lon="-0.27664">
        <ele>1402</ele>
        <time>2021-08-20T21:24:32Z</time>
      </trkpt>
      <trkpt lat="42.95779" lon="-0.27661">
        <ele>1401</ele>
        <time>2021-08-20T21:24:33Z</time>
      </trkpt>
      <trkpt lat="42.95786" lon="-0.27651">
        <ele>1402</ele>
        <time>2021-08-20T21:24:35Z</time>
      </trkpt>
      <trkpt lat="42.95814" lon="-0.27548">
        <ele>1427</ele>
        <time>2021-08-20T21:24:49Z</time>
      </trkpt>
      <trkpt lat="42.95822" lon="-0.27498">
        <ele>1439</ele>
        <time>2021-08-20T21:24:56Z</time>
      </trkpt>
      <trkpt lat="42.95827" lon="-0.27484">
        <ele>1438</ele>
        <time>2021-08-20T21:24:58Z</time>
      </trkpt>
      <trkpt lat="42.9584" lon="-0.27458">
        <ele>1434</ele>
        <time>2021-08-20T21:25:02Z</time>
      </trkpt>
      <trkpt lat="42.95844" lon="-0.27446">
        <ele>1433</ele>
        <time>2021-08-20T21:25:04Z</time>
      </trkpt>
      <trkpt lat="42.95842" lon="-0.27424">
        <ele>1434</ele>
        <time>2021-08-20T21:25:07Z</time>
      </trkpt>
      <trkpt lat="42.95821" lon="-0.27377">
        <ele>1440</ele>
        <time>2021-08-20T21:25:14Z</time>
      </trkpt>
      <trkpt lat="42.9581" lon="-0.2734">
        <ele>1445</ele>
        <time>2021-08-20T21:25:19Z</time>
      </trkpt>
      <trkpt lat="42.95804" lon="-0.27288">
        <ele>1449</ele>
        <time>2021-08-20T21:25:26Z</time>
      </trkpt>
      <trkpt lat="42.95805" lon="-0.27272">
        <ele>1448</ele>
        <time>2021-08-20T21:25:28Z</time>
      </trkpt>
      <trkpt lat="42.9581" lon="-0.27251">
        <ele>1446</ele>
        <time>2021-08-20T21:25:31Z</time>
      </trkpt>
      <trkpt lat="42.95831" lon="-0.27188">
        <ele>1441</ele>
        <time>2021-08-20T21:25:40Z</time>
      </trkpt>
      <trkpt lat="42.95834" lon="-0.27171">
        <ele>1441</ele>
        <time>2021-08-20T21:25:42Z</time>
      </trkpt>
      <trkpt lat="42.95835" lon="-0.27154">
        <ele>1441</ele>
        <time>2021-08-20T21:25:45Z</time>
      </trkpt>
      <trkpt lat="42.95831" lon="-0.27114">
        <ele>1443</ele>
        <time>2021-08-20T21:25:50Z</time>
      </trkpt>
      <trkpt lat="42.95828" lon="-0.27093">
        <ele>1444</ele>
        <time>2021-08-20T21:25:53Z</time>
      </trkpt>
      <trkpt lat="42.95827" lon="-0.2707">
        <ele>1446</ele>
        <time>2021-08-20T21:25:56Z</time>
      </trkpt>
      <trkpt lat="42.95829" lon="-0.27059">
        <ele>1446</ele>
        <time>2021-08-20T21:25:57Z</time>
      </trkpt>
      <trkpt lat="42.95834" lon="-0.27047">
        <ele>1445</ele>
        <time>2021-08-20T21:25:59Z</time>
      </trkpt>
      <trkpt lat="42.95855" lon="-0.27017">
        <ele>1441</ele>
        <time>2021-08-20T21:26:04Z</time>
      </trkpt>
      <trkpt lat="42.95861" lon="-0.27004">
        <ele>1441</ele>
        <time>2021-08-20T21:26:06Z</time>
      </trkpt>
      <trkpt lat="42.95883" lon="-0.26929">
        <ele>1446</ele>
        <time>2021-08-20T21:26:17Z</time>
      </trkpt>
      <trkpt lat="42.9591" lon="-0.26894">
        <ele>1443</ele>
        <time>2021-08-20T21:26:23Z</time>
      </trkpt>
      <trkpt lat="42.95921" lon="-0.26875">
        <ele>1443</ele>
        <time>2021-08-20T21:26:27Z</time>
      </trkpt>
      <trkpt lat="42.95934" lon="-0.26846">
        <ele>1445</ele>
        <time>2021-08-20T21:26:31Z</time>
      </trkpt>
      <trkpt lat="42.95937" lon="-0.26831">
        <ele>1446</ele>
        <time>2021-08-20T21:26:33Z</time>
      </trkpt>
      <trkpt lat="42.95942" lon="-0.26769">
        <ele>1446</ele>
        <time>2021-08-20T21:26:41Z</time>
      </trkpt>
      <trkpt lat="42.95988" lon="-0.26526">
        <ele>1452</ele>
        <time>2021-08-20T21:27:14Z</time>
      </trkpt>
      <trkpt lat="42.9599" lon="-0.26505">
        <ele>1453</ele>
        <time>2021-08-20T21:27:17Z</time>
      </trkpt>
      <trkpt lat="42.95994" lon="-0.2649">
        <ele>1454</ele>
        <time>2021-08-20T21:27:19Z</time>
      </trkpt>
      <trkpt lat="42.96" lon="-0.26476">
        <ele>1455</ele>
        <time>2021-08-20T21:27:21Z</time>
      </trkpt>
      <trkpt lat="42.96017" lon="-0.26442">
        <ele>1458</ele>
        <time>2021-08-20T21:27:26Z</time>
      </trkpt>
      <trkpt lat="42.96028" lon="-0.26416">
        <ele>1459</ele>
        <time>2021-08-20T21:27:30Z</time>
      </trkpt>
      <trkpt lat="42.9604" lon="-0.26376">
        <ele>1462</ele>
        <time>2021-08-20T21:27:36Z</time>
      </trkpt>
      <trkpt lat="42.96044" lon="-0.26354">
        <ele>1464</ele>
        <time>2021-08-20T21:27:39Z</time>
      </trkpt>
      <trkpt lat="42.96054" lon="-0.26278">
        <ele>1468</ele>
        <time>2021-08-20T21:27:49Z</time>
      </trkpt>
      <trkpt lat="42.9606" lon="-0.26218">
        <ele>1470</ele>
        <time>2021-08-20T21:27:57Z</time>
      </trkpt>
      <trkpt lat="42.96064" lon="-0.26177">
        <ele>1470</ele>
        <time>2021-08-20T21:28:02Z</time>
      </trkpt>
      <trkpt lat="42.96063" lon="-0.2616">
        <ele>1471</ele>
        <time>2021-08-20T21:28:04Z</time>
      </trkpt>
      <trkpt lat="42.96063" lon="-0.26138">
        <ele>1471</ele>
        <time>2021-08-20T21:28:07Z</time>
      </trkpt>
      <trkpt lat="42.96062" lon="-0.26125">
        <ele>1471</ele>
        <time>2021-08-20T21:28:09Z</time>
      </trkpt>
      <trkpt lat="42.96061" lon="-0.26099">
        <ele>1470</ele>
        <time>2021-08-20T21:28:12Z</time>
      </trkpt>
      <trkpt lat="42.96061" lon="-0.26081">
        <ele>1470</ele>
        <time>2021-08-20T21:28:14Z</time>
      </trkpt>
      <trkpt lat="42.96058" lon="-0.26026">
        <ele>1466</ele>
        <time>2021-08-20T21:28:22Z</time>
      </trkpt>
      <trkpt lat="42.96055" lon="-0.26017">
        <ele>1464</ele>
        <time>2021-08-20T21:28:23Z</time>
      </trkpt>
      <trkpt lat="42.96037" lon="-0.25986">
        <ele>1458</ele>
        <time>2021-08-20T21:28:28Z</time>
      </trkpt>
      <trkpt lat="42.96033" lon="-0.25964">
        <ele>1456</ele>
        <time>2021-08-20T21:28:31Z</time>
      </trkpt>
      <trkpt lat="42.96032" lon="-0.25938">
        <ele>1453</ele>
        <time>2021-08-20T21:28:34Z</time>
      </trkpt>
      <trkpt lat="42.96035" lon="-0.25916">
        <ele>1452</ele>
        <time>2021-08-20T21:28:37Z</time>
      </trkpt>
      <trkpt lat="42.96055" lon="-0.25858">
        <ele>1449</ele>
        <time>2021-08-20T21:28:46Z</time>
      </trkpt>
      <trkpt lat="42.96078" lon="-0.25755">
        <ele>1444</ele>
        <time>2021-08-20T21:29:00Z</time>
      </trkpt>
      <trkpt lat="42.9608" lon="-0.2574">
        <ele>1444</ele>
        <time>2021-08-20T21:29:02Z</time>
      </trkpt>
      <trkpt lat="42.96081" lon="-0.25659">
        <ele>1440</ele>
        <time>2021-08-20T21:29:12Z</time>
      </trkpt>
      <trkpt lat="42.96081" lon="-0.2565">
        <ele>1439</ele>
        <time>2021-08-20T21:29:13Z</time>
      </trkpt>
      <trkpt lat="42.9608" lon="-0.25645">
        <ele>1439</ele>
        <time>2021-08-20T21:29:14Z</time>
      </trkpt>
      <trkpt lat="42.96077" lon="-0.25631">
        <ele>1437</ele>
        <time>2021-08-20T21:29:16Z</time>
      </trkpt>
      <trkpt lat="42.96075" lon="-0.25627">
        <ele>1436</ele>
        <time>2021-08-20T21:29:17Z</time>
      </trkpt>
      <trkpt lat="42.96072" lon="-0.25619">
        <ele>1435</ele>
        <time>2021-08-20T21:29:18Z</time>
      </trkpt>
      <trkpt lat="42.9604" lon="-0.2559">
        <ele>1426</ele>
        <time>2021-08-20T21:29:25Z</time>
      </trkpt>
      <trkpt lat="42.96033" lon="-0.25579">
        <ele>1424</ele>
        <time>2021-08-20T21:29:27Z</time>
      </trkpt>
      <trkpt lat="42.96027" lon="-0.25559">
        <ele>1423</ele>
        <time>2021-08-20T21:29:29Z</time>
      </trkpt>
      <trkpt lat="42.96024" lon="-0.25533">
        <ele>1422</ele>
        <time>2021-08-20T21:29:33Z</time>
      </trkpt>
      <trkpt lat="42.96028" lon="-0.25495">
        <ele>1422</ele>
        <time>2021-08-20T21:29:38Z</time>
      </trkpt>
      <trkpt lat="42.96031" lon="-0.25478">
        <ele>1421</ele>
        <time>2021-08-20T21:29:40Z</time>
      </trkpt>
      <trkpt lat="42.96044" lon="-0.25455">
        <ele>1421</ele>
        <time>2021-08-20T21:29:44Z</time>
      </trkpt>
      <trkpt lat="42.96069" lon="-0.25421">
        <ele>1420</ele>
        <time>2021-08-20T21:29:50Z</time>
      </trkpt>
      <trkpt lat="42.96094" lon="-0.25405">
        <ele>1421</ele>
        <time>2021-08-20T21:29:55Z</time>
      </trkpt>
      <trkpt lat="42.96106" lon="-0.254">
        <ele>1421</ele>
        <time>2021-08-20T21:29:57Z</time>
      </trkpt>
      <trkpt lat="42.96112" lon="-0.25391">
        <ele>1420</ele>
        <time>2021-08-20T21:29:59Z</time>
      </trkpt>
      <trkpt lat="42.96114" lon="-0.25385">
        <ele>1419</ele>
        <time>2021-08-20T21:30:00Z</time>
      </trkpt>
      <trkpt lat="42.96116" lon="-0.25379">
        <ele>1418</ele>
        <time>2021-08-20T21:30:01Z</time>
      </trkpt>
      <trkpt lat="42.96118" lon="-0.25288">
        <ele>1406</ele>
        <time>2021-08-20T21:30:12Z</time>
      </trkpt>
      <trkpt lat="42.96119" lon="-0.25273">
        <ele>1405</ele>
        <time>2021-08-20T21:30:14Z</time>
      </trkpt>
      <trkpt lat="42.96124" lon="-0.25255">
        <ele>1405</ele>
        <time>2021-08-20T21:30:17Z</time>
      </trkpt>
      <trkpt lat="42.96125" lon="-0.25238">
        <ele>1405</ele>
        <time>2021-08-20T21:30:19Z</time>
      </trkpt>
      <trkpt lat="42.9612" lon="-0.25224">
        <ele>1403</ele>
        <time>2021-08-20T21:30:21Z</time>
      </trkpt>
      <trkpt lat="42.96103" lon="-0.25202">
        <ele>1399</ele>
        <time>2021-08-20T21:30:25Z</time>
      </trkpt>
      <trkpt lat="42.96094" lon="-0.25184">
        <ele>1396</ele>
        <time>2021-08-20T21:30:28Z</time>
      </trkpt>
      <trkpt lat="42.96093" lon="-0.2517">
        <ele>1396</ele>
        <time>2021-08-20T21:30:30Z</time>
      </trkpt>
      <trkpt lat="42.96095" lon="-0.25156">
        <ele>1395</ele>
        <time>2021-08-20T21:30:32Z</time>
      </trkpt>
      <trkpt lat="42.96113" lon="-0.25098">
        <ele>1397</ele>
        <time>2021-08-20T21:30:40Z</time>
      </trkpt>
      <trkpt lat="42.96115" lon="-0.25081">
        <ele>1397</ele>
        <time>2021-08-20T21:30:42Z</time>
      </trkpt>
      <trkpt lat="42.96113" lon="-0.25068">
        <ele>1397</ele>
        <time>2021-08-20T21:30:44Z</time>
      </trkpt>
      <trkpt lat="42.96108" lon="-0.25053">
        <ele>1395</ele>
        <time>2021-08-20T21:30:46Z</time>
      </trkpt>
      <trkpt lat="42.96101" lon="-0.25046">
        <ele>1393</ele>
        <time>2021-08-20T21:30:48Z</time>
      </trkpt>
      <trkpt lat="42.96091" lon="-0.25039">
        <ele>1390</ele>
        <time>2021-08-20T21:30:50Z</time>
      </trkpt>
      <trkpt lat="42.96076" lon="-0.25036">
        <ele>1387</ele>
        <time>2021-08-20T21:30:52Z</time>
      </trkpt>
      <trkpt lat="42.96036" lon="-0.25033">
        <ele>1376</ele>
        <time>2021-08-20T21:30:59Z</time>
      </trkpt>
      <trkpt lat="42.96024" lon="-0.25027">
        <ele>1373</ele>
        <time>2021-08-20T21:31:02Z</time>
      </trkpt>
      <trkpt lat="42.96016" lon="-0.25018">
        <ele>1371</ele>
        <time>2021-08-20T21:31:04Z</time>
      </trkpt>
      <trkpt lat="42.96006" lon="-0.2499">
        <ele>1368</ele>
        <time>2021-08-20T21:31:08Z</time>
      </trkpt>
      <trkpt lat="42.96003" lon="-0.24962">
        <ele>1367</ele>
        <time>2021-08-20T21:31:11Z</time>
      </trkpt>
      <trkpt lat="42.96004" lon="-0.24943">
        <ele>1367</ele>
        <time>2021-08-20T21:31:14Z</time>
      </trkpt>
      <trkpt lat="42.96028" lon="-0.24861">
        <ele>1363</ele>
        <time>2021-08-20T21:31:25Z</time>
      </trkpt>
      <trkpt lat="42.96046" lon="-0.24839">
        <ele>1365</ele>
        <time>2021-08-20T21:31:30Z</time>
      </trkpt>
      <trkpt lat="42.96057" lon="-0.24823">
        <ele>1365</ele>
        <time>2021-08-20T21:31:32Z</time>
      </trkpt>
      <trkpt lat="42.96069" lon="-0.24801">
        <ele>1364</ele>
        <time>2021-08-20T21:31:36Z</time>
      </trkpt>
      <trkpt lat="42.96077" lon="-0.2478">
        <ele>1362</ele>
        <time>2021-08-20T21:31:39Z</time>
      </trkpt>
      <trkpt lat="42.96082" lon="-0.24765">
        <ele>1361</ele>
        <time>2021-08-20T21:31:41Z</time>
      </trkpt>
      <trkpt lat="42.9609" lon="-0.24723">
        <ele>1357</ele>
        <time>2021-08-20T21:31:47Z</time>
      </trkpt>
      <trkpt lat="42.96102" lon="-0.24678">
        <ele>1354</ele>
        <time>2021-08-20T21:31:53Z</time>
      </trkpt>
      <trkpt lat="42.96124" lon="-0.24612">
        <ele>1346</ele>
        <time>2021-08-20T21:32:03Z</time>
      </trkpt>
      <trkpt lat="42.96133" lon="-0.24593">
        <ele>1345</ele>
        <time>2021-08-20T21:32:06Z</time>
      </trkpt>
      <trkpt lat="42.96228" lon="-0.24498">
        <ele>1341</ele>
        <time>2021-08-20T21:32:27Z</time>
      </trkpt>
      <trkpt lat="42.96246" lon="-0.24478">
        <ele>1339</ele>
        <time>2021-08-20T21:32:31Z</time>
      </trkpt>
      <trkpt lat="42.96257" lon="-0.24464">
        <ele>1337</ele>
        <time>2021-08-20T21:32:33Z</time>
      </trkpt>
      <trkpt lat="42.96266" lon="-0.24441">
        <ele>1332</ele>
        <time>2021-08-20T21:32:37Z</time>
      </trkpt>
      <trkpt lat="42.96297" lon="-0.2436">
        <ele>1320</ele>
        <time>2021-08-20T21:32:49Z</time>
      </trkpt>
      <trkpt lat="42.9631" lon="-0.24338">
        <ele>1319</ele>
        <time>2021-08-20T21:32:52Z</time>
      </trkpt>
      <trkpt lat="42.96341" lon="-0.24296">
        <ele>1319</ele>
        <time>2021-08-20T21:33:00Z</time>
      </trkpt>
      <trkpt lat="42.96346" lon="-0.2428">
        <ele>1318</ele>
        <time>2021-08-20T21:33:02Z</time>
      </trkpt>
      <trkpt lat="42.96347" lon="-0.24272">
        <ele>1318</ele>
        <time>2021-08-20T21:33:03Z</time>
      </trkpt>
      <trkpt lat="42.96347" lon="-0.24265">
        <ele>1317</ele>
        <time>2021-08-20T21:33:04Z</time>
      </trkpt>
      <trkpt lat="42.96341" lon="-0.24249">
        <ele>1315</ele>
        <time>2021-08-20T21:33:07Z</time>
      </trkpt>
      <trkpt lat="42.9633" lon="-0.2424">
        <ele>1312</ele>
        <time>2021-08-20T21:33:09Z</time>
      </trkpt>
      <trkpt lat="42.96322" lon="-0.24237">
        <ele>1310</ele>
        <time>2021-08-20T21:33:10Z</time>
      </trkpt>
      <trkpt lat="42.963" lon="-0.24236">
        <ele>1306</ele>
        <time>2021-08-20T21:33:14Z</time>
      </trkpt>
      <trkpt lat="42.96288" lon="-0.24228">
        <ele>1303</ele>
        <time>2021-08-20T21:33:17Z</time>
      </trkpt>
      <trkpt lat="42.96281" lon="-0.24218">
        <ele>1301</ele>
        <time>2021-08-20T21:33:18Z</time>
      </trkpt>
      <trkpt lat="42.96274" lon="-0.24202">
        <ele>1299</ele>
        <time>2021-08-20T21:33:21Z</time>
      </trkpt>
      <trkpt lat="42.9627" lon="-0.24186">
        <ele>1297</ele>
        <time>2021-08-20T21:33:23Z</time>
      </trkpt>
      <trkpt lat="42.96269" lon="-0.24174">
        <ele>1297</ele>
        <time>2021-08-20T21:33:25Z</time>
      </trkpt>
      <trkpt lat="42.9627" lon="-0.24161">
        <ele>1296</ele>
        <time>2021-08-20T21:33:26Z</time>
      </trkpt>
      <trkpt lat="42.96273" lon="-0.24148">
        <ele>1294</ele>
        <time>2021-08-20T21:33:28Z</time>
      </trkpt>
      <trkpt lat="42.96283" lon="-0.24131">
        <ele>1293</ele>
        <time>2021-08-20T21:33:31Z</time>
      </trkpt>
      <trkpt lat="42.9629" lon="-0.24123">
        <ele>1292</ele>
        <time>2021-08-20T21:33:33Z</time>
      </trkpt>
      <trkpt lat="42.96309" lon="-0.24109">
        <ele>1291</ele>
        <time>2021-08-20T21:33:36Z</time>
      </trkpt>
      <trkpt lat="42.96323" lon="-0.24105">
        <ele>1291</ele>
        <time>2021-08-20T21:33:39Z</time>
      </trkpt>
      <trkpt lat="42.96341" lon="-0.24108">
        <ele>1293</ele>
        <time>2021-08-20T21:33:42Z</time>
      </trkpt>
      <trkpt lat="42.96357" lon="-0.24106">
        <ele>1294</ele>
        <time>2021-08-20T21:33:45Z</time>
      </trkpt>
      <trkpt lat="42.9637" lon="-0.24097">
        <ele>1294</ele>
        <time>2021-08-20T21:33:48Z</time>
      </trkpt>
      <trkpt lat="42.96376" lon="-0.2409">
        <ele>1293</ele>
        <time>2021-08-20T21:33:49Z</time>
      </trkpt>
      <trkpt lat="42.96413" lon="-0.24023">
        <ele>1289</ele>
        <time>2021-08-20T21:34:00Z</time>
      </trkpt>
      <trkpt lat="42.96416" lon="-0.24014">
        <ele>1288</ele>
        <time>2021-08-20T21:34:01Z</time>
      </trkpt>
      <trkpt lat="42.96417" lon="-0.24005">
        <ele>1288</ele>
        <time>2021-08-20T21:34:02Z</time>
      </trkpt>
      <trkpt lat="42.96415" lon="-0.23992">
        <ele>1286</ele>
        <time>2021-08-20T21:34:04Z</time>
      </trkpt>
      <trkpt lat="42.96412" lon="-0.23982">
        <ele>1285</ele>
        <time>2021-08-20T21:34:06Z</time>
      </trkpt>
      <trkpt lat="42.96397" lon="-0.23953">
        <ele>1280</ele>
        <time>2021-08-20T21:34:10Z</time>
      </trkpt>
      <trkpt lat="42.9639" lon="-0.23925">
        <ele>1276</ele>
        <time>2021-08-20T21:34:14Z</time>
      </trkpt>
      <trkpt lat="42.96387" lon="-0.23907">
        <ele>1274</ele>
        <time>2021-08-20T21:34:17Z</time>
      </trkpt>
      <trkpt lat="42.96389" lon="-0.23892">
        <ele>1273</ele>
        <time>2021-08-20T21:34:18Z</time>
      </trkpt>
      <trkpt lat="42.96399" lon="-0.23868">
        <ele>1275</ele>
        <time>2021-08-20T21:34:22Z</time>
      </trkpt>
      <trkpt lat="42.96402" lon="-0.2385">
        <ele>1276</ele>
        <time>2021-08-20T21:34:24Z</time>
      </trkpt>
      <trkpt lat="42.96397" lon="-0.23823">
        <ele>1274</ele>
        <time>2021-08-20T21:34:28Z</time>
      </trkpt>
      <trkpt lat="42.96387" lon="-0.23791">
        <ele>1271</ele>
        <time>2021-08-20T21:34:33Z</time>
      </trkpt>
      <trkpt lat="42.96375" lon="-0.23752">
        <ele>1268</ele>
        <time>2021-08-20T21:34:38Z</time>
      </trkpt>
      <trkpt lat="42.96359" lon="-0.2371">
        <ele>1263</ele>
        <time>2021-08-20T21:34:44Z</time>
      </trkpt>
      <trkpt lat="42.96342" lon="-0.23671">
        <ele>1257</ele>
        <time>2021-08-20T21:34:50Z</time>
      </trkpt>
      <trkpt lat="42.96323" lon="-0.23638">
        <ele>1252</ele>
        <time>2021-08-20T21:34:56Z</time>
      </trkpt>
      <trkpt lat="42.96315" lon="-0.23622">
        <ele>1250</ele>
        <time>2021-08-20T21:34:58Z</time>
      </trkpt>
      <trkpt lat="42.96305" lon="-0.23592">
        <ele>1248</ele>
        <time>2021-08-20T21:35:03Z</time>
      </trkpt>
      <trkpt lat="42.96266" lon="-0.23452">
        <ele>1239</ele>
        <time>2021-08-20T21:35:22Z</time>
      </trkpt>
      <trkpt lat="42.96247" lon="-0.23392">
        <ele>1233</ele>
        <time>2021-08-20T21:35:31Z</time>
      </trkpt>
      <trkpt lat="42.96237" lon="-0.23364">
        <ele>1229</ele>
        <time>2021-08-20T21:35:35Z</time>
      </trkpt>
      <trkpt lat="42.96233" lon="-0.23351">
        <ele>1228</ele>
        <time>2021-08-20T21:35:36Z</time>
      </trkpt>
      <trkpt lat="42.96232" lon="-0.23328">
        <ele>1227</ele>
        <time>2021-08-20T21:35:39Z</time>
      </trkpt>
      <trkpt lat="42.96234" lon="-0.23297">
        <ele>1224</ele>
        <time>2021-08-20T21:35:43Z</time>
      </trkpt>
      <trkpt lat="42.96268" lon="-0.23178">
        <ele>1217</ele>
        <time>2021-08-20T21:36:00Z</time>
      </trkpt>
      <trkpt lat="42.96277" lon="-0.2316">
        <ele>1215</ele>
        <time>2021-08-20T21:36:03Z</time>
      </trkpt>
      <trkpt lat="42.96288" lon="-0.23145">
        <ele>1214</ele>
        <time>2021-08-20T21:36:06Z</time>
      </trkpt>
      <trkpt lat="42.96337" lon="-0.23095">
        <ele>1211</ele>
        <time>2021-08-20T21:36:17Z</time>
      </trkpt>
      <trkpt lat="42.96355" lon="-0.23086">
        <ele>1209</ele>
        <time>2021-08-20T21:36:20Z</time>
      </trkpt>
      <trkpt lat="42.96364" lon="-0.23085">
        <ele>1209</ele>
        <time>2021-08-20T21:36:22Z</time>
      </trkpt>
      <trkpt lat="42.96379" lon="-0.23088">
        <ele>1210</ele>
        <time>2021-08-20T21:36:24Z</time>
      </trkpt>
      <trkpt lat="42.96392" lon="-0.23089">
        <ele>1210</ele>
        <time>2021-08-20T21:36:27Z</time>
      </trkpt>
      <trkpt lat="42.96403" lon="-0.23085">
        <ele>1210</ele>
        <time>2021-08-20T21:36:29Z</time>
      </trkpt>
      <trkpt lat="42.9641" lon="-0.2308">
        <ele>1209</ele>
        <time>2021-08-20T21:36:30Z</time>
      </trkpt>
      <trkpt lat="42.96416" lon="-0.23071">
        <ele>1208</ele>
        <time>2021-08-20T21:36:32Z</time>
      </trkpt>
      <trkpt lat="42.96421" lon="-0.2305">
        <ele>1206</ele>
        <time>2021-08-20T21:36:35Z</time>
      </trkpt>
      <trkpt lat="42.96426" lon="-0.23015">
        <ele>1202</ele>
        <time>2021-08-20T21:36:39Z</time>
      </trkpt>
      <trkpt lat="42.9643" lon="-0.23002">
        <ele>1201</ele>
        <time>2021-08-20T21:36:41Z</time>
      </trkpt>
      <trkpt lat="42.96442" lon="-0.22985">
        <ele>1199</ele>
        <time>2021-08-20T21:36:44Z</time>
      </trkpt>
      <trkpt lat="42.96452" lon="-0.22975">
        <ele>1198</ele>
        <time>2021-08-20T21:36:46Z</time>
      </trkpt>
      <trkpt lat="42.96476" lon="-0.22956">
        <ele>1198</ele>
        <time>2021-08-20T21:36:51Z</time>
      </trkpt>
      <trkpt lat="42.9649" lon="-0.2294">
        <ele>1197</ele>
        <time>2021-08-20T21:36:54Z</time>
      </trkpt>
      <trkpt lat="42.96506" lon="-0.22905">
        <ele>1192</ele>
        <time>2021-08-20T21:37:00Z</time>
      </trkpt>
      <trkpt lat="42.96525" lon="-0.22837">
        <ele>1181</ele>
        <time>2021-08-20T21:37:09Z</time>
      </trkpt>
      <trkpt lat="42.9653" lon="-0.22817">
        <ele>1178</ele>
        <time>2021-08-20T21:37:12Z</time>
      </trkpt>
      <trkpt lat="42.96538" lon="-0.22791">
        <ele>1175</ele>
        <time>2021-08-20T21:37:16Z</time>
      </trkpt>
      <trkpt lat="42.96546" lon="-0.22774">
        <ele>1173</ele>
        <time>2021-08-20T21:37:18Z</time>
      </trkpt>
      <trkpt lat="42.96554" lon="-0.22762">
        <ele>1172</ele>
        <time>2021-08-20T21:37:20Z</time>
      </trkpt>
      <trkpt lat="42.96568" lon="-0.22755">
        <ele>1173</ele>
        <time>2021-08-20T21:37:23Z</time>
      </trkpt>
      <trkpt lat="42.9658" lon="-0.22754">
        <ele>1175</ele>
        <time>2021-08-20T21:37:25Z</time>
      </trkpt>
      <trkpt lat="42.96595" lon="-0.22758">
        <ele>1175</ele>
        <time>2021-08-20T21:37:28Z</time>
      </trkpt>
      <trkpt lat="42.96611" lon="-0.22766">
        <ele>1176</ele>
        <time>2021-08-20T21:37:31Z</time>
      </trkpt>
      <trkpt lat="42.96638" lon="-0.22791">
        <ele>1177</ele>
        <time>2021-08-20T21:37:37Z</time>
      </trkpt>
      <trkpt lat="42.96649" lon="-0.22795">
        <ele>1177</ele>
        <time>2021-08-20T21:37:39Z</time>
      </trkpt>
      <trkpt lat="42.9666" lon="-0.22794">
        <ele>1177</ele>
        <time>2021-08-20T21:37:41Z</time>
      </trkpt>
      <trkpt lat="42.96678" lon="-0.22783">
        <ele>1175</ele>
        <time>2021-08-20T21:37:44Z</time>
      </trkpt>
      <trkpt lat="42.96711" lon="-0.22748">
        <ele>1171</ele>
        <time>2021-08-20T21:37:52Z</time>
      </trkpt>
      <trkpt lat="42.96717" lon="-0.22733">
        <ele>1170</ele>
        <time>2021-08-20T21:37:54Z</time>
      </trkpt>
      <trkpt lat="42.96719" lon="-0.22721">
        <ele>1169</ele>
        <time>2021-08-20T21:37:56Z</time>
      </trkpt>
      <trkpt lat="42.96719" lon="-0.22704">
        <ele>1168</ele>
        <time>2021-08-20T21:37:58Z</time>
      </trkpt>
      <trkpt lat="42.9671" lon="-0.22662">
        <ele>1164</ele>
        <time>2021-08-20T21:38:03Z</time>
      </trkpt>
      <trkpt lat="42.96708" lon="-0.22638">
        <ele>1162</ele>
        <time>2021-08-20T21:38:07Z</time>
      </trkpt>
      <trkpt lat="42.9671" lon="-0.22618">
        <ele>1161</ele>
        <time>2021-08-20T21:38:09Z</time>
      </trkpt>
      <trkpt lat="42.96728" lon="-0.2252">
        <ele>1152</ele>
        <time>2021-08-20T21:38:22Z</time>
      </trkpt>
      <trkpt lat="42.96729" lon="-0.22508">
        <ele>1150</ele>
        <time>2021-08-20T21:38:24Z</time>
      </trkpt>
      <trkpt lat="42.96727" lon="-0.22492">
        <ele>1149</ele>
        <time>2021-08-20T21:38:26Z</time>
      </trkpt>
      <trkpt lat="42.96722" lon="-0.22472">
        <ele>1148</ele>
        <time>2021-08-20T21:38:29Z</time>
      </trkpt>
      <trkpt lat="42.96701" lon="-0.22439">
        <ele>1146</ele>
        <time>2021-08-20T21:38:35Z</time>
      </trkpt>
      <trkpt lat="42.96665" lon="-0.22397">
        <ele>1145</ele>
        <time>2021-08-20T21:38:43Z</time>
      </trkpt>
      <trkpt lat="42.96649" lon="-0.22389">
        <ele>1145</ele>
        <time>2021-08-20T21:38:46Z</time>
      </trkpt>
      <trkpt lat="42.96635" lon="-0.22386">
        <ele>1145</ele>
        <time>2021-08-20T21:38:49Z</time>
      </trkpt>
      <trkpt lat="42.96624" lon="-0.22386">
        <ele>1145</ele>
        <time>2021-08-20T21:38:50Z</time>
      </trkpt>
      <trkpt lat="42.96609" lon="-0.22389">
        <ele>1144</ele>
        <time>2021-08-20T21:38:53Z</time>
      </trkpt>
      <trkpt lat="42.96583" lon="-0.22402">
        <ele>1143</ele>
        <time>2021-08-20T21:38:58Z</time>
      </trkpt>
      <trkpt lat="42.96567" lon="-0.22404">
        <ele>1141</ele>
        <time>2021-08-20T21:39:01Z</time>
      </trkpt>
      <trkpt lat="42.96547" lon="-0.22402">
        <ele>1138</ele>
        <time>2021-08-20T21:39:05Z</time>
      </trkpt>
      <trkpt lat="42.96527" lon="-0.22398">
        <ele>1135</ele>
        <time>2021-08-20T21:39:08Z</time>
      </trkpt>
      <trkpt lat="42.96522" lon="-0.22394">
        <ele>1133</ele>
        <time>2021-08-20T21:39:09Z</time>
      </trkpt>
      <trkpt lat="42.96517" lon="-0.2239">
        <ele>1132</ele>
        <time>2021-08-20T21:39:10Z</time>
      </trkpt>
      <trkpt lat="42.96514" lon="-0.22385">
        <ele>1131</ele>
        <time>2021-08-20T21:39:11Z</time>
      </trkpt>
      <trkpt lat="42.96508" lon="-0.22367">
        <ele>1128</ele>
        <time>2021-08-20T21:39:14Z</time>
      </trkpt>
      <trkpt lat="42.9651" lon="-0.2234">
        <ele>1125</ele>
        <time>2021-08-20T21:39:17Z</time>
      </trkpt>
      <trkpt lat="42.96528" lon="-0.22286">
        <ele>1122</ele>
        <time>2021-08-20T21:39:25Z</time>
      </trkpt>
      <trkpt lat="42.96555" lon="-0.22217">
        <ele>1122</ele>
        <time>2021-08-20T21:39:35Z</time>
      </trkpt>
      <trkpt lat="42.9656" lon="-0.22202">
        <ele>1123</ele>
        <time>2021-08-20T21:39:37Z</time>
      </trkpt>
      <trkpt lat="42.96563" lon="-0.22182">
        <ele>1122</ele>
        <time>2021-08-20T21:39:40Z</time>
      </trkpt>
      <trkpt lat="42.96562" lon="-0.22173">
        <ele>1120</ele>
        <time>2021-08-20T21:39:41Z</time>
      </trkpt>
      <trkpt lat="42.96549" lon="-0.2213">
        <ele>1112</ele>
        <time>2021-08-20T21:39:47Z</time>
      </trkpt>
      <trkpt lat="42.96547" lon="-0.22113">
        <ele>1110</ele>
        <time>2021-08-20T21:39:49Z</time>
      </trkpt>
      <trkpt lat="42.9655" lon="-0.22083">
        <ele>1109</ele>
        <time>2021-08-20T21:39:53Z</time>
      </trkpt>
      <trkpt lat="42.96556" lon="-0.22043">
        <ele>1107</ele>
        <time>2021-08-20T21:39:59Z</time>
      </trkpt>
      <trkpt lat="42.96564" lon="-0.22018">
        <ele>1107</ele>
        <time>2021-08-20T21:40:02Z</time>
      </trkpt>
      <trkpt lat="42.96584" lon="-0.21984">
        <ele>1110</ele>
        <time>2021-08-20T21:40:08Z</time>
      </trkpt>
      <trkpt lat="42.9659" lon="-0.21966">
        <ele>1110</ele>
        <time>2021-08-20T21:40:10Z</time>
      </trkpt>
      <trkpt lat="42.96591" lon="-0.21953">
        <ele>1109</ele>
        <time>2021-08-20T21:40:12Z</time>
      </trkpt>
      <trkpt lat="42.96591" lon="-0.21906">
        <ele>1103</ele>
        <time>2021-08-20T21:40:18Z</time>
      </trkpt>
      <trkpt lat="42.96606" lon="-0.21825">
        <ele>1097</ele>
        <time>2021-08-20T21:40:29Z</time>
      </trkpt>
      <trkpt lat="42.96609" lon="-0.21777">
        <ele>1091</ele>
        <time>2021-08-20T21:40:35Z</time>
      </trkpt>
      <trkpt lat="42.96612" lon="-0.21765">
        <ele>1090</ele>
        <time>2021-08-20T21:40:37Z</time>
      </trkpt>
      <trkpt lat="42.96628" lon="-0.2172">
        <ele>1089</ele>
        <time>2021-08-20T21:40:44Z</time>
      </trkpt>
      <trkpt lat="42.96638" lon="-0.21653">
        <ele>1081</ele>
        <time>2021-08-20T21:40:52Z</time>
      </trkpt>
      <trkpt lat="42.96639" lon="-0.21625">
        <ele>1077</ele>
        <time>2021-08-20T21:40:56Z</time>
      </trkpt>
      <trkpt lat="42.96638" lon="-0.21606">
        <ele>1075</ele>
        <time>2021-08-20T21:40:59Z</time>
      </trkpt>
      <trkpt lat="42.96638" lon="-0.2159">
        <ele>1072</ele>
        <time>2021-08-20T21:41:01Z</time>
      </trkpt>
      <trkpt lat="42.96641" lon="-0.21575">
        <ele>1071</ele>
        <time>2021-08-20T21:41:03Z</time>
      </trkpt>
      <trkpt lat="42.96646" lon="-0.2156">
        <ele>1070</ele>
        <time>2021-08-20T21:41:05Z</time>
      </trkpt>
      <trkpt lat="42.96649" lon="-0.21548">
        <ele>1069</ele>
        <time>2021-08-20T21:41:06Z</time>
      </trkpt>
      <trkpt lat="42.96648" lon="-0.21539">
        <ele>1068</ele>
        <time>2021-08-20T21:41:08Z</time>
      </trkpt>
      <trkpt lat="42.96646" lon="-0.21532">
        <ele>1066</ele>
        <time>2021-08-20T21:41:09Z</time>
      </trkpt>
      <trkpt lat="42.96642" lon="-0.21526">
        <ele>1065</ele>
        <time>2021-08-20T21:41:10Z</time>
      </trkpt>
      <trkpt lat="42.96636" lon="-0.21522">
        <ele>1063</ele>
        <time>2021-08-20T21:41:11Z</time>
      </trkpt>
      <trkpt lat="42.96628" lon="-0.21521">
        <ele>1061</ele>
        <time>2021-08-20T21:41:12Z</time>
      </trkpt>
      <trkpt lat="42.9662" lon="-0.21525">
        <ele>1060</ele>
        <time>2021-08-20T21:41:14Z</time>
      </trkpt>
      <trkpt lat="42.96615" lon="-0.21532">
        <ele>1060</ele>
        <time>2021-08-20T21:41:15Z</time>
      </trkpt>
      <trkpt lat="42.96598" lon="-0.21584">
        <ele>1064</ele>
        <time>2021-08-20T21:41:23Z</time>
      </trkpt>
      <trkpt lat="42.96596" lon="-0.21592">
        <ele>1064</ele>
        <time>2021-08-20T21:41:24Z</time>
      </trkpt>
      <trkpt lat="42.96593" lon="-0.21601">
        <ele>1065</ele>
        <time>2021-08-20T21:41:25Z</time>
      </trkpt>
      <trkpt lat="42.96579" lon="-0.21618">
        <ele>1063</ele>
        <time>2021-08-20T21:41:28Z</time>
      </trkpt>
      <trkpt lat="42.96544" lon="-0.21634">
        <ele>1057</ele>
        <time>2021-08-20T21:41:35Z</time>
      </trkpt>
      <trkpt lat="42.96526" lon="-0.21652">
        <ele>1055</ele>
        <time>2021-08-20T21:41:39Z</time>
      </trkpt>
      <trkpt lat="42.96508" lon="-0.21677">
        <ele>1054</ele>
        <time>2021-08-20T21:41:43Z</time>
      </trkpt>
      <trkpt lat="42.96496" lon="-0.21693">
        <ele>1053</ele>
        <time>2021-08-20T21:41:46Z</time>
      </trkpt>
      <trkpt lat="42.96385" lon="-0.21809">
        <ele>1038</ele>
        <time>2021-08-20T21:42:11Z</time>
      </trkpt>
      <trkpt lat="42.96354" lon="-0.21849">
        <ele>1035</ele>
        <time>2021-08-20T21:42:19Z</time>
      </trkpt>
      <trkpt lat="42.96333" lon="-0.21871">
        <ele>1033</ele>
        <time>2021-08-20T21:42:23Z</time>
      </trkpt>
      <trkpt lat="42.96324" lon="-0.21878">
        <ele>1033</ele>
        <time>2021-08-20T21:42:25Z</time>
      </trkpt>
      <trkpt lat="42.96315" lon="-0.2188">
        <ele>1032</ele>
        <time>2021-08-20T21:42:27Z</time>
      </trkpt>
      <trkpt lat="42.96305" lon="-0.21877">
        <ele>1030</ele>
        <time>2021-08-20T21:42:29Z</time>
      </trkpt>
      <trkpt lat="42.96298" lon="-0.21872">
        <ele>1028</ele>
        <time>2021-08-20T21:42:30Z</time>
      </trkpt>
      <trkpt lat="42.96294" lon="-0.21867">
        <ele>1027</ele>
        <time>2021-08-20T21:42:31Z</time>
      </trkpt>
      <trkpt lat="42.96292" lon="-0.2186">
        <ele>1026</ele>
        <time>2021-08-20T21:42:32Z</time>
      </trkpt>
      <trkpt lat="42.9629" lon="-0.21856">
        <ele>1026</ele>
        <time>2021-08-20T21:42:33Z</time>
      </trkpt>
      <trkpt lat="42.96288" lon="-0.21842">
        <ele>1024</ele>
        <time>2021-08-20T21:42:35Z</time>
      </trkpt>
      <trkpt lat="42.96289" lon="-0.21818">
        <ele>1022</ele>
        <time>2021-08-20T21:42:38Z</time>
      </trkpt>
      <trkpt lat="42.96285" lon="-0.21804">
        <ele>1020</ele>
        <time>2021-08-20T21:42:40Z</time>
      </trkpt>
      <trkpt lat="42.96281" lon="-0.21798">
        <ele>1019</ele>
        <time>2021-08-20T21:42:41Z</time>
      </trkpt>
      <trkpt lat="42.96271" lon="-0.21792">
        <ele>1017</ele>
        <time>2021-08-20T21:42:43Z</time>
      </trkpt>
      <trkpt lat="42.9626" lon="-0.21788">
        <ele>1016</ele>
        <time>2021-08-20T21:42:45Z</time>
      </trkpt>
      <trkpt lat="42.96252" lon="-0.21789">
        <ele>1015</ele>
        <time>2021-08-20T21:42:46Z</time>
      </trkpt>
      <trkpt lat="42.96246" lon="-0.21793">
        <ele>1014</ele>
        <time>2021-08-20T21:42:47Z</time>
      </trkpt>
      <trkpt lat="42.96235" lon="-0.21809">
        <ele>1013</ele>
        <time>2021-08-20T21:42:50Z</time>
      </trkpt>
      <trkpt lat="42.96221" lon="-0.21846">
        <ele>1011</ele>
        <time>2021-08-20T21:42:56Z</time>
      </trkpt>
      <trkpt lat="42.9622" lon="-0.21859">
        <ele>1011</ele>
        <time>2021-08-20T21:42:57Z</time>
      </trkpt>
      <trkpt lat="42.96232" lon="-0.21904">
        <ele>1017</ele>
        <time>2021-08-20T21:43:04Z</time>
      </trkpt>
      <trkpt lat="42.96231" lon="-0.21917">
        <ele>1017</ele>
        <time>2021-08-20T21:43:05Z</time>
      </trkpt>
      <trkpt lat="42.96228" lon="-0.21925">
        <ele>1016</ele>
        <time>2021-08-20T21:43:06Z</time>
      </trkpt>
      <trkpt lat="42.96222" lon="-0.21934">
        <ele>1015</ele>
        <time>2021-08-20T21:43:08Z</time>
      </trkpt>
      <trkpt lat="42.9621" lon="-0.21938">
        <ele>1012</ele>
        <time>2021-08-20T21:43:10Z</time>
      </trkpt>
      <trkpt lat="42.96197" lon="-0.21936">
        <ele>1009</ele>
        <time>2021-08-20T21:43:13Z</time>
      </trkpt>
      <trkpt lat="42.9615" lon="-0.21923">
        <ele>996</ele>
        <time>2021-08-20T21:43:21Z</time>
      </trkpt>
      <trkpt lat="42.96143" lon="-0.21924">
        <ele>994</ele>
        <time>2021-08-20T21:43:22Z</time>
      </trkpt>
      <trkpt lat="42.96129" lon="-0.21932">
        <ele>991</ele>
        <time>2021-08-20T21:43:25Z</time>
      </trkpt>
      <trkpt lat="42.96121" lon="-0.21943">
        <ele>990</ele>
        <time>2021-08-20T21:43:27Z</time>
      </trkpt>
      <trkpt lat="42.96117" lon="-0.21959">
        <ele>989</ele>
        <time>2021-08-20T21:43:29Z</time>
      </trkpt>
      <trkpt lat="42.96118" lon="-0.21986">
        <ele>990</ele>
        <time>2021-08-20T21:43:33Z</time>
      </trkpt>
      <trkpt lat="42.96125" lon="-0.2202">
        <ele>994</ele>
        <time>2021-08-20T21:43:37Z</time>
      </trkpt>
      <trkpt lat="42.96124" lon="-0.22036">
        <ele>995</ele>
        <time>2021-08-20T21:43:39Z</time>
      </trkpt>
      <trkpt lat="42.96118" lon="-0.22047">
        <ele>994</ele>
        <time>2021-08-20T21:43:41Z</time>
      </trkpt>
      <trkpt lat="42.96111" lon="-0.22053">
        <ele>992</ele>
        <time>2021-08-20T21:43:43Z</time>
      </trkpt>
      <trkpt lat="42.96097" lon="-0.22051">
        <ele>988</ele>
        <time>2021-08-20T21:43:45Z</time>
      </trkpt>
      <trkpt lat="42.96092" lon="-0.22048">
        <ele>986</ele>
        <time>2021-08-20T21:43:46Z</time>
      </trkpt>
      <trkpt lat="42.96089" lon="-0.22042">
        <ele>985</ele>
        <time>2021-08-20T21:43:47Z</time>
      </trkpt>
      <trkpt lat="42.96086" lon="-0.22028">
        <ele>983</ele>
        <time>2021-08-20T21:43:49Z</time>
      </trkpt>
      <trkpt lat="42.96085" lon="-0.22007">
        <ele>982</ele>
        <time>2021-08-20T21:43:52Z</time>
      </trkpt>
      <trkpt lat="42.96083" lon="-0.22">
        <ele>981</ele>
        <time>2021-08-20T21:43:53Z</time>
      </trkpt>
      <trkpt lat="42.96082" lon="-0.21988">
        <ele>981</ele>
        <time>2021-08-20T21:43:54Z</time>
      </trkpt>
      <trkpt lat="42.96067" lon="-0.21928">
        <ele>976</ele>
        <time>2021-08-20T21:44:03Z</time>
      </trkpt>
      <trkpt lat="42.96064" lon="-0.21913">
        <ele>976</ele>
        <time>2021-08-20T21:44:05Z</time>
      </trkpt>
      <trkpt lat="42.96065" lon="-0.21904">
        <ele>976</ele>
        <time>2021-08-20T21:44:06Z</time>
      </trkpt>
      <trkpt lat="42.96066" lon="-0.21896">
        <ele>976</ele>
        <time>2021-08-20T21:44:07Z</time>
      </trkpt>
      <trkpt lat="42.96081" lon="-0.21853">
        <ele>978</ele>
        <time>2021-08-20T21:44:13Z</time>
      </trkpt>
      <trkpt lat="42.96083" lon="-0.21843">
        <ele>978</ele>
        <time>2021-08-20T21:44:14Z</time>
      </trkpt>
      <trkpt lat="42.96084" lon="-0.21834">
        <ele>978</ele>
        <time>2021-08-20T21:44:16Z</time>
      </trkpt>
      <trkpt lat="42.96083" lon="-0.21822">
        <ele>977</ele>
        <time>2021-08-20T21:44:17Z</time>
      </trkpt>
      <trkpt lat="42.96081" lon="-0.21799">
        <ele>975</ele>
        <time>2021-08-20T21:44:20Z</time>
      </trkpt>
      <trkpt lat="42.96079" lon="-0.21772">
        <ele>973</ele>
        <time>2021-08-20T21:44:24Z</time>
      </trkpt>
      <trkpt lat="42.96081" lon="-0.21751">
        <ele>972</ele>
        <time>2021-08-20T21:44:26Z</time>
      </trkpt>
      <trkpt lat="42.9609" lon="-0.21719">
        <ele>971</ele>
        <time>2021-08-20T21:44:31Z</time>
      </trkpt>
      <trkpt lat="42.96091" lon="-0.21696">
        <ele>969</ele>
        <time>2021-08-20T21:44:34Z</time>
      </trkpt>
      <trkpt lat="42.96087" lon="-0.21666">
        <ele>966</ele>
        <time>2021-08-20T21:44:38Z</time>
      </trkpt>
      <trkpt lat="42.96088" lon="-0.2164">
        <ele>964</ele>
        <time>2021-08-20T21:44:41Z</time>
      </trkpt>
      <trkpt lat="42.96091" lon="-0.21602">
        <ele>962</ele>
        <time>2021-08-20T21:44:46Z</time>
      </trkpt>
      <trkpt lat="42.96095" lon="-0.21558">
        <ele>961</ele>
        <time>2021-08-20T21:44:52Z</time>
      </trkpt>
      <trkpt lat="42.96099" lon="-0.21517">
        <ele>960</ele>
        <time>2021-08-20T21:44:57Z</time>
      </trkpt>
      <trkpt lat="42.961" lon="-0.21491">
        <ele>959</ele>
        <time>2021-08-20T21:45:01Z</time>
      </trkpt>
      <trkpt lat="42.96096" lon="-0.21463">
        <ele>956</ele>
        <time>2021-08-20T21:45:05Z</time>
      </trkpt>
      <trkpt lat="42.96087" lon="-0.21442">
        <ele>953</ele>
        <time>2021-08-20T21:45:08Z</time>
      </trkpt>
      <trkpt lat="42.96064" lon="-0.21413">
        <ele>948</ele>
        <time>2021-08-20T21:45:13Z</time>
      </trkpt>
      <trkpt lat="42.96056" lon="-0.21397">
        <ele>946</ele>
        <time>2021-08-20T21:45:16Z</time>
      </trkpt>
      <trkpt lat="42.96053" lon="-0.21385">
        <ele>945</ele>
        <time>2021-08-20T21:45:17Z</time>
      </trkpt>
      <trkpt lat="42.96051" lon="-0.21375">
        <ele>944</ele>
        <time>2021-08-20T21:45:19Z</time>
      </trkpt>
      <trkpt lat="42.96052" lon="-0.2136">
        <ele>944</ele>
        <time>2021-08-20T21:45:21Z</time>
      </trkpt>
      <trkpt lat="42.96055" lon="-0.21341">
        <ele>944</ele>
        <time>2021-08-20T21:45:23Z</time>
      </trkpt>
      <trkpt lat="42.96059" lon="-0.21325">
        <ele>943</ele>
        <time>2021-08-20T21:45:26Z</time>
      </trkpt>
      <trkpt lat="42.96062" lon="-0.21305">
        <ele>942</ele>
        <time>2021-08-20T21:45:28Z</time>
      </trkpt>
      <trkpt lat="42.96062" lon="-0.21288">
        <ele>941</ele>
        <time>2021-08-20T21:45:30Z</time>
      </trkpt>
      <trkpt lat="42.96062" lon="-0.2125">
        <ele>938</ele>
        <time>2021-08-20T21:45:35Z</time>
      </trkpt>
      <trkpt lat="42.96063" lon="-0.21213">
        <ele>934</ele>
        <time>2021-08-20T21:45:40Z</time>
      </trkpt>
      <trkpt lat="42.96062" lon="-0.21164">
        <ele>929</ele>
        <time>2021-08-20T21:45:47Z</time>
      </trkpt>
      <trkpt lat="42.96063" lon="-0.2115">
        <ele>928</ele>
        <time>2021-08-20T21:45:48Z</time>
      </trkpt>
      <trkpt lat="42.9606" lon="-0.21135">
        <ele>926</ele>
        <time>2021-08-20T21:45:50Z</time>
      </trkpt>
      <trkpt lat="42.96054" lon="-0.21126">
        <ele>924</ele>
        <time>2021-08-20T21:45:52Z</time>
      </trkpt>
      <trkpt lat="42.96045" lon="-0.21121">
        <ele>922</ele>
        <time>2021-08-20T21:45:54Z</time>
      </trkpt>
      <trkpt lat="42.96034" lon="-0.21122">
        <ele>921</ele>
        <time>2021-08-20T21:45:56Z</time>
      </trkpt>
      <trkpt lat="42.96025" lon="-0.21129">
        <ele>920</ele>
        <time>2021-08-20T21:45:58Z</time>
      </trkpt>
      <trkpt lat="42.96018" lon="-0.21144">
        <ele>920</ele>
        <time>2021-08-20T21:46:00Z</time>
      </trkpt>
      <trkpt lat="42.96008" lon="-0.21174">
        <ele>921</ele>
        <time>2021-08-20T21:46:04Z</time>
      </trkpt>
      <trkpt lat="42.95996" lon="-0.21191">
        <ele>921</ele>
        <time>2021-08-20T21:46:07Z</time>
      </trkpt>
      <trkpt lat="42.95971" lon="-0.21218">
        <ele>917</ele>
        <time>2021-08-20T21:46:13Z</time>
      </trkpt>
      <trkpt lat="42.95932" lon="-0.21264">
        <ele>913</ele>
        <time>2021-08-20T21:46:22Z</time>
      </trkpt>
      <trkpt lat="42.9592" lon="-0.21282">
        <ele>912</ele>
        <time>2021-08-20T21:46:25Z</time>
      </trkpt>
      <trkpt lat="42.95897" lon="-0.21323">
        <ele>910</ele>
        <time>2021-08-20T21:46:32Z</time>
      </trkpt>
      <trkpt lat="42.95886" lon="-0.21336">
        <ele>908</ele>
        <time>2021-08-20T21:46:35Z</time>
      </trkpt>
      <trkpt lat="42.95868" lon="-0.21351">
        <ele>904</ele>
        <time>2021-08-20T21:46:38Z</time>
      </trkpt>
      <trkpt lat="42.95861" lon="-0.2136">
        <ele>903</ele>
        <time>2021-08-20T21:46:40Z</time>
      </trkpt>
      <trkpt lat="42.95855" lon="-0.21371">
        <ele>902</ele>
        <time>2021-08-20T21:46:42Z</time>
      </trkpt>
      <trkpt lat="42.95851" lon="-0.21388">
        <ele>903</ele>
        <time>2021-08-20T21:46:44Z</time>
      </trkpt>
      <trkpt lat="42.95848" lon="-0.21424">
        <ele>905</ele>
        <time>2021-08-20T21:46:49Z</time>
      </trkpt>
      <trkpt lat="42.95845" lon="-0.21437">
        <ele>905</ele>
        <time>2021-08-20T21:46:51Z</time>
      </trkpt>
      <trkpt lat="42.95841" lon="-0.21447">
        <ele>905</ele>
        <time>2021-08-20T21:46:52Z</time>
      </trkpt>
      <trkpt lat="42.95821" lon="-0.21484">
        <ele>902</ele>
        <time>2021-08-20T21:46:58Z</time>
      </trkpt>
      <trkpt lat="42.95811" lon="-0.21503">
        <ele>901</ele>
        <time>2021-08-20T21:47:01Z</time>
      </trkpt>
      <trkpt lat="42.95805" lon="-0.21511">
        <ele>900</ele>
        <time>2021-08-20T21:47:03Z</time>
      </trkpt>
      <trkpt lat="42.95798" lon="-0.21518">
        <ele>899</ele>
        <time>2021-08-20T21:47:04Z</time>
      </trkpt>
      <trkpt lat="42.95774" lon="-0.2153">
        <ele>893</ele>
        <time>2021-08-20T21:47:09Z</time>
      </trkpt>
      <trkpt lat="42.95759" lon="-0.21541">
        <ele>890</ele>
        <time>2021-08-20T21:47:12Z</time>
      </trkpt>
      <trkpt lat="42.95739" lon="-0.21561">
        <ele>888</ele>
        <time>2021-08-20T21:47:16Z</time>
      </trkpt>
      <trkpt lat="42.9573" lon="-0.21564">
        <ele>887</ele>
        <time>2021-08-20T21:47:18Z</time>
      </trkpt>
      <trkpt lat="42.95723" lon="-0.21563">
        <ele>887</ele>
        <time>2021-08-20T21:47:19Z</time>
      </trkpt>
      <trkpt lat="42.95714" lon="-0.21563">
        <ele>886</ele>
        <time>2021-08-20T21:47:21Z</time>
      </trkpt>
      <trkpt lat="42.95703" lon="-0.2156">
        <ele>885</ele>
        <time>2021-08-20T21:47:23Z</time>
      </trkpt>
      <trkpt lat="42.95679" lon="-0.21547">
        <ele>883</ele>
        <time>2021-08-20T21:47:27Z</time>
      </trkpt>
      <trkpt lat="42.95656" lon="-0.21527">
        <ele>882</ele>
        <time>2021-08-20T21:47:32Z</time>
      </trkpt>
      <trkpt lat="42.95646" lon="-0.21515">
        <ele>882</ele>
        <time>2021-08-20T21:47:34Z</time>
      </trkpt>
      <trkpt lat="42.95636" lon="-0.21492">
        <ele>882</ele>
        <time>2021-08-20T21:47:38Z</time>
      </trkpt>
      <trkpt lat="42.95617" lon="-0.21438">
        <ele>880</ele>
        <time>2021-08-20T21:47:46Z</time>
      </trkpt>
      <trkpt lat="42.95615" lon="-0.21425">
        <ele>880</ele>
        <time>2021-08-20T21:47:47Z</time>
      </trkpt>
      <trkpt lat="42.95616" lon="-0.2138">
        <ele>878</ele>
        <time>2021-08-20T21:47:53Z</time>
      </trkpt>
      <trkpt lat="42.95619" lon="-0.21368">
        <ele>878</ele>
        <time>2021-08-20T21:47:55Z</time>
      </trkpt>
      <trkpt lat="42.95646" lon="-0.21324">
        <ele>877</ele>
        <time>2021-08-20T21:48:02Z</time>
      </trkpt>
      <trkpt lat="42.95655" lon="-0.21303">
        <ele>877</ele>
        <time>2021-08-20T21:48:06Z</time>
      </trkpt>
      <trkpt lat="42.95663" lon="-0.21273">
        <ele>876</ele>
        <time>2021-08-20T21:48:10Z</time>
      </trkpt>
      <trkpt lat="42.95667" lon="-0.21223">
        <ele>874</ele>
        <time>2021-08-20T21:48:16Z</time>
      </trkpt>
      <trkpt lat="42.95708" lon="-0.21108">
        <ele>871</ele>
        <time>2021-08-20T21:48:33Z</time>
      </trkpt>
      <trkpt lat="42.95721" lon="-0.21077">
        <ele>871</ele>
        <time>2021-08-20T21:48:38Z</time>
      </trkpt>
      <trkpt lat="42.95766" lon="-0.21007">
        <ele>872</ele>
        <time>2021-08-20T21:48:50Z</time>
      </trkpt>
      <trkpt lat="42.9584" lon="-0.20887">
        <ele>870</ele>
        <time>2021-08-20T21:49:10Z</time>
      </trkpt>
      <trkpt lat="42.95915" lon="-0.20745">
        <ele>868</ele>
        <time>2021-08-20T21:49:33Z</time>
      </trkpt>
      <trkpt lat="42.95975" lon="-0.20655">
        <ele>866</ele>
        <time>2021-08-20T21:49:49Z</time>
      </trkpt>
      <trkpt lat="42.95982" lon="-0.20644">
        <ele>866</ele>
        <time>2021-08-20T21:49:51Z</time>
      </trkpt>
      <trkpt lat="42.95986" lon="-0.20638">
        <ele>865</ele>
        <time>2021-08-20T21:49:52Z</time>
      </trkpt>
      <trkpt lat="42.95996" lon="-0.2062">
        <ele>865</ele>
        <time>2021-08-20T21:49:55Z</time>
      </trkpt>
      <trkpt lat="42.96008" lon="-0.20596">
        <ele>864</ele>
        <time>2021-08-20T21:49:59Z</time>
      </trkpt>
      <trkpt lat="42.96021" lon="-0.2056">
        <ele>863</ele>
        <time>2021-08-20T21:50:04Z</time>
      </trkpt>
      <trkpt lat="42.96034" lon="-0.20523">
        <ele>863</ele>
        <time>2021-08-20T21:50:09Z</time>
      </trkpt>
      <trkpt lat="42.96051" lon="-0.20478">
        <ele>862</ele>
        <time>2021-08-20T21:50:16Z</time>
      </trkpt>
      <trkpt lat="42.96068" lon="-0.20427">
        <ele>862</ele>
        <time>2021-08-20T21:50:23Z</time>
      </trkpt>
      <trkpt lat="42.96089" lon="-0.20372">
        <ele>862</ele>
        <time>2021-08-20T21:50:31Z</time>
      </trkpt>
      <trkpt lat="42.96098" lon="-0.20347">
        <ele>862</ele>
        <time>2021-08-20T21:50:35Z</time>
      </trkpt>
      <trkpt lat="42.96109" lon="-0.20326">
        <ele>863</ele>
        <time>2021-08-20T21:50:38Z</time>
      </trkpt>
      <trkpt lat="42.96128" lon="-0.20297">
        <ele>863</ele>
        <time>2021-08-20T21:50:43Z</time>
      </trkpt>
      <trkpt lat="42.96152" lon="-0.20272">
        <ele>865</ele>
        <time>2021-08-20T21:50:48Z</time>
      </trkpt>
      <trkpt lat="42.96171" lon="-0.2026">
        <ele>865</ele>
        <time>2021-08-20T21:50:52Z</time>
      </trkpt>
      <trkpt lat="42.96183" lon="-0.20253">
        <ele>865</ele>
        <time>2021-08-20T21:50:55Z</time>
      </trkpt>
      <trkpt lat="42.96231" lon="-0.20227">
        <ele>864</ele>
        <time>2021-08-20T21:51:04Z</time>
      </trkpt>
      <trkpt lat="42.96255" lon="-0.20212">
        <ele>863</ele>
        <time>2021-08-20T21:51:08Z</time>
      </trkpt>
      <trkpt lat="42.96287" lon="-0.20195">
        <ele>863</ele>
        <time>2021-08-20T21:51:15Z</time>
      </trkpt>
      <trkpt lat="42.96291" lon="-0.20193">
        <ele>862</ele>
        <time>2021-08-20T21:51:15Z</time>
      </trkpt>
      <trkpt lat="42.96309" lon="-0.20182">
        <ele>862</ele>
        <time>2021-08-20T21:51:19Z</time>
      </trkpt>
      <trkpt lat="42.96345" lon="-0.20165">
        <ele>861</ele>
        <time>2021-08-20T21:51:26Z</time>
      </trkpt>
      <trkpt lat="42.96358" lon="-0.20162">
        <ele>861</ele>
        <time>2021-08-20T21:51:28Z</time>
      </trkpt>
      <trkpt lat="42.96385" lon="-0.2016">
        <ele>861</ele>
        <time>2021-08-20T21:51:33Z</time>
      </trkpt>
      <trkpt lat="42.96399" lon="-0.20162">
        <ele>861</ele>
        <time>2021-08-20T21:51:35Z</time>
      </trkpt>
      <trkpt lat="42.96408" lon="-0.20164">
        <ele>861</ele>
        <time>2021-08-20T21:51:37Z</time>
      </trkpt>
      <trkpt lat="42.96416" lon="-0.20166">
        <ele>861</ele>
        <time>2021-08-20T21:51:38Z</time>
      </trkpt>
      <trkpt lat="42.96421" lon="-0.20169">
        <ele>861</ele>
        <time>2021-08-20T21:51:39Z</time>
      </trkpt>
      <trkpt lat="42.96425" lon="-0.20172">
        <ele>861</ele>
        <time>2021-08-20T21:51:40Z</time>
      </trkpt>
      <trkpt lat="42.96442" lon="-0.20187">
        <ele>862</ele>
        <time>2021-08-20T21:51:44Z</time>
      </trkpt>
      <trkpt lat="42.96451" lon="-0.20189">
        <ele>862</ele>
        <time>2021-08-20T21:51:45Z</time>
      </trkpt>
      <trkpt lat="42.96461" lon="-0.20188">
        <ele>862</ele>
        <time>2021-08-20T21:51:47Z</time>
      </trkpt>
      <trkpt lat="42.96469" lon="-0.20185">
        <ele>862</ele>
        <time>2021-08-20T21:51:49Z</time>
      </trkpt>
      <trkpt lat="42.9648" lon="-0.2018">
        <ele>861</ele>
        <time>2021-08-20T21:51:51Z</time>
      </trkpt>
      <trkpt lat="42.96488" lon="-0.20175">
        <ele>861</ele>
        <time>2021-08-20T21:51:52Z</time>
      </trkpt>
      <trkpt lat="42.96498" lon="-0.2017">
        <ele>861</ele>
        <time>2021-08-20T21:51:54Z</time>
      </trkpt>
      <trkpt lat="42.96509" lon="-0.20169">
        <ele>861</ele>
        <time>2021-08-20T21:51:56Z</time>
      </trkpt>
      <trkpt lat="42.96517" lon="-0.20172">
        <ele>861</ele>
        <time>2021-08-20T21:51:58Z</time>
      </trkpt>
      <trkpt lat="42.96528" lon="-0.20179">
        <ele>862</ele>
        <time>2021-08-20T21:52:00Z</time>
      </trkpt>
      <trkpt lat="42.96547" lon="-0.2019">
        <ele>862</ele>
        <time>2021-08-20T21:52:03Z</time>
      </trkpt>
      <trkpt lat="42.96551" lon="-0.20193">
        <ele>863</ele>
        <time>2021-08-20T21:52:04Z</time>
      </trkpt>
      <trkpt lat="42.9658" lon="-0.20221">
        <ele>865</ele>
        <time>2021-08-20T21:52:10Z</time>
      </trkpt>
      <trkpt lat="42.96595" lon="-0.20223">
        <ele>864</ele>
        <time>2021-08-20T21:52:13Z</time>
      </trkpt>
      <trkpt lat="42.96601" lon="-0.20225">
        <ele>864</ele>
        <time>2021-08-20T21:52:14Z</time>
      </trkpt>
      <trkpt lat="42.96635" lon="-0.20247">
        <ele>864</ele>
        <time>2021-08-20T21:52:21Z</time>
      </trkpt>
      <trkpt lat="42.96641" lon="-0.2025">
        <ele>864</ele>
        <time>2021-08-20T21:52:22Z</time>
      </trkpt>
      <trkpt lat="42.96657" lon="-0.20253">
        <ele>864</ele>
        <time>2021-08-20T21:52:25Z</time>
      </trkpt>
      <trkpt lat="42.96693" lon="-0.20249">
        <ele>864</ele>
        <time>2021-08-20T21:52:31Z</time>
      </trkpt>
      <trkpt lat="42.96711" lon="-0.20245">
        <ele>865</ele>
        <time>2021-08-20T21:52:35Z</time>
      </trkpt>
      <trkpt lat="42.96734" lon="-0.20238">
        <ele>865</ele>
        <time>2021-08-20T21:52:39Z</time>
      </trkpt>
      <trkpt lat="42.96779" lon="-0.20216">
        <ele>867</ele>
        <time>2021-08-20T21:52:47Z</time>
      </trkpt>
      <trkpt lat="42.96817" lon="-0.20192">
        <ele>867</ele>
        <time>2021-08-20T21:52:55Z</time>
      </trkpt>
      <trkpt lat="42.96838" lon="-0.2017">
        <ele>865</ele>
        <time>2021-08-20T21:53:00Z</time>
      </trkpt>
      <trkpt lat="42.96843" lon="-0.20164">
        <ele>865</ele>
        <time>2021-08-20T21:53:01Z</time>
      </trkpt>
      <trkpt lat="42.96861" lon="-0.20139">
        <ele>865</ele>
        <time>2021-08-20T21:53:05Z</time>
      </trkpt>
      <trkpt lat="42.96933" lon="-0.20044">
        <ele>863</ele>
        <time>2021-08-20T21:53:23Z</time>
      </trkpt>
      <trkpt lat="42.96954" lon="-0.20004">
        <ele>862</ele>
        <time>2021-08-20T21:53:29Z</time>
      </trkpt>
      <trkpt lat="42.96972" lon="-0.19952">
        <ele>859</ele>
        <time>2021-08-20T21:53:37Z</time>
      </trkpt>
      <trkpt lat="42.97016" lon="-0.19837">
        <ele>854</ele>
        <time>2021-08-20T21:53:54Z</time>
      </trkpt>
      <trkpt lat="42.97028" lon="-0.19817">
        <ele>855</ele>
        <time>2021-08-20T21:53:57Z</time>
      </trkpt>
      <trkpt lat="42.97043" lon="-0.19797">
        <ele>856</ele>
        <time>2021-08-20T21:54:01Z</time>
      </trkpt>
      <trkpt lat="42.97075" lon="-0.19756">
        <ele>856</ele>
        <time>2021-08-20T21:54:09Z</time>
      </trkpt>
      <trkpt lat="42.97111" lon="-0.19707">
        <ele>858</ele>
        <time>2021-08-20T21:54:18Z</time>
      </trkpt>
      <trkpt lat="42.97135" lon="-0.19673">
        <ele>859</ele>
        <time>2021-08-20T21:54:24Z</time>
      </trkpt>
      <trkpt lat="42.97155" lon="-0.19644">
        <ele>860</ele>
        <time>2021-08-20T21:54:29Z</time>
      </trkpt>
      <trkpt lat="42.97187" lon="-0.19596">
        <ele>862</ele>
        <time>2021-08-20T21:54:38Z</time>
      </trkpt>
      <trkpt lat="42.97247" lon="-0.19507">
        <ele>866</ele>
        <time>2021-08-20T21:54:53Z</time>
      </trkpt>
      <trkpt lat="42.97256" lon="-0.19494">
        <ele>867</ele>
        <time>2021-08-20T21:54:56Z</time>
      </trkpt>
      <trkpt lat="42.9727" lon="-0.19472">
        <ele>868</ele>
        <time>2021-08-20T21:54:59Z</time>
      </trkpt>
      <trkpt lat="42.97285" lon="-0.19438">
        <ele>869</ele>
        <time>2021-08-20T21:55:05Z</time>
      </trkpt>
      <trkpt lat="42.97287" lon="-0.19433">
        <ele>869</ele>
        <time>2021-08-20T21:55:05Z</time>
      </trkpt>
      <trkpt lat="42.97288" lon="-0.19427">
        <ele>869</ele>
        <time>2021-08-20T21:55:06Z</time>
      </trkpt>
      <trkpt lat="42.97291" lon="-0.19414">
        <ele>869</ele>
        <time>2021-08-20T21:55:08Z</time>
      </trkpt>
      <trkpt lat="42.97297" lon="-0.19376">
        <ele>870</ele>
        <time>2021-08-20T21:55:13Z</time>
      </trkpt>
      <trkpt lat="42.97306" lon="-0.19357">
        <ele>871</ele>
        <time>2021-08-20T21:55:16Z</time>
      </trkpt>
      <trkpt lat="42.97312" lon="-0.19346">
        <ele>872</ele>
        <time>2021-08-20T21:55:18Z</time>
      </trkpt>
      <trkpt lat="42.97314" lon="-0.19344">
        <ele>872</ele>
        <time>2021-08-20T21:55:18Z</time>
      </trkpt>
      <trkpt lat="42.97315" lon="-0.19343">
        <ele>872</ele>
        <time>2021-08-20T21:55:18Z</time>
      </trkpt>
      <trkpt lat="42.9732" lon="-0.19334">
        <ele>873</ele>
        <time>2021-08-20T21:55:20Z</time>
      </trkpt>
      <trkpt lat="42.97325" lon="-0.19326">
        <ele>873</ele>
        <time>2021-08-20T21:55:21Z</time>
      </trkpt>
      <trkpt lat="42.97327" lon="-0.19323">
        <ele>873</ele>
        <time>2021-08-20T21:55:22Z</time>
      </trkpt>
      <trkpt lat="42.97331" lon="-0.19312">
        <ele>873</ele>
        <time>2021-08-20T21:55:23Z</time>
      </trkpt>
      <trkpt lat="42.97334" lon="-0.19297">
        <ele>872</ele>
        <time>2021-08-20T21:55:25Z</time>
      </trkpt>
      <trkpt lat="42.97338" lon="-0.19287">
        <ele>872</ele>
        <time>2021-08-20T21:55:27Z</time>
      </trkpt>
      <trkpt lat="42.97347" lon="-0.19274">
        <ele>872</ele>
        <time>2021-08-20T21:55:29Z</time>
      </trkpt>
      <trkpt lat="42.9735" lon="-0.1927">
        <ele>872</ele>
        <time>2021-08-20T21:55:30Z</time>
      </trkpt>
      <trkpt lat="42.97352" lon="-0.19269">
        <ele>872</ele>
        <time>2021-08-20T21:55:30Z</time>
      </trkpt>
      <trkpt lat="42.97377" lon="-0.19243">
        <ele>871</ele>
        <time>2021-08-20T21:55:36Z</time>
      </trkpt>
      <trkpt lat="42.97386" lon="-0.19231">
        <ele>870</ele>
        <time>2021-08-20T21:55:38Z</time>
      </trkpt>
      <trkpt lat="42.97398" lon="-0.19215">
        <ele>869</ele>
        <time>2021-08-20T21:55:41Z</time>
      </trkpt>
      <trkpt lat="42.97403" lon="-0.19204">
        <ele>868</ele>
        <time>2021-08-20T21:55:43Z</time>
      </trkpt>
      <trkpt lat="42.97406" lon="-0.19198">
        <ele>868</ele>
        <time>2021-08-20T21:55:44Z</time>
      </trkpt>
      <trkpt lat="42.97409" lon="-0.19189">
        <ele>867</ele>
        <time>2021-08-20T21:55:45Z</time>
      </trkpt>
      <trkpt lat="42.97442" lon="-0.19114">
        <ele>865</ele>
        <time>2021-08-20T21:55:56Z</time>
      </trkpt>
      <trkpt lat="42.97446" lon="-0.19106">
        <ele>866</ele>
        <time>2021-08-20T21:55:58Z</time>
      </trkpt>
      <trkpt lat="42.97451" lon="-0.1909">
        <ele>866</ele>
        <time>2021-08-20T21:56:00Z</time>
      </trkpt>
      <trkpt lat="42.97458" lon="-0.1905">
        <ele>863</ele>
        <time>2021-08-20T21:56:05Z</time>
      </trkpt>
      <trkpt lat="42.97464" lon="-0.19013">
        <ele>861</ele>
        <time>2021-08-20T21:56:10Z</time>
      </trkpt>
      <trkpt lat="42.97467" lon="-0.18993">
        <ele>860</ele>
        <time>2021-08-20T21:56:13Z</time>
      </trkpt>
      <trkpt lat="42.97474" lon="-0.18966">
        <ele>859</ele>
        <time>2021-08-20T21:56:17Z</time>
      </trkpt>
      <trkpt lat="42.9748" lon="-0.18937">
        <ele>857</ele>
        <time>2021-08-20T21:56:21Z</time>
      </trkpt>
      <trkpt lat="42.97481" lon="-0.18922">
        <ele>856</ele>
        <time>2021-08-20T21:56:23Z</time>
      </trkpt>
      <trkpt lat="42.97479" lon="-0.18894">
        <ele>855</ele>
        <time>2021-08-20T21:56:26Z</time>
      </trkpt>
      <trkpt lat="42.97475" lon="-0.18876">
        <ele>854</ele>
        <time>2021-08-20T21:56:29Z</time>
      </trkpt>
      <trkpt lat="42.97457" lon="-0.18819">
        <ele>853</ele>
        <time>2021-08-20T21:56:37Z</time>
      </trkpt>
      <trkpt lat="42.97453" lon="-0.18794">
        <ele>852</ele>
        <time>2021-08-20T21:56:40Z</time>
      </trkpt>
      <trkpt lat="42.97453" lon="-0.18779">
        <ele>852</ele>
        <time>2021-08-20T21:56:42Z</time>
      </trkpt>
      <trkpt lat="42.97455" lon="-0.18765">
        <ele>852</ele>
        <time>2021-08-20T21:56:44Z</time>
      </trkpt>
      <trkpt lat="42.97462" lon="-0.18745">
        <ele>851</ele>
        <time>2021-08-20T21:56:47Z</time>
      </trkpt>
      <trkpt lat="42.97483" lon="-0.18715">
        <ele>850</ele>
        <time>2021-08-20T21:56:52Z</time>
      </trkpt>
      <trkpt lat="42.97491" lon="-0.18699">
        <ele>850</ele>
        <time>2021-08-20T21:56:55Z</time>
      </trkpt>
      <trkpt lat="42.97501" lon="-0.18642">
        <ele>849</ele>
        <time>2021-08-20T21:57:02Z</time>
      </trkpt>
      <trkpt lat="42.97503" lon="-0.18628">
        <ele>848</ele>
        <time>2021-08-20T21:57:04Z</time>
      </trkpt>
      <trkpt lat="42.97506" lon="-0.18615">
        <ele>847</ele>
        <time>2021-08-20T21:57:06Z</time>
      </trkpt>
      <trkpt lat="42.97514" lon="-0.18597">
        <ele>846</ele>
        <time>2021-08-20T21:57:09Z</time>
      </trkpt>
      <trkpt lat="42.97524" lon="-0.18578">
        <ele>846</ele>
        <time>2021-08-20T21:57:12Z</time>
      </trkpt>
      <trkpt lat="42.97554" lon="-0.1854">
        <ele>846</ele>
        <time>2021-08-20T21:57:19Z</time>
      </trkpt>
      <trkpt lat="42.97558" lon="-0.18534">
        <ele>846</ele>
        <time>2021-08-20T21:57:20Z</time>
      </trkpt>
      <trkpt lat="42.97568" lon="-0.18515">
        <ele>845</ele>
        <time>2021-08-20T21:57:23Z</time>
      </trkpt>
      <trkpt lat="42.97578" lon="-0.18487">
        <ele>845</ele>
        <time>2021-08-20T21:57:27Z</time>
      </trkpt>
      <trkpt lat="42.97597" lon="-0.18417">
        <ele>845</ele>
        <time>2021-08-20T21:57:37Z</time>
      </trkpt>
      <trkpt lat="42.97627" lon="-0.18331">
        <ele>847</ele>
        <time>2021-08-20T21:57:49Z</time>
      </trkpt>
      <trkpt lat="42.97645" lon="-0.18267">
        <ele>845</ele>
        <time>2021-08-20T21:57:58Z</time>
      </trkpt>
      <trkpt lat="42.97657" lon="-0.18239">
        <ele>843</ele>
        <time>2021-08-20T21:58:02Z</time>
      </trkpt>
      <trkpt lat="42.9769" lon="-0.18164">
        <ele>842</ele>
        <time>2021-08-20T21:58:14Z</time>
      </trkpt>
      <trkpt lat="42.97731" lon="-0.1809">
        <ele>842</ele>
        <time>2021-08-20T21:58:26Z</time>
      </trkpt>
      <trkpt lat="42.9774" lon="-0.18072">
        <ele>842</ele>
        <time>2021-08-20T21:58:29Z</time>
      </trkpt>
      <trkpt lat="42.97744" lon="-0.18051">
        <ele>842</ele>
        <time>2021-08-20T21:58:32Z</time>
      </trkpt>
      <trkpt lat="42.97752" lon="-0.17965">
        <ele>838</ele>
        <time>2021-08-20T21:58:43Z</time>
      </trkpt>
      <trkpt lat="42.97765" lon="-0.17886">
        <ele>837</ele>
        <time>2021-08-20T21:58:53Z</time>
      </trkpt>
      <trkpt lat="42.97782" lon="-0.17791">
        <ele>837</ele>
        <time>2021-08-20T21:59:06Z</time>
      </trkpt>
      <trkpt lat="42.97798" lon="-0.17723">
        <ele>837</ele>
        <time>2021-08-20T21:59:15Z</time>
      </trkpt>
      <trkpt lat="42.97811" lon="-0.1769">
        <ele>836</ele>
        <time>2021-08-20T21:59:20Z</time>
      </trkpt>
      <trkpt lat="42.97822" lon="-0.17658">
        <ele>835</ele>
        <time>2021-08-20T21:59:25Z</time>
      </trkpt>
      <trkpt lat="42.97827" lon="-0.17623">
        <ele>834</ele>
        <time>2021-08-20T21:59:30Z</time>
      </trkpt>
      <trkpt lat="42.97827" lon="-0.17587">
        <ele>833</ele>
        <time>2021-08-20T21:59:34Z</time>
      </trkpt>
      <trkpt lat="42.97826" lon="-0.17545">
        <ele>832</ele>
        <time>2021-08-20T21:59:40Z</time>
      </trkpt>
      <trkpt lat="42.97822" lon="-0.17503">
        <ele>830</ele>
        <time>2021-08-20T21:59:45Z</time>
      </trkpt>
      <trkpt lat="42.97822" lon="-0.17462">
        <ele>831</ele>
        <time>2021-08-20T21:59:51Z</time>
      </trkpt>
      <trkpt lat="42.97821" lon="-0.17416">
        <ele>831</ele>
        <time>2021-08-20T21:59:57Z</time>
      </trkpt>
      <trkpt lat="42.97822" lon="-0.17384">
        <ele>832</ele>
        <time>2021-08-20T22:00:01Z</time>
      </trkpt>
      <trkpt lat="42.97823" lon="-0.17337">
        <ele>833</ele>
        <time>2021-08-20T22:00:07Z</time>
      </trkpt>
      <trkpt lat="42.97825" lon="-0.17308">
        <ele>834</ele>
        <time>2021-08-20T22:00:11Z</time>
      </trkpt>
      <trkpt lat="42.97831" lon="-0.17284">
        <ele>835</ele>
        <time>2021-08-20T22:00:14Z</time>
      </trkpt>
      <trkpt lat="42.97838" lon="-0.17259">
        <ele>837</ele>
        <time>2021-08-20T22:00:17Z</time>
      </trkpt>
      <trkpt lat="42.97896" lon="-0.17121">
        <ele>840</ele>
        <time>2021-08-20T22:00:38Z</time>
      </trkpt>
      <trkpt lat="42.97902" lon="-0.17089">
        <ele>840</ele>
        <time>2021-08-20T22:00:42Z</time>
      </trkpt>
      <trkpt lat="42.97901" lon="-0.17055">
        <ele>839</ele>
        <time>2021-08-20T22:00:47Z</time>
      </trkpt>
      <trkpt lat="42.97904" lon="-0.17015">
        <ele>840</ele>
        <time>2021-08-20T22:00:52Z</time>
      </trkpt>
      <trkpt lat="42.97911" lon="-0.16997">
        <ele>841</ele>
        <time>2021-08-20T22:00:55Z</time>
      </trkpt>
      <trkpt lat="42.97939" lon="-0.16942">
        <ele>845</ele>
        <time>2021-08-20T22:01:04Z</time>
      </trkpt>
      <trkpt lat="42.97975" lon="-0.16808">
        <ele>842</ele>
        <time>2021-08-20T22:01:22Z</time>
      </trkpt>
      <trkpt lat="42.97979" lon="-0.16777">
        <ele>841</ele>
        <time>2021-08-20T22:01:26Z</time>
      </trkpt>
      <trkpt lat="42.97983" lon="-0.16779">
        <ele>842</ele>
        <time>2021-08-20T22:01:27Z</time>
      </trkpt>
      <trkpt lat="42.97979" lon="-0.16777">
        <ele>841</ele>
        <time>2021-08-20T22:01:28Z</time>
      </trkpt>
      <trkpt lat="42.97973" lon="-0.16625">
        <ele>838</ele>
        <time>2021-08-20T22:01:48Z</time>
      </trkpt>
      <trkpt lat="42.97964" lon="-0.16529">
        <ele>831</ele>
        <time>2021-08-20T22:02:00Z</time>
      </trkpt>
      <trkpt lat="42.97964" lon="-0.16494">
        <ele>828</ele>
        <time>2021-08-20T22:02:05Z</time>
      </trkpt>
      <trkpt lat="42.97975" lon="-0.1636">
        <ele>825</ele>
        <time>2021-08-20T22:02:22Z</time>
      </trkpt>
      <trkpt lat="42.97959" lon="-0.16251">
        <ele>822</ele>
        <time>2021-08-20T22:02:37Z</time>
      </trkpt>
      <trkpt lat="42.97958" lon="-0.16224">
        <ele>820</ele>
        <time>2021-08-20T22:02:40Z</time>
      </trkpt>
      <trkpt lat="42.97974" lon="-0.15993">
        <ele>810</ele>
        <time>2021-08-20T22:03:10Z</time>
      </trkpt>
      <trkpt lat="42.97979" lon="-0.15957">
        <ele>808</ele>
        <time>2021-08-20T22:03:15Z</time>
      </trkpt>
      <trkpt lat="42.97996" lon="-0.15892">
        <ele>805</ele>
        <time>2021-08-20T22:03:24Z</time>
      </trkpt>
      <trkpt lat="42.98021" lon="-0.15766">
        <ele>794</ele>
        <time>2021-08-20T22:03:41Z</time>
      </trkpt>
      <trkpt lat="42.98091" lon="-0.15447">
        <ele>778</ele>
        <time>2021-08-20T22:04:25Z</time>
      </trkpt>
      <trkpt lat="42.98107" lon="-0.15412">
        <ele>776</ele>
        <time>2021-08-20T22:04:30Z</time>
      </trkpt>
      <trkpt lat="42.98156" lon="-0.15322">
        <ele>777</ele>
        <time>2021-08-20T22:04:44Z</time>
      </trkpt>
      <trkpt lat="42.98187" lon="-0.15269">
        <ele>774</ele>
        <time>2021-08-20T22:04:53Z</time>
      </trkpt>
      <trkpt lat="42.98238" lon="-0.15174">
        <ele>771</ele>
        <time>2021-08-20T22:05:09Z</time>
      </trkpt>
      <trkpt lat="42.98253" lon="-0.15131">
        <ele>770</ele>
        <time>2021-08-20T22:05:15Z</time>
      </trkpt>
      <trkpt lat="42.98281" lon="-0.15006">
        <ele>763</ele>
        <time>2021-08-20T22:05:32Z</time>
      </trkpt>
      <trkpt lat="42.98304" lon="-0.14931">
        <ele>761</ele>
        <time>2021-08-20T22:05:42Z</time>
      </trkpt>
      <trkpt lat="42.98326" lon="-0.14883">
        <ele>762</ele>
        <time>2021-08-20T22:05:50Z</time>
      </trkpt>
      <trkpt lat="42.98342" lon="-0.14841">
        <ele>763</ele>
        <time>2021-08-20T22:05:56Z</time>
      </trkpt>
      <trkpt lat="42.98349" lon="-0.14807">
        <ele>763</ele>
        <time>2021-08-20T22:06:01Z</time>
      </trkpt>
      <trkpt lat="42.98353" lon="-0.14777">
        <ele>762</ele>
        <time>2021-08-20T22:06:05Z</time>
      </trkpt>
      <trkpt lat="42.98364" lon="-0.14651">
        <ele>759</ele>
        <time>2021-08-20T22:06:21Z</time>
      </trkpt>
      <trkpt lat="42.98368" lon="-0.14625">
        <ele>759</ele>
        <time>2021-08-20T22:06:25Z</time>
      </trkpt>
      <trkpt lat="42.98373" lon="-0.14607">
        <ele>759</ele>
        <time>2021-08-20T22:06:27Z</time>
      </trkpt>
      <trkpt lat="42.98392" lon="-0.14575">
        <ele>763</ele>
        <time>2021-08-20T22:06:32Z</time>
      </trkpt>
      <trkpt lat="42.98507" lon="-0.14413">
        <ele>758</ele>
        <time>2021-08-20T22:07:02Z</time>
      </trkpt>
      <trkpt lat="42.98521" lon="-0.14389">
        <ele>758</ele>
        <time>2021-08-20T22:07:06Z</time>
      </trkpt>
      <trkpt lat="42.98532" lon="-0.14363">
        <ele>758</ele>
        <time>2021-08-20T22:07:10Z</time>
      </trkpt>
      <trkpt lat="42.9854" lon="-0.1434">
        <ele>757</ele>
        <time>2021-08-20T22:07:13Z</time>
      </trkpt>
      <trkpt lat="42.98551" lon="-0.14292">
        <ele>754</ele>
        <time>2021-08-20T22:07:20Z</time>
      </trkpt>
      <trkpt lat="42.98569" lon="-0.14227">
        <ele>750</ele>
        <time>2021-08-20T22:07:29Z</time>
      </trkpt>
      <trkpt lat="42.98637" lon="-0.14065">
        <ele>747</ele>
        <time>2021-08-20T22:07:53Z</time>
      </trkpt>
      <trkpt lat="42.98671" lon="-0.13964">
        <ele>738</ele>
        <time>2021-08-20T22:08:07Z</time>
      </trkpt>
      <trkpt lat="42.98771" lon="-0.13726">
        <ele>736</ele>
        <time>2021-08-20T22:08:43Z</time>
      </trkpt>
      <trkpt lat="42.988" lon="-0.13646">
        <ele>732</ele>
        <time>2021-08-20T22:08:55Z</time>
      </trkpt>
      <trkpt lat="42.98824" lon="-0.1355">
        <ele>729</ele>
        <time>2021-08-20T22:09:08Z</time>
      </trkpt>
      <trkpt lat="42.9884" lon="-0.13507">
        <ele>730</ele>
        <time>2021-08-20T22:09:14Z</time>
      </trkpt>
      <trkpt lat="42.98875" lon="-0.13445">
        <ele>728</ele>
        <time>2021-08-20T22:09:24Z</time>
      </trkpt>
      <trkpt lat="42.98913" lon="-0.13345">
        <ele>726</ele>
        <time>2021-08-20T22:09:39Z</time>
      </trkpt>
      <trkpt lat="42.98926" lon="-0.13321">
        <ele>725</ele>
        <time>2021-08-20T22:09:43Z</time>
      </trkpt>
      <trkpt lat="42.98978" lon="-0.1326">
        <ele>725</ele>
        <time>2021-08-20T22:09:55Z</time>
      </trkpt>
      <trkpt lat="42.98986" lon="-0.13248">
        <ele>725</ele>
        <time>2021-08-20T22:09:57Z</time>
      </trkpt>
      <trkpt lat="42.98991" lon="-0.13238">
        <ele>724</ele>
        <time>2021-08-20T22:09:59Z</time>
      </trkpt>
      <trkpt lat="42.98998" lon="-0.13216">
        <ele>723</ele>
        <time>2021-08-20T22:10:02Z</time>
      </trkpt>
      <trkpt lat="42.99007" lon="-0.13165">
        <ele>718</ele>
        <time>2021-08-20T22:10:09Z</time>
      </trkpt>
      <trkpt lat="42.99014" lon="-0.13152">
        <ele>718</ele>
        <time>2021-08-20T22:10:11Z</time>
      </trkpt>
      <trkpt lat="42.99026" lon="-0.13134">
        <ele>717</ele>
        <time>2021-08-20T22:10:14Z</time>
      </trkpt>
      <trkpt lat="42.99101" lon="-0.13052">
        <ele>716</ele>
        <time>2021-08-20T22:10:31Z</time>
      </trkpt>
      <trkpt lat="42.99165" lon="-0.12957">
        <ele>714</ele>
        <time>2021-08-20T22:10:48Z</time>
      </trkpt>
      <trkpt lat="42.99171" lon="-0.12944">
        <ele>713</ele>
        <time>2021-08-20T22:10:50Z</time>
      </trkpt>
      <trkpt lat="42.99175" lon="-0.12927">
        <ele>712</ele>
        <time>2021-08-20T22:10:52Z</time>
      </trkpt>
      <trkpt lat="42.99199" lon="-0.12811">
        <ele>702</ele>
        <time>2021-08-20T22:11:08Z</time>
      </trkpt>
      <trkpt lat="42.99214" lon="-0.12775">
        <ele>700</ele>
        <time>2021-08-20T22:11:13Z</time>
      </trkpt>
      <trkpt lat="42.99242" lon="-0.12726">
        <ele>697</ele>
        <time>2021-08-20T22:11:21Z</time>
      </trkpt>
      <trkpt lat="42.9926" lon="-0.12673">
        <ele>696</ele>
        <time>2021-08-20T22:11:29Z</time>
      </trkpt>
      <trkpt lat="42.99281" lon="-0.12565">
        <ele>691</ele>
        <time>2021-08-20T22:11:44Z</time>
      </trkpt>
      <trkpt lat="42.99287" lon="-0.1255">
        <ele>689</ele>
        <time>2021-08-20T22:11:46Z</time>
      </trkpt>
      <trkpt lat="42.99291" lon="-0.12543">
        <ele>689</ele>
        <time>2021-08-20T22:11:47Z</time>
      </trkpt>
      <trkpt lat="42.99364" lon="-0.12439">
        <ele>680</ele>
        <time>2021-08-20T22:12:06Z</time>
      </trkpt>
      <trkpt lat="42.99377" lon="-0.12425">
        <ele>678</ele>
        <time>2021-08-20T22:12:09Z</time>
      </trkpt>
      <trkpt lat="42.99408" lon="-0.1241">
        <ele>677</ele>
        <time>2021-08-20T22:12:15Z</time>
      </trkpt>
      <trkpt lat="42.99428" lon="-0.1239">
        <ele>676</ele>
        <time>2021-08-20T22:12:19Z</time>
      </trkpt>
      <trkpt lat="42.99447" lon="-0.12359">
        <ele>676</ele>
        <time>2021-08-20T22:12:24Z</time>
      </trkpt>
      <trkpt lat="42.9946" lon="-0.1233">
        <ele>675</ele>
        <time>2021-08-20T22:12:29Z</time>
      </trkpt>
      <trkpt lat="42.99475" lon="-0.12292">
        <ele>673</ele>
        <time>2021-08-20T22:12:34Z</time>
      </trkpt>
      <trkpt lat="42.99511" lon="-0.12147">
        <ele>659</ele>
        <time>2021-08-20T22:12:54Z</time>
      </trkpt>
      <trkpt lat="42.99512" lon="-0.12123">
        <ele>657</ele>
        <time>2021-08-20T22:12:57Z</time>
      </trkpt>
      <trkpt lat="42.9951" lon="-0.12099">
        <ele>655</ele>
        <time>2021-08-20T22:13:00Z</time>
      </trkpt>
      <trkpt lat="42.99484" lon="-0.12024">
        <ele>645</ele>
        <time>2021-08-20T22:13:11Z</time>
      </trkpt>
      <trkpt lat="42.99483" lon="-0.12003">
        <ele>643</ele>
        <time>2021-08-20T22:13:14Z</time>
      </trkpt>
      <trkpt lat="42.99501" lon="-0.11859">
        <ele>634</ele>
        <time>2021-08-20T22:13:33Z</time>
      </trkpt>
      <trkpt lat="42.99506" lon="-0.11843">
        <ele>633</ele>
        <time>2021-08-20T22:13:35Z</time>
      </trkpt>
      <trkpt lat="42.99532" lon="-0.11787">
        <ele>627</ele>
        <time>2021-08-20T22:13:44Z</time>
      </trkpt>
      <trkpt lat="42.99541" lon="-0.11776">
        <ele>627</ele>
        <time>2021-08-20T22:13:46Z</time>
      </trkpt>
      <trkpt lat="42.99547" lon="-0.1177">
        <ele>626</ele>
        <time>2021-08-20T22:13:47Z</time>
      </trkpt>
      <trkpt lat="42.9956" lon="-0.11765">
        <ele>627</ele>
        <time>2021-08-20T22:13:50Z</time>
      </trkpt>
      <trkpt lat="42.99614" lon="-0.1176">
        <ele>628</ele>
        <time>2021-08-20T22:13:59Z</time>
      </trkpt>
      <trkpt lat="42.99683" lon="-0.11742">
        <ele>622</ele>
        <time>2021-08-20T22:14:12Z</time>
      </trkpt>
      <trkpt lat="42.9973" lon="-0.11727">
        <ele>617</ele>
        <time>2021-08-20T22:14:21Z</time>
      </trkpt>
      <trkpt lat="42.99749" lon="-0.11717">
        <ele>615</ele>
        <time>2021-08-20T22:14:24Z</time>
      </trkpt>
      <trkpt lat="42.99775" lon="-0.11697">
        <ele>615</ele>
        <time>2021-08-20T22:14:29Z</time>
      </trkpt>
      <trkpt lat="42.99795" lon="-0.11672">
        <ele>614</ele>
        <time>2021-08-20T22:14:34Z</time>
      </trkpt>
      <trkpt lat="42.99818" lon="-0.11633">
        <ele>611</ele>
        <time>2021-08-20T22:14:41Z</time>
      </trkpt>
      <trkpt lat="42.99836" lon="-0.11591">
        <ele>607</ele>
        <time>2021-08-20T22:14:47Z</time>
      </trkpt>
      <trkpt lat="42.99842" lon="-0.11571">
        <ele>606</ele>
        <time>2021-08-20T22:14:50Z</time>
      </trkpt>
      <trkpt lat="42.99845" lon="-0.11553">
        <ele>604</ele>
        <time>2021-08-20T22:14:52Z</time>
      </trkpt>
      <trkpt lat="42.99844" lon="-0.11495">
        <ele>594</ele>
        <time>2021-08-20T22:15:00Z</time>
      </trkpt>
      <trkpt lat="42.99857" lon="-0.11443">
        <ele>595</ele>
        <time>2021-08-20T22:15:07Z</time>
      </trkpt>
      <trkpt lat="42.99862" lon="-0.1141">
        <ele>594</ele>
        <time>2021-08-20T22:15:11Z</time>
      </trkpt>
      <trkpt lat="42.99861" lon="-0.11339">
        <ele>587</ele>
        <time>2021-08-20T22:15:21Z</time>
      </trkpt>
      <trkpt lat="42.99869" lon="-0.11308">
        <ele>586</ele>
        <time>2021-08-20T22:15:25Z</time>
      </trkpt>
      <trkpt lat="42.99882" lon="-0.11281">
        <ele>587</ele>
        <time>2021-08-20T22:15:29Z</time>
      </trkpt>
      <trkpt lat="42.99921" lon="-0.11219">
        <ele>592</ele>
        <time>2021-08-20T22:15:40Z</time>
      </trkpt>
      <trkpt lat="42.99926" lon="-0.11207">
        <ele>592</ele>
        <time>2021-08-20T22:15:42Z</time>
      </trkpt>
      <trkpt lat="42.99928" lon="-0.11198">
        <ele>592</ele>
        <time>2021-08-20T22:15:43Z</time>
      </trkpt>
      <trkpt lat="42.99928" lon="-0.11182">
        <ele>589</ele>
        <time>2021-08-20T22:15:45Z</time>
      </trkpt>
      <trkpt lat="42.99925" lon="-0.11171">
        <ele>585</ele>
        <time>2021-08-20T22:15:46Z</time>
      </trkpt>
      <trkpt lat="42.99911" lon="-0.11145">
        <ele>573</ele>
        <time>2021-08-20T22:15:51Z</time>
      </trkpt>
      <trkpt lat="42.99908" lon="-0.11128">
        <ele>569</ele>
        <time>2021-08-20T22:15:53Z</time>
      </trkpt>
      <trkpt lat="42.99908" lon="-0.11109">
        <ele>565</ele>
        <time>2021-08-20T22:15:55Z</time>
      </trkpt>
      <trkpt lat="42.99914" lon="-0.11052">
        <ele>559</ele>
        <time>2021-08-20T22:16:03Z</time>
      </trkpt>
      <trkpt lat="42.99918" lon="-0.10929">
        <ele>550</ele>
        <time>2021-08-20T22:16:19Z</time>
      </trkpt>
      <trkpt lat="42.99923" lon="-0.10895">
        <ele>546</ele>
        <time>2021-08-20T22:16:23Z</time>
      </trkpt>
      <trkpt lat="42.99931" lon="-0.10882">
        <ele>545</ele>
        <time>2021-08-20T22:16:26Z</time>
      </trkpt>
      <trkpt lat="42.99939" lon="-0.10873">
        <ele>544</ele>
        <time>2021-08-20T22:16:27Z</time>
      </trkpt>
      <trkpt lat="42.99949" lon="-0.10868">
        <ele>544</ele>
        <time>2021-08-20T22:16:29Z</time>
      </trkpt>
      <trkpt lat="42.9996" lon="-0.10865">
        <ele>545</ele>
        <time>2021-08-20T22:16:31Z</time>
      </trkpt>
      <trkpt lat="42.99997" lon="-0.10874">
        <ele>552</ele>
        <time>2021-08-20T22:16:38Z</time>
      </trkpt>
      <trkpt lat="43.00015" lon="-0.10874">
        <ele>554</ele>
        <time>2021-08-20T22:16:41Z</time>
      </trkpt>
      <trkpt lat="43.00029" lon="-0.10869">
        <ele>554</ele>
        <time>2021-08-20T22:16:44Z</time>
      </trkpt>
      <trkpt lat="43.00084" lon="-0.10836">
        <ele>548</ele>
        <time>2021-08-20T22:16:54Z</time>
      </trkpt>
      <trkpt lat="43.00112" lon="-0.10816">
        <ele>546</ele>
        <time>2021-08-20T22:17:00Z</time>
      </trkpt>
      <trkpt lat="43.00136" lon="-0.10794">
        <ele>543</ele>
        <time>2021-08-20T22:17:05Z</time>
      </trkpt>
      <trkpt lat="43.00164" lon="-0.10763">
        <ele>537</ele>
        <time>2021-08-20T22:17:12Z</time>
      </trkpt>
      <trkpt lat="43.00274" lon="-0.10672">
        <ele>524</ele>
        <time>2021-08-20T22:17:35Z</time>
      </trkpt>
      <trkpt lat="43.00301" lon="-0.10634">
        <ele>518</ele>
        <time>2021-08-20T22:17:41Z</time>
      </trkpt>
      <trkpt lat="43.00319" lon="-0.10613">
        <ele>516</ele>
        <time>2021-08-20T22:17:46Z</time>
      </trkpt>
      <trkpt lat="43.00336" lon="-0.10595">
        <ele>514</ele>
        <time>2021-08-20T22:17:49Z</time>
      </trkpt>
      <trkpt lat="43.00359" lon="-0.10578">
        <ele>513</ele>
        <time>2021-08-20T22:17:54Z</time>
      </trkpt>
      <trkpt lat="43.00374" lon="-0.10562">
        <ele>512</ele>
        <time>2021-08-20T22:17:57Z</time>
      </trkpt>
      <trkpt lat="43.00409" lon="-0.10495">
        <ele>502</ele>
        <time>2021-08-20T22:18:08Z</time>
      </trkpt>
      <trkpt lat="43.0043" lon="-0.10463">
        <ele>499</ele>
        <time>2021-08-20T22:18:14Z</time>
      </trkpt>
      <trkpt lat="43.00472" lon="-0.10422">
        <ele>495</ele>
        <time>2021-08-20T22:18:23Z</time>
      </trkpt>
      <trkpt lat="43.00477" lon="-0.10414">
        <ele>494</ele>
        <time>2021-08-20T22:18:24Z</time>
      </trkpt>
      <trkpt lat="43.0048" lon="-0.10407">
        <ele>494</ele>
        <time>2021-08-20T22:18:25Z</time>
      </trkpt>
      <trkpt lat="43.00484" lon="-0.10384">
        <ele>491</ele>
        <time>2021-08-20T22:18:28Z</time>
      </trkpt>
      <trkpt lat="43.00491" lon="-0.10325">
        <ele>484</ele>
        <time>2021-08-20T22:18:36Z</time>
      </trkpt>
      <trkpt lat="43.00493" lon="-0.10315">
        <ele>483</ele>
        <time>2021-08-20T22:18:38Z</time>
      </trkpt>
      <trkpt lat="43.00532" lon="-0.10253">
        <ele>478</ele>
        <time>2021-08-20T22:18:48Z</time>
      </trkpt>
      <trkpt lat="43.0055" lon="-0.10213">
        <ele>476</ele>
        <time>2021-08-20T22:18:54Z</time>
      </trkpt>
      <trkpt lat="43.00581" lon="-0.10182">
        <ele>475</ele>
        <time>2021-08-20T22:19:01Z</time>
      </trkpt>
      <trkpt lat="43.00597" lon="-0.10172">
        <ele>474</ele>
        <time>2021-08-20T22:19:04Z</time>
      </trkpt>
      <trkpt lat="43.00612" lon="-0.10165">
        <ele>473</ele>
        <time>2021-08-20T22:19:07Z</time>
      </trkpt>
      <trkpt lat="43.00654" lon="-0.10165">
        <ele>474</ele>
        <time>2021-08-20T22:19:15Z</time>
      </trkpt>
      <trkpt lat="43.00694" lon="-0.10156">
        <ele>473</ele>
        <time>2021-08-20T22:19:22Z</time>
      </trkpt>
      <trkpt lat="43.00704" lon="-0.10149">
        <ele>472</ele>
        <time>2021-08-20T22:19:24Z</time>
      </trkpt>
      <trkpt lat="43.00709" lon="-0.10139">
        <ele>471</ele>
        <time>2021-08-20T22:19:25Z</time>
      </trkpt>
      <trkpt lat="43.00708" lon="-0.10119">
        <ele>468</ele>
        <time>2021-08-20T22:19:28Z</time>
      </trkpt>
      <trkpt lat="43.00701" lon="-0.10115">
        <ele>468</ele>
        <time>2021-08-20T22:19:29Z</time>
      </trkpt>
      <trkpt lat="43.00684" lon="-0.10115">
        <ele>468</ele>
        <time>2021-08-20T22:19:32Z</time>
      </trkpt>
      <trkpt lat="43.00675" lon="-0.10109">
        <ele>467</ele>
        <time>2021-08-20T22:19:34Z</time>
      </trkpt>
      <trkpt lat="43.00673" lon="-0.10052">
        <ele>462</ele>
        <time>2021-08-20T22:19:42Z</time>
      </trkpt>
      <trkpt lat="43.00675" lon="-0.10043">
        <ele>462</ele>
        <time>2021-08-20T22:19:43Z</time>
      </trkpt>
      <trkpt lat="43.00683" lon="-0.10031">
        <ele>461</ele>
        <time>2021-08-20T22:19:45Z</time>
      </trkpt>
      <trkpt lat="43.00679" lon="-0.10009">
        <ele>460</ele>
        <time>2021-08-20T22:19:48Z</time>
      </trkpt>
      <trkpt lat="43.00751" lon="-0.09985">
        <ele>459</ele>
        <time>2021-08-20T22:20:01Z</time>
      </trkpt>
      <trkpt lat="43.00707" lon="-0.09949">
        <ele>453</ele>
        <time>2021-08-20T22:20:10Z</time>
      </trkpt>
      <trkpt lat="43.00673" lon="-0.09925">
        <ele>448</ele>
        <time>2021-08-20T22:20:17Z</time>
      </trkpt>
      <trkpt lat="43.00671" lon="-0.09918">
        <ele>447</ele>
        <time>2021-08-20T22:20:18Z</time>
      </trkpt>
      <trkpt lat="43.00676" lon="-0.09903">
        <ele>447</ele>
        <time>2021-08-20T22:20:20Z</time>
      </trkpt>
      <trkpt lat="43.00685" lon="-0.09864">
        <ele>444</ele>
        <time>2021-08-20T22:20:25Z</time>
      </trkpt>
      <trkpt lat="43.00682" lon="-0.09863">
        <ele>444</ele>
        <time>2021-08-20T22:20:26Z</time>
      </trkpt>
      <trkpt lat="43.00681" lon="-0.0986">
        <ele>444</ele>
        <time>2021-08-20T22:20:26Z</time>
      </trkpt>
      <trkpt lat="43.0068" lon="-0.09857">
        <ele>444</ele>
        <time>2021-08-20T22:20:27Z</time>
      </trkpt>
      <trkpt lat="43.0068" lon="-0.09853">
        <ele>444</ele>
        <time>2021-08-20T22:20:27Z</time>
      </trkpt>
      <trkpt lat="43.00684" lon="-0.09847">
        <ele>443</ele>
        <time>2021-08-20T22:20:28Z</time>
      </trkpt>
      <trkpt lat="43.00687" lon="-0.09846">
        <ele>443</ele>
        <time>2021-08-20T22:20:29Z</time>
      </trkpt>
      <trkpt lat="43.0069" lon="-0.09847">
        <ele>443</ele>
        <time>2021-08-20T22:20:30Z</time>
      </trkpt>
      <trkpt lat="43.00692" lon="-0.0985">
        <ele>443</ele>
        <time>2021-08-20T22:20:30Z</time>
      </trkpt>
      <trkpt lat="43.00693" lon="-0.09854">
        <ele>444</ele>
        <time>2021-08-20T22:20:31Z</time>
      </trkpt>
      <trkpt lat="43.00703" lon="-0.09852">
        <ele>443</ele>
        <time>2021-08-20T22:20:32Z</time>
      </trkpt>
      <trkpt lat="43.00709" lon="-0.09852">
        <ele>443</ele>
        <time>2021-08-20T22:20:33Z</time>
      </trkpt>
      <trkpt lat="43.00734" lon="-0.09849">
        <ele>442</ele>
        <time>2021-08-20T22:20:38Z</time>
      </trkpt>
      <trkpt lat="43.0075" lon="-0.09846">
        <ele>442</ele>
        <time>2021-08-20T22:20:41Z</time>
      </trkpt>
      <trkpt lat="43.00759" lon="-0.09844">
        <ele>441</ele>
        <time>2021-08-20T22:20:42Z</time>
      </trkpt>
      <trkpt lat="43.00784" lon="-0.09842">
        <ele>442</ele>
        <time>2021-08-20T22:20:47Z</time>
      </trkpt>
      <trkpt lat="43.00871" lon="-0.0983">
        <ele>442</ele>
        <time>2021-08-20T22:21:02Z</time>
      </trkpt>
      <trkpt lat="43.00874" lon="-0.09829">
        <ele>442</ele>
        <time>2021-08-20T22:21:03Z</time>
      </trkpt>
      <trkpt lat="43.01053" lon="-0.09821">
        <ele>437</ele>
        <time>2021-08-20T22:21:35Z</time>
      </trkpt>
      <trkpt lat="43.0112" lon="-0.09815">
        <ele>435</ele>
        <time>2021-08-20T22:21:47Z</time>
      </trkpt>
      <trkpt lat="43.01133" lon="-0.09808">
        <ele>434</ele>
        <time>2021-08-20T22:21:49Z</time>
      </trkpt>
      <trkpt lat="43.0114" lon="-0.09801">
        <ele>433</ele>
        <time>2021-08-20T22:21:51Z</time>
      </trkpt>
      <trkpt lat="43.01142" lon="-0.09796">
        <ele>433</ele>
        <time>2021-08-20T22:21:52Z</time>
      </trkpt>
      <trkpt lat="43.01147" lon="-0.09781">
        <ele>431</ele>
        <time>2021-08-20T22:21:54Z</time>
      </trkpt>
      <trkpt lat="43.01152" lon="-0.0977">
        <ele>430</ele>
        <time>2021-08-20T22:21:55Z</time>
      </trkpt>
      <trkpt lat="43.01158" lon="-0.0976">
        <ele>428</ele>
        <time>2021-08-20T22:21:57Z</time>
      </trkpt>
      <trkpt lat="43.01172" lon="-0.09746">
        <ele>427</ele>
        <time>2021-08-20T22:22:00Z</time>
      </trkpt>
      <trkpt lat="43.0117" lon="-0.09741">
        <ele>427</ele>
        <time>2021-08-20T22:22:01Z</time>
      </trkpt>
      <trkpt lat="43.01169" lon="-0.09729">
        <ele>427</ele>
        <time>2021-08-20T22:22:02Z</time>
      </trkpt>
      <trkpt lat="43.0117" lon="-0.09723">
        <ele>427</ele>
        <time>2021-08-20T22:22:03Z</time>
      </trkpt>
      <trkpt lat="43.01173" lon="-0.09718">
        <ele>427</ele>
        <time>2021-08-20T22:22:04Z</time>
      </trkpt>
      <trkpt lat="43.01181" lon="-0.09713">
        <ele>427</ele>
        <time>2021-08-20T22:22:06Z</time>
      </trkpt>
      <trkpt lat="43.01186" lon="-0.09713">
        <ele>427</ele>
        <time>2021-08-20T22:22:07Z</time>
      </trkpt>
      <trkpt lat="43.0119" lon="-0.09715">
        <ele>427</ele>
        <time>2021-08-20T22:22:07Z</time>
      </trkpt>
      <trkpt lat="43.01196" lon="-0.09723">
        <ele>427</ele>
        <time>2021-08-20T22:22:09Z</time>
      </trkpt>
      <trkpt lat="43.01198" lon="-0.09729">
        <ele>427</ele>
        <time>2021-08-20T22:22:10Z</time>
      </trkpt>
      <trkpt lat="43.01203" lon="-0.09724">
        <ele>427</ele>
        <time>2021-08-20T22:22:11Z</time>
      </trkpt>
    </trkseg>
  </trk>
</gpx>